<?xml version="1.0" encoding="UTF-8" standalone="no" ?>
<gpx xmlns="http://www.topografix.com/GPX/1/1" xmlns:xsi="http://www.w3.org/2001/XMLSchema-instance" xsi:schemaLocation="http://www.topografix.com/GPX/1/1 http://www.topografix.com/GPX/1/1/gpx.xsd" version="1.1" creator="VisuGPX - https://www.visugpx.com">
  <metadata>
    <name>Bourg-Saint-Maurice Cyclisme</name>
  </metadata>
  <trk>
    <name><![CDATA[Bourg-Saint-Maurice Cyclisme]]></name>
    <trkseg>
      <trkpt lat="45.61336" lon="6.76674">
        <ele>841.40002441406</ele>
        <time>2020-06-28T06:32:17.000Z</time>
      </trkpt>
      <trkpt lat="45.61347" lon="6.76662">
        <ele>842.40002441406</ele>
        <time>2020-06-28T06:32:22.000Z</time>
      </trkpt>
      <trkpt lat="45.61355" lon="6.76658">
        <ele>843.59997558594</ele>
        <time>2020-06-28T06:32:26.000Z</time>
      </trkpt>
      <trkpt lat="45.6136" lon="6.76657">
        <ele>844.40002441406</ele>
        <time>2020-06-28T06:32:28.000Z</time>
      </trkpt>
      <trkpt lat="45.61365" lon="6.76656">
        <ele>844.79998779297</ele>
        <time>2020-06-28T06:32:30.000Z</time>
      </trkpt>
      <trkpt lat="45.61377" lon="6.76651">
        <ele>845</ele>
        <time>2020-06-28T06:32:34.000Z</time>
      </trkpt>
      <trkpt lat="45.61392" lon="6.76646">
        <ele>845</ele>
        <time>2020-06-28T06:32:39.000Z</time>
      </trkpt>
      <trkpt lat="45.61404" lon="6.7666">
        <ele>844.59997558594</ele>
        <time>2020-06-28T06:32:43.000Z</time>
      </trkpt>
      <trkpt lat="45.61423" lon="6.76691">
        <ele>843.59997558594</ele>
        <time>2020-06-28T06:32:48.000Z</time>
      </trkpt>
      <trkpt lat="45.61427" lon="6.76699">
        <ele>843.59997558594</ele>
        <time>2020-06-28T06:32:49.000Z</time>
      </trkpt>
      <trkpt lat="45.6144" lon="6.76723">
        <ele>842.59997558594</ele>
        <time>2020-06-28T06:32:52.000Z</time>
      </trkpt>
      <trkpt lat="45.61453" lon="6.76749">
        <ele>841.59997558594</ele>
        <time>2020-06-28T06:32:55.000Z</time>
      </trkpt>
      <trkpt lat="45.61467" lon="6.76774">
        <ele>840.20001220703</ele>
        <time>2020-06-28T06:32:58.000Z</time>
      </trkpt>
      <trkpt lat="45.61476" lon="6.76792">
        <ele>839.20001220703</ele>
        <time>2020-06-28T06:33:00.000Z</time>
      </trkpt>
      <trkpt lat="45.61481" lon="6.768">
        <ele>838.59997558594</ele>
        <time>2020-06-28T06:33:01.000Z</time>
      </trkpt>
      <trkpt lat="45.61485" lon="6.76809">
        <ele>838</ele>
        <time>2020-06-28T06:33:02.000Z</time>
      </trkpt>
      <trkpt lat="45.615" lon="6.76837">
        <ele>837</ele>
        <time>2020-06-28T06:33:05.000Z</time>
      </trkpt>
      <trkpt lat="45.61509" lon="6.76854">
        <ele>835.59997558594</ele>
        <time>2020-06-28T06:33:07.000Z</time>
      </trkpt>
      <trkpt lat="45.61518" lon="6.76872">
        <ele>834.59997558594</ele>
        <time>2020-06-28T06:33:09.000Z</time>
      </trkpt>
      <trkpt lat="45.61526" lon="6.76888">
        <ele>832.79998779297</ele>
        <time>2020-06-28T06:33:11.000Z</time>
      </trkpt>
      <trkpt lat="45.61534" lon="6.76904">
        <ele>832.20001220703</ele>
        <time>2020-06-28T06:33:13.000Z</time>
      </trkpt>
      <trkpt lat="45.61538" lon="6.76912">
        <ele>832</ele>
        <time>2020-06-28T06:33:14.000Z</time>
      </trkpt>
      <trkpt lat="45.61552" lon="6.76935">
        <ele>830.79998779297</ele>
        <time>2020-06-28T06:33:17.000Z</time>
      </trkpt>
      <trkpt lat="45.61557" lon="6.76943">
        <ele>830.20001220703</ele>
        <time>2020-06-28T06:33:18.000Z</time>
      </trkpt>
      <trkpt lat="45.61567" lon="6.76957">
        <ele>829.59997558594</ele>
        <time>2020-06-28T06:33:20.000Z</time>
      </trkpt>
      <trkpt lat="45.61578" lon="6.76969">
        <ele>828.20001220703</ele>
        <time>2020-06-28T06:33:22.000Z</time>
      </trkpt>
      <trkpt lat="45.61584" lon="6.76974">
        <ele>827.79998779297</ele>
        <time>2020-06-28T06:33:23.000Z</time>
      </trkpt>
      <trkpt lat="45.61596" lon="6.76986">
        <ele>827</ele>
        <time>2020-06-28T06:33:25.000Z</time>
      </trkpt>
      <trkpt lat="45.61623" lon="6.77007">
        <ele>826</ele>
        <time>2020-06-28T06:33:29.000Z</time>
      </trkpt>
      <trkpt lat="45.6163" lon="6.77011">
        <ele>825.59997558594</ele>
        <time>2020-06-28T06:33:30.000Z</time>
      </trkpt>
      <trkpt lat="45.61654" lon="6.77022">
        <ele>824.20001220703</ele>
        <time>2020-06-28T06:33:33.000Z</time>
      </trkpt>
      <trkpt lat="45.6167" lon="6.77029">
        <ele>823</ele>
        <time>2020-06-28T06:33:35.000Z</time>
      </trkpt>
      <trkpt lat="45.61703" lon="6.77043">
        <ele>821.79998779297</ele>
        <time>2020-06-28T06:33:39.000Z</time>
      </trkpt>
      <trkpt lat="45.61711" lon="6.77046">
        <ele>821.20001220703</ele>
        <time>2020-06-28T06:33:40.000Z</time>
      </trkpt>
      <trkpt lat="45.61719" lon="6.7705">
        <ele>820.79998779297</ele>
        <time>2020-06-28T06:33:41.000Z</time>
      </trkpt>
      <trkpt lat="45.61734" lon="6.77056">
        <ele>819.59997558594</ele>
        <time>2020-06-28T06:33:43.000Z</time>
      </trkpt>
      <trkpt lat="45.61758" lon="6.77067">
        <ele>818.40002441406</ele>
        <time>2020-06-28T06:33:46.000Z</time>
      </trkpt>
      <trkpt lat="45.61773" lon="6.77073">
        <ele>817.79998779297</ele>
        <time>2020-06-28T06:33:48.000Z</time>
      </trkpt>
      <trkpt lat="45.61781" lon="6.77077">
        <ele>817</ele>
        <time>2020-06-28T06:33:49.000Z</time>
      </trkpt>
      <trkpt lat="45.61797" lon="6.77084">
        <ele>816</ele>
        <time>2020-06-28T06:33:51.000Z</time>
      </trkpt>
      <trkpt lat="45.61812" lon="6.77089">
        <ele>815.59997558594</ele>
        <time>2020-06-28T06:33:53.000Z</time>
      </trkpt>
      <trkpt lat="45.61833" lon="6.77095">
        <ele>814.59997558594</ele>
        <time>2020-06-28T06:33:57.000Z</time>
      </trkpt>
      <trkpt lat="45.61841" lon="6.77098">
        <ele>814.20001220703</ele>
        <time>2020-06-28T06:33:59.000Z</time>
      </trkpt>
      <trkpt lat="45.61854" lon="6.77103">
        <ele>813.79998779297</ele>
        <time>2020-06-28T06:34:02.000Z</time>
      </trkpt>
      <trkpt lat="45.61863" lon="6.77101">
        <ele>813.59997558594</ele>
        <time>2020-06-28T06:34:04.000Z</time>
      </trkpt>
      <trkpt lat="45.61867" lon="6.771">
        <ele>813.40002441406</ele>
        <time>2020-06-28T06:34:05.000Z</time>
      </trkpt>
      <trkpt lat="45.61877" lon="6.771">
        <ele>813.40002441406</ele>
        <time>2020-06-28T06:34:07.000Z</time>
      </trkpt>
      <trkpt lat="45.61906" lon="6.77099">
        <ele>812.79998779297</ele>
        <time>2020-06-28T06:34:13.000Z</time>
      </trkpt>
      <trkpt lat="45.61946" lon="6.771">
        <ele>812.59997558594</ele>
        <time>2020-06-28T06:34:21.000Z</time>
      </trkpt>
      <trkpt lat="45.61989" lon="6.77103">
        <ele>813</ele>
        <time>2020-06-28T06:34:31.000Z</time>
      </trkpt>
      <trkpt lat="45.6201" lon="6.77108">
        <ele>813.59997558594</ele>
        <time>2020-06-28T06:34:36.000Z</time>
      </trkpt>
      <trkpt lat="45.62018" lon="6.77114">
        <ele>813.59997558594</ele>
        <time>2020-06-28T06:34:38.000Z</time>
      </trkpt>
      <trkpt lat="45.62033" lon="6.7713">
        <ele>813.59997558594</ele>
        <time>2020-06-28T06:34:42.000Z</time>
      </trkpt>
      <trkpt lat="45.62045" lon="6.77122">
        <ele>813.59997558594</ele>
        <time>2020-06-28T06:34:45.000Z</time>
      </trkpt>
      <trkpt lat="45.62048" lon="6.77117">
        <ele>813.59997558594</ele>
        <time>2020-06-28T06:34:46.000Z</time>
      </trkpt>
      <trkpt lat="45.62055" lon="6.77107">
        <ele>813.40002441406</ele>
        <time>2020-06-28T06:34:48.000Z</time>
      </trkpt>
      <trkpt lat="45.62066" lon="6.77097">
        <ele>813.40002441406</ele>
        <time>2020-06-28T06:34:51.000Z</time>
      </trkpt>
      <trkpt lat="45.62078" lon="6.77095">
        <ele>813.40002441406</ele>
        <time>2020-06-28T06:34:54.000Z</time>
      </trkpt>
      <trkpt lat="45.62086" lon="6.77095">
        <ele>813.40002441406</ele>
        <time>2020-06-28T06:34:56.000Z</time>
      </trkpt>
      <trkpt lat="45.62106" lon="6.77094">
        <ele>814.79998779297</ele>
        <time>2020-06-28T06:35:01.000Z</time>
      </trkpt>
      <trkpt lat="45.62118" lon="6.77094">
        <ele>815</ele>
        <time>2020-06-28T06:35:04.000Z</time>
      </trkpt>
      <trkpt lat="45.62149" lon="6.77092">
        <ele>815.59997558594</ele>
        <time>2020-06-28T06:35:12.000Z</time>
      </trkpt>
      <trkpt lat="45.62161" lon="6.77091">
        <ele>815.79998779297</ele>
        <time>2020-06-28T06:35:15.000Z</time>
      </trkpt>
      <trkpt lat="45.62169" lon="6.77091">
        <ele>816</ele>
        <time>2020-06-28T06:35:17.000Z</time>
      </trkpt>
      <trkpt lat="45.62173" lon="6.77091">
        <ele>816.40002441406</ele>
        <time>2020-06-28T06:35:18.000Z</time>
      </trkpt>
      <trkpt lat="45.62189" lon="6.77089">
        <ele>816.79998779297</ele>
        <time>2020-06-28T06:35:22.000Z</time>
      </trkpt>
      <trkpt lat="45.62197" lon="6.77089">
        <ele>817</ele>
        <time>2020-06-28T06:35:24.000Z</time>
      </trkpt>
      <trkpt lat="45.62212" lon="6.7709">
        <ele>817.59997558594</ele>
        <time>2020-06-28T06:35:28.000Z</time>
      </trkpt>
      <trkpt lat="45.62215" lon="6.77091">
        <ele>817.79998779297</ele>
        <time>2020-06-28T06:35:29.000Z</time>
      </trkpt>
      <trkpt lat="45.62222" lon="6.77092">
        <ele>818.20001220703</ele>
        <time>2020-06-28T06:35:31.000Z</time>
      </trkpt>
      <trkpt lat="45.62237" lon="6.77095">
        <ele>819</ele>
        <time>2020-06-28T06:35:36.000Z</time>
      </trkpt>
      <trkpt lat="45.62243" lon="6.77097">
        <ele>819.20001220703</ele>
        <time>2020-06-28T06:35:38.000Z</time>
      </trkpt>
      <trkpt lat="45.62259" lon="6.77105">
        <ele>820.20001220703</ele>
        <time>2020-06-28T06:35:43.000Z</time>
      </trkpt>
      <trkpt lat="45.62265" lon="6.77108">
        <ele>820.40002441406</ele>
        <time>2020-06-28T06:35:45.000Z</time>
      </trkpt>
      <trkpt lat="45.62278" lon="6.77115">
        <ele>821.20001220703</ele>
        <time>2020-06-28T06:35:49.000Z</time>
      </trkpt>
      <trkpt lat="45.62287" lon="6.77121">
        <ele>821.79998779297</ele>
        <time>2020-06-28T06:35:52.000Z</time>
      </trkpt>
      <trkpt lat="45.62293" lon="6.77125">
        <ele>822.20001220703</ele>
        <time>2020-06-28T06:35:54.000Z</time>
      </trkpt>
      <trkpt lat="45.62308" lon="6.77135">
        <ele>823.40002441406</ele>
        <time>2020-06-28T06:35:59.000Z</time>
      </trkpt>
      <trkpt lat="45.62325" lon="6.77149">
        <ele>824.40002441406</ele>
        <time>2020-06-28T06:36:05.000Z</time>
      </trkpt>
      <trkpt lat="45.62327" lon="6.77152">
        <ele>824.59997558594</ele>
        <time>2020-06-28T06:36:06.000Z</time>
      </trkpt>
      <trkpt lat="45.62338" lon="6.77169">
        <ele>825.59997558594</ele>
        <time>2020-06-28T06:36:11.000Z</time>
      </trkpt>
      <trkpt lat="45.6234" lon="6.77172">
        <ele>825.79998779297</ele>
        <time>2020-06-28T06:36:12.000Z</time>
      </trkpt>
      <trkpt lat="45.62354" lon="6.77192">
        <ele>826.79998779297</ele>
        <time>2020-06-28T06:36:18.000Z</time>
      </trkpt>
      <trkpt lat="45.62356" lon="6.77196">
        <ele>827</ele>
        <time>2020-06-28T06:36:19.000Z</time>
      </trkpt>
      <trkpt lat="45.62364" lon="6.77209">
        <ele>827.79998779297</ele>
        <time>2020-06-28T06:36:23.000Z</time>
      </trkpt>
      <trkpt lat="45.6237" lon="6.7722">
        <ele>828.79998779297</ele>
        <time>2020-06-28T06:36:26.000Z</time>
      </trkpt>
      <trkpt lat="45.62372" lon="6.77223">
        <ele>829</ele>
        <time>2020-06-28T06:36:27.000Z</time>
      </trkpt>
      <trkpt lat="45.62381" lon="6.77241">
        <ele>830</ele>
        <time>2020-06-28T06:36:32.000Z</time>
      </trkpt>
      <trkpt lat="45.62385" lon="6.77248">
        <ele>830.40002441406</ele>
        <time>2020-06-28T06:36:34.000Z</time>
      </trkpt>
      <trkpt lat="45.62395" lon="6.7727">
        <ele>831.20001220703</ele>
        <time>2020-06-28T06:36:40.000Z</time>
      </trkpt>
      <trkpt lat="45.62397" lon="6.77278">
        <ele>831.40002441406</ele>
        <time>2020-06-28T06:36:42.000Z</time>
      </trkpt>
      <trkpt lat="45.62405" lon="6.77297">
        <ele>832.20001220703</ele>
        <time>2020-06-28T06:36:47.000Z</time>
      </trkpt>
      <trkpt lat="45.62408" lon="6.77309">
        <ele>832.59997558594</ele>
        <time>2020-06-28T06:36:50.000Z</time>
      </trkpt>
      <trkpt lat="45.6241" lon="6.77313">
        <ele>833</ele>
        <time>2020-06-28T06:36:51.000Z</time>
      </trkpt>
      <trkpt lat="45.62421" lon="6.7734">
        <ele>834</ele>
        <time>2020-06-28T06:36:58.000Z</time>
      </trkpt>
      <trkpt lat="45.62424" lon="6.77347">
        <ele>834.40002441406</ele>
        <time>2020-06-28T06:37:00.000Z</time>
      </trkpt>
      <trkpt lat="45.62433" lon="6.77369">
        <ele>835.20001220703</ele>
        <time>2020-06-28T06:37:06.000Z</time>
      </trkpt>
      <trkpt lat="45.62438" lon="6.77383">
        <ele>836</ele>
        <time>2020-06-28T06:37:10.000Z</time>
      </trkpt>
      <trkpt lat="45.62441" lon="6.7739">
        <ele>836.40002441406</ele>
        <time>2020-06-28T06:37:12.000Z</time>
      </trkpt>
      <trkpt lat="45.62447" lon="6.77409">
        <ele>837.59997558594</ele>
        <time>2020-06-28T06:37:17.000Z</time>
      </trkpt>
      <trkpt lat="45.6245" lon="6.77417">
        <ele>838</ele>
        <time>2020-06-28T06:37:19.000Z</time>
      </trkpt>
      <trkpt lat="45.62453" lon="6.77428">
        <ele>838.59997558594</ele>
        <time>2020-06-28T06:37:22.000Z</time>
      </trkpt>
      <trkpt lat="45.62458" lon="6.77443">
        <ele>839.40002441406</ele>
        <time>2020-06-28T06:37:26.000Z</time>
      </trkpt>
      <trkpt lat="45.62459" lon="6.77447">
        <ele>839.59997558594</ele>
        <time>2020-06-28T06:37:27.000Z</time>
      </trkpt>
      <trkpt lat="45.62466" lon="6.7747">
        <ele>840.79998779297</ele>
        <time>2020-06-28T06:37:33.000Z</time>
      </trkpt>
      <trkpt lat="45.62469" lon="6.77478">
        <ele>840.79998779297</ele>
        <time>2020-06-28T06:37:35.000Z</time>
      </trkpt>
      <trkpt lat="45.62475" lon="6.77493">
        <ele>841.79998779297</ele>
        <time>2020-06-28T06:37:39.000Z</time>
      </trkpt>
      <trkpt lat="45.62483" lon="6.7751">
        <ele>843</ele>
        <time>2020-06-28T06:37:44.000Z</time>
      </trkpt>
      <trkpt lat="45.62487" lon="6.77517">
        <ele>843.40002441406</ele>
        <time>2020-06-28T06:37:46.000Z</time>
      </trkpt>
      <trkpt lat="45.62491" lon="6.77528">
        <ele>844</ele>
        <time>2020-06-28T06:37:49.000Z</time>
      </trkpt>
      <trkpt lat="45.62495" lon="6.77542">
        <ele>844.59997558594</ele>
        <time>2020-06-28T06:37:53.000Z</time>
      </trkpt>
      <trkpt lat="45.62497" lon="6.77548">
        <ele>845</ele>
        <time>2020-06-28T06:37:55.000Z</time>
      </trkpt>
      <trkpt lat="45.625" lon="6.77566">
        <ele>846</ele>
        <time>2020-06-28T06:38:00.000Z</time>
      </trkpt>
      <trkpt lat="45.62502" lon="6.77583">
        <ele>847.20001220703</ele>
        <time>2020-06-28T06:38:05.000Z</time>
      </trkpt>
      <trkpt lat="45.62502" lon="6.7759">
        <ele>847.59997558594</ele>
        <time>2020-06-28T06:38:07.000Z</time>
      </trkpt>
      <trkpt lat="45.62502" lon="6.776">
        <ele>848.20001220703</ele>
        <time>2020-06-28T06:38:10.000Z</time>
      </trkpt>
      <trkpt lat="45.62501" lon="6.7761">
        <ele>849</ele>
        <time>2020-06-28T06:38:13.000Z</time>
      </trkpt>
      <trkpt lat="45.625" lon="6.77613">
        <ele>849.20001220703</ele>
        <time>2020-06-28T06:38:14.000Z</time>
      </trkpt>
      <trkpt lat="45.625" lon="6.77635">
        <ele>850.40002441406</ele>
        <time>2020-06-28T06:38:20.000Z</time>
      </trkpt>
      <trkpt lat="45.625" lon="6.77639">
        <ele>850.59997558594</ele>
        <time>2020-06-28T06:38:21.000Z</time>
      </trkpt>
      <trkpt lat="45.625" lon="6.77657">
        <ele>851.59997558594</ele>
        <time>2020-06-28T06:38:25.000Z</time>
      </trkpt>
      <trkpt lat="45.62501" lon="6.77666">
        <ele>852</ele>
        <time>2020-06-28T06:38:27.000Z</time>
      </trkpt>
      <trkpt lat="45.62502" lon="6.7768">
        <ele>852.79998779297</ele>
        <time>2020-06-28T06:38:30.000Z</time>
      </trkpt>
      <trkpt lat="45.62506" lon="6.77703">
        <ele>853.79998779297</ele>
        <time>2020-06-28T06:38:35.000Z</time>
      </trkpt>
      <trkpt lat="45.62514" lon="6.77728">
        <ele>855.20001220703</ele>
        <time>2020-06-28T06:38:41.000Z</time>
      </trkpt>
      <trkpt lat="45.62516" lon="6.77736">
        <ele>855.40002441406</ele>
        <time>2020-06-28T06:38:43.000Z</time>
      </trkpt>
      <trkpt lat="45.62518" lon="6.7774">
        <ele>855.59997558594</ele>
        <time>2020-06-28T06:38:44.000Z</time>
      </trkpt>
      <trkpt lat="45.62522" lon="6.77752">
        <ele>856.20001220703</ele>
        <time>2020-06-28T06:38:47.000Z</time>
      </trkpt>
      <trkpt lat="45.6253" lon="6.77771">
        <ele>857.59997558594</ele>
        <time>2020-06-28T06:38:52.000Z</time>
      </trkpt>
      <trkpt lat="45.62533" lon="6.77778">
        <ele>858</ele>
        <time>2020-06-28T06:38:54.000Z</time>
      </trkpt>
      <trkpt lat="45.62539" lon="6.77785">
        <ele>858.79998779297</ele>
        <time>2020-06-28T06:38:57.000Z</time>
      </trkpt>
      <trkpt lat="45.62543" lon="6.77787">
        <ele>859.20001220703</ele>
        <time>2020-06-28T06:38:59.000Z</time>
      </trkpt>
      <trkpt lat="45.62552" lon="6.77788">
        <ele>860</ele>
        <time>2020-06-28T06:39:03.000Z</time>
      </trkpt>
      <trkpt lat="45.62557" lon="6.77788">
        <ele>860.79998779297</ele>
        <time>2020-06-28T06:39:06.000Z</time>
      </trkpt>
      <trkpt lat="45.6256" lon="6.77789">
        <ele>861.20001220703</ele>
        <time>2020-06-28T06:39:08.000Z</time>
      </trkpt>
      <trkpt lat="45.62565" lon="6.77789">
        <ele>862</ele>
        <time>2020-06-28T06:39:11.000Z</time>
      </trkpt>
      <trkpt lat="45.62569" lon="6.77789">
        <ele>862.40002441406</ele>
        <time>2020-06-28T06:39:13.000Z</time>
      </trkpt>
      <trkpt lat="45.62586" lon="6.77787">
        <ele>863.40002441406</ele>
        <time>2020-06-28T06:39:18.000Z</time>
      </trkpt>
      <trkpt lat="45.6259" lon="6.77787">
        <ele>863.59997558594</ele>
        <time>2020-06-28T06:39:19.000Z</time>
      </trkpt>
      <trkpt lat="45.62606" lon="6.77793">
        <ele>864.79998779297</ele>
        <time>2020-06-28T06:39:24.000Z</time>
      </trkpt>
      <trkpt lat="45.62616" lon="6.7781">
        <ele>865.59997558594</ele>
        <time>2020-06-28T06:39:29.000Z</time>
      </trkpt>
      <trkpt lat="45.62617" lon="6.77814">
        <ele>865.79998779297</ele>
        <time>2020-06-28T06:39:30.000Z</time>
      </trkpt>
      <trkpt lat="45.62618" lon="6.77834">
        <ele>867</ele>
        <time>2020-06-28T06:39:35.000Z</time>
      </trkpt>
      <trkpt lat="45.62617" lon="6.77847">
        <ele>867.79998779297</ele>
        <time>2020-06-28T06:39:38.000Z</time>
      </trkpt>
      <trkpt lat="45.62614" lon="6.77863">
        <ele>869</ele>
        <time>2020-06-28T06:39:42.000Z</time>
      </trkpt>
      <trkpt lat="45.62614" lon="6.77867">
        <ele>869.20001220703</ele>
        <time>2020-06-28T06:39:43.000Z</time>
      </trkpt>
      <trkpt lat="45.62613" lon="6.77884">
        <ele>870.20001220703</ele>
        <time>2020-06-28T06:39:47.000Z</time>
      </trkpt>
      <trkpt lat="45.62612" lon="6.77905">
        <ele>871.20001220703</ele>
        <time>2020-06-28T06:39:52.000Z</time>
      </trkpt>
      <trkpt lat="45.62613" lon="6.77909">
        <ele>871.40002441406</ele>
        <time>2020-06-28T06:39:53.000Z</time>
      </trkpt>
      <trkpt lat="45.62619" lon="6.77929">
        <ele>872.59997558594</ele>
        <time>2020-06-28T06:39:58.000Z</time>
      </trkpt>
      <trkpt lat="45.62628" lon="6.7794">
        <ele>873.59997558594</ele>
        <time>2020-06-28T06:40:02.000Z</time>
      </trkpt>
      <trkpt lat="45.62633" lon="6.77945">
        <ele>874.20001220703</ele>
        <time>2020-06-28T06:40:04.000Z</time>
      </trkpt>
      <trkpt lat="45.62636" lon="6.77948">
        <ele>874.79998779297</ele>
        <time>2020-06-28T06:40:05.000Z</time>
      </trkpt>
      <trkpt lat="45.62649" lon="6.77965">
        <ele>875.79998779297</ele>
        <time>2020-06-28T06:40:11.000Z</time>
      </trkpt>
      <trkpt lat="45.62652" lon="6.77971">
        <ele>876.20001220703</ele>
        <time>2020-06-28T06:40:13.000Z</time>
      </trkpt>
      <trkpt lat="45.62657" lon="6.77979">
        <ele>876.79998779297</ele>
        <time>2020-06-28T06:40:16.000Z</time>
      </trkpt>
      <trkpt lat="45.62662" lon="6.77989">
        <ele>877.59997558594</ele>
        <time>2020-06-28T06:40:19.000Z</time>
      </trkpt>
      <trkpt lat="45.62665" lon="6.77997">
        <ele>878</ele>
        <time>2020-06-28T06:40:21.000Z</time>
      </trkpt>
      <trkpt lat="45.62673" lon="6.78019">
        <ele>879</ele>
        <time>2020-06-28T06:40:27.000Z</time>
      </trkpt>
      <trkpt lat="45.62676" lon="6.78027">
        <ele>879.40002441406</ele>
        <time>2020-06-28T06:40:29.000Z</time>
      </trkpt>
      <trkpt lat="45.6268" lon="6.78038">
        <ele>880</ele>
        <time>2020-06-28T06:40:32.000Z</time>
      </trkpt>
      <trkpt lat="45.62685" lon="6.78053">
        <ele>881.20001220703</ele>
        <time>2020-06-28T06:40:36.000Z</time>
      </trkpt>
      <trkpt lat="45.62687" lon="6.78061">
        <ele>881.79998779297</ele>
        <time>2020-06-28T06:40:38.000Z</time>
      </trkpt>
      <trkpt lat="45.62693" lon="6.78075">
        <ele>882.40002441406</ele>
        <time>2020-06-28T06:40:42.000Z</time>
      </trkpt>
      <trkpt lat="45.62697" lon="6.78086">
        <ele>883.20001220703</ele>
        <time>2020-06-28T06:40:45.000Z</time>
      </trkpt>
      <trkpt lat="45.62699" lon="6.78089">
        <ele>883.40002441406</ele>
        <time>2020-06-28T06:40:46.000Z</time>
      </trkpt>
      <trkpt lat="45.62708" lon="6.78107">
        <ele>884.59997558594</ele>
        <time>2020-06-28T06:40:51.000Z</time>
      </trkpt>
      <trkpt lat="45.62711" lon="6.78114">
        <ele>885.20001220703</ele>
        <time>2020-06-28T06:40:53.000Z</time>
      </trkpt>
      <trkpt lat="45.62717" lon="6.78124">
        <ele>885.79998779297</ele>
        <time>2020-06-28T06:40:56.000Z</time>
      </trkpt>
      <trkpt lat="45.62726" lon="6.78141">
        <ele>886.79998779297</ele>
        <time>2020-06-28T06:41:01.000Z</time>
      </trkpt>
      <trkpt lat="45.62734" lon="6.78158">
        <ele>888</ele>
        <time>2020-06-28T06:41:06.000Z</time>
      </trkpt>
      <trkpt lat="45.62735" lon="6.78162">
        <ele>888.20001220703</ele>
        <time>2020-06-28T06:41:07.000Z</time>
      </trkpt>
      <trkpt lat="45.62746" lon="6.78183">
        <ele>889.20001220703</ele>
        <time>2020-06-28T06:41:13.000Z</time>
      </trkpt>
      <trkpt lat="45.62747" lon="6.78187">
        <ele>889.40002441406</ele>
        <time>2020-06-28T06:41:14.000Z</time>
      </trkpt>
      <trkpt lat="45.62753" lon="6.78206">
        <ele>890.20001220703</ele>
        <time>2020-06-28T06:41:19.000Z</time>
      </trkpt>
      <trkpt lat="45.62756" lon="6.78217">
        <ele>891.20001220703</ele>
        <time>2020-06-28T06:41:22.000Z</time>
      </trkpt>
      <trkpt lat="45.62757" lon="6.78221">
        <ele>891.40002441406</ele>
        <time>2020-06-28T06:41:23.000Z</time>
      </trkpt>
      <trkpt lat="45.62761" lon="6.78241">
        <ele>892.59997558594</ele>
        <time>2020-06-28T06:41:28.000Z</time>
      </trkpt>
      <trkpt lat="45.62763" lon="6.78253">
        <ele>893.20001220703</ele>
        <time>2020-06-28T06:41:31.000Z</time>
      </trkpt>
      <trkpt lat="45.62765" lon="6.78261">
        <ele>893.59997558594</ele>
        <time>2020-06-28T06:41:33.000Z</time>
      </trkpt>
      <trkpt lat="45.62768" lon="6.78281">
        <ele>894.79998779297</ele>
        <time>2020-06-28T06:41:38.000Z</time>
      </trkpt>
      <trkpt lat="45.62769" lon="6.78285">
        <ele>895</ele>
        <time>2020-06-28T06:41:39.000Z</time>
      </trkpt>
      <trkpt lat="45.62771" lon="6.78301">
        <ele>895.79998779297</ele>
        <time>2020-06-28T06:41:43.000Z</time>
      </trkpt>
      <trkpt lat="45.62774" lon="6.78321">
        <ele>896.79998779297</ele>
        <time>2020-06-28T06:41:48.000Z</time>
      </trkpt>
      <trkpt lat="45.62774" lon="6.78325">
        <ele>897</ele>
        <time>2020-06-28T06:41:49.000Z</time>
      </trkpt>
      <trkpt lat="45.62777" lon="6.78341">
        <ele>898</ele>
        <time>2020-06-28T06:41:53.000Z</time>
      </trkpt>
      <trkpt lat="45.6278" lon="6.78357">
        <ele>899</ele>
        <time>2020-06-28T06:41:57.000Z</time>
      </trkpt>
      <trkpt lat="45.62781" lon="6.7836">
        <ele>899.20001220703</ele>
        <time>2020-06-28T06:41:58.000Z</time>
      </trkpt>
      <trkpt lat="45.62786" lon="6.78375">
        <ele>900</ele>
        <time>2020-06-28T06:42:02.000Z</time>
      </trkpt>
      <trkpt lat="45.62792" lon="6.78385">
        <ele>900.79998779297</ele>
        <time>2020-06-28T06:42:05.000Z</time>
      </trkpt>
      <trkpt lat="45.62796" lon="6.78391">
        <ele>901.20001220703</ele>
        <time>2020-06-28T06:42:07.000Z</time>
      </trkpt>
      <trkpt lat="45.62809" lon="6.78406">
        <ele>902.20001220703</ele>
        <time>2020-06-28T06:42:13.000Z</time>
      </trkpt>
      <trkpt lat="45.62824" lon="6.78427">
        <ele>903.20001220703</ele>
        <time>2020-06-28T06:42:20.000Z</time>
      </trkpt>
      <trkpt lat="45.62833" lon="6.78449">
        <ele>904.40002441406</ele>
        <time>2020-06-28T06:42:26.000Z</time>
      </trkpt>
      <trkpt lat="45.62835" lon="6.78456">
        <ele>904.59997558594</ele>
        <time>2020-06-28T06:42:28.000Z</time>
      </trkpt>
      <trkpt lat="45.62842" lon="6.78469">
        <ele>905.40002441406</ele>
        <time>2020-06-28T06:42:32.000Z</time>
      </trkpt>
      <trkpt lat="45.62849" lon="6.78479">
        <ele>906.40002441406</ele>
        <time>2020-06-28T06:42:35.000Z</time>
      </trkpt>
      <trkpt lat="45.62851" lon="6.78482">
        <ele>906.59997558594</ele>
        <time>2020-06-28T06:42:36.000Z</time>
      </trkpt>
      <trkpt lat="45.62867" lon="6.78501">
        <ele>907.40002441406</ele>
        <time>2020-06-28T06:42:43.000Z</time>
      </trkpt>
      <trkpt lat="45.6287" lon="6.78506">
        <ele>907.79998779297</ele>
        <time>2020-06-28T06:42:45.000Z</time>
      </trkpt>
      <trkpt lat="45.62877" lon="6.78514">
        <ele>908.20001220703</ele>
        <time>2020-06-28T06:42:48.000Z</time>
      </trkpt>
      <trkpt lat="45.62881" lon="6.78519">
        <ele>908.79998779297</ele>
        <time>2020-06-28T06:42:50.000Z</time>
      </trkpt>
      <trkpt lat="45.62892" lon="6.78531">
        <ele>910</ele>
        <time>2020-06-28T06:42:55.000Z</time>
      </trkpt>
      <trkpt lat="45.6291" lon="6.78539">
        <ele>911.20001220703</ele>
        <time>2020-06-28T06:43:00.000Z</time>
      </trkpt>
      <trkpt lat="45.62914" lon="6.78539">
        <ele>911.40002441406</ele>
        <time>2020-06-28T06:43:01.000Z</time>
      </trkpt>
      <trkpt lat="45.62929" lon="6.78542">
        <ele>912.20001220703</ele>
        <time>2020-06-28T06:43:05.000Z</time>
      </trkpt>
      <trkpt lat="45.62943" lon="6.78545">
        <ele>913</ele>
        <time>2020-06-28T06:43:09.000Z</time>
      </trkpt>
      <trkpt lat="45.6295" lon="6.78548">
        <ele>913.40002441406</ele>
        <time>2020-06-28T06:43:11.000Z</time>
      </trkpt>
      <trkpt lat="45.62966" lon="6.78555">
        <ele>914.40002441406</ele>
        <time>2020-06-28T06:43:16.000Z</time>
      </trkpt>
      <trkpt lat="45.62969" lon="6.78557">
        <ele>915</ele>
        <time>2020-06-28T06:43:17.000Z</time>
      </trkpt>
      <trkpt lat="45.62978" lon="6.78563">
        <ele>915.40002441406</ele>
        <time>2020-06-28T06:43:20.000Z</time>
      </trkpt>
      <trkpt lat="45.62993" lon="6.78573">
        <ele>916.59997558594</ele>
        <time>2020-06-28T06:43:25.000Z</time>
      </trkpt>
      <trkpt lat="45.62996" lon="6.78574">
        <ele>917</ele>
        <time>2020-06-28T06:43:26.000Z</time>
      </trkpt>
      <trkpt lat="45.63006" lon="6.78564">
        <ele>917.79998779297</ele>
        <time>2020-06-28T06:43:30.000Z</time>
      </trkpt>
      <trkpt lat="45.63007" lon="6.78555">
        <ele>918</ele>
        <time>2020-06-28T06:43:32.000Z</time>
      </trkpt>
      <trkpt lat="45.63005" lon="6.78552">
        <ele>918.20001220703</ele>
        <time>2020-06-28T06:43:33.000Z</time>
      </trkpt>
      <trkpt lat="45.62994" lon="6.78541">
        <ele>918.79998779297</ele>
        <time>2020-06-28T06:43:37.000Z</time>
      </trkpt>
      <trkpt lat="45.62991" lon="6.78539">
        <ele>919</ele>
        <time>2020-06-28T06:43:38.000Z</time>
      </trkpt>
      <trkpt lat="45.62978" lon="6.78531">
        <ele>920</ele>
        <time>2020-06-28T06:43:42.000Z</time>
      </trkpt>
      <trkpt lat="45.6296" lon="6.78521">
        <ele>921.20001220703</ele>
        <time>2020-06-28T06:43:48.000Z</time>
      </trkpt>
      <trkpt lat="45.62948" lon="6.78512">
        <ele>922.20001220703</ele>
        <time>2020-06-28T06:43:52.000Z</time>
      </trkpt>
      <trkpt lat="45.62931" lon="6.78501">
        <ele>923.40002441406</ele>
        <time>2020-06-28T06:43:58.000Z</time>
      </trkpt>
      <trkpt lat="45.62925" lon="6.78497">
        <ele>923.59997558594</ele>
        <time>2020-06-28T06:44:00.000Z</time>
      </trkpt>
      <trkpt lat="45.62911" lon="6.78486">
        <ele>924.40002441406</ele>
        <time>2020-06-28T06:44:05.000Z</time>
      </trkpt>
      <trkpt lat="45.62901" lon="6.78475">
        <ele>925.40002441406</ele>
        <time>2020-06-28T06:44:09.000Z</time>
      </trkpt>
      <trkpt lat="45.62899" lon="6.78472">
        <ele>925.59997558594</ele>
        <time>2020-06-28T06:44:10.000Z</time>
      </trkpt>
      <trkpt lat="45.62889" lon="6.7845">
        <ele>926.59997558594</ele>
        <time>2020-06-28T06:44:16.000Z</time>
      </trkpt>
      <trkpt lat="45.62888" lon="6.78446">
        <ele>926.79998779297</ele>
        <time>2020-06-28T06:44:17.000Z</time>
      </trkpt>
      <trkpt lat="45.62886" lon="6.78433">
        <ele>927.59997558594</ele>
        <time>2020-06-28T06:44:20.000Z</time>
      </trkpt>
      <trkpt lat="45.62883" lon="6.78407">
        <ele>928.79998779297</ele>
        <time>2020-06-28T06:44:26.000Z</time>
      </trkpt>
      <trkpt lat="45.62882" lon="6.78402">
        <ele>929</ele>
        <time>2020-06-28T06:44:27.000Z</time>
      </trkpt>
      <trkpt lat="45.62879" lon="6.78384">
        <ele>930</ele>
        <time>2020-06-28T06:44:31.000Z</time>
      </trkpt>
      <trkpt lat="45.62876" lon="6.78359">
        <ele>931</ele>
        <time>2020-06-28T06:44:37.000Z</time>
      </trkpt>
      <trkpt lat="45.62877" lon="6.78354">
        <ele>931.20001220703</ele>
        <time>2020-06-28T06:44:38.000Z</time>
      </trkpt>
      <trkpt lat="45.62878" lon="6.78341">
        <ele>932</ele>
        <time>2020-06-28T06:44:41.000Z</time>
      </trkpt>
      <trkpt lat="45.62883" lon="6.78325">
        <ele>932.79998779297</ele>
        <time>2020-06-28T06:44:45.000Z</time>
      </trkpt>
      <trkpt lat="45.62885" lon="6.78322">
        <ele>933</ele>
        <time>2020-06-28T06:44:46.000Z</time>
      </trkpt>
      <trkpt lat="45.62894" lon="6.78308">
        <ele>934.40002441406</ele>
        <time>2020-06-28T06:44:50.000Z</time>
      </trkpt>
      <trkpt lat="45.62897" lon="6.78306">
        <ele>934.59997558594</ele>
        <time>2020-06-28T06:44:51.000Z</time>
      </trkpt>
      <trkpt lat="45.62914" lon="6.78299">
        <ele>935.59997558594</ele>
        <time>2020-06-28T06:44:57.000Z</time>
      </trkpt>
      <trkpt lat="45.62917" lon="6.78301">
        <ele>936.20001220703</ele>
        <time>2020-06-28T06:44:59.000Z</time>
      </trkpt>
      <trkpt lat="45.62921" lon="6.78304">
        <ele>936.59997558594</ele>
        <time>2020-06-28T06:45:01.000Z</time>
      </trkpt>
      <trkpt lat="45.62925" lon="6.78309">
        <ele>936.79998779297</ele>
        <time>2020-06-28T06:45:03.000Z</time>
      </trkpt>
      <trkpt lat="45.62933" lon="6.78316">
        <ele>937.79998779297</ele>
        <time>2020-06-28T06:45:06.000Z</time>
      </trkpt>
      <trkpt lat="45.62937" lon="6.78321">
        <ele>938.40002441406</ele>
        <time>2020-06-28T06:45:08.000Z</time>
      </trkpt>
      <trkpt lat="45.6294" lon="6.78323">
        <ele>938.79998779297</ele>
        <time>2020-06-28T06:45:09.000Z</time>
      </trkpt>
      <trkpt lat="45.6295" lon="6.78333">
        <ele>939.79998779297</ele>
        <time>2020-06-28T06:45:13.000Z</time>
      </trkpt>
      <trkpt lat="45.62961" lon="6.78344">
        <ele>940.59997558594</ele>
        <time>2020-06-28T06:45:17.000Z</time>
      </trkpt>
      <trkpt lat="45.62964" lon="6.78346">
        <ele>940.79998779297</ele>
        <time>2020-06-28T06:45:18.000Z</time>
      </trkpt>
      <trkpt lat="45.62981" lon="6.78364">
        <ele>942</ele>
        <time>2020-06-28T06:45:25.000Z</time>
      </trkpt>
      <trkpt lat="45.62987" lon="6.78369">
        <ele>942.40002441406</ele>
        <time>2020-06-28T06:45:27.000Z</time>
      </trkpt>
      <trkpt lat="45.62994" lon="6.78375">
        <ele>943.20001220703</ele>
        <time>2020-06-28T06:45:30.000Z</time>
      </trkpt>
      <trkpt lat="45.63009" lon="6.78386">
        <ele>944.59997558594</ele>
        <time>2020-06-28T06:45:35.000Z</time>
      </trkpt>
      <trkpt lat="45.63035" lon="6.784">
        <ele>945.59997558594</ele>
        <time>2020-06-28T06:45:43.000Z</time>
      </trkpt>
      <trkpt lat="45.63049" lon="6.78407">
        <ele>946</ele>
        <time>2020-06-28T06:45:47.000Z</time>
      </trkpt>
      <trkpt lat="45.63059" lon="6.78412">
        <ele>946.59997558594</ele>
        <time>2020-06-28T06:45:50.000Z</time>
      </trkpt>
      <trkpt lat="45.63081" lon="6.78419">
        <ele>947.59997558594</ele>
        <time>2020-06-28T06:45:56.000Z</time>
      </trkpt>
      <trkpt lat="45.63085" lon="6.7842">
        <ele>947.79998779297</ele>
        <time>2020-06-28T06:45:57.000Z</time>
      </trkpt>
      <trkpt lat="45.63116" lon="6.78428">
        <ele>949</ele>
        <time>2020-06-28T06:46:05.000Z</time>
      </trkpt>
      <trkpt lat="45.63151" lon="6.78428">
        <ele>949.59997558594</ele>
        <time>2020-06-28T06:46:13.000Z</time>
      </trkpt>
      <trkpt lat="45.63176" lon="6.78424">
        <ele>950.20001220703</ele>
        <time>2020-06-28T06:46:18.000Z</time>
      </trkpt>
      <trkpt lat="45.63185" lon="6.78422">
        <ele>950.20001220703</ele>
        <time>2020-06-28T06:46:20.000Z</time>
      </trkpt>
      <trkpt lat="45.63218" lon="6.78423">
        <ele>950.79998779297</ele>
        <time>2020-06-28T06:46:27.000Z</time>
      </trkpt>
      <trkpt lat="45.63227" lon="6.78424">
        <ele>951</ele>
        <time>2020-06-28T06:46:29.000Z</time>
      </trkpt>
      <trkpt lat="45.63237" lon="6.78426">
        <ele>951.40002441406</ele>
        <time>2020-06-28T06:46:31.000Z</time>
      </trkpt>
      <trkpt lat="45.63241" lon="6.78429">
        <ele>951.40002441406</ele>
        <time>2020-06-28T06:46:32.000Z</time>
      </trkpt>
      <trkpt lat="45.63253" lon="6.78441">
        <ele>951.59997558594</ele>
        <time>2020-06-28T06:46:35.000Z</time>
      </trkpt>
      <trkpt lat="45.6326" lon="6.7845">
        <ele>951.59997558594</ele>
        <time>2020-06-28T06:46:37.000Z</time>
      </trkpt>
      <trkpt lat="45.63262" lon="6.78455">
        <ele>951.59997558594</ele>
        <time>2020-06-28T06:46:38.000Z</time>
      </trkpt>
      <trkpt lat="45.63276" lon="6.7847">
        <ele>951.59997558594</ele>
        <time>2020-06-28T06:46:41.000Z</time>
      </trkpt>
      <trkpt lat="45.63291" lon="6.7848">
        <ele>951.59997558594</ele>
        <time>2020-06-28T06:46:44.000Z</time>
      </trkpt>
      <trkpt lat="45.63302" lon="6.78486">
        <ele>951.59997558594</ele>
        <time>2020-06-28T06:46:46.000Z</time>
      </trkpt>
      <trkpt lat="45.63328" lon="6.78507">
        <ele>951.79998779297</ele>
        <time>2020-06-28T06:46:52.000Z</time>
      </trkpt>
      <trkpt lat="45.63351" lon="6.78515">
        <ele>951.79998779297</ele>
        <time>2020-06-28T06:46:57.000Z</time>
      </trkpt>
      <trkpt lat="45.63355" lon="6.78518">
        <ele>952.20001220703</ele>
        <time>2020-06-28T06:46:58.000Z</time>
      </trkpt>
      <trkpt lat="45.63372" lon="6.78532">
        <ele>953</ele>
        <time>2020-06-28T06:47:03.000Z</time>
      </trkpt>
      <trkpt lat="45.63375" lon="6.78535">
        <ele>953.20001220703</ele>
        <time>2020-06-28T06:47:04.000Z</time>
      </trkpt>
      <trkpt lat="45.6339" lon="6.78544">
        <ele>954</ele>
        <time>2020-06-28T06:47:08.000Z</time>
      </trkpt>
      <trkpt lat="45.63403" lon="6.78546">
        <ele>954.20001220703</ele>
        <time>2020-06-28T06:47:10.000Z</time>
      </trkpt>
      <trkpt lat="45.63421" lon="6.78549">
        <ele>955</ele>
        <time>2020-06-28T06:47:13.000Z</time>
      </trkpt>
      <trkpt lat="45.63427" lon="6.78549">
        <ele>955.20001220703</ele>
        <time>2020-06-28T06:47:14.000Z</time>
      </trkpt>
      <trkpt lat="45.63447" lon="6.78543">
        <ele>955.59997558594</ele>
        <time>2020-06-28T06:47:18.000Z</time>
      </trkpt>
      <trkpt lat="45.63457" lon="6.7854">
        <ele>955.79998779297</ele>
        <time>2020-06-28T06:47:20.000Z</time>
      </trkpt>
      <trkpt lat="45.63474" lon="6.78541">
        <ele>955.79998779297</ele>
        <time>2020-06-28T06:47:23.000Z</time>
      </trkpt>
      <trkpt lat="45.63481" lon="6.78543">
        <ele>956</ele>
        <time>2020-06-28T06:47:24.000Z</time>
      </trkpt>
      <trkpt lat="45.63509" lon="6.7855">
        <ele>956</ele>
        <time>2020-06-28T06:47:28.000Z</time>
      </trkpt>
      <trkpt lat="45.63515" lon="6.78551">
        <ele>956</ele>
        <time>2020-06-28T06:47:29.000Z</time>
      </trkpt>
      <trkpt lat="45.63552" lon="6.78556">
        <ele>955.59997558594</ele>
        <time>2020-06-28T06:47:36.000Z</time>
      </trkpt>
      <trkpt lat="45.63568" lon="6.78556">
        <ele>955.40002441406</ele>
        <time>2020-06-28T06:47:39.000Z</time>
      </trkpt>
      <trkpt lat="45.6358" lon="6.78553">
        <ele>955.40002441406</ele>
        <time>2020-06-28T06:47:41.000Z</time>
      </trkpt>
      <trkpt lat="45.6359" lon="6.78549">
        <ele>955.40002441406</ele>
        <time>2020-06-28T06:47:43.000Z</time>
      </trkpt>
      <trkpt lat="45.63598" lon="6.78543">
        <ele>955.59997558594</ele>
        <time>2020-06-28T06:47:45.000Z</time>
      </trkpt>
      <trkpt lat="45.6361" lon="6.78539">
        <ele>956</ele>
        <time>2020-06-28T06:47:48.000Z</time>
      </trkpt>
      <trkpt lat="45.63613" lon="6.78539">
        <ele>956</ele>
        <time>2020-06-28T06:47:49.000Z</time>
      </trkpt>
      <trkpt lat="45.63617" lon="6.78539">
        <ele>956.20001220703</ele>
        <time>2020-06-28T06:47:50.000Z</time>
      </trkpt>
      <trkpt lat="45.63624" lon="6.78538">
        <ele>956.59997558594</ele>
        <time>2020-06-28T06:47:52.000Z</time>
      </trkpt>
      <trkpt lat="45.63628" lon="6.78537">
        <ele>957.20001220703</ele>
        <time>2020-06-28T06:47:53.000Z</time>
      </trkpt>
      <trkpt lat="45.63635" lon="6.78535">
        <ele>958.20001220703</ele>
        <time>2020-06-28T06:47:55.000Z</time>
      </trkpt>
      <trkpt lat="45.63639" lon="6.78533">
        <ele>958.59997558594</ele>
        <time>2020-06-28T06:47:56.000Z</time>
      </trkpt>
      <trkpt lat="45.63652" lon="6.78528">
        <ele>959.40002441406</ele>
        <time>2020-06-28T06:47:59.000Z</time>
      </trkpt>
      <trkpt lat="45.6366" lon="6.78524">
        <ele>959.79998779297</ele>
        <time>2020-06-28T06:48:01.000Z</time>
      </trkpt>
      <trkpt lat="45.63675" lon="6.78512">
        <ele>960.59997558594</ele>
        <time>2020-06-28T06:48:05.000Z</time>
      </trkpt>
      <trkpt lat="45.63683" lon="6.78506">
        <ele>961</ele>
        <time>2020-06-28T06:48:07.000Z</time>
      </trkpt>
      <trkpt lat="45.63696" lon="6.78496">
        <ele>961.40002441406</ele>
        <time>2020-06-28T06:48:10.000Z</time>
      </trkpt>
      <trkpt lat="45.63724" lon="6.78476">
        <ele>961.79998779297</ele>
        <time>2020-06-28T06:48:16.000Z</time>
      </trkpt>
      <trkpt lat="45.63751" lon="6.7847">
        <ele>961.79998779297</ele>
        <time>2020-06-28T06:48:21.000Z</time>
      </trkpt>
      <trkpt lat="45.63793" lon="6.78457">
        <ele>962</ele>
        <time>2020-06-28T06:48:29.000Z</time>
      </trkpt>
      <trkpt lat="45.63813" lon="6.7846">
        <ele>962.59997558594</ele>
        <time>2020-06-28T06:48:33.000Z</time>
      </trkpt>
      <trkpt lat="45.63822" lon="6.78463">
        <ele>963</ele>
        <time>2020-06-28T06:48:35.000Z</time>
      </trkpt>
      <trkpt lat="45.63837" lon="6.78463">
        <ele>963.59997558594</ele>
        <time>2020-06-28T06:48:38.000Z</time>
      </trkpt>
      <trkpt lat="45.63846" lon="6.78462">
        <ele>963.59997558594</ele>
        <time>2020-06-28T06:48:40.000Z</time>
      </trkpt>
      <trkpt lat="45.63861" lon="6.78459">
        <ele>964.40002441406</ele>
        <time>2020-06-28T06:48:43.000Z</time>
      </trkpt>
      <trkpt lat="45.63893" lon="6.78448">
        <ele>965.20001220703</ele>
        <time>2020-06-28T06:48:50.000Z</time>
      </trkpt>
      <trkpt lat="45.63902" lon="6.78446">
        <ele>965.40002441406</ele>
        <time>2020-06-28T06:48:52.000Z</time>
      </trkpt>
      <trkpt lat="45.63906" lon="6.78446">
        <ele>965.59997558594</ele>
        <time>2020-06-28T06:48:53.000Z</time>
      </trkpt>
      <trkpt lat="45.63915" lon="6.78449">
        <ele>965.79998779297</ele>
        <time>2020-06-28T06:48:55.000Z</time>
      </trkpt>
      <trkpt lat="45.63927" lon="6.78462">
        <ele>966</ele>
        <time>2020-06-28T06:48:58.000Z</time>
      </trkpt>
      <trkpt lat="45.63932" lon="6.78468">
        <ele>966</ele>
        <time>2020-06-28T06:48:59.000Z</time>
      </trkpt>
      <trkpt lat="45.63944" lon="6.78482">
        <ele>966.20001220703</ele>
        <time>2020-06-28T06:49:02.000Z</time>
      </trkpt>
      <trkpt lat="45.63956" lon="6.78489">
        <ele>966.20001220703</ele>
        <time>2020-06-28T06:49:04.000Z</time>
      </trkpt>
      <trkpt lat="45.63983" lon="6.78505">
        <ele>966</ele>
        <time>2020-06-28T06:49:08.000Z</time>
      </trkpt>
      <trkpt lat="45.6399" lon="6.78508">
        <ele>966</ele>
        <time>2020-06-28T06:49:09.000Z</time>
      </trkpt>
      <trkpt lat="45.64016" lon="6.7851">
        <ele>965</ele>
        <time>2020-06-28T06:49:13.000Z</time>
      </trkpt>
      <trkpt lat="45.64035" lon="6.7851">
        <ele>964.79998779297</ele>
        <time>2020-06-28T06:49:16.000Z</time>
      </trkpt>
      <trkpt lat="45.64047" lon="6.78513">
        <ele>964.79998779297</ele>
        <time>2020-06-28T06:49:18.000Z</time>
      </trkpt>
      <trkpt lat="45.64052" lon="6.78515">
        <ele>964.79998779297</ele>
        <time>2020-06-28T06:49:19.000Z</time>
      </trkpt>
      <trkpt lat="45.64082" lon="6.78532">
        <ele>965.20001220703</ele>
        <time>2020-06-28T06:49:25.000Z</time>
      </trkpt>
      <trkpt lat="45.64087" lon="6.78535">
        <ele>965.20001220703</ele>
        <time>2020-06-28T06:49:26.000Z</time>
      </trkpt>
      <trkpt lat="45.64111" lon="6.78549">
        <ele>966.20001220703</ele>
        <time>2020-06-28T06:49:31.000Z</time>
      </trkpt>
      <trkpt lat="45.64116" lon="6.78553">
        <ele>966.40002441406</ele>
        <time>2020-06-28T06:49:32.000Z</time>
      </trkpt>
      <trkpt lat="45.6412" lon="6.78556">
        <ele>966.59997558594</ele>
        <time>2020-06-28T06:49:33.000Z</time>
      </trkpt>
      <trkpt lat="45.64133" lon="6.78568">
        <ele>967</ele>
        <time>2020-06-28T06:49:36.000Z</time>
      </trkpt>
      <trkpt lat="45.6414" lon="6.78577">
        <ele>967.20001220703</ele>
        <time>2020-06-28T06:49:38.000Z</time>
      </trkpt>
      <trkpt lat="45.64143" lon="6.78581">
        <ele>967</ele>
        <time>2020-06-28T06:49:39.000Z</time>
      </trkpt>
      <trkpt lat="45.64154" lon="6.78595">
        <ele>967.20001220703</ele>
        <time>2020-06-28T06:49:43.000Z</time>
      </trkpt>
      <trkpt lat="45.64164" lon="6.78602">
        <ele>968</ele>
        <time>2020-06-28T06:49:46.000Z</time>
      </trkpt>
      <trkpt lat="45.64179" lon="6.78611">
        <ele>969</ele>
        <time>2020-06-28T06:49:50.000Z</time>
      </trkpt>
      <trkpt lat="45.64183" lon="6.78612">
        <ele>969.20001220703</ele>
        <time>2020-06-28T06:49:51.000Z</time>
      </trkpt>
      <trkpt lat="45.64193" lon="6.78616">
        <ele>969.59997558594</ele>
        <time>2020-06-28T06:49:53.000Z</time>
      </trkpt>
      <trkpt lat="45.64204" lon="6.78618">
        <ele>970.20001220703</ele>
        <time>2020-06-28T06:49:55.000Z</time>
      </trkpt>
      <trkpt lat="45.64229" lon="6.78621">
        <ele>971.20001220703</ele>
        <time>2020-06-28T06:50:00.000Z</time>
      </trkpt>
      <trkpt lat="45.64233" lon="6.7862">
        <ele>971.40002441406</ele>
        <time>2020-06-28T06:50:01.000Z</time>
      </trkpt>
      <trkpt lat="45.64254" lon="6.7862">
        <ele>972.40002441406</ele>
        <time>2020-06-28T06:50:06.000Z</time>
      </trkpt>
      <trkpt lat="45.64258" lon="6.7862">
        <ele>972.59997558594</ele>
        <time>2020-06-28T06:50:07.000Z</time>
      </trkpt>
      <trkpt lat="45.64274" lon="6.78618">
        <ele>973.79998779297</ele>
        <time>2020-06-28T06:50:11.000Z</time>
      </trkpt>
      <trkpt lat="45.64281" lon="6.78616">
        <ele>974.20001220703</ele>
        <time>2020-06-28T06:50:13.000Z</time>
      </trkpt>
      <trkpt lat="45.64288" lon="6.78615">
        <ele>974.59997558594</ele>
        <time>2020-06-28T06:50:15.000Z</time>
      </trkpt>
      <trkpt lat="45.64308" lon="6.78612">
        <ele>975.40002441406</ele>
        <time>2020-06-28T06:50:20.000Z</time>
      </trkpt>
      <trkpt lat="45.64312" lon="6.78612">
        <ele>975.59997558594</ele>
        <time>2020-06-28T06:50:21.000Z</time>
      </trkpt>
      <trkpt lat="45.64328" lon="6.78615">
        <ele>976.40002441406</ele>
        <time>2020-06-28T06:50:25.000Z</time>
      </trkpt>
      <trkpt lat="45.64336" lon="6.78615">
        <ele>976.59997558594</ele>
        <time>2020-06-28T06:50:27.000Z</time>
      </trkpt>
      <trkpt lat="45.64348" lon="6.78613">
        <ele>977.20001220703</ele>
        <time>2020-06-28T06:50:31.000Z</time>
      </trkpt>
      <trkpt lat="45.6436" lon="6.78613">
        <ele>977.79998779297</ele>
        <time>2020-06-28T06:50:34.000Z</time>
      </trkpt>
      <trkpt lat="45.64368" lon="6.78613">
        <ele>977.79998779297</ele>
        <time>2020-06-28T06:50:36.000Z</time>
      </trkpt>
      <trkpt lat="45.64378" lon="6.78611">
        <ele>978.59997558594</ele>
        <time>2020-06-28T06:50:39.000Z</time>
      </trkpt>
      <trkpt lat="45.64389" lon="6.78609">
        <ele>979.20001220703</ele>
        <time>2020-06-28T06:50:42.000Z</time>
      </trkpt>
      <trkpt lat="45.64399" lon="6.78607">
        <ele>979.59997558594</ele>
        <time>2020-06-28T06:50:45.000Z</time>
      </trkpt>
      <trkpt lat="45.64416" lon="6.78603">
        <ele>980.40002441406</ele>
        <time>2020-06-28T06:50:50.000Z</time>
      </trkpt>
      <trkpt lat="45.6442" lon="6.78602">
        <ele>980.40002441406</ele>
        <time>2020-06-28T06:50:51.000Z</time>
      </trkpt>
      <trkpt lat="45.64439" lon="6.78596">
        <ele>981</ele>
        <time>2020-06-28T06:50:56.000Z</time>
      </trkpt>
      <trkpt lat="45.64454" lon="6.78595">
        <ele>981.40002441406</ele>
        <time>2020-06-28T06:51:00.000Z</time>
      </trkpt>
      <trkpt lat="45.64462" lon="6.78596">
        <ele>981.79998779297</ele>
        <time>2020-06-28T06:51:02.000Z</time>
      </trkpt>
      <trkpt lat="45.64476" lon="6.78596">
        <ele>982.59997558594</ele>
        <time>2020-06-28T06:51:05.000Z</time>
      </trkpt>
      <trkpt lat="45.64493" lon="6.78593">
        <ele>983.40002441406</ele>
        <time>2020-06-28T06:51:09.000Z</time>
      </trkpt>
      <trkpt lat="45.64517" lon="6.78591">
        <ele>984.40002441406</ele>
        <time>2020-06-28T06:51:15.000Z</time>
      </trkpt>
      <trkpt lat="45.64522" lon="6.78591">
        <ele>984.59997558594</ele>
        <time>2020-06-28T06:51:16.000Z</time>
      </trkpt>
      <trkpt lat="45.64544" lon="6.78587">
        <ele>985.40002441406</ele>
        <time>2020-06-28T06:51:21.000Z</time>
      </trkpt>
      <trkpt lat="45.64549" lon="6.78587">
        <ele>985.40002441406</ele>
        <time>2020-06-28T06:51:22.000Z</time>
      </trkpt>
      <trkpt lat="45.64575" lon="6.78594">
        <ele>986.40002441406</ele>
        <time>2020-06-28T06:51:28.000Z</time>
      </trkpt>
      <trkpt lat="45.64596" lon="6.78602">
        <ele>987.20001220703</ele>
        <time>2020-06-28T06:51:33.000Z</time>
      </trkpt>
      <trkpt lat="45.64605" lon="6.78605">
        <ele>987.59997558594</ele>
        <time>2020-06-28T06:51:35.000Z</time>
      </trkpt>
      <trkpt lat="45.64609" lon="6.78607">
        <ele>987.59997558594</ele>
        <time>2020-06-28T06:51:36.000Z</time>
      </trkpt>
      <trkpt lat="45.64614" lon="6.78608">
        <ele>987.79998779297</ele>
        <time>2020-06-28T06:51:37.000Z</time>
      </trkpt>
      <trkpt lat="45.64638" lon="6.78615">
        <ele>988</ele>
        <time>2020-06-28T06:51:42.000Z</time>
      </trkpt>
      <trkpt lat="45.64643" lon="6.78615">
        <ele>988.20001220703</ele>
        <time>2020-06-28T06:51:43.000Z</time>
      </trkpt>
      <trkpt lat="45.64666" lon="6.78615">
        <ele>988.59997558594</ele>
        <time>2020-06-28T06:51:48.000Z</time>
      </trkpt>
      <trkpt lat="45.64693" lon="6.7861">
        <ele>989.40002441406</ele>
        <time>2020-06-28T06:51:54.000Z</time>
      </trkpt>
      <trkpt lat="45.64697" lon="6.7861">
        <ele>989.59997558594</ele>
        <time>2020-06-28T06:51:55.000Z</time>
      </trkpt>
      <trkpt lat="45.64716" lon="6.78613">
        <ele>990</ele>
        <time>2020-06-28T06:52:00.000Z</time>
      </trkpt>
      <trkpt lat="45.64722" lon="6.78614">
        <ele>990.40002441406</ele>
        <time>2020-06-28T06:52:02.000Z</time>
      </trkpt>
      <trkpt lat="45.64736" lon="6.78618">
        <ele>991.40002441406</ele>
        <time>2020-06-28T06:52:06.000Z</time>
      </trkpt>
      <trkpt lat="45.64738" lon="6.78619">
        <ele>991.59997558594</ele>
        <time>2020-06-28T06:52:07.000Z</time>
      </trkpt>
      <trkpt lat="45.64748" lon="6.78624">
        <ele>992.79998779297</ele>
        <time>2020-06-28T06:52:11.000Z</time>
      </trkpt>
      <trkpt lat="45.64755" lon="6.78628">
        <ele>993.79998779297</ele>
        <time>2020-06-28T06:52:15.000Z</time>
      </trkpt>
      <trkpt lat="45.64761" lon="6.78632">
        <ele>994.40002441406</ele>
        <time>2020-06-28T06:52:18.000Z</time>
      </trkpt>
      <trkpt lat="45.64767" lon="6.78635">
        <ele>995</ele>
        <time>2020-06-28T06:52:20.000Z</time>
      </trkpt>
      <trkpt lat="45.64783" lon="6.78643">
        <ele>996</ele>
        <time>2020-06-28T06:52:24.000Z</time>
      </trkpt>
      <trkpt lat="45.64788" lon="6.78646">
        <ele>996.20001220703</ele>
        <time>2020-06-28T06:52:25.000Z</time>
      </trkpt>
      <trkpt lat="45.64813" lon="6.78659">
        <ele>997</ele>
        <time>2020-06-28T06:52:29.000Z</time>
      </trkpt>
      <trkpt lat="45.64827" lon="6.78668">
        <ele>997.79998779297</ele>
        <time>2020-06-28T06:52:32.000Z</time>
      </trkpt>
      <trkpt lat="45.64831" lon="6.78671">
        <ele>998.20001220703</ele>
        <time>2020-06-28T06:52:33.000Z</time>
      </trkpt>
      <trkpt lat="45.64854" lon="6.7869">
        <ele>999.20001220703</ele>
        <time>2020-06-28T06:52:40.000Z</time>
      </trkpt>
      <trkpt lat="45.6487" lon="6.78704">
        <ele>1000.200012207</ele>
        <time>2020-06-28T06:52:46.000Z</time>
      </trkpt>
      <trkpt lat="45.64872" lon="6.78706">
        <ele>1000.4000244141</ele>
        <time>2020-06-28T06:52:47.000Z</time>
      </trkpt>
      <trkpt lat="45.64881" lon="6.78715">
        <ele>1001.4000244141</ele>
        <time>2020-06-28T06:52:51.000Z</time>
      </trkpt>
      <trkpt lat="45.64892" lon="6.78724">
        <ele>1002</ele>
        <time>2020-06-28T06:52:55.000Z</time>
      </trkpt>
      <trkpt lat="45.64898" lon="6.78728">
        <ele>1002.799987793</ele>
        <time>2020-06-28T06:52:57.000Z</time>
      </trkpt>
      <trkpt lat="45.64912" lon="6.78737">
        <ele>1003.799987793</ele>
        <time>2020-06-28T06:53:02.000Z</time>
      </trkpt>
      <trkpt lat="45.64919" lon="6.78741">
        <ele>1004.4000244141</ele>
        <time>2020-06-28T06:53:04.000Z</time>
      </trkpt>
      <trkpt lat="45.64924" lon="6.78744">
        <ele>1005</ele>
        <time>2020-06-28T06:53:06.000Z</time>
      </trkpt>
      <trkpt lat="45.64938" lon="6.78755">
        <ele>1006</ele>
        <time>2020-06-28T06:53:11.000Z</time>
      </trkpt>
      <trkpt lat="45.6495" lon="6.78763">
        <ele>1007</ele>
        <time>2020-06-28T06:53:15.000Z</time>
      </trkpt>
      <trkpt lat="45.64964" lon="6.78773">
        <ele>1008.200012207</ele>
        <time>2020-06-28T06:53:20.000Z</time>
      </trkpt>
      <trkpt lat="45.64973" lon="6.78779">
        <ele>1008.799987793</ele>
        <time>2020-06-28T06:53:23.000Z</time>
      </trkpt>
      <trkpt lat="45.64979" lon="6.78782">
        <ele>1009.4000244141</ele>
        <time>2020-06-28T06:53:25.000Z</time>
      </trkpt>
      <trkpt lat="45.64996" lon="6.78787">
        <ele>1010.5999755859</ele>
        <time>2020-06-28T06:53:30.000Z</time>
      </trkpt>
      <trkpt lat="45.65012" lon="6.78789">
        <ele>1011.799987793</ele>
        <time>2020-06-28T06:53:36.000Z</time>
      </trkpt>
      <trkpt lat="45.65027" lon="6.78788">
        <ele>1013</ele>
        <time>2020-06-28T06:53:41.000Z</time>
      </trkpt>
      <trkpt lat="45.65033" lon="6.78788">
        <ele>1013.5999755859</ele>
        <time>2020-06-28T06:53:43.000Z</time>
      </trkpt>
      <trkpt lat="45.65038" lon="6.78787">
        <ele>1013.799987793</ele>
        <time>2020-06-28T06:53:45.000Z</time>
      </trkpt>
      <trkpt lat="45.65051" lon="6.78786">
        <ele>1015.200012207</ele>
        <time>2020-06-28T06:53:50.000Z</time>
      </trkpt>
      <trkpt lat="45.65059" lon="6.78785">
        <ele>1016.4000244141</ele>
        <time>2020-06-28T06:53:53.000Z</time>
      </trkpt>
      <trkpt lat="45.65068" lon="6.78785">
        <ele>1017.4000244141</ele>
        <time>2020-06-28T06:53:57.000Z</time>
      </trkpt>
      <trkpt lat="45.65078" lon="6.78783">
        <ele>1018.5999755859</ele>
        <time>2020-06-28T06:54:01.000Z</time>
      </trkpt>
      <trkpt lat="45.65082" lon="6.78783">
        <ele>1019</ele>
        <time>2020-06-28T06:54:03.000Z</time>
      </trkpt>
      <trkpt lat="45.65086" lon="6.78782">
        <ele>1019.4000244141</ele>
        <time>2020-06-28T06:54:05.000Z</time>
      </trkpt>
      <trkpt lat="45.65094" lon="6.78782">
        <ele>1020.200012207</ele>
        <time>2020-06-28T06:54:09.000Z</time>
      </trkpt>
      <trkpt lat="45.65096" lon="6.78782">
        <ele>1020.4000244141</ele>
        <time>2020-06-28T06:54:10.000Z</time>
      </trkpt>
      <trkpt lat="45.65109" lon="6.78779">
        <ele>1021.799987793</ele>
        <time>2020-06-28T06:54:16.000Z</time>
      </trkpt>
      <trkpt lat="45.65119" lon="6.78779">
        <ele>1023</ele>
        <time>2020-06-28T06:54:20.000Z</time>
      </trkpt>
      <trkpt lat="45.65126" lon="6.78777">
        <ele>1023.5999755859</ele>
        <time>2020-06-28T06:54:23.000Z</time>
      </trkpt>
      <trkpt lat="45.6513" lon="6.78775">
        <ele>1024.1999511719</ele>
        <time>2020-06-28T06:54:25.000Z</time>
      </trkpt>
      <trkpt lat="45.65139" lon="6.78771">
        <ele>1025.1999511719</ele>
        <time>2020-06-28T06:54:29.000Z</time>
      </trkpt>
      <trkpt lat="45.65142" lon="6.7877">
        <ele>1025.4000244141</ele>
        <time>2020-06-28T06:54:30.000Z</time>
      </trkpt>
      <trkpt lat="45.65148" lon="6.78767">
        <ele>1026.1999511719</ele>
        <time>2020-06-28T06:54:33.000Z</time>
      </trkpt>
      <trkpt lat="45.65157" lon="6.78762">
        <ele>1027.1999511719</ele>
        <time>2020-06-28T06:54:37.000Z</time>
      </trkpt>
      <trkpt lat="45.65163" lon="6.78758">
        <ele>1028</ele>
        <time>2020-06-28T06:54:40.000Z</time>
      </trkpt>
      <trkpt lat="45.65167" lon="6.78755">
        <ele>1028.4000244141</ele>
        <time>2020-06-28T06:54:42.000Z</time>
      </trkpt>
      <trkpt lat="45.65175" lon="6.78748">
        <ele>1029.5999755859</ele>
        <time>2020-06-28T06:54:46.000Z</time>
      </trkpt>
      <trkpt lat="45.65179" lon="6.78744">
        <ele>1030.1999511719</ele>
        <time>2020-06-28T06:54:48.000Z</time>
      </trkpt>
      <trkpt lat="45.65183" lon="6.78741">
        <ele>1030.5999755859</ele>
        <time>2020-06-28T06:54:50.000Z</time>
      </trkpt>
      <trkpt lat="45.65193" lon="6.78733">
        <ele>1031.5999755859</ele>
        <time>2020-06-28T06:54:55.000Z</time>
      </trkpt>
      <trkpt lat="45.65196" lon="6.78732">
        <ele>1032</ele>
        <time>2020-06-28T06:54:56.000Z</time>
      </trkpt>
      <trkpt lat="45.65202" lon="6.78728">
        <ele>1032.8000488281</ele>
        <time>2020-06-28T06:54:59.000Z</time>
      </trkpt>
      <trkpt lat="45.65206" lon="6.78725">
        <ele>1033.4000244141</ele>
        <time>2020-06-28T06:55:01.000Z</time>
      </trkpt>
      <trkpt lat="45.6521" lon="6.78722">
        <ele>1033.8000488281</ele>
        <time>2020-06-28T06:55:03.000Z</time>
      </trkpt>
      <trkpt lat="45.6522" lon="6.78715">
        <ele>1035</ele>
        <time>2020-06-28T06:55:07.000Z</time>
      </trkpt>
      <trkpt lat="45.65222" lon="6.78713">
        <ele>1035.1999511719</ele>
        <time>2020-06-28T06:55:08.000Z</time>
      </trkpt>
      <trkpt lat="45.65231" lon="6.78707">
        <ele>1036</ele>
        <time>2020-06-28T06:55:12.000Z</time>
      </trkpt>
      <trkpt lat="45.65237" lon="6.78704">
        <ele>1036.5999755859</ele>
        <time>2020-06-28T06:55:15.000Z</time>
      </trkpt>
      <trkpt lat="45.6524" lon="6.78702">
        <ele>1036.8000488281</ele>
        <time>2020-06-28T06:55:16.000Z</time>
      </trkpt>
      <trkpt lat="45.65251" lon="6.78699">
        <ele>1038</ele>
        <time>2020-06-28T06:55:21.000Z</time>
      </trkpt>
      <trkpt lat="45.65254" lon="6.78699">
        <ele>1038.1999511719</ele>
        <time>2020-06-28T06:55:22.000Z</time>
      </trkpt>
      <trkpt lat="45.65256" lon="6.78699">
        <ele>1038.4000244141</ele>
        <time>2020-06-28T06:55:23.000Z</time>
      </trkpt>
      <trkpt lat="45.65264" lon="6.78699">
        <ele>1039.1999511719</ele>
        <time>2020-06-28T06:55:26.000Z</time>
      </trkpt>
      <trkpt lat="45.65274" lon="6.78699">
        <ele>1040.1999511719</ele>
        <time>2020-06-28T06:55:30.000Z</time>
      </trkpt>
      <trkpt lat="45.65289" lon="6.787">
        <ele>1041.1999511719</ele>
        <time>2020-06-28T06:55:36.000Z</time>
      </trkpt>
      <trkpt lat="45.65301" lon="6.78701">
        <ele>1042.1999511719</ele>
        <time>2020-06-28T06:55:41.000Z</time>
      </trkpt>
      <trkpt lat="45.65306" lon="6.78702">
        <ele>1042.5999755859</ele>
        <time>2020-06-28T06:55:43.000Z</time>
      </trkpt>
      <trkpt lat="45.65314" lon="6.78702">
        <ele>1043.4000244141</ele>
        <time>2020-06-28T06:55:46.000Z</time>
      </trkpt>
      <trkpt lat="45.65328" lon="6.78701">
        <ele>1044.4000244141</ele>
        <time>2020-06-28T06:55:51.000Z</time>
      </trkpt>
      <trkpt lat="45.65333" lon="6.78701">
        <ele>1044.5999755859</ele>
        <time>2020-06-28T06:55:53.000Z</time>
      </trkpt>
      <trkpt lat="45.65344" lon="6.78699">
        <ele>1045.5999755859</ele>
        <time>2020-06-28T06:55:57.000Z</time>
      </trkpt>
      <trkpt lat="45.65354" lon="6.78693">
        <ele>1046.1999511719</ele>
        <time>2020-06-28T06:56:01.000Z</time>
      </trkpt>
      <trkpt lat="45.65361" lon="6.78689">
        <ele>1046.5999755859</ele>
        <time>2020-06-28T06:56:04.000Z</time>
      </trkpt>
      <trkpt lat="45.65371" lon="6.78681">
        <ele>1047.1999511719</ele>
        <time>2020-06-28T06:56:08.000Z</time>
      </trkpt>
      <trkpt lat="45.65378" lon="6.78675">
        <ele>1048</ele>
        <time>2020-06-28T06:56:11.000Z</time>
      </trkpt>
      <trkpt lat="45.65385" lon="6.78668">
        <ele>1048.5999755859</ele>
        <time>2020-06-28T06:56:14.000Z</time>
      </trkpt>
      <trkpt lat="45.6539" lon="6.78663">
        <ele>1049</ele>
        <time>2020-06-28T06:56:16.000Z</time>
      </trkpt>
      <trkpt lat="45.65405" lon="6.78652">
        <ele>1050</ele>
        <time>2020-06-28T06:56:22.000Z</time>
      </trkpt>
      <trkpt lat="45.65409" lon="6.78648">
        <ele>1050.4000244141</ele>
        <time>2020-06-28T06:56:24.000Z</time>
      </trkpt>
      <trkpt lat="45.65416" lon="6.78643">
        <ele>1051</ele>
        <time>2020-06-28T06:56:27.000Z</time>
      </trkpt>
      <trkpt lat="45.65426" lon="6.78635">
        <ele>1052</ele>
        <time>2020-06-28T06:56:31.000Z</time>
      </trkpt>
      <trkpt lat="45.65429" lon="6.78634">
        <ele>1052.1999511719</ele>
        <time>2020-06-28T06:56:32.000Z</time>
      </trkpt>
      <trkpt lat="45.65441" lon="6.78627">
        <ele>1053</ele>
        <time>2020-06-28T06:56:37.000Z</time>
      </trkpt>
      <trkpt lat="45.65447" lon="6.78622">
        <ele>1053.5999755859</ele>
        <time>2020-06-28T06:56:39.000Z</time>
      </trkpt>
      <trkpt lat="45.65456" lon="6.7861">
        <ele>1054.4000244141</ele>
        <time>2020-06-28T06:56:43.000Z</time>
      </trkpt>
      <trkpt lat="45.65464" lon="6.78602">
        <ele>1055</ele>
        <time>2020-06-28T06:56:46.000Z</time>
      </trkpt>
      <trkpt lat="45.65469" lon="6.78597">
        <ele>1055.4000244141</ele>
        <time>2020-06-28T06:56:48.000Z</time>
      </trkpt>
      <trkpt lat="45.65483" lon="6.78579">
        <ele>1056.4000244141</ele>
        <time>2020-06-28T06:56:54.000Z</time>
      </trkpt>
      <trkpt lat="45.65488" lon="6.78573">
        <ele>1056.8000488281</ele>
        <time>2020-06-28T06:56:56.000Z</time>
      </trkpt>
      <trkpt lat="45.65498" lon="6.78563">
        <ele>1057.4000244141</ele>
        <time>2020-06-28T06:57:00.000Z</time>
      </trkpt>
      <trkpt lat="45.65512" lon="6.78549">
        <ele>1058.4000244141</ele>
        <time>2020-06-28T06:57:06.000Z</time>
      </trkpt>
      <trkpt lat="45.65514" lon="6.78546">
        <ele>1058.5999755859</ele>
        <time>2020-06-28T06:57:07.000Z</time>
      </trkpt>
      <trkpt lat="45.65528" lon="6.78531">
        <ele>1059.4000244141</ele>
        <time>2020-06-28T06:57:13.000Z</time>
      </trkpt>
      <trkpt lat="45.65535" lon="6.78525">
        <ele>1060.1999511719</ele>
        <time>2020-06-28T06:57:16.000Z</time>
      </trkpt>
      <trkpt lat="45.65542" lon="6.78518">
        <ele>1060.5999755859</ele>
        <time>2020-06-28T06:57:19.000Z</time>
      </trkpt>
      <trkpt lat="45.65553" lon="6.78505">
        <ele>1061.8000488281</ele>
        <time>2020-06-28T06:57:24.000Z</time>
      </trkpt>
      <trkpt lat="45.65555" lon="6.78503">
        <ele>1062</ele>
        <time>2020-06-28T06:57:25.000Z</time>
      </trkpt>
      <trkpt lat="45.65563" lon="6.78494">
        <ele>1062.8000488281</ele>
        <time>2020-06-28T06:57:29.000Z</time>
      </trkpt>
      <trkpt lat="45.65571" lon="6.78485">
        <ele>1063.8000488281</ele>
        <time>2020-06-28T06:57:33.000Z</time>
      </trkpt>
      <trkpt lat="45.65577" lon="6.78478">
        <ele>1064.8000488281</ele>
        <time>2020-06-28T06:57:36.000Z</time>
      </trkpt>
      <trkpt lat="45.65587" lon="6.78467">
        <ele>1066</ele>
        <time>2020-06-28T06:57:41.000Z</time>
      </trkpt>
      <trkpt lat="45.65594" lon="6.78458">
        <ele>1067</ele>
        <time>2020-06-28T06:57:45.000Z</time>
      </trkpt>
      <trkpt lat="45.65596" lon="6.78455">
        <ele>1067.1999511719</ele>
        <time>2020-06-28T06:57:46.000Z</time>
      </trkpt>
      <trkpt lat="45.65605" lon="6.78443">
        <ele>1068</ele>
        <time>2020-06-28T06:57:51.000Z</time>
      </trkpt>
      <trkpt lat="45.65612" lon="6.78435">
        <ele>1069.1999511719</ele>
        <time>2020-06-28T06:57:55.000Z</time>
      </trkpt>
      <trkpt lat="45.65619" lon="6.78427">
        <ele>1070.1999511719</ele>
        <time>2020-06-28T06:57:59.000Z</time>
      </trkpt>
      <trkpt lat="45.65624" lon="6.78422">
        <ele>1071.4000244141</ele>
        <time>2020-06-28T06:58:02.000Z</time>
      </trkpt>
      <trkpt lat="45.65626" lon="6.7842">
        <ele>1071.5999755859</ele>
        <time>2020-06-28T06:58:03.000Z</time>
      </trkpt>
      <trkpt lat="45.6563" lon="6.78414">
        <ele>1072.4000244141</ele>
        <time>2020-06-28T06:58:06.000Z</time>
      </trkpt>
      <trkpt lat="45.65639" lon="6.78406">
        <ele>1073.4000244141</ele>
        <time>2020-06-28T06:58:11.000Z</time>
      </trkpt>
      <trkpt lat="45.65649" lon="6.784">
        <ele>1074.4000244141</ele>
        <time>2020-06-28T06:58:16.000Z</time>
      </trkpt>
      <trkpt lat="45.65653" lon="6.78397">
        <ele>1075</ele>
        <time>2020-06-28T06:58:18.000Z</time>
      </trkpt>
      <trkpt lat="45.65659" lon="6.7839">
        <ele>1075.5999755859</ele>
        <time>2020-06-28T06:58:21.000Z</time>
      </trkpt>
      <trkpt lat="45.6567" lon="6.78381">
        <ele>1076.8000488281</ele>
        <time>2020-06-28T06:58:26.000Z</time>
      </trkpt>
      <trkpt lat="45.65672" lon="6.7838">
        <ele>1077</ele>
        <time>2020-06-28T06:58:27.000Z</time>
      </trkpt>
      <trkpt lat="45.65678" lon="6.78375">
        <ele>1077.8000488281</ele>
        <time>2020-06-28T06:58:30.000Z</time>
      </trkpt>
      <trkpt lat="45.65687" lon="6.78369">
        <ele>1078.4000244141</ele>
        <time>2020-06-28T06:58:34.000Z</time>
      </trkpt>
      <trkpt lat="45.65691" lon="6.78366">
        <ele>1078.8000488281</ele>
        <time>2020-06-28T06:58:36.000Z</time>
      </trkpt>
      <trkpt lat="45.65702" lon="6.78355">
        <ele>1079.8000488281</ele>
        <time>2020-06-28T06:58:41.000Z</time>
      </trkpt>
      <trkpt lat="45.65704" lon="6.78353">
        <ele>1080</ele>
        <time>2020-06-28T06:58:42.000Z</time>
      </trkpt>
      <trkpt lat="45.65716" lon="6.78345">
        <ele>1080.8000488281</ele>
        <time>2020-06-28T06:58:47.000Z</time>
      </trkpt>
      <trkpt lat="45.65718" lon="6.78343">
        <ele>1081</ele>
        <time>2020-06-28T06:58:48.000Z</time>
      </trkpt>
      <trkpt lat="45.65729" lon="6.78338">
        <ele>1082.1999511719</ele>
        <time>2020-06-28T06:58:53.000Z</time>
      </trkpt>
      <trkpt lat="45.65731" lon="6.78337">
        <ele>1082.4000244141</ele>
        <time>2020-06-28T06:58:54.000Z</time>
      </trkpt>
      <trkpt lat="45.6574" lon="6.78335">
        <ele>1083.4000244141</ele>
        <time>2020-06-28T06:58:58.000Z</time>
      </trkpt>
      <trkpt lat="45.65751" lon="6.78329">
        <ele>1084.4000244141</ele>
        <time>2020-06-28T06:59:03.000Z</time>
      </trkpt>
      <trkpt lat="45.65764" lon="6.78319">
        <ele>1085.4000244141</ele>
        <time>2020-06-28T06:59:09.000Z</time>
      </trkpt>
      <trkpt lat="45.65768" lon="6.78316">
        <ele>1085.8000488281</ele>
        <time>2020-06-28T06:59:11.000Z</time>
      </trkpt>
      <trkpt lat="45.65774" lon="6.78313">
        <ele>1086.5999755859</ele>
        <time>2020-06-28T06:59:14.000Z</time>
      </trkpt>
      <trkpt lat="45.65785" lon="6.7831">
        <ele>1087.8000488281</ele>
        <time>2020-06-28T06:59:19.000Z</time>
      </trkpt>
      <trkpt lat="45.65794" lon="6.78309">
        <ele>1088.5999755859</ele>
        <time>2020-06-28T06:59:23.000Z</time>
      </trkpt>
      <trkpt lat="45.65803" lon="6.78306">
        <ele>1089.8000488281</ele>
        <time>2020-06-28T06:59:27.000Z</time>
      </trkpt>
      <trkpt lat="45.6581" lon="6.78302">
        <ele>1090.5999755859</ele>
        <time>2020-06-28T06:59:30.000Z</time>
      </trkpt>
      <trkpt lat="45.65812" lon="6.78301">
        <ele>1090.8000488281</ele>
        <time>2020-06-28T06:59:31.000Z</time>
      </trkpt>
      <trkpt lat="45.65823" lon="6.78296">
        <ele>1091.8000488281</ele>
        <time>2020-06-28T06:59:36.000Z</time>
      </trkpt>
      <trkpt lat="45.65832" lon="6.78292">
        <ele>1092.8000488281</ele>
        <time>2020-06-28T06:59:40.000Z</time>
      </trkpt>
      <trkpt lat="45.65834" lon="6.78291">
        <ele>1093</ele>
        <time>2020-06-28T06:59:41.000Z</time>
      </trkpt>
      <trkpt lat="45.65845" lon="6.78286">
        <ele>1094.1999511719</ele>
        <time>2020-06-28T06:59:46.000Z</time>
      </trkpt>
      <trkpt lat="45.65854" lon="6.78281">
        <ele>1095.1999511719</ele>
        <time>2020-06-28T06:59:50.000Z</time>
      </trkpt>
      <trkpt lat="45.65856" lon="6.7828">
        <ele>1095.4000244141</ele>
        <time>2020-06-28T06:59:51.000Z</time>
      </trkpt>
      <trkpt lat="45.65862" lon="6.78276">
        <ele>1096.5999755859</ele>
        <time>2020-06-28T06:59:54.000Z</time>
      </trkpt>
      <trkpt lat="45.65872" lon="6.78268">
        <ele>1097.5999755859</ele>
        <time>2020-06-28T06:59:59.000Z</time>
      </trkpt>
      <trkpt lat="45.6588" lon="6.7826">
        <ele>1098.5999755859</ele>
        <time>2020-06-28T07:00:03.000Z</time>
      </trkpt>
      <trkpt lat="45.65887" lon="6.78251">
        <ele>1099.5999755859</ele>
        <time>2020-06-28T07:00:07.000Z</time>
      </trkpt>
      <trkpt lat="45.65888" lon="6.78249">
        <ele>1099.8000488281</ele>
        <time>2020-06-28T07:00:08.000Z</time>
      </trkpt>
      <trkpt lat="45.65897" lon="6.78235">
        <ele>1101</ele>
        <time>2020-06-28T07:00:13.000Z</time>
      </trkpt>
      <trkpt lat="45.659" lon="6.78231">
        <ele>1101.4000244141</ele>
        <time>2020-06-28T07:00:15.000Z</time>
      </trkpt>
      <trkpt lat="45.65903" lon="6.78226">
        <ele>1101.8000488281</ele>
        <time>2020-06-28T07:00:17.000Z</time>
      </trkpt>
      <trkpt lat="45.6591" lon="6.78216">
        <ele>1103</ele>
        <time>2020-06-28T07:00:21.000Z</time>
      </trkpt>
      <trkpt lat="45.65918" lon="6.78205">
        <ele>1104</ele>
        <time>2020-06-28T07:00:26.000Z</time>
      </trkpt>
      <trkpt lat="45.65922" lon="6.78201">
        <ele>1104.4000244141</ele>
        <time>2020-06-28T07:00:28.000Z</time>
      </trkpt>
      <trkpt lat="45.65927" lon="6.78197">
        <ele>1105.1999511719</ele>
        <time>2020-06-28T07:00:31.000Z</time>
      </trkpt>
      <trkpt lat="45.65939" lon="6.78189">
        <ele>1106.4000244141</ele>
        <time>2020-06-28T07:00:37.000Z</time>
      </trkpt>
      <trkpt lat="45.65941" lon="6.78188">
        <ele>1106.5999755859</ele>
        <time>2020-06-28T07:00:38.000Z</time>
      </trkpt>
      <trkpt lat="45.65951" lon="6.78182">
        <ele>1107.4000244141</ele>
        <time>2020-06-28T07:00:42.000Z</time>
      </trkpt>
      <trkpt lat="45.6596" lon="6.78178">
        <ele>1108.5999755859</ele>
        <time>2020-06-28T07:00:46.000Z</time>
      </trkpt>
      <trkpt lat="45.65964" lon="6.78177">
        <ele>1109.1999511719</ele>
        <time>2020-06-28T07:00:48.000Z</time>
      </trkpt>
      <trkpt lat="45.65969" lon="6.78176">
        <ele>1109.5999755859</ele>
        <time>2020-06-28T07:00:50.000Z</time>
      </trkpt>
      <trkpt lat="45.65981" lon="6.78174">
        <ele>1110.4000244141</ele>
        <time>2020-06-28T07:00:55.000Z</time>
      </trkpt>
      <trkpt lat="45.65983" lon="6.78174">
        <ele>1110.5999755859</ele>
        <time>2020-06-28T07:00:56.000Z</time>
      </trkpt>
      <trkpt lat="45.65994" lon="6.78175">
        <ele>1111.5999755859</ele>
        <time>2020-06-28T07:01:01.000Z</time>
      </trkpt>
      <trkpt lat="45.65999" lon="6.78176">
        <ele>1112.1999511719</ele>
        <time>2020-06-28T07:01:03.000Z</time>
      </trkpt>
      <trkpt lat="45.66007" lon="6.78176">
        <ele>1113</ele>
        <time>2020-06-28T07:01:06.000Z</time>
      </trkpt>
      <trkpt lat="45.66016" lon="6.78176">
        <ele>1113.4000244141</ele>
        <time>2020-06-28T07:01:10.000Z</time>
      </trkpt>
      <trkpt lat="45.66026" lon="6.78172">
        <ele>1114</ele>
        <time>2020-06-28T07:01:14.000Z</time>
      </trkpt>
      <trkpt lat="45.66029" lon="6.78171">
        <ele>1114.4000244141</ele>
        <time>2020-06-28T07:01:15.000Z</time>
      </trkpt>
      <trkpt lat="45.66035" lon="6.78166">
        <ele>1114.8000488281</ele>
        <time>2020-06-28T07:01:18.000Z</time>
      </trkpt>
      <trkpt lat="45.66037" lon="6.78164">
        <ele>1115</ele>
        <time>2020-06-28T07:01:19.000Z</time>
      </trkpt>
      <trkpt lat="45.66048" lon="6.7815">
        <ele>1116</ele>
        <time>2020-06-28T07:01:25.000Z</time>
      </trkpt>
      <trkpt lat="45.66053" lon="6.78143">
        <ele>1116.8000488281</ele>
        <time>2020-06-28T07:01:28.000Z</time>
      </trkpt>
      <trkpt lat="45.66056" lon="6.78138">
        <ele>1117.1999511719</ele>
        <time>2020-06-28T07:01:30.000Z</time>
      </trkpt>
      <trkpt lat="45.66065" lon="6.78124">
        <ele>1118.4000244141</ele>
        <time>2020-06-28T07:01:36.000Z</time>
      </trkpt>
      <trkpt lat="45.66069" lon="6.78119">
        <ele>1118.5999755859</ele>
        <time>2020-06-28T07:01:38.000Z</time>
      </trkpt>
      <trkpt lat="45.66074" lon="6.78113">
        <ele>1119.1999511719</ele>
        <time>2020-06-28T07:01:41.000Z</time>
      </trkpt>
      <trkpt lat="45.66082" lon="6.78102">
        <ele>1120.4000244141</ele>
        <time>2020-06-28T07:01:46.000Z</time>
      </trkpt>
      <trkpt lat="45.66091" lon="6.78093">
        <ele>1121.4000244141</ele>
        <time>2020-06-28T07:01:51.000Z</time>
      </trkpt>
      <trkpt lat="45.66097" lon="6.78089">
        <ele>1122</ele>
        <time>2020-06-28T07:01:54.000Z</time>
      </trkpt>
      <trkpt lat="45.66103" lon="6.78083">
        <ele>1122.4000244141</ele>
        <time>2020-06-28T07:01:57.000Z</time>
      </trkpt>
      <trkpt lat="45.66113" lon="6.78076">
        <ele>1123.4000244141</ele>
        <time>2020-06-28T07:02:01.000Z</time>
      </trkpt>
      <trkpt lat="45.66115" lon="6.78073">
        <ele>1123.5999755859</ele>
        <time>2020-06-28T07:02:02.000Z</time>
      </trkpt>
      <trkpt lat="45.66131" lon="6.78063">
        <ele>1124.8000488281</ele>
        <time>2020-06-28T07:02:09.000Z</time>
      </trkpt>
      <trkpt lat="45.66137" lon="6.78056">
        <ele>1125.8000488281</ele>
        <time>2020-06-28T07:02:12.000Z</time>
      </trkpt>
      <trkpt lat="45.66148" lon="6.78048">
        <ele>1126.8000488281</ele>
        <time>2020-06-28T07:02:17.000Z</time>
      </trkpt>
      <trkpt lat="45.6616" lon="6.7804">
        <ele>1128</ele>
        <time>2020-06-28T07:02:23.000Z</time>
      </trkpt>
      <trkpt lat="45.66168" lon="6.78034">
        <ele>1128.8000488281</ele>
        <time>2020-06-28T07:02:27.000Z</time>
      </trkpt>
      <trkpt lat="45.66172" lon="6.7803">
        <ele>1129.1999511719</ele>
        <time>2020-06-28T07:02:29.000Z</time>
      </trkpt>
      <trkpt lat="45.66185" lon="6.78016">
        <ele>1130.1999511719</ele>
        <time>2020-06-28T07:02:35.000Z</time>
      </trkpt>
      <trkpt lat="45.66195" lon="6.78005">
        <ele>1131.1999511719</ele>
        <time>2020-06-28T07:02:40.000Z</time>
      </trkpt>
      <trkpt lat="45.66205" lon="6.77993">
        <ele>1132</ele>
        <time>2020-06-28T07:02:45.000Z</time>
      </trkpt>
      <trkpt lat="45.66207" lon="6.7799">
        <ele>1132.1999511719</ele>
        <time>2020-06-28T07:02:46.000Z</time>
      </trkpt>
      <trkpt lat="45.66217" lon="6.77969">
        <ele>1133</ele>
        <time>2020-06-28T07:02:52.000Z</time>
      </trkpt>
      <trkpt lat="45.66219" lon="6.77966">
        <ele>1133.1999511719</ele>
        <time>2020-06-28T07:02:53.000Z</time>
      </trkpt>
      <trkpt lat="45.66227" lon="6.7795">
        <ele>1134.1999511719</ele>
        <time>2020-06-28T07:02:58.000Z</time>
      </trkpt>
      <trkpt lat="45.66235" lon="6.77939">
        <ele>1134.8000488281</ele>
        <time>2020-06-28T07:03:02.000Z</time>
      </trkpt>
      <trkpt lat="45.66239" lon="6.77934">
        <ele>1135.1999511719</ele>
        <time>2020-06-28T07:03:04.000Z</time>
      </trkpt>
      <trkpt lat="45.6625" lon="6.77925">
        <ele>1136.4000244141</ele>
        <time>2020-06-28T07:03:09.000Z</time>
      </trkpt>
      <trkpt lat="45.66252" lon="6.77923">
        <ele>1136.5999755859</ele>
        <time>2020-06-28T07:03:10.000Z</time>
      </trkpt>
      <trkpt lat="45.66265" lon="6.77923">
        <ele>1137.5999755859</ele>
        <time>2020-06-28T07:03:15.000Z</time>
      </trkpt>
      <trkpt lat="45.66272" lon="6.77924">
        <ele>1137.8000488281</ele>
        <time>2020-06-28T07:03:18.000Z</time>
      </trkpt>
      <trkpt lat="45.66282" lon="6.77925">
        <ele>1138.8000488281</ele>
        <time>2020-06-28T07:03:22.000Z</time>
      </trkpt>
      <trkpt lat="45.66292" lon="6.77924">
        <ele>1140</ele>
        <time>2020-06-28T07:03:26.000Z</time>
      </trkpt>
      <trkpt lat="45.66305" lon="6.77922">
        <ele>1141</ele>
        <time>2020-06-28T07:03:32.000Z</time>
      </trkpt>
      <trkpt lat="45.66311" lon="6.77915">
        <ele>1142</ele>
        <time>2020-06-28T07:03:35.000Z</time>
      </trkpt>
      <trkpt lat="45.66313" lon="6.77914">
        <ele>1142.1999511719</ele>
        <time>2020-06-28T07:03:36.000Z</time>
      </trkpt>
      <trkpt lat="45.66321" lon="6.77905">
        <ele>1143</ele>
        <time>2020-06-28T07:03:40.000Z</time>
      </trkpt>
      <trkpt lat="45.66327" lon="6.77894">
        <ele>1144</ele>
        <time>2020-06-28T07:03:44.000Z</time>
      </trkpt>
      <trkpt lat="45.66328" lon="6.77891">
        <ele>1144.1999511719</ele>
        <time>2020-06-28T07:03:45.000Z</time>
      </trkpt>
      <trkpt lat="45.66336" lon="6.77876">
        <ele>1145.1999511719</ele>
        <time>2020-06-28T07:03:50.000Z</time>
      </trkpt>
      <trkpt lat="45.66342" lon="6.77864">
        <ele>1146</ele>
        <time>2020-06-28T07:03:54.000Z</time>
      </trkpt>
      <trkpt lat="45.66345" lon="6.77858">
        <ele>1146.4000244141</ele>
        <time>2020-06-28T07:03:56.000Z</time>
      </trkpt>
      <trkpt lat="45.66354" lon="6.77846">
        <ele>1147.8000488281</ele>
        <time>2020-06-28T07:04:01.000Z</time>
      </trkpt>
      <trkpt lat="45.66359" lon="6.7784">
        <ele>1148</ele>
        <time>2020-06-28T07:04:04.000Z</time>
      </trkpt>
      <trkpt lat="45.66365" lon="6.77835">
        <ele>1148.5999755859</ele>
        <time>2020-06-28T07:04:07.000Z</time>
      </trkpt>
      <trkpt lat="45.66375" lon="6.77825">
        <ele>1149.4000244141</ele>
        <time>2020-06-28T07:04:12.000Z</time>
      </trkpt>
      <trkpt lat="45.66379" lon="6.77822">
        <ele>1149.8000488281</ele>
        <time>2020-06-28T07:04:14.000Z</time>
      </trkpt>
      <trkpt lat="45.6639" lon="6.7781">
        <ele>1150.8000488281</ele>
        <time>2020-06-28T07:04:19.000Z</time>
      </trkpt>
      <trkpt lat="45.66392" lon="6.77808">
        <ele>1151</ele>
        <time>2020-06-28T07:04:20.000Z</time>
      </trkpt>
      <trkpt lat="45.66404" lon="6.77798">
        <ele>1152</ele>
        <time>2020-06-28T07:04:25.000Z</time>
      </trkpt>
      <trkpt lat="45.66414" lon="6.7779">
        <ele>1152.8000488281</ele>
        <time>2020-06-28T07:04:29.000Z</time>
      </trkpt>
      <trkpt lat="45.66419" lon="6.77786">
        <ele>1153.1999511719</ele>
        <time>2020-06-28T07:04:31.000Z</time>
      </trkpt>
      <trkpt lat="45.6643" lon="6.77777">
        <ele>1154.1999511719</ele>
        <time>2020-06-28T07:04:36.000Z</time>
      </trkpt>
      <trkpt lat="45.66439" lon="6.77768">
        <ele>1154.8000488281</ele>
        <time>2020-06-28T07:04:40.000Z</time>
      </trkpt>
      <trkpt lat="45.66443" lon="6.77764">
        <ele>1155.1999511719</ele>
        <time>2020-06-28T07:04:42.000Z</time>
      </trkpt>
      <trkpt lat="45.66456" lon="6.77751">
        <ele>1156.4000244141</ele>
        <time>2020-06-28T07:04:48.000Z</time>
      </trkpt>
      <trkpt lat="45.66465" lon="6.77742">
        <ele>1157.1999511719</ele>
        <time>2020-06-28T07:04:52.000Z</time>
      </trkpt>
      <trkpt lat="45.66469" lon="6.77738">
        <ele>1157.4000244141</ele>
        <time>2020-06-28T07:04:54.000Z</time>
      </trkpt>
      <trkpt lat="45.66483" lon="6.77725">
        <ele>1158.5999755859</ele>
        <time>2020-06-28T07:05:00.000Z</time>
      </trkpt>
      <trkpt lat="45.66489" lon="6.77717">
        <ele>1159.1999511719</ele>
        <time>2020-06-28T07:05:03.000Z</time>
      </trkpt>
      <trkpt lat="45.66495" lon="6.77705">
        <ele>1159.8000488281</ele>
        <time>2020-06-28T07:05:07.000Z</time>
      </trkpt>
      <trkpt lat="45.665" lon="6.77692">
        <ele>1160.5999755859</ele>
        <time>2020-06-28T07:05:11.000Z</time>
      </trkpt>
      <trkpt lat="45.66501" lon="6.77689">
        <ele>1160.8000488281</ele>
        <time>2020-06-28T07:05:12.000Z</time>
      </trkpt>
      <trkpt lat="45.66507" lon="6.7767">
        <ele>1162</ele>
        <time>2020-06-28T07:05:17.000Z</time>
      </trkpt>
      <trkpt lat="45.66511" lon="6.77661">
        <ele>1162.4000244141</ele>
        <time>2020-06-28T07:05:19.000Z</time>
      </trkpt>
      <trkpt lat="45.66515" lon="6.77644">
        <ele>1162.8000488281</ele>
        <time>2020-06-28T07:05:23.000Z</time>
      </trkpt>
      <trkpt lat="45.66518" lon="6.77633">
        <ele>1163.8000488281</ele>
        <time>2020-06-28T07:05:26.000Z</time>
      </trkpt>
      <trkpt lat="45.66518" lon="6.77629">
        <ele>1163.8000488281</ele>
        <time>2020-06-28T07:05:27.000Z</time>
      </trkpt>
      <trkpt lat="45.66525" lon="6.77606">
        <ele>1165.1999511719</ele>
        <time>2020-06-28T07:05:33.000Z</time>
      </trkpt>
      <trkpt lat="45.66528" lon="6.77595">
        <ele>1165.8000488281</ele>
        <time>2020-06-28T07:05:36.000Z</time>
      </trkpt>
      <trkpt lat="45.6653" lon="6.77588">
        <ele>1166.1999511719</ele>
        <time>2020-06-28T07:05:38.000Z</time>
      </trkpt>
      <trkpt lat="45.66536" lon="6.77568">
        <ele>1167.4000244141</ele>
        <time>2020-06-28T07:05:44.000Z</time>
      </trkpt>
      <trkpt lat="45.6654" lon="6.77558">
        <ele>1167.8000488281</ele>
        <time>2020-06-28T07:05:47.000Z</time>
      </trkpt>
      <trkpt lat="45.66544" lon="6.77548">
        <ele>1168.5999755859</ele>
        <time>2020-06-28T07:05:50.000Z</time>
      </trkpt>
      <trkpt lat="45.66552" lon="6.7753">
        <ele>1169.8000488281</ele>
        <time>2020-06-28T07:05:55.000Z</time>
      </trkpt>
      <trkpt lat="45.66556" lon="6.77519">
        <ele>1170.4000244141</ele>
        <time>2020-06-28T07:05:58.000Z</time>
      </trkpt>
      <trkpt lat="45.66561" lon="6.7751">
        <ele>1170.8000488281</ele>
        <time>2020-06-28T07:06:01.000Z</time>
      </trkpt>
      <trkpt lat="45.6657" lon="6.77495">
        <ele>1171.8000488281</ele>
        <time>2020-06-28T07:06:06.000Z</time>
      </trkpt>
      <trkpt lat="45.66572" lon="6.77492">
        <ele>1172</ele>
        <time>2020-06-28T07:06:07.000Z</time>
      </trkpt>
      <trkpt lat="45.6658" lon="6.77477">
        <ele>1173</ele>
        <time>2020-06-28T07:06:12.000Z</time>
      </trkpt>
      <trkpt lat="45.66585" lon="6.77467">
        <ele>1173.4000244141</ele>
        <time>2020-06-28T07:06:15.000Z</time>
      </trkpt>
      <trkpt lat="45.66591" lon="6.77454">
        <ele>1174.4000244141</ele>
        <time>2020-06-28T07:06:19.000Z</time>
      </trkpt>
      <trkpt lat="45.66597" lon="6.77442">
        <ele>1174.8000488281</ele>
        <time>2020-06-28T07:06:23.000Z</time>
      </trkpt>
      <trkpt lat="45.66607" lon="6.77435">
        <ele>1175.5999755859</ele>
        <time>2020-06-28T07:06:27.000Z</time>
      </trkpt>
      <trkpt lat="45.6661" lon="6.77434">
        <ele>1175.8000488281</ele>
        <time>2020-06-28T07:06:28.000Z</time>
      </trkpt>
      <trkpt lat="45.66619" lon="6.77443">
        <ele>1176.5999755859</ele>
        <time>2020-06-28T07:06:32.000Z</time>
      </trkpt>
      <trkpt lat="45.6662" lon="6.77446">
        <ele>1176.8000488281</ele>
        <time>2020-06-28T07:06:33.000Z</time>
      </trkpt>
      <trkpt lat="45.6662" lon="6.77459">
        <ele>1177.1999511719</ele>
        <time>2020-06-28T07:06:36.000Z</time>
      </trkpt>
      <trkpt lat="45.66617" lon="6.7747">
        <ele>1177.8000488281</ele>
        <time>2020-06-28T07:06:39.000Z</time>
      </trkpt>
      <trkpt lat="45.66611" lon="6.77488">
        <ele>1179</ele>
        <time>2020-06-28T07:06:44.000Z</time>
      </trkpt>
      <trkpt lat="45.66613" lon="6.77509">
        <ele>1180</ele>
        <time>2020-06-28T07:06:49.000Z</time>
      </trkpt>
      <trkpt lat="45.66623" lon="6.77531">
        <ele>1180.8000488281</ele>
        <time>2020-06-28T07:06:55.000Z</time>
      </trkpt>
      <trkpt lat="45.66628" lon="6.7754">
        <ele>1181</ele>
        <time>2020-06-28T07:06:58.000Z</time>
      </trkpt>
      <trkpt lat="45.66637" lon="6.77557">
        <ele>1181.5999755859</ele>
        <time>2020-06-28T07:07:03.000Z</time>
      </trkpt>
      <trkpt lat="45.6664" lon="6.77569">
        <ele>1182</ele>
        <time>2020-06-28T07:07:06.000Z</time>
      </trkpt>
      <trkpt lat="45.66641" lon="6.77576">
        <ele>1182.4000244141</ele>
        <time>2020-06-28T07:07:08.000Z</time>
      </trkpt>
      <trkpt lat="45.66641" lon="6.77591">
        <ele>1183.4000244141</ele>
        <time>2020-06-28T07:07:12.000Z</time>
      </trkpt>
      <trkpt lat="45.6664" lon="6.77599">
        <ele>1184.1999511719</ele>
        <time>2020-06-28T07:07:14.000Z</time>
      </trkpt>
      <trkpt lat="45.66641" lon="6.77602">
        <ele>1184.4000244141</ele>
        <time>2020-06-28T07:07:15.000Z</time>
      </trkpt>
      <trkpt lat="45.66643" lon="6.77604">
        <ele>1184.5999755859</ele>
        <time>2020-06-28T07:07:16.000Z</time>
      </trkpt>
      <trkpt lat="45.66646" lon="6.77605">
        <ele>1184.8000488281</ele>
        <time>2020-06-28T07:07:17.000Z</time>
      </trkpt>
      <trkpt lat="45.66652" lon="6.77602">
        <ele>1185.5999755859</ele>
        <time>2020-06-28T07:07:20.000Z</time>
      </trkpt>
      <trkpt lat="45.66653" lon="6.776">
        <ele>1185.5999755859</ele>
        <time>2020-06-28T07:07:21.000Z</time>
      </trkpt>
      <trkpt lat="45.66655" lon="6.77597">
        <ele>1185.8000488281</ele>
        <time>2020-06-28T07:07:22.000Z</time>
      </trkpt>
      <trkpt lat="45.66661" lon="6.77588">
        <ele>1186.5999755859</ele>
        <time>2020-06-28T07:07:26.000Z</time>
      </trkpt>
      <trkpt lat="45.66665" lon="6.77582">
        <ele>1187</ele>
        <time>2020-06-28T07:07:28.000Z</time>
      </trkpt>
      <trkpt lat="45.66669" lon="6.77573">
        <ele>1187.5999755859</ele>
        <time>2020-06-28T07:07:31.000Z</time>
      </trkpt>
      <trkpt lat="45.66673" lon="6.7756">
        <ele>1188.4000244141</ele>
        <time>2020-06-28T07:07:35.000Z</time>
      </trkpt>
      <trkpt lat="45.66673" lon="6.77557">
        <ele>1188.4000244141</ele>
        <time>2020-06-28T07:07:36.000Z</time>
      </trkpt>
      <trkpt lat="45.66678" lon="6.77543">
        <ele>1189.5999755859</ele>
        <time>2020-06-28T07:07:41.000Z</time>
      </trkpt>
      <trkpt lat="45.66682" lon="6.77533">
        <ele>1190.8000488281</ele>
        <time>2020-06-28T07:07:45.000Z</time>
      </trkpt>
      <trkpt lat="45.66685" lon="6.77529">
        <ele>1191.4000244141</ele>
        <time>2020-06-28T07:07:47.000Z</time>
      </trkpt>
      <trkpt lat="45.66689" lon="6.77523">
        <ele>1192.1999511719</ele>
        <time>2020-06-28T07:07:50.000Z</time>
      </trkpt>
      <trkpt lat="45.66694" lon="6.77515">
        <ele>1193.1999511719</ele>
        <time>2020-06-28T07:07:54.000Z</time>
      </trkpt>
      <trkpt lat="45.66699" lon="6.77502">
        <ele>1194.1999511719</ele>
        <time>2020-06-28T07:07:59.000Z</time>
      </trkpt>
      <trkpt lat="45.667" lon="6.77499">
        <ele>1194.5999755859</ele>
        <time>2020-06-28T07:08:00.000Z</time>
      </trkpt>
      <trkpt lat="45.66704" lon="6.77487">
        <ele>1195.4000244141</ele>
        <time>2020-06-28T07:08:03.000Z</time>
      </trkpt>
      <trkpt lat="45.66708" lon="6.77475">
        <ele>1196</ele>
        <time>2020-06-28T07:08:07.000Z</time>
      </trkpt>
      <trkpt lat="45.6671" lon="6.77471">
        <ele>1196.1999511719</ele>
        <time>2020-06-28T07:08:08.000Z</time>
      </trkpt>
      <trkpt lat="45.66713" lon="6.77459">
        <ele>1197.4000244141</ele>
        <time>2020-06-28T07:08:12.000Z</time>
      </trkpt>
      <trkpt lat="45.66714" lon="6.77455">
        <ele>1197.5999755859</ele>
        <time>2020-06-28T07:08:13.000Z</time>
      </trkpt>
      <trkpt lat="45.66713" lon="6.77437">
        <ele>1198.4000244141</ele>
        <time>2020-06-28T07:08:17.000Z</time>
      </trkpt>
      <trkpt lat="45.66715" lon="6.77431">
        <ele>1198.5999755859</ele>
        <time>2020-06-28T07:08:18.000Z</time>
      </trkpt>
      <trkpt lat="45.66715" lon="6.77421">
        <ele>1199</ele>
        <time>2020-06-28T07:08:20.000Z</time>
      </trkpt>
      <trkpt lat="45.66713" lon="6.77413">
        <ele>1199.4000244141</ele>
        <time>2020-06-28T07:08:22.000Z</time>
      </trkpt>
      <trkpt lat="45.66707" lon="6.77397">
        <ele>1200.1999511719</ele>
        <time>2020-06-28T07:08:26.000Z</time>
      </trkpt>
      <trkpt lat="45.66705" lon="6.77393">
        <ele>1200.4000244141</ele>
        <time>2020-06-28T07:08:27.000Z</time>
      </trkpt>
      <trkpt lat="45.66692" lon="6.77373">
        <ele>1201.5999755859</ele>
        <time>2020-06-28T07:08:33.000Z</time>
      </trkpt>
      <trkpt lat="45.6669" lon="6.7737">
        <ele>1201.8000488281</ele>
        <time>2020-06-28T07:08:34.000Z</time>
      </trkpt>
      <trkpt lat="45.66686" lon="6.7736">
        <ele>1202.8000488281</ele>
        <time>2020-06-28T07:08:37.000Z</time>
      </trkpt>
      <trkpt lat="45.66683" lon="6.77346">
        <ele>1203.8000488281</ele>
        <time>2020-06-28T07:08:41.000Z</time>
      </trkpt>
      <trkpt lat="45.66683" lon="6.77343">
        <ele>1204</ele>
        <time>2020-06-28T07:08:42.000Z</time>
      </trkpt>
      <trkpt lat="45.66684" lon="6.77328">
        <ele>1205.1999511719</ele>
        <time>2020-06-28T07:08:46.000Z</time>
      </trkpt>
      <trkpt lat="45.66686" lon="6.77315">
        <ele>1206</ele>
        <time>2020-06-28T07:08:50.000Z</time>
      </trkpt>
      <trkpt lat="45.66687" lon="6.77311">
        <ele>1206.1999511719</ele>
        <time>2020-06-28T07:08:51.000Z</time>
      </trkpt>
      <trkpt lat="45.66692" lon="6.77295">
        <ele>1207.4000244141</ele>
        <time>2020-06-28T07:08:56.000Z</time>
      </trkpt>
      <trkpt lat="45.66696" lon="6.77282">
        <ele>1208.1999511719</ele>
        <time>2020-06-28T07:09:00.000Z</time>
      </trkpt>
      <trkpt lat="45.66698" lon="6.77278">
        <ele>1208.4000244141</ele>
        <time>2020-06-28T07:09:01.000Z</time>
      </trkpt>
      <trkpt lat="45.66701" lon="6.77262">
        <ele>1209.5999755859</ele>
        <time>2020-06-28T07:09:05.000Z</time>
      </trkpt>
      <trkpt lat="45.66703" lon="6.77248">
        <ele>1210</ele>
        <time>2020-06-28T07:09:09.000Z</time>
      </trkpt>
      <trkpt lat="45.66704" lon="6.77236">
        <ele>1210.5999755859</ele>
        <time>2020-06-28T07:09:12.000Z</time>
      </trkpt>
      <trkpt lat="45.66705" lon="6.7722">
        <ele>1211.4000244141</ele>
        <time>2020-06-28T07:09:17.000Z</time>
      </trkpt>
      <trkpt lat="45.66706" lon="6.77219">
        <ele>1211.5999755859</ele>
        <time>2020-06-28T07:09:18.000Z</time>
      </trkpt>
      <trkpt lat="45.66708" lon="6.77219">
        <ele>1211.8000488281</ele>
        <time>2020-06-28T07:09:19.000Z</time>
      </trkpt>
      <trkpt lat="45.66709" lon="6.77219">
        <ele>1212</ele>
        <time>2020-06-28T07:09:20.000Z</time>
      </trkpt>
      <trkpt lat="45.66712" lon="6.77231">
        <ele>1212.8000488281</ele>
        <time>2020-06-28T07:09:25.000Z</time>
      </trkpt>
      <trkpt lat="45.66711" lon="6.77234">
        <ele>1213</ele>
        <time>2020-06-28T07:09:26.000Z</time>
      </trkpt>
      <trkpt lat="45.66711" lon="6.77245">
        <ele>1214</ele>
        <time>2020-06-28T07:09:29.000Z</time>
      </trkpt>
      <trkpt lat="45.6671" lon="6.77257">
        <ele>1214.5999755859</ele>
        <time>2020-06-28T07:09:32.000Z</time>
      </trkpt>
      <trkpt lat="45.6671" lon="6.77265">
        <ele>1215</ele>
        <time>2020-06-28T07:09:34.000Z</time>
      </trkpt>
      <trkpt lat="45.66715" lon="6.77282">
        <ele>1215.8000488281</ele>
        <time>2020-06-28T07:09:39.000Z</time>
      </trkpt>
      <trkpt lat="45.66717" lon="6.77285">
        <ele>1216</ele>
        <time>2020-06-28T07:09:40.000Z</time>
      </trkpt>
      <trkpt lat="45.66726" lon="6.77299">
        <ele>1217.1999511719</ele>
        <time>2020-06-28T07:09:45.000Z</time>
      </trkpt>
      <trkpt lat="45.66729" lon="6.77304">
        <ele>1217.5999755859</ele>
        <time>2020-06-28T07:09:47.000Z</time>
      </trkpt>
      <trkpt lat="45.66734" lon="6.77316">
        <ele>1218.1999511719</ele>
        <time>2020-06-28T07:09:51.000Z</time>
      </trkpt>
      <trkpt lat="45.66734" lon="6.77322">
        <ele>1218.5999755859</ele>
        <time>2020-06-28T07:09:53.000Z</time>
      </trkpt>
      <trkpt lat="45.66735" lon="6.77332">
        <ele>1219.1999511719</ele>
        <time>2020-06-28T07:09:56.000Z</time>
      </trkpt>
      <trkpt lat="45.66736" lon="6.77342">
        <ele>1220.1999511719</ele>
        <time>2020-06-28T07:10:00.000Z</time>
      </trkpt>
      <trkpt lat="45.66736" lon="6.77346">
        <ele>1220.8000488281</ele>
        <time>2020-06-28T07:10:01.000Z</time>
      </trkpt>
      <trkpt lat="45.66735" lon="6.77356">
        <ele>1221.8000488281</ele>
        <time>2020-06-28T07:10:04.000Z</time>
      </trkpt>
      <trkpt lat="45.66736" lon="6.77364">
        <ele>1222.1999511719</ele>
        <time>2020-06-28T07:10:06.000Z</time>
      </trkpt>
      <trkpt lat="45.66739" lon="6.77377">
        <ele>1222.8000488281</ele>
        <time>2020-06-28T07:10:10.000Z</time>
      </trkpt>
      <trkpt lat="45.66742" lon="6.77387">
        <ele>1223.5999755859</ele>
        <time>2020-06-28T07:10:13.000Z</time>
      </trkpt>
      <trkpt lat="45.66743" lon="6.77392">
        <ele>1223.8000488281</ele>
        <time>2020-06-28T07:10:15.000Z</time>
      </trkpt>
      <trkpt lat="45.66746" lon="6.77401">
        <ele>1224.4000244141</ele>
        <time>2020-06-28T07:10:18.000Z</time>
      </trkpt>
      <trkpt lat="45.66749" lon="6.77407">
        <ele>1225</ele>
        <time>2020-06-28T07:10:20.000Z</time>
      </trkpt>
      <trkpt lat="45.66757" lon="6.77422">
        <ele>1226</ele>
        <time>2020-06-28T07:10:25.000Z</time>
      </trkpt>
      <trkpt lat="45.66758" lon="6.77424">
        <ele>1226</ele>
        <time>2020-06-28T07:10:26.000Z</time>
      </trkpt>
      <trkpt lat="45.66761" lon="6.77437">
        <ele>1227</ele>
        <time>2020-06-28T07:10:30.000Z</time>
      </trkpt>
      <trkpt lat="45.66762" lon="6.7744">
        <ele>1227.1999511719</ele>
        <time>2020-06-28T07:10:31.000Z</time>
      </trkpt>
      <trkpt lat="45.66766" lon="6.77455">
        <ele>1228.4000244141</ele>
        <time>2020-06-28T07:10:36.000Z</time>
      </trkpt>
      <trkpt lat="45.66766" lon="6.77458">
        <ele>1228.5999755859</ele>
        <time>2020-06-28T07:10:37.000Z</time>
      </trkpt>
      <trkpt lat="45.66766" lon="6.77461">
        <ele>1228.5999755859</ele>
        <time>2020-06-28T07:10:38.000Z</time>
      </trkpt>
      <trkpt lat="45.66767" lon="6.77469">
        <ele>1229.1999511719</ele>
        <time>2020-06-28T07:10:41.000Z</time>
      </trkpt>
      <trkpt lat="45.66767" lon="6.77472">
        <ele>1229.4000244141</ele>
        <time>2020-06-28T07:10:42.000Z</time>
      </trkpt>
      <trkpt lat="45.66774" lon="6.77483">
        <ele>1230.4000244141</ele>
        <time>2020-06-28T07:10:46.000Z</time>
      </trkpt>
      <trkpt lat="45.66779" lon="6.77484">
        <ele>1230.5999755859</ele>
        <time>2020-06-28T07:10:47.000Z</time>
      </trkpt>
      <trkpt lat="45.66784" lon="6.7748">
        <ele>1231.1999511719</ele>
        <time>2020-06-28T07:10:50.000Z</time>
      </trkpt>
      <trkpt lat="45.66786" lon="6.77474">
        <ele>1231.5999755859</ele>
        <time>2020-06-28T07:10:52.000Z</time>
      </trkpt>
      <trkpt lat="45.66784" lon="6.77461">
        <ele>1231.8000488281</ele>
        <time>2020-06-28T07:10:55.000Z</time>
      </trkpt>
      <trkpt lat="45.66782" lon="6.77449">
        <ele>1232.4000244141</ele>
        <time>2020-06-28T07:10:58.000Z</time>
      </trkpt>
      <trkpt lat="45.66779" lon="6.77434">
        <ele>1233.1999511719</ele>
        <time>2020-06-28T07:11:02.000Z</time>
      </trkpt>
      <trkpt lat="45.66776" lon="6.77423">
        <ele>1233.5999755859</ele>
        <time>2020-06-28T07:11:05.000Z</time>
      </trkpt>
      <trkpt lat="45.66774" lon="6.77411">
        <ele>1234.1999511719</ele>
        <time>2020-06-28T07:11:09.000Z</time>
      </trkpt>
      <trkpt lat="45.66774" lon="6.77406">
        <ele>1234.5999755859</ele>
        <time>2020-06-28T07:11:11.000Z</time>
      </trkpt>
      <trkpt lat="45.66773" lon="6.77401">
        <ele>1235</ele>
        <time>2020-06-28T07:11:13.000Z</time>
      </trkpt>
      <trkpt lat="45.66771" lon="6.77397">
        <ele>1235.4000244141</ele>
        <time>2020-06-28T07:11:15.000Z</time>
      </trkpt>
      <trkpt lat="45.66771" lon="6.77393">
        <ele>1235.5999755859</ele>
        <time>2020-06-28T07:11:16.000Z</time>
      </trkpt>
      <trkpt lat="45.66772" lon="6.77388">
        <ele>1235.8000488281</ele>
        <time>2020-06-28T07:11:18.000Z</time>
      </trkpt>
      <trkpt lat="45.66774" lon="6.77383">
        <ele>1236.1999511719</ele>
        <time>2020-06-28T07:11:20.000Z</time>
      </trkpt>
      <trkpt lat="45.66776" lon="6.77378">
        <ele>1236.8000488281</ele>
        <time>2020-06-28T07:11:22.000Z</time>
      </trkpt>
      <trkpt lat="45.66776" lon="6.77365">
        <ele>1238</ele>
        <time>2020-06-28T07:11:26.000Z</time>
      </trkpt>
      <trkpt lat="45.66777" lon="6.77345">
        <ele>1239</ele>
        <time>2020-06-28T07:11:31.000Z</time>
      </trkpt>
      <trkpt lat="45.66778" lon="6.77337">
        <ele>1239.4000244141</ele>
        <time>2020-06-28T07:11:33.000Z</time>
      </trkpt>
      <trkpt lat="45.66777" lon="6.77319">
        <ele>1240.1999511719</ele>
        <time>2020-06-28T07:11:37.000Z</time>
      </trkpt>
      <trkpt lat="45.66779" lon="6.77303">
        <ele>1241</ele>
        <time>2020-06-28T07:11:41.000Z</time>
      </trkpt>
      <trkpt lat="45.66779" lon="6.77299">
        <ele>1241.4000244141</ele>
        <time>2020-06-28T07:11:42.000Z</time>
      </trkpt>
      <trkpt lat="45.66775" lon="6.77275">
        <ele>1242.4000244141</ele>
        <time>2020-06-28T07:11:48.000Z</time>
      </trkpt>
      <trkpt lat="45.66771" lon="6.77261">
        <ele>1243.5999755859</ele>
        <time>2020-06-28T07:11:51.000Z</time>
      </trkpt>
      <trkpt lat="45.6677" lon="6.77252">
        <ele>1244.1999511719</ele>
        <time>2020-06-28T07:11:53.000Z</time>
      </trkpt>
      <trkpt lat="45.66772" lon="6.77244">
        <ele>1244.5999755859</ele>
        <time>2020-06-28T07:11:56.000Z</time>
      </trkpt>
      <trkpt lat="45.66775" lon="6.7724">
        <ele>1245</ele>
        <time>2020-06-28T07:11:58.000Z</time>
      </trkpt>
      <trkpt lat="45.66779" lon="6.77237">
        <ele>1245.5999755859</ele>
        <time>2020-06-28T07:12:00.000Z</time>
      </trkpt>
      <trkpt lat="45.66787" lon="6.77235">
        <ele>1246.4000244141</ele>
        <time>2020-06-28T07:12:03.000Z</time>
      </trkpt>
      <trkpt lat="45.6679" lon="6.77235">
        <ele>1246.8000488281</ele>
        <time>2020-06-28T07:12:04.000Z</time>
      </trkpt>
      <trkpt lat="45.66801" lon="6.77226">
        <ele>1248</ele>
        <time>2020-06-28T07:12:09.000Z</time>
      </trkpt>
      <trkpt lat="45.66806" lon="6.77209">
        <ele>1249</ele>
        <time>2020-06-28T07:12:14.000Z</time>
      </trkpt>
      <trkpt lat="45.66805" lon="6.77194">
        <ele>1250</ele>
        <time>2020-06-28T07:12:18.000Z</time>
      </trkpt>
      <trkpt lat="45.66805" lon="6.77184">
        <ele>1251</ele>
        <time>2020-06-28T07:12:21.000Z</time>
      </trkpt>
      <trkpt lat="45.66806" lon="6.7718">
        <ele>1251.1999511719</ele>
        <time>2020-06-28T07:12:22.000Z</time>
      </trkpt>
      <trkpt lat="45.66811" lon="6.77178">
        <ele>1251.5999755859</ele>
        <time>2020-06-28T07:12:24.000Z</time>
      </trkpt>
      <trkpt lat="45.66814" lon="6.77181">
        <ele>1252.1999511719</ele>
        <time>2020-06-28T07:12:26.000Z</time>
      </trkpt>
      <trkpt lat="45.66816" lon="6.77186">
        <ele>1252.4000244141</ele>
        <time>2020-06-28T07:12:28.000Z</time>
      </trkpt>
      <trkpt lat="45.6682" lon="6.772">
        <ele>1253.1999511719</ele>
        <time>2020-06-28T07:12:33.000Z</time>
      </trkpt>
      <trkpt lat="45.6682" lon="6.77203">
        <ele>1253.1999511719</ele>
        <time>2020-06-28T07:12:34.000Z</time>
      </trkpt>
      <trkpt lat="45.66822" lon="6.77216">
        <ele>1254.1999511719</ele>
        <time>2020-06-28T07:12:39.000Z</time>
      </trkpt>
      <trkpt lat="45.66822" lon="6.77219">
        <ele>1254.4000244141</ele>
        <time>2020-06-28T07:12:40.000Z</time>
      </trkpt>
      <trkpt lat="45.66818" lon="6.7723">
        <ele>1255.1999511719</ele>
        <time>2020-06-28T07:12:44.000Z</time>
      </trkpt>
      <trkpt lat="45.66816" lon="6.77232">
        <ele>1255.4000244141</ele>
        <time>2020-06-28T07:12:45.000Z</time>
      </trkpt>
      <trkpt lat="45.66811" lon="6.77236">
        <ele>1256</ele>
        <time>2020-06-28T07:12:48.000Z</time>
      </trkpt>
      <trkpt lat="45.66806" lon="6.77245">
        <ele>1257</ele>
        <time>2020-06-28T07:12:52.000Z</time>
      </trkpt>
      <trkpt lat="45.66805" lon="6.77249">
        <ele>1257.1999511719</ele>
        <time>2020-06-28T07:12:53.000Z</time>
      </trkpt>
      <trkpt lat="45.66803" lon="6.77266">
        <ele>1258.1999511719</ele>
        <time>2020-06-28T07:12:57.000Z</time>
      </trkpt>
      <trkpt lat="45.66803" lon="6.77269">
        <ele>1258.4000244141</ele>
        <time>2020-06-28T07:12:58.000Z</time>
      </trkpt>
      <trkpt lat="45.66806" lon="6.77288">
        <ele>1259.1999511719</ele>
        <time>2020-06-28T07:13:03.000Z</time>
      </trkpt>
      <trkpt lat="45.66809" lon="6.77302">
        <ele>1260.4000244141</ele>
        <time>2020-06-28T07:13:07.000Z</time>
      </trkpt>
      <trkpt lat="45.66816" lon="6.77319">
        <ele>1261.4000244141</ele>
        <time>2020-06-28T07:13:12.000Z</time>
      </trkpt>
      <trkpt lat="45.66819" lon="6.77329">
        <ele>1262.4000244141</ele>
        <time>2020-06-28T07:13:15.000Z</time>
      </trkpt>
      <trkpt lat="45.66819" lon="6.77333">
        <ele>1262.8000488281</ele>
        <time>2020-06-28T07:13:16.000Z</time>
      </trkpt>
      <trkpt lat="45.66822" lon="6.77347">
        <ele>1263.5999755859</ele>
        <time>2020-06-28T07:13:20.000Z</time>
      </trkpt>
      <trkpt lat="45.66822" lon="6.7735">
        <ele>1263.8000488281</ele>
        <time>2020-06-28T07:13:21.000Z</time>
      </trkpt>
      <trkpt lat="45.66823" lon="6.77373">
        <ele>1265</ele>
        <time>2020-06-28T07:13:27.000Z</time>
      </trkpt>
      <trkpt lat="45.66823" lon="6.77376">
        <ele>1265.1999511719</ele>
        <time>2020-06-28T07:13:28.000Z</time>
      </trkpt>
      <trkpt lat="45.66823" lon="6.77388">
        <ele>1266</ele>
        <time>2020-06-28T07:13:31.000Z</time>
      </trkpt>
      <trkpt lat="45.66825" lon="6.77406">
        <ele>1267</ele>
        <time>2020-06-28T07:13:36.000Z</time>
      </trkpt>
      <trkpt lat="45.66831" lon="6.77424">
        <ele>1268.1999511719</ele>
        <time>2020-06-28T07:13:42.000Z</time>
      </trkpt>
      <trkpt lat="45.66831" lon="6.77426">
        <ele>1268.4000244141</ele>
        <time>2020-06-28T07:13:43.000Z</time>
      </trkpt>
      <trkpt lat="45.66836" lon="6.77438">
        <ele>1269.4000244141</ele>
        <time>2020-06-28T07:13:47.000Z</time>
      </trkpt>
      <trkpt lat="45.66839" lon="6.77443">
        <ele>1270</ele>
        <time>2020-06-28T07:13:49.000Z</time>
      </trkpt>
      <trkpt lat="45.66845" lon="6.77449">
        <ele>1270.5999755859</ele>
        <time>2020-06-28T07:13:52.000Z</time>
      </trkpt>
      <trkpt lat="45.6685" lon="6.77454">
        <ele>1271</ele>
        <time>2020-06-28T07:13:55.000Z</time>
      </trkpt>
      <trkpt lat="45.66855" lon="6.77462">
        <ele>1271.8000488281</ele>
        <time>2020-06-28T07:13:58.000Z</time>
      </trkpt>
      <trkpt lat="45.6686" lon="6.77472">
        <ele>1272.5999755859</ele>
        <time>2020-06-28T07:14:02.000Z</time>
      </trkpt>
      <trkpt lat="45.66861" lon="6.77475">
        <ele>1273</ele>
        <time>2020-06-28T07:14:03.000Z</time>
      </trkpt>
      <trkpt lat="45.66861" lon="6.77488">
        <ele>1274</ele>
        <time>2020-06-28T07:14:07.000Z</time>
      </trkpt>
      <trkpt lat="45.66861" lon="6.77491">
        <ele>1274.1999511719</ele>
        <time>2020-06-28T07:14:08.000Z</time>
      </trkpt>
      <trkpt lat="45.66859" lon="6.77496">
        <ele>1274.4000244141</ele>
        <time>2020-06-28T07:14:09.000Z</time>
      </trkpt>
      <trkpt lat="45.66858" lon="6.775">
        <ele>1275</ele>
        <time>2020-06-28T07:14:10.000Z</time>
      </trkpt>
      <trkpt lat="45.66855" lon="6.77513">
        <ele>1275.5999755859</ele>
        <time>2020-06-28T07:14:13.000Z</time>
      </trkpt>
      <trkpt lat="45.66851" lon="6.77524">
        <ele>1276.1999511719</ele>
        <time>2020-06-28T07:14:15.000Z</time>
      </trkpt>
      <trkpt lat="45.66852" lon="6.77527">
        <ele>1276.4000244141</ele>
        <time>2020-06-28T07:14:16.000Z</time>
      </trkpt>
      <trkpt lat="45.66853" lon="6.7753">
        <ele>1276.4000244141</ele>
        <time>2020-06-28T07:14:17.000Z</time>
      </trkpt>
      <trkpt lat="45.66858" lon="6.77532">
        <ele>1276.8000488281</ele>
        <time>2020-06-28T07:14:20.000Z</time>
      </trkpt>
      <trkpt lat="45.66862" lon="6.77529">
        <ele>1277.4000244141</ele>
        <time>2020-06-28T07:14:22.000Z</time>
      </trkpt>
      <trkpt lat="45.66867" lon="6.77521">
        <ele>1277.8000488281</ele>
        <time>2020-06-28T07:14:25.000Z</time>
      </trkpt>
      <trkpt lat="45.66869" lon="6.77517">
        <ele>1278</ele>
        <time>2020-06-28T07:14:26.000Z</time>
      </trkpt>
      <trkpt lat="45.66869" lon="6.77513">
        <ele>1278.1999511719</ele>
        <time>2020-06-28T07:14:27.000Z</time>
      </trkpt>
      <trkpt lat="45.66873" lon="6.77502">
        <ele>1279.1999511719</ele>
        <time>2020-06-28T07:14:30.000Z</time>
      </trkpt>
      <trkpt lat="45.66877" lon="6.77494">
        <ele>1280</ele>
        <time>2020-06-28T07:14:33.000Z</time>
      </trkpt>
      <trkpt lat="45.66879" lon="6.77489">
        <ele>1280.4000244141</ele>
        <time>2020-06-28T07:14:35.000Z</time>
      </trkpt>
      <trkpt lat="45.66881" lon="6.77481">
        <ele>1281.4000244141</ele>
        <time>2020-06-28T07:14:38.000Z</time>
      </trkpt>
      <trkpt lat="45.66882" lon="6.77477">
        <ele>1281.8000488281</ele>
        <time>2020-06-28T07:14:39.000Z</time>
      </trkpt>
      <trkpt lat="45.6688" lon="6.77459">
        <ele>1282.5999755859</ele>
        <time>2020-06-28T07:14:44.000Z</time>
      </trkpt>
      <trkpt lat="45.66874" lon="6.77444">
        <ele>1283.5999755859</ele>
        <time>2020-06-28T07:14:48.000Z</time>
      </trkpt>
      <trkpt lat="45.66872" lon="6.7744">
        <ele>1283.8000488281</ele>
        <time>2020-06-28T07:14:49.000Z</time>
      </trkpt>
      <trkpt lat="45.66867" lon="6.77428">
        <ele>1284.5999755859</ele>
        <time>2020-06-28T07:14:52.000Z</time>
      </trkpt>
      <trkpt lat="45.66866" lon="6.7742">
        <ele>1285</ele>
        <time>2020-06-28T07:14:54.000Z</time>
      </trkpt>
      <trkpt lat="45.66866" lon="6.77409">
        <ele>1285.5999755859</ele>
        <time>2020-06-28T07:14:57.000Z</time>
      </trkpt>
      <trkpt lat="45.66868" lon="6.77395">
        <ele>1286.1999511719</ele>
        <time>2020-06-28T07:15:01.000Z</time>
      </trkpt>
      <trkpt lat="45.66869" lon="6.77388">
        <ele>1286.8000488281</ele>
        <time>2020-06-28T07:15:03.000Z</time>
      </trkpt>
      <trkpt lat="45.66871" lon="6.77373">
        <ele>1287.8000488281</ele>
        <time>2020-06-28T07:15:07.000Z</time>
      </trkpt>
      <trkpt lat="45.66871" lon="6.77369">
        <ele>1288</ele>
        <time>2020-06-28T07:15:08.000Z</time>
      </trkpt>
      <trkpt lat="45.66871" lon="6.77354">
        <ele>1289</ele>
        <time>2020-06-28T07:15:12.000Z</time>
      </trkpt>
      <trkpt lat="45.6687" lon="6.77342">
        <ele>1289.4000244141</ele>
        <time>2020-06-28T07:15:15.000Z</time>
      </trkpt>
      <trkpt lat="45.66868" lon="6.77331">
        <ele>1290</ele>
        <time>2020-06-28T07:15:18.000Z</time>
      </trkpt>
      <trkpt lat="45.66867" lon="6.7732">
        <ele>1290.8000488281</ele>
        <time>2020-06-28T07:15:21.000Z</time>
      </trkpt>
      <trkpt lat="45.66866" lon="6.77313">
        <ele>1291.1999511719</ele>
        <time>2020-06-28T07:15:23.000Z</time>
      </trkpt>
      <trkpt lat="45.66866" lon="6.77296">
        <ele>1292.1999511719</ele>
        <time>2020-06-28T07:15:28.000Z</time>
      </trkpt>
      <trkpt lat="45.66866" lon="6.77292">
        <ele>1292.5999755859</ele>
        <time>2020-06-28T07:15:29.000Z</time>
      </trkpt>
      <trkpt lat="45.66869" lon="6.77279">
        <ele>1293.5999755859</ele>
        <time>2020-06-28T07:15:33.000Z</time>
      </trkpt>
      <trkpt lat="45.66874" lon="6.77262">
        <ele>1294.4000244141</ele>
        <time>2020-06-28T07:15:38.000Z</time>
      </trkpt>
      <trkpt lat="45.66874" lon="6.77259">
        <ele>1294.5999755859</ele>
        <time>2020-06-28T07:15:39.000Z</time>
      </trkpt>
      <trkpt lat="45.66878" lon="6.77237">
        <ele>1295.8000488281</ele>
        <time>2020-06-28T07:15:45.000Z</time>
      </trkpt>
      <trkpt lat="45.66879" lon="6.77229">
        <ele>1296.4000244141</ele>
        <time>2020-06-28T07:15:47.000Z</time>
      </trkpt>
      <trkpt lat="45.6688" lon="6.77218">
        <ele>1297</ele>
        <time>2020-06-28T07:15:50.000Z</time>
      </trkpt>
      <trkpt lat="45.6688" lon="6.772">
        <ele>1298.1999511719</ele>
        <time>2020-06-28T07:15:55.000Z</time>
      </trkpt>
      <trkpt lat="45.66882" lon="6.77192">
        <ele>1298.4000244141</ele>
        <time>2020-06-28T07:15:57.000Z</time>
      </trkpt>
      <trkpt lat="45.66886" lon="6.77185">
        <ele>1298.8000488281</ele>
        <time>2020-06-28T07:15:59.000Z</time>
      </trkpt>
      <trkpt lat="45.6689" lon="6.77186">
        <ele>1299.4000244141</ele>
        <time>2020-06-28T07:16:01.000Z</time>
      </trkpt>
      <trkpt lat="45.66891" lon="6.77197">
        <ele>1300</ele>
        <time>2020-06-28T07:16:04.000Z</time>
      </trkpt>
      <trkpt lat="45.66891" lon="6.772">
        <ele>1300.1999511719</ele>
        <time>2020-06-28T07:16:05.000Z</time>
      </trkpt>
      <trkpt lat="45.6689" lon="6.77208">
        <ele>1300.4000244141</ele>
        <time>2020-06-28T07:16:07.000Z</time>
      </trkpt>
      <trkpt lat="45.66891" lon="6.77223">
        <ele>1301.5999755859</ele>
        <time>2020-06-28T07:16:11.000Z</time>
      </trkpt>
      <trkpt lat="45.66892" lon="6.77244">
        <ele>1302.5999755859</ele>
        <time>2020-06-28T07:16:17.000Z</time>
      </trkpt>
      <trkpt lat="45.66893" lon="6.77263">
        <ele>1303.8000488281</ele>
        <time>2020-06-28T07:16:22.000Z</time>
      </trkpt>
      <trkpt lat="45.66895" lon="6.77273">
        <ele>1304.4000244141</ele>
        <time>2020-06-28T07:16:25.000Z</time>
      </trkpt>
      <trkpt lat="45.66897" lon="6.7728">
        <ele>1304.8000488281</ele>
        <time>2020-06-28T07:16:27.000Z</time>
      </trkpt>
      <trkpt lat="45.669" lon="6.77292">
        <ele>1306</ele>
        <time>2020-06-28T07:16:31.000Z</time>
      </trkpt>
      <trkpt lat="45.66901" lon="6.77298">
        <ele>1306.4000244141</ele>
        <time>2020-06-28T07:16:33.000Z</time>
      </trkpt>
      <trkpt lat="45.66903" lon="6.77307">
        <ele>1307</ele>
        <time>2020-06-28T07:16:36.000Z</time>
      </trkpt>
      <trkpt lat="45.66904" lon="6.77317">
        <ele>1307.8000488281</ele>
        <time>2020-06-28T07:16:39.000Z</time>
      </trkpt>
      <trkpt lat="45.66905" lon="6.77325">
        <ele>1308.1999511719</ele>
        <time>2020-06-28T07:16:41.000Z</time>
      </trkpt>
      <trkpt lat="45.66907" lon="6.77342">
        <ele>1309</ele>
        <time>2020-06-28T07:16:45.000Z</time>
      </trkpt>
      <trkpt lat="45.6691" lon="6.77352">
        <ele>1309.4000244141</ele>
        <time>2020-06-28T07:16:47.000Z</time>
      </trkpt>
      <trkpt lat="45.66916" lon="6.7737">
        <ele>1310.4000244141</ele>
        <time>2020-06-28T07:16:51.000Z</time>
      </trkpt>
      <trkpt lat="45.6692" lon="6.77388">
        <ele>1311.4000244141</ele>
        <time>2020-06-28T07:16:55.000Z</time>
      </trkpt>
      <trkpt lat="45.66921" lon="6.77392">
        <ele>1311.8000488281</ele>
        <time>2020-06-28T07:16:56.000Z</time>
      </trkpt>
      <trkpt lat="45.66922" lon="6.77405">
        <ele>1312.5999755859</ele>
        <time>2020-06-28T07:16:59.000Z</time>
      </trkpt>
      <trkpt lat="45.66924" lon="6.77412">
        <ele>1313</ele>
        <time>2020-06-28T07:17:01.000Z</time>
      </trkpt>
      <trkpt lat="45.66931" lon="6.7741">
        <ele>1313.4000244141</ele>
        <time>2020-06-28T07:17:04.000Z</time>
      </trkpt>
      <trkpt lat="45.66932" lon="6.77407">
        <ele>1313.5999755859</ele>
        <time>2020-06-28T07:17:05.000Z</time>
      </trkpt>
      <trkpt lat="45.66933" lon="6.77395">
        <ele>1314.1999511719</ele>
        <time>2020-06-28T07:17:08.000Z</time>
      </trkpt>
      <trkpt lat="45.66933" lon="6.77382">
        <ele>1314.8000488281</ele>
        <time>2020-06-28T07:17:11.000Z</time>
      </trkpt>
      <trkpt lat="45.66931" lon="6.77361">
        <ele>1315.8000488281</ele>
        <time>2020-06-28T07:17:16.000Z</time>
      </trkpt>
      <trkpt lat="45.6693" lon="6.77353">
        <ele>1316.4000244141</ele>
        <time>2020-06-28T07:17:18.000Z</time>
      </trkpt>
      <trkpt lat="45.6693" lon="6.77338">
        <ele>1317</ele>
        <time>2020-06-28T07:17:22.000Z</time>
      </trkpt>
      <trkpt lat="45.6693" lon="6.77327">
        <ele>1317.8000488281</ele>
        <time>2020-06-28T07:17:25.000Z</time>
      </trkpt>
      <trkpt lat="45.6693" lon="6.77324">
        <ele>1318</ele>
        <time>2020-06-28T07:17:26.000Z</time>
      </trkpt>
      <trkpt lat="45.66929" lon="6.77312">
        <ele>1319.1999511719</ele>
        <time>2020-06-28T07:17:30.000Z</time>
      </trkpt>
      <trkpt lat="45.6693" lon="6.77309">
        <ele>1319.4000244141</ele>
        <time>2020-06-28T07:17:31.000Z</time>
      </trkpt>
      <trkpt lat="45.6693" lon="6.77297">
        <ele>1320.1999511719</ele>
        <time>2020-06-28T07:17:35.000Z</time>
      </trkpt>
      <trkpt lat="45.6693" lon="6.77286">
        <ele>1321.1999511719</ele>
        <time>2020-06-28T07:17:39.000Z</time>
      </trkpt>
      <trkpt lat="45.66931" lon="6.77283">
        <ele>1321.5999755859</ele>
        <time>2020-06-28T07:17:40.000Z</time>
      </trkpt>
      <trkpt lat="45.66931" lon="6.77267">
        <ele>1322.4000244141</ele>
        <time>2020-06-28T07:17:45.000Z</time>
      </trkpt>
      <trkpt lat="45.66932" lon="6.7726">
        <ele>1322.5999755859</ele>
        <time>2020-06-28T07:17:47.000Z</time>
      </trkpt>
      <trkpt lat="45.66936" lon="6.7725">
        <ele>1323.5999755859</ele>
        <time>2020-06-28T07:17:51.000Z</time>
      </trkpt>
      <trkpt lat="45.66937" lon="6.77247">
        <ele>1323.8000488281</ele>
        <time>2020-06-28T07:17:52.000Z</time>
      </trkpt>
      <trkpt lat="45.66941" lon="6.77237">
        <ele>1324.8000488281</ele>
        <time>2020-06-28T07:17:56.000Z</time>
      </trkpt>
      <trkpt lat="45.66944" lon="6.77228">
        <ele>1325.5999755859</ele>
        <time>2020-06-28T07:17:59.000Z</time>
      </trkpt>
      <trkpt lat="45.66946" lon="6.77224">
        <ele>1325.8000488281</ele>
        <time>2020-06-28T07:18:00.000Z</time>
      </trkpt>
      <trkpt lat="45.6695" lon="6.77206">
        <ele>1327</ele>
        <time>2020-06-28T07:18:04.000Z</time>
      </trkpt>
      <trkpt lat="45.66952" lon="6.77198">
        <ele>1327.4000244141</ele>
        <time>2020-06-28T07:18:06.000Z</time>
      </trkpt>
      <trkpt lat="45.66956" lon="6.77188">
        <ele>1328</ele>
        <time>2020-06-28T07:18:08.000Z</time>
      </trkpt>
      <trkpt lat="45.66958" lon="6.77182">
        <ele>1328</ele>
        <time>2020-06-28T07:18:09.000Z</time>
      </trkpt>
      <trkpt lat="45.6696" lon="6.77181">
        <ele>1328</ele>
        <time>2020-06-28T07:18:10.000Z</time>
      </trkpt>
      <trkpt lat="45.66963" lon="6.77186">
        <ele>1328.8000488281</ele>
        <time>2020-06-28T07:18:13.000Z</time>
      </trkpt>
      <trkpt lat="45.66963" lon="6.77188">
        <ele>1329.1999511719</ele>
        <time>2020-06-28T07:18:14.000Z</time>
      </trkpt>
      <trkpt lat="45.66964" lon="6.77197">
        <ele>1330.1999511719</ele>
        <time>2020-06-28T07:18:18.000Z</time>
      </trkpt>
      <trkpt lat="45.66964" lon="6.77204">
        <ele>1331</ele>
        <time>2020-06-28T07:18:20.000Z</time>
      </trkpt>
      <trkpt lat="45.66963" lon="6.77208">
        <ele>1331.1999511719</ele>
        <time>2020-06-28T07:18:21.000Z</time>
      </trkpt>
      <trkpt lat="45.66961" lon="6.77223">
        <ele>1332.4000244141</ele>
        <time>2020-06-28T07:18:25.000Z</time>
      </trkpt>
      <trkpt lat="45.66961" lon="6.77227">
        <ele>1332.4000244141</ele>
        <time>2020-06-28T07:18:26.000Z</time>
      </trkpt>
      <trkpt lat="45.66962" lon="6.77244">
        <ele>1333.4000244141</ele>
        <time>2020-06-28T07:18:31.000Z</time>
      </trkpt>
      <trkpt lat="45.66963" lon="6.7726">
        <ele>1334.4000244141</ele>
        <time>2020-06-28T07:18:36.000Z</time>
      </trkpt>
      <trkpt lat="45.66964" lon="6.77268">
        <ele>1334.8000488281</ele>
        <time>2020-06-28T07:18:38.000Z</time>
      </trkpt>
      <trkpt lat="45.66966" lon="6.77282">
        <ele>1335.5999755859</ele>
        <time>2020-06-28T07:18:42.000Z</time>
      </trkpt>
      <trkpt lat="45.66968" lon="6.77296">
        <ele>1336.4000244141</ele>
        <time>2020-06-28T07:18:46.000Z</time>
      </trkpt>
      <trkpt lat="45.6697" lon="6.773">
        <ele>1336.5999755859</ele>
        <time>2020-06-28T07:18:47.000Z</time>
      </trkpt>
      <trkpt lat="45.66975" lon="6.77321">
        <ele>1337.8000488281</ele>
        <time>2020-06-28T07:18:52.000Z</time>
      </trkpt>
      <trkpt lat="45.66976" lon="6.77329">
        <ele>1338.1999511719</ele>
        <time>2020-06-28T07:18:54.000Z</time>
      </trkpt>
      <trkpt lat="45.66977" lon="6.77338">
        <ele>1338.5999755859</ele>
        <time>2020-06-28T07:18:56.000Z</time>
      </trkpt>
      <trkpt lat="45.66978" lon="6.77342">
        <ele>1338.8000488281</ele>
        <time>2020-06-28T07:18:57.000Z</time>
      </trkpt>
      <trkpt lat="45.66981" lon="6.77361">
        <ele>1340</ele>
        <time>2020-06-28T07:19:02.000Z</time>
      </trkpt>
      <trkpt lat="45.66981" lon="6.77382">
        <ele>1341.1999511719</ele>
        <time>2020-06-28T07:19:08.000Z</time>
      </trkpt>
      <trkpt lat="45.66982" lon="6.77389">
        <ele>1341.5999755859</ele>
        <time>2020-06-28T07:19:10.000Z</time>
      </trkpt>
      <trkpt lat="45.66982" lon="6.77401">
        <ele>1342.4000244141</ele>
        <time>2020-06-28T07:19:13.000Z</time>
      </trkpt>
      <trkpt lat="45.6698" lon="6.77416">
        <ele>1343.1999511719</ele>
        <time>2020-06-28T07:19:17.000Z</time>
      </trkpt>
      <trkpt lat="45.66979" lon="6.77419">
        <ele>1343.4000244141</ele>
        <time>2020-06-28T07:19:18.000Z</time>
      </trkpt>
      <trkpt lat="45.66977" lon="6.77433">
        <ele>1344.1999511719</ele>
        <time>2020-06-28T07:19:22.000Z</time>
      </trkpt>
      <trkpt lat="45.66978" lon="6.77436">
        <ele>1344.4000244141</ele>
        <time>2020-06-28T07:19:23.000Z</time>
      </trkpt>
      <trkpt lat="45.6698" lon="6.77438">
        <ele>1344.5999755859</ele>
        <time>2020-06-28T07:19:24.000Z</time>
      </trkpt>
      <trkpt lat="45.66986" lon="6.77436">
        <ele>1345.1999511719</ele>
        <time>2020-06-28T07:19:27.000Z</time>
      </trkpt>
      <trkpt lat="45.66988" lon="6.77432">
        <ele>1345.4000244141</ele>
        <time>2020-06-28T07:19:29.000Z</time>
      </trkpt>
      <trkpt lat="45.66989" lon="6.77425">
        <ele>1345.8000488281</ele>
        <time>2020-06-28T07:19:31.000Z</time>
      </trkpt>
      <trkpt lat="45.6699" lon="6.77422">
        <ele>1346</ele>
        <time>2020-06-28T07:19:32.000Z</time>
      </trkpt>
      <trkpt lat="45.66991" lon="6.77415">
        <ele>1346.5999755859</ele>
        <time>2020-06-28T07:19:34.000Z</time>
      </trkpt>
      <trkpt lat="45.66995" lon="6.77405">
        <ele>1347.8000488281</ele>
        <time>2020-06-28T07:19:37.000Z</time>
      </trkpt>
      <trkpt lat="45.66999" lon="6.77392">
        <ele>1348.4000244141</ele>
        <time>2020-06-28T07:19:41.000Z</time>
      </trkpt>
      <trkpt lat="45.67001" lon="6.77386">
        <ele>1349</ele>
        <time>2020-06-28T07:19:43.000Z</time>
      </trkpt>
      <trkpt lat="45.67005" lon="6.77372">
        <ele>1350.1999511719</ele>
        <time>2020-06-28T07:19:47.000Z</time>
      </trkpt>
      <trkpt lat="45.67008" lon="6.77359">
        <ele>1351.1999511719</ele>
        <time>2020-06-28T07:19:51.000Z</time>
      </trkpt>
      <trkpt lat="45.67009" lon="6.77356">
        <ele>1351.4000244141</ele>
        <time>2020-06-28T07:19:52.000Z</time>
      </trkpt>
      <trkpt lat="45.67013" lon="6.77332">
        <ele>1352.4000244141</ele>
        <time>2020-06-28T07:19:59.000Z</time>
      </trkpt>
      <trkpt lat="45.67013" lon="6.77328">
        <ele>1352.5999755859</ele>
        <time>2020-06-28T07:20:00.000Z</time>
      </trkpt>
      <trkpt lat="45.67014" lon="6.77318">
        <ele>1353.5999755859</ele>
        <time>2020-06-28T07:20:03.000Z</time>
      </trkpt>
      <trkpt lat="45.67014" lon="6.77305">
        <ele>1354.5999755859</ele>
        <time>2020-06-28T07:20:07.000Z</time>
      </trkpt>
      <trkpt lat="45.67014" lon="6.77302">
        <ele>1354.8000488281</ele>
        <time>2020-06-28T07:20:08.000Z</time>
      </trkpt>
      <trkpt lat="45.67015" lon="6.7729">
        <ele>1355.8000488281</ele>
        <time>2020-06-28T07:20:12.000Z</time>
      </trkpt>
      <trkpt lat="45.67015" lon="6.77284">
        <ele>1356.1999511719</ele>
        <time>2020-06-28T07:20:14.000Z</time>
      </trkpt>
      <trkpt lat="45.67015" lon="6.7727">
        <ele>1357</ele>
        <time>2020-06-28T07:20:18.000Z</time>
      </trkpt>
      <trkpt lat="45.67014" lon="6.77263">
        <ele>1357.8000488281</ele>
        <time>2020-06-28T07:20:20.000Z</time>
      </trkpt>
      <trkpt lat="45.67013" lon="6.77259">
        <ele>1358</ele>
        <time>2020-06-28T07:20:21.000Z</time>
      </trkpt>
      <trkpt lat="45.67012" lon="6.7724">
        <ele>1359.1999511719</ele>
        <time>2020-06-28T07:20:26.000Z</time>
      </trkpt>
      <trkpt lat="45.67011" lon="6.77217">
        <ele>1360.1999511719</ele>
        <time>2020-06-28T07:20:32.000Z</time>
      </trkpt>
      <trkpt lat="45.67012" lon="6.7721">
        <ele>1360.8000488281</ele>
        <time>2020-06-28T07:20:34.000Z</time>
      </trkpt>
      <trkpt lat="45.67012" lon="6.77199">
        <ele>1361.4000244141</ele>
        <time>2020-06-28T07:20:37.000Z</time>
      </trkpt>
      <trkpt lat="45.67013" lon="6.77184">
        <ele>1362.4000244141</ele>
        <time>2020-06-28T07:20:41.000Z</time>
      </trkpt>
      <trkpt lat="45.67014" lon="6.77177">
        <ele>1362.5999755859</ele>
        <time>2020-06-28T07:20:43.000Z</time>
      </trkpt>
      <trkpt lat="45.67017" lon="6.77161">
        <ele>1363.5999755859</ele>
        <time>2020-06-28T07:20:48.000Z</time>
      </trkpt>
      <trkpt lat="45.6702" lon="6.77151">
        <ele>1364.8000488281</ele>
        <time>2020-06-28T07:20:52.000Z</time>
      </trkpt>
      <trkpt lat="45.67021" lon="6.77143">
        <ele>1365.8000488281</ele>
        <time>2020-06-28T07:20:55.000Z</time>
      </trkpt>
      <trkpt lat="45.67023" lon="6.77135">
        <ele>1366.4000244141</ele>
        <time>2020-06-28T07:20:58.000Z</time>
      </trkpt>
      <trkpt lat="45.67024" lon="6.77129">
        <ele>1367</ele>
        <time>2020-06-28T07:21:00.000Z</time>
      </trkpt>
      <trkpt lat="45.67028" lon="6.77118">
        <ele>1368</ele>
        <time>2020-06-28T07:21:04.000Z</time>
      </trkpt>
      <trkpt lat="45.6703" lon="6.77116">
        <ele>1368.4000244141</ele>
        <time>2020-06-28T07:21:05.000Z</time>
      </trkpt>
      <trkpt lat="45.67033" lon="6.77112">
        <ele>1369.1999511719</ele>
        <time>2020-06-28T07:21:07.000Z</time>
      </trkpt>
      <trkpt lat="45.67039" lon="6.771">
        <ele>1370.4000244141</ele>
        <time>2020-06-28T07:21:12.000Z</time>
      </trkpt>
      <trkpt lat="45.67038" lon="6.77084">
        <ele>1371</ele>
        <time>2020-06-28T07:21:16.000Z</time>
      </trkpt>
      <trkpt lat="45.67036" lon="6.7708">
        <ele>1371.1999511719</ele>
        <time>2020-06-28T07:21:17.000Z</time>
      </trkpt>
      <trkpt lat="45.67027" lon="6.77064">
        <ele>1371.5999755859</ele>
        <time>2020-06-28T07:21:21.000Z</time>
      </trkpt>
      <trkpt lat="45.67022" lon="6.7704">
        <ele>1372.4000244141</ele>
        <time>2020-06-28T07:21:26.000Z</time>
      </trkpt>
      <trkpt lat="45.67027" lon="6.77018">
        <ele>1372.8000488281</ele>
        <time>2020-06-28T07:21:31.000Z</time>
      </trkpt>
      <trkpt lat="45.67037" lon="6.77">
        <ele>1373.5999755859</ele>
        <time>2020-06-28T07:21:37.000Z</time>
      </trkpt>
      <trkpt lat="45.67044" lon="6.76992">
        <ele>1374.5999755859</ele>
        <time>2020-06-28T07:21:41.000Z</time>
      </trkpt>
      <trkpt lat="45.6705" lon="6.76985">
        <ele>1375.5999755859</ele>
        <time>2020-06-28T07:21:45.000Z</time>
      </trkpt>
      <trkpt lat="45.67054" lon="6.76981">
        <ele>1376.5999755859</ele>
        <time>2020-06-28T07:21:48.000Z</time>
      </trkpt>
      <trkpt lat="45.67061" lon="6.76973">
        <ele>1377.8000488281</ele>
        <time>2020-06-28T07:21:53.000Z</time>
      </trkpt>
      <trkpt lat="45.67067" lon="6.76963">
        <ele>1378.5999755859</ele>
        <time>2020-06-28T07:21:58.000Z</time>
      </trkpt>
      <trkpt lat="45.67071" lon="6.76954">
        <ele>1379.8000488281</ele>
        <time>2020-06-28T07:22:02.000Z</time>
      </trkpt>
      <trkpt lat="45.67075" lon="6.76946">
        <ele>1381</ele>
        <time>2020-06-28T07:22:06.000Z</time>
      </trkpt>
      <trkpt lat="45.67078" lon="6.76939">
        <ele>1381.5999755859</ele>
        <time>2020-06-28T07:22:09.000Z</time>
      </trkpt>
      <trkpt lat="45.67081" lon="6.76934">
        <ele>1382.1999511719</ele>
        <time>2020-06-28T07:22:11.000Z</time>
      </trkpt>
      <trkpt lat="45.67086" lon="6.76913">
        <ele>1383.1999511719</ele>
        <time>2020-06-28T07:22:16.000Z</time>
      </trkpt>
      <trkpt lat="45.67091" lon="6.76888">
        <ele>1384.4000244141</ele>
        <time>2020-06-28T07:22:21.000Z</time>
      </trkpt>
      <trkpt lat="45.67092" lon="6.76882">
        <ele>1384.4000244141</ele>
        <time>2020-06-28T07:22:22.000Z</time>
      </trkpt>
      <trkpt lat="45.67095" lon="6.76866">
        <ele>1385.5999755859</ele>
        <time>2020-06-28T07:22:27.000Z</time>
      </trkpt>
      <trkpt lat="45.67096" lon="6.76863">
        <ele>1385.8000488281</ele>
        <time>2020-06-28T07:22:28.000Z</time>
      </trkpt>
      <trkpt lat="45.67097" lon="6.76856">
        <ele>1386.5999755859</ele>
        <time>2020-06-28T07:22:31.000Z</time>
      </trkpt>
      <trkpt lat="45.67096" lon="6.76846">
        <ele>1387.4000244141</ele>
        <time>2020-06-28T07:22:35.000Z</time>
      </trkpt>
      <trkpt lat="45.67096" lon="6.76843">
        <ele>1387.4000244141</ele>
        <time>2020-06-28T07:22:36.000Z</time>
      </trkpt>
      <trkpt lat="45.67098" lon="6.76831">
        <ele>1388.5999755859</ele>
        <time>2020-06-28T07:22:42.000Z</time>
      </trkpt>
      <trkpt lat="45.67099" lon="6.76828">
        <ele>1388.8000488281</ele>
        <time>2020-06-28T07:22:43.000Z</time>
      </trkpt>
      <trkpt lat="45.67102" lon="6.76818">
        <ele>1389.8000488281</ele>
        <time>2020-06-28T07:22:47.000Z</time>
      </trkpt>
      <trkpt lat="45.67104" lon="6.76811">
        <ele>1390.1999511719</ele>
        <time>2020-06-28T07:22:50.000Z</time>
      </trkpt>
      <trkpt lat="45.67106" lon="6.76806">
        <ele>1390.5999755859</ele>
        <time>2020-06-28T07:22:51.000Z</time>
      </trkpt>
      <trkpt lat="45.67105" lon="6.76787">
        <ele>1391.5999755859</ele>
        <time>2020-06-28T07:22:56.000Z</time>
      </trkpt>
      <trkpt lat="45.67106" lon="6.76773">
        <ele>1392.5999755859</ele>
        <time>2020-06-28T07:23:00.000Z</time>
      </trkpt>
      <trkpt lat="45.67105" lon="6.76756">
        <ele>1393.5999755859</ele>
        <time>2020-06-28T07:23:04.000Z</time>
      </trkpt>
      <trkpt lat="45.67104" lon="6.7675">
        <ele>1393.8000488281</ele>
        <time>2020-06-28T07:23:05.000Z</time>
      </trkpt>
      <trkpt lat="45.67102" lon="6.76731">
        <ele>1394.8000488281</ele>
        <time>2020-06-28T07:23:10.000Z</time>
      </trkpt>
      <trkpt lat="45.67103" lon="6.76708">
        <ele>1395.8000488281</ele>
        <time>2020-06-28T07:23:16.000Z</time>
      </trkpt>
      <trkpt lat="45.67103" lon="6.76702">
        <ele>1396.1999511719</ele>
        <time>2020-06-28T07:23:18.000Z</time>
      </trkpt>
      <trkpt lat="45.67105" lon="6.76692">
        <ele>1397</ele>
        <time>2020-06-28T07:23:21.000Z</time>
      </trkpt>
      <trkpt lat="45.67107" lon="6.76684">
        <ele>1397.4000244141</ele>
        <time>2020-06-28T07:23:24.000Z</time>
      </trkpt>
      <trkpt lat="45.67107" lon="6.76681">
        <ele>1398</ele>
        <time>2020-06-28T07:23:25.000Z</time>
      </trkpt>
      <trkpt lat="45.6711" lon="6.76668">
        <ele>1399.1999511719</ele>
        <time>2020-06-28T07:23:30.000Z</time>
      </trkpt>
      <trkpt lat="45.6711" lon="6.76662">
        <ele>1399.5999755859</ele>
        <time>2020-06-28T07:23:32.000Z</time>
      </trkpt>
      <trkpt lat="45.67109" lon="6.76649">
        <ele>1400</ele>
        <time>2020-06-28T07:23:36.000Z</time>
      </trkpt>
      <trkpt lat="45.67108" lon="6.76639">
        <ele>1400.8000488281</ele>
        <time>2020-06-28T07:23:39.000Z</time>
      </trkpt>
      <trkpt lat="45.67108" lon="6.76632">
        <ele>1401.4000244141</ele>
        <time>2020-06-28T07:23:41.000Z</time>
      </trkpt>
      <trkpt lat="45.6711" lon="6.7661">
        <ele>1402.4000244141</ele>
        <time>2020-06-28T07:23:46.000Z</time>
      </trkpt>
      <trkpt lat="45.67111" lon="6.76605">
        <ele>1402.5999755859</ele>
        <time>2020-06-28T07:23:47.000Z</time>
      </trkpt>
      <trkpt lat="45.6711" lon="6.76587">
        <ele>1403.5999755859</ele>
        <time>2020-06-28T07:23:52.000Z</time>
      </trkpt>
      <trkpt lat="45.6711" lon="6.76574">
        <ele>1404.5999755859</ele>
        <time>2020-06-28T07:23:56.000Z</time>
      </trkpt>
      <trkpt lat="45.6711" lon="6.7657">
        <ele>1404.8000488281</ele>
        <time>2020-06-28T07:23:57.000Z</time>
      </trkpt>
      <trkpt lat="45.67109" lon="6.76549">
        <ele>1405.5999755859</ele>
        <time>2020-06-28T07:24:03.000Z</time>
      </trkpt>
      <trkpt lat="45.67109" lon="6.76545">
        <ele>1405.8000488281</ele>
        <time>2020-06-28T07:24:04.000Z</time>
      </trkpt>
      <trkpt lat="45.67114" lon="6.76532">
        <ele>1406.8000488281</ele>
        <time>2020-06-28T07:24:09.000Z</time>
      </trkpt>
      <trkpt lat="45.67115" lon="6.76529">
        <ele>1407</ele>
        <time>2020-06-28T07:24:10.000Z</time>
      </trkpt>
      <trkpt lat="45.67119" lon="6.76519">
        <ele>1408.1999511719</ele>
        <time>2020-06-28T07:24:14.000Z</time>
      </trkpt>
      <trkpt lat="45.67121" lon="6.76514">
        <ele>1408.5999755859</ele>
        <time>2020-06-28T07:24:16.000Z</time>
      </trkpt>
      <trkpt lat="45.67123" lon="6.76504">
        <ele>1409.4000244141</ele>
        <time>2020-06-28T07:24:19.000Z</time>
      </trkpt>
      <trkpt lat="45.67122" lon="6.765">
        <ele>1410</ele>
        <time>2020-06-28T07:24:21.000Z</time>
      </trkpt>
      <trkpt lat="45.67123" lon="6.76481">
        <ele>1411.5999755859</ele>
        <time>2020-06-28T07:24:26.000Z</time>
      </trkpt>
      <trkpt lat="45.67118" lon="6.76455">
        <ele>1412.5999755859</ele>
        <time>2020-06-28T07:24:32.000Z</time>
      </trkpt>
      <trkpt lat="45.67117" lon="6.7645">
        <ele>1412.8000488281</ele>
        <time>2020-06-28T07:24:33.000Z</time>
      </trkpt>
      <trkpt lat="45.67116" lon="6.76433">
        <ele>1413.8000488281</ele>
        <time>2020-06-28T07:24:37.000Z</time>
      </trkpt>
      <trkpt lat="45.67115" lon="6.76421">
        <ele>1414.4000244141</ele>
        <time>2020-06-28T07:24:40.000Z</time>
      </trkpt>
      <trkpt lat="45.67114" lon="6.76412">
        <ele>1414.8000488281</ele>
        <time>2020-06-28T07:24:42.000Z</time>
      </trkpt>
      <trkpt lat="45.67109" lon="6.76394">
        <ele>1415.8000488281</ele>
        <time>2020-06-28T07:24:47.000Z</time>
      </trkpt>
      <trkpt lat="45.67109" lon="6.76391">
        <ele>1416.1999511719</ele>
        <time>2020-06-28T07:24:48.000Z</time>
      </trkpt>
      <trkpt lat="45.67106" lon="6.76377">
        <ele>1417.1999511719</ele>
        <time>2020-06-28T07:24:52.000Z</time>
      </trkpt>
      <trkpt lat="45.67107" lon="6.76366">
        <ele>1418</ele>
        <time>2020-06-28T07:24:55.000Z</time>
      </trkpt>
      <trkpt lat="45.67108" lon="6.76359">
        <ele>1418.4000244141</ele>
        <time>2020-06-28T07:24:57.000Z</time>
      </trkpt>
      <trkpt lat="45.67113" lon="6.76338">
        <ele>1419.5999755859</ele>
        <time>2020-06-28T07:25:03.000Z</time>
      </trkpt>
      <trkpt lat="45.67119" lon="6.76317">
        <ele>1420.5999755859</ele>
        <time>2020-06-28T07:25:09.000Z</time>
      </trkpt>
      <trkpt lat="45.67122" lon="6.76307">
        <ele>1421.1999511719</ele>
        <time>2020-06-28T07:25:12.000Z</time>
      </trkpt>
      <trkpt lat="45.67124" lon="6.76298">
        <ele>1421.8000488281</ele>
        <time>2020-06-28T07:25:15.000Z</time>
      </trkpt>
      <trkpt lat="45.67125" lon="6.76285">
        <ele>1423</ele>
        <time>2020-06-28T07:25:19.000Z</time>
      </trkpt>
      <trkpt lat="45.67127" lon="6.76272">
        <ele>1424</ele>
        <time>2020-06-28T07:25:23.000Z</time>
      </trkpt>
      <trkpt lat="45.67128" lon="6.76252">
        <ele>1425.1999511719</ele>
        <time>2020-06-28T07:25:29.000Z</time>
      </trkpt>
      <trkpt lat="45.67128" lon="6.76243">
        <ele>1425.5999755859</ele>
        <time>2020-06-28T07:25:32.000Z</time>
      </trkpt>
      <trkpt lat="45.67129" lon="6.76229">
        <ele>1426.4000244141</ele>
        <time>2020-06-28T07:25:36.000Z</time>
      </trkpt>
      <trkpt lat="45.6713" lon="6.76212">
        <ele>1427.5999755859</ele>
        <time>2020-06-28T07:25:41.000Z</time>
      </trkpt>
      <trkpt lat="45.6713" lon="6.76209">
        <ele>1427.8000488281</ele>
        <time>2020-06-28T07:25:42.000Z</time>
      </trkpt>
      <trkpt lat="45.6713" lon="6.76197">
        <ele>1428.4000244141</ele>
        <time>2020-06-28T07:25:46.000Z</time>
      </trkpt>
      <trkpt lat="45.6713" lon="6.76183">
        <ele>1429.8000488281</ele>
        <time>2020-06-28T07:25:51.000Z</time>
      </trkpt>
      <trkpt lat="45.67129" lon="6.76168">
        <ele>1430.8000488281</ele>
        <time>2020-06-28T07:25:56.000Z</time>
      </trkpt>
      <trkpt lat="45.67129" lon="6.76159">
        <ele>1431.4000244141</ele>
        <time>2020-06-28T07:25:59.000Z</time>
      </trkpt>
      <trkpt lat="45.67128" lon="6.76153">
        <ele>1431.8000488281</ele>
        <time>2020-06-28T07:26:01.000Z</time>
      </trkpt>
      <trkpt lat="45.67127" lon="6.76138">
        <ele>1432.5999755859</ele>
        <time>2020-06-28T07:26:06.000Z</time>
      </trkpt>
      <trkpt lat="45.67127" lon="6.76136">
        <ele>1432.8000488281</ele>
        <time>2020-06-28T07:26:07.000Z</time>
      </trkpt>
      <trkpt lat="45.67128" lon="6.76125">
        <ele>1434</ele>
        <time>2020-06-28T07:26:11.000Z</time>
      </trkpt>
      <trkpt lat="45.67128" lon="6.7612">
        <ele>1434.4000244141</ele>
        <time>2020-06-28T07:26:13.000Z</time>
      </trkpt>
      <trkpt lat="45.67128" lon="6.76112">
        <ele>1435.1999511719</ele>
        <time>2020-06-28T07:26:16.000Z</time>
      </trkpt>
      <trkpt lat="45.67128" lon="6.76099">
        <ele>1436</ele>
        <time>2020-06-28T07:26:20.000Z</time>
      </trkpt>
      <trkpt lat="45.67127" lon="6.76095">
        <ele>1436.1999511719</ele>
        <time>2020-06-28T07:26:21.000Z</time>
      </trkpt>
      <trkpt lat="45.67123" lon="6.76077">
        <ele>1437.1999511719</ele>
        <time>2020-06-28T07:26:26.000Z</time>
      </trkpt>
      <trkpt lat="45.67113" lon="6.76059">
        <ele>1438.4000244141</ele>
        <time>2020-06-28T07:26:32.000Z</time>
      </trkpt>
      <trkpt lat="45.67109" lon="6.76046">
        <ele>1439.4000244141</ele>
        <time>2020-06-28T07:26:37.000Z</time>
      </trkpt>
      <trkpt lat="45.67109" lon="6.76043">
        <ele>1439.8000488281</ele>
        <time>2020-06-28T07:26:38.000Z</time>
      </trkpt>
      <trkpt lat="45.67109" lon="6.76033">
        <ele>1440.5999755859</ele>
        <time>2020-06-28T07:26:41.000Z</time>
      </trkpt>
      <trkpt lat="45.67109" lon="6.76021">
        <ele>1441.4000244141</ele>
        <time>2020-06-28T07:26:45.000Z</time>
      </trkpt>
      <trkpt lat="45.67109" lon="6.76017">
        <ele>1441.5999755859</ele>
        <time>2020-06-28T07:26:46.000Z</time>
      </trkpt>
      <trkpt lat="45.67108" lon="6.76004">
        <ele>1443</ele>
        <time>2020-06-28T07:26:50.000Z</time>
      </trkpt>
      <trkpt lat="45.67107" lon="6.76">
        <ele>1443.1999511719</ele>
        <time>2020-06-28T07:26:51.000Z</time>
      </trkpt>
      <trkpt lat="45.671" lon="6.75984">
        <ele>1444</ele>
        <time>2020-06-28T07:26:56.000Z</time>
      </trkpt>
      <trkpt lat="45.67097" lon="6.75978">
        <ele>1444.4000244141</ele>
        <time>2020-06-28T07:26:58.000Z</time>
      </trkpt>
      <trkpt lat="45.67092" lon="6.7597">
        <ele>1445.1999511719</ele>
        <time>2020-06-28T07:27:01.000Z</time>
      </trkpt>
      <trkpt lat="45.67085" lon="6.75959">
        <ele>1446</ele>
        <time>2020-06-28T07:27:05.000Z</time>
      </trkpt>
      <trkpt lat="45.67082" lon="6.75957">
        <ele>1446.5999755859</ele>
        <time>2020-06-28T07:27:06.000Z</time>
      </trkpt>
      <trkpt lat="45.67075" lon="6.75947">
        <ele>1447.5999755859</ele>
        <time>2020-06-28T07:27:10.000Z</time>
      </trkpt>
      <trkpt lat="45.6707" lon="6.75938">
        <ele>1448.1999511719</ele>
        <time>2020-06-28T07:27:13.000Z</time>
      </trkpt>
      <trkpt lat="45.67064" lon="6.75932">
        <ele>1448.8000488281</ele>
        <time>2020-06-28T07:27:16.000Z</time>
      </trkpt>
      <trkpt lat="45.67058" lon="6.75927">
        <ele>1449.1999511719</ele>
        <time>2020-06-28T07:27:19.000Z</time>
      </trkpt>
      <trkpt lat="45.67051" lon="6.75918">
        <ele>1450</ele>
        <time>2020-06-28T07:27:23.000Z</time>
      </trkpt>
      <trkpt lat="45.67048" lon="6.75902">
        <ele>1450.8000488281</ele>
        <time>2020-06-28T07:27:28.000Z</time>
      </trkpt>
      <trkpt lat="45.67048" lon="6.75898">
        <ele>1451</ele>
        <time>2020-06-28T07:27:29.000Z</time>
      </trkpt>
      <trkpt lat="45.67054" lon="6.75883">
        <ele>1451.8000488281</ele>
        <time>2020-06-28T07:27:33.000Z</time>
      </trkpt>
      <trkpt lat="45.67056" lon="6.75879">
        <ele>1452.1999511719</ele>
        <time>2020-06-28T07:27:34.000Z</time>
      </trkpt>
      <trkpt lat="45.67072" lon="6.75853">
        <ele>1452.5999755859</ele>
        <time>2020-06-28T07:27:40.000Z</time>
      </trkpt>
      <trkpt lat="45.67091" lon="6.75815">
        <ele>1452.8000488281</ele>
        <time>2020-06-28T07:27:47.000Z</time>
      </trkpt>
      <trkpt lat="45.67113" lon="6.75768">
        <ele>1452.5999755859</ele>
        <time>2020-06-28T07:27:54.000Z</time>
      </trkpt>
      <trkpt lat="45.67122" lon="6.75757">
        <ele>1452.5999755859</ele>
        <time>2020-06-28T07:27:56.000Z</time>
      </trkpt>
      <trkpt lat="45.67131" lon="6.75751">
        <ele>1452.5999755859</ele>
        <time>2020-06-28T07:27:58.000Z</time>
      </trkpt>
      <trkpt lat="45.67153" lon="6.75753">
        <ele>1452.5999755859</ele>
        <time>2020-06-28T07:28:02.000Z</time>
      </trkpt>
      <trkpt lat="45.67169" lon="6.75757">
        <ele>1452.5999755859</ele>
        <time>2020-06-28T07:28:05.000Z</time>
      </trkpt>
      <trkpt lat="45.6718" lon="6.75755">
        <ele>1452.8000488281</ele>
        <time>2020-06-28T07:28:07.000Z</time>
      </trkpt>
      <trkpt lat="45.67198" lon="6.75745">
        <ele>1452.8000488281</ele>
        <time>2020-06-28T07:28:10.000Z</time>
      </trkpt>
      <trkpt lat="45.6721" lon="6.75739">
        <ele>1452.8000488281</ele>
        <time>2020-06-28T07:28:12.000Z</time>
      </trkpt>
      <trkpt lat="45.67228" lon="6.75731">
        <ele>1452.8000488281</ele>
        <time>2020-06-28T07:28:15.000Z</time>
      </trkpt>
      <trkpt lat="45.67239" lon="6.7572">
        <ele>1452.8000488281</ele>
        <time>2020-06-28T07:28:17.000Z</time>
      </trkpt>
      <trkpt lat="45.67248" lon="6.75707">
        <ele>1452.8000488281</ele>
        <time>2020-06-28T07:28:19.000Z</time>
      </trkpt>
      <trkpt lat="45.67261" lon="6.75685">
        <ele>1452.8000488281</ele>
        <time>2020-06-28T07:28:22.000Z</time>
      </trkpt>
      <trkpt lat="45.67292" lon="6.75648">
        <ele>1452.5999755859</ele>
        <time>2020-06-28T07:28:28.000Z</time>
      </trkpt>
      <trkpt lat="45.67297" lon="6.75642">
        <ele>1452.8000488281</ele>
        <time>2020-06-28T07:28:29.000Z</time>
      </trkpt>
      <trkpt lat="45.67308" lon="6.75617">
        <ele>1452.8000488281</ele>
        <time>2020-06-28T07:28:32.000Z</time>
      </trkpt>
      <trkpt lat="45.67313" lon="6.75598">
        <ele>1452.8000488281</ele>
        <time>2020-06-28T07:28:34.000Z</time>
      </trkpt>
      <trkpt lat="45.67322" lon="6.7556">
        <ele>1452.5999755859</ele>
        <time>2020-06-28T07:28:38.000Z</time>
      </trkpt>
      <trkpt lat="45.67332" lon="6.75533">
        <ele>1452.5999755859</ele>
        <time>2020-06-28T07:28:41.000Z</time>
      </trkpt>
      <trkpt lat="45.67342" lon="6.75517">
        <ele>1452.5999755859</ele>
        <time>2020-06-28T07:28:43.000Z</time>
      </trkpt>
      <trkpt lat="45.6738" lon="6.75468">
        <ele>1452.8000488281</ele>
        <time>2020-06-28T07:28:50.000Z</time>
      </trkpt>
      <trkpt lat="45.67406" lon="6.7542">
        <ele>1452.8000488281</ele>
        <time>2020-06-28T07:28:56.000Z</time>
      </trkpt>
      <trkpt lat="45.67418" lon="6.75384">
        <ele>1452.8000488281</ele>
        <time>2020-06-28T07:29:00.000Z</time>
      </trkpt>
      <trkpt lat="45.6742" lon="6.75374">
        <ele>1452.8000488281</ele>
        <time>2020-06-28T07:29:01.000Z</time>
      </trkpt>
      <trkpt lat="45.67423" lon="6.75332">
        <ele>1452.8000488281</ele>
        <time>2020-06-28T07:29:05.000Z</time>
      </trkpt>
      <trkpt lat="45.67423" lon="6.75322">
        <ele>1452.8000488281</ele>
        <time>2020-06-28T07:29:06.000Z</time>
      </trkpt>
      <trkpt lat="45.67417" lon="6.75267">
        <ele>1453</ele>
        <time>2020-06-28T07:29:11.000Z</time>
      </trkpt>
      <trkpt lat="45.67417" lon="6.75224">
        <ele>1453</ele>
        <time>2020-06-28T07:29:15.000Z</time>
      </trkpt>
      <trkpt lat="45.67418" lon="6.75205">
        <ele>1453</ele>
        <time>2020-06-28T07:29:17.000Z</time>
      </trkpt>
      <trkpt lat="45.67427" lon="6.75157">
        <ele>1453</ele>
        <time>2020-06-28T07:29:22.000Z</time>
      </trkpt>
      <trkpt lat="45.67444" lon="6.75124">
        <ele>1453</ele>
        <time>2020-06-28T07:29:26.000Z</time>
      </trkpt>
      <trkpt lat="45.67449" lon="6.75117">
        <ele>1453</ele>
        <time>2020-06-28T07:29:27.000Z</time>
      </trkpt>
      <trkpt lat="45.67479" lon="6.75074">
        <ele>1453</ele>
        <time>2020-06-28T07:29:33.000Z</time>
      </trkpt>
      <trkpt lat="45.67523" lon="6.75025">
        <ele>1453</ele>
        <time>2020-06-28T07:29:41.000Z</time>
      </trkpt>
      <trkpt lat="45.67534" lon="6.75013">
        <ele>1453.1999511719</ele>
        <time>2020-06-28T07:29:43.000Z</time>
      </trkpt>
      <trkpt lat="45.67543" lon="6.74998">
        <ele>1453.4000244141</ele>
        <time>2020-06-28T07:29:45.000Z</time>
      </trkpt>
      <trkpt lat="45.67547" lon="6.74991">
        <ele>1453.5999755859</ele>
        <time>2020-06-28T07:29:46.000Z</time>
      </trkpt>
      <trkpt lat="45.67564" lon="6.74945">
        <ele>1453.8000488281</ele>
        <time>2020-06-28T07:29:52.000Z</time>
      </trkpt>
      <trkpt lat="45.67571" lon="6.74906">
        <ele>1454.5999755859</ele>
        <time>2020-06-28T07:29:57.000Z</time>
      </trkpt>
      <trkpt lat="45.67571" lon="6.74898">
        <ele>1454.8000488281</ele>
        <time>2020-06-28T07:29:58.000Z</time>
      </trkpt>
      <trkpt lat="45.67572" lon="6.74875">
        <ele>1455.5999755859</ele>
        <time>2020-06-28T07:30:01.000Z</time>
      </trkpt>
      <trkpt lat="45.67574" lon="6.74853">
        <ele>1456.1999511719</ele>
        <time>2020-06-28T07:30:04.000Z</time>
      </trkpt>
      <trkpt lat="45.67578" lon="6.74834">
        <ele>1456.5999755859</ele>
        <time>2020-06-28T07:30:07.000Z</time>
      </trkpt>
      <trkpt lat="45.67583" lon="6.74824">
        <ele>1457</ele>
        <time>2020-06-28T07:30:09.000Z</time>
      </trkpt>
      <trkpt lat="45.6759" lon="6.7481">
        <ele>1458</ele>
        <time>2020-06-28T07:30:12.000Z</time>
      </trkpt>
      <trkpt lat="45.67599" lon="6.74791">
        <ele>1459</ele>
        <time>2020-06-28T07:30:16.000Z</time>
      </trkpt>
      <trkpt lat="45.67604" lon="6.74777">
        <ele>1460.4000244141</ele>
        <time>2020-06-28T07:30:19.000Z</time>
      </trkpt>
      <trkpt lat="45.67613" lon="6.74753">
        <ele>1461.4000244141</ele>
        <time>2020-06-28T07:30:24.000Z</time>
      </trkpt>
      <trkpt lat="45.67623" lon="6.74725">
        <ele>1462.4000244141</ele>
        <time>2020-06-28T07:30:30.000Z</time>
      </trkpt>
      <trkpt lat="45.67627" lon="6.74716">
        <ele>1462.8000488281</ele>
        <time>2020-06-28T07:30:32.000Z</time>
      </trkpt>
      <trkpt lat="45.67638" lon="6.74701">
        <ele>1463.5999755859</ele>
        <time>2020-06-28T07:30:36.000Z</time>
      </trkpt>
      <trkpt lat="45.67644" lon="6.74695">
        <ele>1464.1999511719</ele>
        <time>2020-06-28T07:30:38.000Z</time>
      </trkpt>
      <trkpt lat="45.6765" lon="6.74691">
        <ele>1464.5999755859</ele>
        <time>2020-06-28T07:30:40.000Z</time>
      </trkpt>
      <trkpt lat="45.67669" lon="6.74677">
        <ele>1466</ele>
        <time>2020-06-28T07:30:46.000Z</time>
      </trkpt>
      <trkpt lat="45.67673" lon="6.74675">
        <ele>1466</ele>
        <time>2020-06-28T07:30:47.000Z</time>
      </trkpt>
      <trkpt lat="45.67688" lon="6.74662">
        <ele>1467</ele>
        <time>2020-06-28T07:30:52.000Z</time>
      </trkpt>
      <trkpt lat="45.67699" lon="6.74651">
        <ele>1467.5999755859</ele>
        <time>2020-06-28T07:30:56.000Z</time>
      </trkpt>
      <trkpt lat="45.67704" lon="6.74645">
        <ele>1468</ele>
        <time>2020-06-28T07:30:58.000Z</time>
      </trkpt>
      <trkpt lat="45.67721" lon="6.74621">
        <ele>1469</ele>
        <time>2020-06-28T07:31:05.000Z</time>
      </trkpt>
      <trkpt lat="45.67733" lon="6.74595">
        <ele>1469.8000488281</ele>
        <time>2020-06-28T07:31:11.000Z</time>
      </trkpt>
      <trkpt lat="45.6774" lon="6.74578">
        <ele>1470.8000488281</ele>
        <time>2020-06-28T07:31:15.000Z</time>
      </trkpt>
      <trkpt lat="45.67742" lon="6.74574">
        <ele>1471</ele>
        <time>2020-06-28T07:31:16.000Z</time>
      </trkpt>
      <trkpt lat="45.67751" lon="6.74551">
        <ele>1472.1999511719</ele>
        <time>2020-06-28T07:31:22.000Z</time>
      </trkpt>
      <trkpt lat="45.67752" lon="6.74547">
        <ele>1472.4000244141</ele>
        <time>2020-06-28T07:31:23.000Z</time>
      </trkpt>
      <trkpt lat="45.6776" lon="6.74527">
        <ele>1473.1999511719</ele>
        <time>2020-06-28T07:31:28.000Z</time>
      </trkpt>
      <trkpt lat="45.67762" lon="6.74522">
        <ele>1473.4000244141</ele>
        <time>2020-06-28T07:31:29.000Z</time>
      </trkpt>
      <trkpt lat="45.67768" lon="6.74506">
        <ele>1474.4000244141</ele>
        <time>2020-06-28T07:31:33.000Z</time>
      </trkpt>
      <trkpt lat="45.67771" lon="6.74497">
        <ele>1474.8000488281</ele>
        <time>2020-06-28T07:31:35.000Z</time>
      </trkpt>
      <trkpt lat="45.67781" lon="6.74472">
        <ele>1475.1999511719</ele>
        <time>2020-06-28T07:31:41.000Z</time>
      </trkpt>
      <trkpt lat="45.67784" lon="6.74463">
        <ele>1475.8000488281</ele>
        <time>2020-06-28T07:31:43.000Z</time>
      </trkpt>
      <trkpt lat="45.67789" lon="6.74451">
        <ele>1476.4000244141</ele>
        <time>2020-06-28T07:31:46.000Z</time>
      </trkpt>
      <trkpt lat="45.67795" lon="6.74434">
        <ele>1477</ele>
        <time>2020-06-28T07:31:50.000Z</time>
      </trkpt>
      <trkpt lat="45.67798" lon="6.74422">
        <ele>1477.5999755859</ele>
        <time>2020-06-28T07:31:53.000Z</time>
      </trkpt>
      <trkpt lat="45.67804" lon="6.74406">
        <ele>1478.4000244141</ele>
        <time>2020-06-28T07:31:57.000Z</time>
      </trkpt>
      <trkpt lat="45.67806" lon="6.74397">
        <ele>1478.8000488281</ele>
        <time>2020-06-28T07:31:59.000Z</time>
      </trkpt>
      <trkpt lat="45.67811" lon="6.7438">
        <ele>1479.5999755859</ele>
        <time>2020-06-28T07:32:03.000Z</time>
      </trkpt>
      <trkpt lat="45.67815" lon="6.74372">
        <ele>1479.8000488281</ele>
        <time>2020-06-28T07:32:05.000Z</time>
      </trkpt>
      <trkpt lat="45.67823" lon="6.74355">
        <ele>1480.5999755859</ele>
        <time>2020-06-28T07:32:09.000Z</time>
      </trkpt>
      <trkpt lat="45.67827" lon="6.74347">
        <ele>1480.8000488281</ele>
        <time>2020-06-28T07:32:11.000Z</time>
      </trkpt>
      <trkpt lat="45.67838" lon="6.74328">
        <ele>1481.8000488281</ele>
        <time>2020-06-28T07:32:16.000Z</time>
      </trkpt>
      <trkpt lat="45.6784" lon="6.74324">
        <ele>1481.8000488281</ele>
        <time>2020-06-28T07:32:17.000Z</time>
      </trkpt>
      <trkpt lat="45.67852" lon="6.74302">
        <ele>1483</ele>
        <time>2020-06-28T07:32:23.000Z</time>
      </trkpt>
      <trkpt lat="45.67863" lon="6.74287">
        <ele>1484.1999511719</ele>
        <time>2020-06-28T07:32:28.000Z</time>
      </trkpt>
      <trkpt lat="45.6787" lon="6.74279">
        <ele>1484.8000488281</ele>
        <time>2020-06-28T07:32:31.000Z</time>
      </trkpt>
      <trkpt lat="45.67874" lon="6.74274">
        <ele>1485.1999511719</ele>
        <time>2020-06-28T07:32:33.000Z</time>
      </trkpt>
      <trkpt lat="45.67881" lon="6.74266">
        <ele>1486.4000244141</ele>
        <time>2020-06-28T07:32:36.000Z</time>
      </trkpt>
      <trkpt lat="45.6789" lon="6.74255">
        <ele>1487</ele>
        <time>2020-06-28T07:32:40.000Z</time>
      </trkpt>
      <trkpt lat="45.67899" lon="6.74244">
        <ele>1487.5999755859</ele>
        <time>2020-06-28T07:32:44.000Z</time>
      </trkpt>
      <trkpt lat="45.6791" lon="6.74229">
        <ele>1488.4000244141</ele>
        <time>2020-06-28T07:32:49.000Z</time>
      </trkpt>
      <trkpt lat="45.67914" lon="6.74224">
        <ele>1488.5999755859</ele>
        <time>2020-06-28T07:32:51.000Z</time>
      </trkpt>
      <trkpt lat="45.67923" lon="6.74213">
        <ele>1489.4000244141</ele>
        <time>2020-06-28T07:32:55.000Z</time>
      </trkpt>
      <trkpt lat="45.67928" lon="6.74208">
        <ele>1489.8000488281</ele>
        <time>2020-06-28T07:32:57.000Z</time>
      </trkpt>
      <trkpt lat="45.6794" lon="6.74191">
        <ele>1491</ele>
        <time>2020-06-28T07:33:03.000Z</time>
      </trkpt>
      <trkpt lat="45.67955" lon="6.74176">
        <ele>1491.8000488281</ele>
        <time>2020-06-28T07:33:09.000Z</time>
      </trkpt>
      <trkpt lat="45.67957" lon="6.74174">
        <ele>1492</ele>
        <time>2020-06-28T07:33:10.000Z</time>
      </trkpt>
      <trkpt lat="45.67968" lon="6.7416">
        <ele>1493</ele>
        <time>2020-06-28T07:33:15.000Z</time>
      </trkpt>
      <trkpt lat="45.6797" lon="6.74157">
        <ele>1493.1999511719</ele>
        <time>2020-06-28T07:33:16.000Z</time>
      </trkpt>
      <trkpt lat="45.67982" lon="6.74143">
        <ele>1494</ele>
        <time>2020-06-28T07:33:21.000Z</time>
      </trkpt>
      <trkpt lat="45.67984" lon="6.7414">
        <ele>1494.1999511719</ele>
        <time>2020-06-28T07:33:22.000Z</time>
      </trkpt>
      <trkpt lat="45.67998" lon="6.7412">
        <ele>1495.1999511719</ele>
        <time>2020-06-28T07:33:28.000Z</time>
      </trkpt>
      <trkpt lat="45.68" lon="6.74118">
        <ele>1495.1999511719</ele>
        <time>2020-06-28T07:33:29.000Z</time>
      </trkpt>
      <trkpt lat="45.68011" lon="6.74103">
        <ele>1496.1999511719</ele>
        <time>2020-06-28T07:33:34.000Z</time>
      </trkpt>
      <trkpt lat="45.68018" lon="6.74094">
        <ele>1496.5999755859</ele>
        <time>2020-06-28T07:33:37.000Z</time>
      </trkpt>
      <trkpt lat="45.68025" lon="6.74086">
        <ele>1497.1999511719</ele>
        <time>2020-06-28T07:33:40.000Z</time>
      </trkpt>
      <trkpt lat="45.68038" lon="6.74073">
        <ele>1498.1999511719</ele>
        <time>2020-06-28T07:33:45.000Z</time>
      </trkpt>
      <trkpt lat="45.6804" lon="6.7407">
        <ele>1498.4000244141</ele>
        <time>2020-06-28T07:33:46.000Z</time>
      </trkpt>
      <trkpt lat="45.68055" lon="6.74056">
        <ele>1499.1999511719</ele>
        <time>2020-06-28T07:33:52.000Z</time>
      </trkpt>
      <trkpt lat="45.68068" lon="6.74044">
        <ele>1500.5999755859</ele>
        <time>2020-06-28T07:33:57.000Z</time>
      </trkpt>
      <trkpt lat="45.68075" lon="6.74036">
        <ele>1501.5999755859</ele>
        <time>2020-06-28T07:34:00.000Z</time>
      </trkpt>
      <trkpt lat="45.68078" lon="6.74033">
        <ele>1501.8000488281</ele>
        <time>2020-06-28T07:34:01.000Z</time>
      </trkpt>
      <trkpt lat="45.68088" lon="6.74022">
        <ele>1502.8000488281</ele>
        <time>2020-06-28T07:34:05.000Z</time>
      </trkpt>
      <trkpt lat="45.68099" lon="6.7401">
        <ele>1503.4000244141</ele>
        <time>2020-06-28T07:34:09.000Z</time>
      </trkpt>
      <trkpt lat="45.68107" lon="6.74001">
        <ele>1503.5999755859</ele>
        <time>2020-06-28T07:34:12.000Z</time>
      </trkpt>
      <trkpt lat="45.68121" lon="6.73987">
        <ele>1504.5999755859</ele>
        <time>2020-06-28T07:34:18.000Z</time>
      </trkpt>
      <trkpt lat="45.68136" lon="6.73973">
        <ele>1505.8000488281</ele>
        <time>2020-06-28T07:34:24.000Z</time>
      </trkpt>
      <trkpt lat="45.68143" lon="6.7397">
        <ele>1506</ele>
        <time>2020-06-28T07:34:26.000Z</time>
      </trkpt>
      <trkpt lat="45.68153" lon="6.73966">
        <ele>1506.8000488281</ele>
        <time>2020-06-28T07:34:29.000Z</time>
      </trkpt>
      <trkpt lat="45.68175" lon="6.73955">
        <ele>1508</ele>
        <time>2020-06-28T07:34:36.000Z</time>
      </trkpt>
      <trkpt lat="45.68188" lon="6.73949">
        <ele>1509</ele>
        <time>2020-06-28T07:34:40.000Z</time>
      </trkpt>
      <trkpt lat="45.68204" lon="6.7394">
        <ele>1510</ele>
        <time>2020-06-28T07:34:45.000Z</time>
      </trkpt>
      <trkpt lat="45.68207" lon="6.73938">
        <ele>1510.1999511719</ele>
        <time>2020-06-28T07:34:46.000Z</time>
      </trkpt>
      <trkpt lat="45.68225" lon="6.73917">
        <ele>1510.8000488281</ele>
        <time>2020-06-28T07:34:53.000Z</time>
      </trkpt>
      <trkpt lat="45.68227" lon="6.73913">
        <ele>1511</ele>
        <time>2020-06-28T07:34:54.000Z</time>
      </trkpt>
      <trkpt lat="45.68239" lon="6.73892">
        <ele>1512.1999511719</ele>
        <time>2020-06-28T07:34:59.000Z</time>
      </trkpt>
      <trkpt lat="45.68246" lon="6.73878">
        <ele>1512.5999755859</ele>
        <time>2020-06-28T07:35:02.000Z</time>
      </trkpt>
      <trkpt lat="45.68259" lon="6.73854">
        <ele>1513.1999511719</ele>
        <time>2020-06-28T07:35:07.000Z</time>
      </trkpt>
      <trkpt lat="45.68269" lon="6.73835">
        <ele>1513.4000244141</ele>
        <time>2020-06-28T07:35:11.000Z</time>
      </trkpt>
      <trkpt lat="45.68293" lon="6.73793">
        <ele>1514.1999511719</ele>
        <time>2020-06-28T07:35:20.000Z</time>
      </trkpt>
      <trkpt lat="45.683" lon="6.73784">
        <ele>1514.4000244141</ele>
        <time>2020-06-28T07:35:22.000Z</time>
      </trkpt>
      <trkpt lat="45.68317" lon="6.73767">
        <ele>1514.4000244141</ele>
        <time>2020-06-28T07:35:26.000Z</time>
      </trkpt>
      <trkpt lat="45.68348" lon="6.73749">
        <ele>1514.4000244141</ele>
        <time>2020-06-28T07:35:32.000Z</time>
      </trkpt>
      <trkpt lat="45.68392" lon="6.7374">
        <ele>1514</ele>
        <time>2020-06-28T07:35:40.000Z</time>
      </trkpt>
      <trkpt lat="45.68445" lon="6.73723">
        <ele>1514.8000488281</ele>
        <time>2020-06-28T07:35:50.000Z</time>
      </trkpt>
      <trkpt lat="45.6845" lon="6.73721">
        <ele>1515</ele>
        <time>2020-06-28T07:35:51.000Z</time>
      </trkpt>
      <trkpt lat="45.68455" lon="6.73719">
        <ele>1515</ele>
        <time>2020-06-28T07:35:52.000Z</time>
      </trkpt>
      <trkpt lat="45.68489" lon="6.73696">
        <ele>1515.8000488281</ele>
        <time>2020-06-28T07:35:59.000Z</time>
      </trkpt>
      <trkpt lat="45.68498" lon="6.73688">
        <ele>1516</ele>
        <time>2020-06-28T07:36:01.000Z</time>
      </trkpt>
      <trkpt lat="45.68511" lon="6.73675">
        <ele>1516.1999511719</ele>
        <time>2020-06-28T07:36:04.000Z</time>
      </trkpt>
      <trkpt lat="45.68518" lon="6.73664">
        <ele>1516.4000244141</ele>
        <time>2020-06-28T07:36:06.000Z</time>
      </trkpt>
      <trkpt lat="45.68541" lon="6.73626">
        <ele>1517</ele>
        <time>2020-06-28T07:36:13.000Z</time>
      </trkpt>
      <trkpt lat="45.68544" lon="6.73621">
        <ele>1517</ele>
        <time>2020-06-28T07:36:14.000Z</time>
      </trkpt>
      <trkpt lat="45.68546" lon="6.73615">
        <ele>1517.1999511719</ele>
        <time>2020-06-28T07:36:15.000Z</time>
      </trkpt>
      <trkpt lat="45.68556" lon="6.73592">
        <ele>1518.1999511719</ele>
        <time>2020-06-28T07:36:19.000Z</time>
      </trkpt>
      <trkpt lat="45.68558" lon="6.73586">
        <ele>1518.4000244141</ele>
        <time>2020-06-28T07:36:20.000Z</time>
      </trkpt>
      <trkpt lat="45.68567" lon="6.73563">
        <ele>1519.4000244141</ele>
        <time>2020-06-28T07:36:24.000Z</time>
      </trkpt>
      <trkpt lat="45.68571" lon="6.73552">
        <ele>1519.8000488281</ele>
        <time>2020-06-28T07:36:26.000Z</time>
      </trkpt>
      <trkpt lat="45.68576" lon="6.73535">
        <ele>1520.1999511719</ele>
        <time>2020-06-28T07:36:29.000Z</time>
      </trkpt>
      <trkpt lat="45.68581" lon="6.73513">
        <ele>1520.5999755859</ele>
        <time>2020-06-28T07:36:33.000Z</time>
      </trkpt>
      <trkpt lat="45.68581" lon="6.73508">
        <ele>1521</ele>
        <time>2020-06-28T07:36:34.000Z</time>
      </trkpt>
      <trkpt lat="45.68581" lon="6.73502">
        <ele>1521.1999511719</ele>
        <time>2020-06-28T07:36:35.000Z</time>
      </trkpt>
      <trkpt lat="45.68583" lon="6.73472">
        <ele>1522.4000244141</ele>
        <time>2020-06-28T07:36:40.000Z</time>
      </trkpt>
      <trkpt lat="45.68585" lon="6.73455">
        <ele>1523.4000244141</ele>
        <time>2020-06-28T07:36:43.000Z</time>
      </trkpt>
      <trkpt lat="45.68585" lon="6.73433">
        <ele>1524.4000244141</ele>
        <time>2020-06-28T07:36:47.000Z</time>
      </trkpt>
      <trkpt lat="45.68586" lon="6.73427">
        <ele>1524.5999755859</ele>
        <time>2020-06-28T07:36:48.000Z</time>
      </trkpt>
      <trkpt lat="45.68589" lon="6.73394">
        <ele>1525.8000488281</ele>
        <time>2020-06-28T07:36:54.000Z</time>
      </trkpt>
      <trkpt lat="45.6859" lon="6.73389">
        <ele>1526</ele>
        <time>2020-06-28T07:36:55.000Z</time>
      </trkpt>
      <trkpt lat="45.68597" lon="6.73367">
        <ele>1527</ele>
        <time>2020-06-28T07:37:00.000Z</time>
      </trkpt>
      <trkpt lat="45.68599" lon="6.73363">
        <ele>1527</ele>
        <time>2020-06-28T07:37:01.000Z</time>
      </trkpt>
      <trkpt lat="45.68608" lon="6.73347">
        <ele>1528</ele>
        <time>2020-06-28T07:37:06.000Z</time>
      </trkpt>
      <trkpt lat="45.68615" lon="6.73338">
        <ele>1528.5999755859</ele>
        <time>2020-06-28T07:37:09.000Z</time>
      </trkpt>
      <trkpt lat="45.6862" lon="6.73333">
        <ele>1529.1999511719</ele>
        <time>2020-06-28T07:37:11.000Z</time>
      </trkpt>
      <trkpt lat="45.68631" lon="6.73322">
        <ele>1530</ele>
        <time>2020-06-28T07:37:16.000Z</time>
      </trkpt>
      <trkpt lat="45.68643" lon="6.73315">
        <ele>1531.1999511719</ele>
        <time>2020-06-28T07:37:21.000Z</time>
      </trkpt>
      <trkpt lat="45.6865" lon="6.73311">
        <ele>1532</ele>
        <time>2020-06-28T07:37:24.000Z</time>
      </trkpt>
      <trkpt lat="45.68653" lon="6.7331">
        <ele>1532.1999511719</ele>
        <time>2020-06-28T07:37:25.000Z</time>
      </trkpt>
      <trkpt lat="45.68666" lon="6.73307">
        <ele>1533.1999511719</ele>
        <time>2020-06-28T07:37:30.000Z</time>
      </trkpt>
      <trkpt lat="45.68673" lon="6.73305">
        <ele>1533.5999755859</ele>
        <time>2020-06-28T07:37:33.000Z</time>
      </trkpt>
      <trkpt lat="45.68678" lon="6.73304">
        <ele>1534.1999511719</ele>
        <time>2020-06-28T07:37:35.000Z</time>
      </trkpt>
      <trkpt lat="45.6869" lon="6.73301">
        <ele>1535.1999511719</ele>
        <time>2020-06-28T07:37:40.000Z</time>
      </trkpt>
      <trkpt lat="45.68697" lon="6.73299">
        <ele>1536.4000244141</ele>
        <time>2020-06-28T07:37:43.000Z</time>
      </trkpt>
      <trkpt lat="45.68699" lon="6.73298">
        <ele>1536.8000488281</ele>
        <time>2020-06-28T07:37:44.000Z</time>
      </trkpt>
      <trkpt lat="45.68707" lon="6.73296">
        <ele>1537.4000244141</ele>
        <time>2020-06-28T07:37:47.000Z</time>
      </trkpt>
      <trkpt lat="45.68721" lon="6.73293">
        <ele>1538.5999755859</ele>
        <time>2020-06-28T07:37:53.000Z</time>
      </trkpt>
      <trkpt lat="45.68735" lon="6.7329">
        <ele>1539.5999755859</ele>
        <time>2020-06-28T07:37:59.000Z</time>
      </trkpt>
      <trkpt lat="45.68745" lon="6.73287">
        <ele>1540.4000244141</ele>
        <time>2020-06-28T07:38:03.000Z</time>
      </trkpt>
      <trkpt lat="45.68747" lon="6.73287">
        <ele>1540.5999755859</ele>
        <time>2020-06-28T07:38:04.000Z</time>
      </trkpt>
      <trkpt lat="45.68759" lon="6.73283">
        <ele>1542</ele>
        <time>2020-06-28T07:38:09.000Z</time>
      </trkpt>
      <trkpt lat="45.68766" lon="6.73281">
        <ele>1542.5999755859</ele>
        <time>2020-06-28T07:38:12.000Z</time>
      </trkpt>
      <trkpt lat="45.68771" lon="6.73279">
        <ele>1543</ele>
        <time>2020-06-28T07:38:14.000Z</time>
      </trkpt>
      <trkpt lat="45.68783" lon="6.73277">
        <ele>1544</ele>
        <time>2020-06-28T07:38:19.000Z</time>
      </trkpt>
      <trkpt lat="45.68789" lon="6.73276">
        <ele>1544.5999755859</ele>
        <time>2020-06-28T07:38:22.000Z</time>
      </trkpt>
      <trkpt lat="45.68797" lon="6.73276">
        <ele>1545</ele>
        <time>2020-06-28T07:38:25.000Z</time>
      </trkpt>
      <trkpt lat="45.68806" lon="6.73277">
        <ele>1546</ele>
        <time>2020-06-28T07:38:29.000Z</time>
      </trkpt>
      <trkpt lat="45.68816" lon="6.73279">
        <ele>1547</ele>
        <time>2020-06-28T07:38:33.000Z</time>
      </trkpt>
      <trkpt lat="45.68818" lon="6.7328">
        <ele>1547.1999511719</ele>
        <time>2020-06-28T07:38:34.000Z</time>
      </trkpt>
      <trkpt lat="45.68827" lon="6.73284">
        <ele>1548.1999511719</ele>
        <time>2020-06-28T07:38:38.000Z</time>
      </trkpt>
      <trkpt lat="45.68841" lon="6.73289">
        <ele>1549.1999511719</ele>
        <time>2020-06-28T07:38:44.000Z</time>
      </trkpt>
      <trkpt lat="45.68851" lon="6.73294">
        <ele>1550.4000244141</ele>
        <time>2020-06-28T07:38:49.000Z</time>
      </trkpt>
      <trkpt lat="45.68863" lon="6.73299">
        <ele>1551.4000244141</ele>
        <time>2020-06-28T07:38:54.000Z</time>
      </trkpt>
      <trkpt lat="45.68876" lon="6.73304">
        <ele>1552.5999755859</ele>
        <time>2020-06-28T07:39:00.000Z</time>
      </trkpt>
      <trkpt lat="45.68885" lon="6.73306">
        <ele>1553.1999511719</ele>
        <time>2020-06-28T07:39:04.000Z</time>
      </trkpt>
      <trkpt lat="45.6889" lon="6.73306">
        <ele>1553.5999755859</ele>
        <time>2020-06-28T07:39:06.000Z</time>
      </trkpt>
      <trkpt lat="45.689" lon="6.73306">
        <ele>1554.8000488281</ele>
        <time>2020-06-28T07:39:10.000Z</time>
      </trkpt>
      <trkpt lat="45.68907" lon="6.73305">
        <ele>1555.1999511719</ele>
        <time>2020-06-28T07:39:13.000Z</time>
      </trkpt>
      <trkpt lat="45.68919" lon="6.73302">
        <ele>1556</ele>
        <time>2020-06-28T07:39:18.000Z</time>
      </trkpt>
      <trkpt lat="45.6893" lon="6.733">
        <ele>1557.1999511719</ele>
        <time>2020-06-28T07:39:23.000Z</time>
      </trkpt>
      <trkpt lat="45.68932" lon="6.73299">
        <ele>1557.4000244141</ele>
        <time>2020-06-28T07:39:24.000Z</time>
      </trkpt>
      <trkpt lat="45.68941" lon="6.73296">
        <ele>1558.1999511719</ele>
        <time>2020-06-28T07:39:28.000Z</time>
      </trkpt>
      <trkpt lat="45.68951" lon="6.73293">
        <ele>1559.4000244141</ele>
        <time>2020-06-28T07:39:32.000Z</time>
      </trkpt>
      <trkpt lat="45.68953" lon="6.73293">
        <ele>1559.5999755859</ele>
        <time>2020-06-28T07:39:33.000Z</time>
      </trkpt>
      <trkpt lat="45.68964" lon="6.7329">
        <ele>1560.4000244141</ele>
        <time>2020-06-28T07:39:38.000Z</time>
      </trkpt>
      <trkpt lat="45.68972" lon="6.73289">
        <ele>1561</ele>
        <time>2020-06-28T07:39:41.000Z</time>
      </trkpt>
      <trkpt lat="45.68977" lon="6.73288">
        <ele>1561.4000244141</ele>
        <time>2020-06-28T07:39:43.000Z</time>
      </trkpt>
      <trkpt lat="45.68996" lon="6.73286">
        <ele>1562.5999755859</ele>
        <time>2020-06-28T07:39:51.000Z</time>
      </trkpt>
      <trkpt lat="45.68999" lon="6.73286">
        <ele>1562.8000488281</ele>
        <time>2020-06-28T07:39:52.000Z</time>
      </trkpt>
      <trkpt lat="45.6901" lon="6.73284">
        <ele>1563.8000488281</ele>
        <time>2020-06-28T07:39:57.000Z</time>
      </trkpt>
      <trkpt lat="45.69012" lon="6.73283">
        <ele>1564</ele>
        <time>2020-06-28T07:39:58.000Z</time>
      </trkpt>
      <trkpt lat="45.69017" lon="6.73281">
        <ele>1564.4000244141</ele>
        <time>2020-06-28T07:40:00.000Z</time>
      </trkpt>
      <trkpt lat="45.69021" lon="6.7328">
        <ele>1564.8000488281</ele>
        <time>2020-06-28T07:40:02.000Z</time>
      </trkpt>
      <trkpt lat="45.69038" lon="6.73272">
        <ele>1566</ele>
        <time>2020-06-28T07:40:09.000Z</time>
      </trkpt>
      <trkpt lat="45.69043" lon="6.7327">
        <ele>1566.4000244141</ele>
        <time>2020-06-28T07:40:11.000Z</time>
      </trkpt>
      <trkpt lat="45.69052" lon="6.73268">
        <ele>1567</ele>
        <time>2020-06-28T07:40:15.000Z</time>
      </trkpt>
      <trkpt lat="45.69061" lon="6.73265">
        <ele>1568.1999511719</ele>
        <time>2020-06-28T07:40:19.000Z</time>
      </trkpt>
      <trkpt lat="45.69072" lon="6.73262">
        <ele>1569.1999511719</ele>
        <time>2020-06-28T07:40:23.000Z</time>
      </trkpt>
      <trkpt lat="45.6908" lon="6.73261">
        <ele>1570</ele>
        <time>2020-06-28T07:40:26.000Z</time>
      </trkpt>
      <trkpt lat="45.69083" lon="6.7326">
        <ele>1570.4000244141</ele>
        <time>2020-06-28T07:40:27.000Z</time>
      </trkpt>
      <trkpt lat="45.69093" lon="6.73258">
        <ele>1571.5999755859</ele>
        <time>2020-06-28T07:40:31.000Z</time>
      </trkpt>
      <trkpt lat="45.69098" lon="6.73257">
        <ele>1572</ele>
        <time>2020-06-28T07:40:33.000Z</time>
      </trkpt>
      <trkpt lat="45.69104" lon="6.73257">
        <ele>1572.5999755859</ele>
        <time>2020-06-28T07:40:35.000Z</time>
      </trkpt>
      <trkpt lat="45.69116" lon="6.73257">
        <ele>1573.4000244141</ele>
        <time>2020-06-28T07:40:40.000Z</time>
      </trkpt>
      <trkpt lat="45.69124" lon="6.73256">
        <ele>1574.1999511719</ele>
        <time>2020-06-28T07:40:43.000Z</time>
      </trkpt>
      <trkpt lat="45.69128" lon="6.73256">
        <ele>1574.5999755859</ele>
        <time>2020-06-28T07:40:45.000Z</time>
      </trkpt>
      <trkpt lat="45.69138" lon="6.73255">
        <ele>1575.1999511719</ele>
        <time>2020-06-28T07:40:49.000Z</time>
      </trkpt>
      <trkpt lat="45.69145" lon="6.73255">
        <ele>1575.5999755859</ele>
        <time>2020-06-28T07:40:52.000Z</time>
      </trkpt>
      <trkpt lat="45.69156" lon="6.73254">
        <ele>1576.8000488281</ele>
        <time>2020-06-28T07:40:56.000Z</time>
      </trkpt>
      <trkpt lat="45.69163" lon="6.73252">
        <ele>1577.1999511719</ele>
        <time>2020-06-28T07:40:59.000Z</time>
      </trkpt>
      <trkpt lat="45.69171" lon="6.73251">
        <ele>1577.8000488281</ele>
        <time>2020-06-28T07:41:02.000Z</time>
      </trkpt>
      <trkpt lat="45.69185" lon="6.73249">
        <ele>1579</ele>
        <time>2020-06-28T07:41:08.000Z</time>
      </trkpt>
      <trkpt lat="45.69188" lon="6.73249">
        <ele>1579.1999511719</ele>
        <time>2020-06-28T07:41:09.000Z</time>
      </trkpt>
      <trkpt lat="45.692" lon="6.73245">
        <ele>1579.8000488281</ele>
        <time>2020-06-28T07:41:14.000Z</time>
      </trkpt>
      <trkpt lat="45.69213" lon="6.73242">
        <ele>1580.8000488281</ele>
        <time>2020-06-28T07:41:19.000Z</time>
      </trkpt>
      <trkpt lat="45.69215" lon="6.73241">
        <ele>1581</ele>
        <time>2020-06-28T07:41:20.000Z</time>
      </trkpt>
      <trkpt lat="45.69221" lon="6.7324">
        <ele>1581.5999755859</ele>
        <time>2020-06-28T07:41:22.000Z</time>
      </trkpt>
      <trkpt lat="45.69228" lon="6.73238">
        <ele>1582</ele>
        <time>2020-06-28T07:41:25.000Z</time>
      </trkpt>
      <trkpt lat="45.69239" lon="6.73236">
        <ele>1583</ele>
        <time>2020-06-28T07:41:29.000Z</time>
      </trkpt>
      <trkpt lat="45.69241" lon="6.73236">
        <ele>1583.1999511719</ele>
        <time>2020-06-28T07:41:30.000Z</time>
      </trkpt>
      <trkpt lat="45.69253" lon="6.73233">
        <ele>1584.1999511719</ele>
        <time>2020-06-28T07:41:35.000Z</time>
      </trkpt>
      <trkpt lat="45.69268" lon="6.73231">
        <ele>1585.4000244141</ele>
        <time>2020-06-28T07:41:41.000Z</time>
      </trkpt>
      <trkpt lat="45.69286" lon="6.73222">
        <ele>1586.4000244141</ele>
        <time>2020-06-28T07:41:48.000Z</time>
      </trkpt>
      <trkpt lat="45.69289" lon="6.73221">
        <ele>1586.5999755859</ele>
        <time>2020-06-28T07:41:49.000Z</time>
      </trkpt>
      <trkpt lat="45.69299" lon="6.73215">
        <ele>1587.4000244141</ele>
        <time>2020-06-28T07:41:53.000Z</time>
      </trkpt>
      <trkpt lat="45.69309" lon="6.7321">
        <ele>1587.8000488281</ele>
        <time>2020-06-28T07:41:57.000Z</time>
      </trkpt>
      <trkpt lat="45.69318" lon="6.73206">
        <ele>1588.4000244141</ele>
        <time>2020-06-28T07:42:00.000Z</time>
      </trkpt>
      <trkpt lat="45.69329" lon="6.73197">
        <ele>1589.1999511719</ele>
        <time>2020-06-28T07:42:04.000Z</time>
      </trkpt>
      <trkpt lat="45.69332" lon="6.73195">
        <ele>1589.5999755859</ele>
        <time>2020-06-28T07:42:05.000Z</time>
      </trkpt>
      <trkpt lat="45.69339" lon="6.73179">
        <ele>1590.4000244141</ele>
        <time>2020-06-28T07:42:09.000Z</time>
      </trkpt>
      <trkpt lat="45.6934" lon="6.73171">
        <ele>1590.5999755859</ele>
        <time>2020-06-28T07:42:11.000Z</time>
      </trkpt>
      <trkpt lat="45.6934" lon="6.73153">
        <ele>1591.4000244141</ele>
        <time>2020-06-28T07:42:15.000Z</time>
      </trkpt>
      <trkpt lat="45.6934" lon="6.73145">
        <ele>1591.8000488281</ele>
        <time>2020-06-28T07:42:17.000Z</time>
      </trkpt>
      <trkpt lat="45.69337" lon="6.73118">
        <ele>1592.5999755859</ele>
        <time>2020-06-28T07:42:23.000Z</time>
      </trkpt>
      <trkpt lat="45.69337" lon="6.73114">
        <ele>1592.5999755859</ele>
        <time>2020-06-28T07:42:24.000Z</time>
      </trkpt>
      <trkpt lat="45.69337" lon="6.73106">
        <ele>1593</ele>
        <time>2020-06-28T07:42:26.000Z</time>
      </trkpt>
      <trkpt lat="45.69338" lon="6.7309">
        <ele>1593.5999755859</ele>
        <time>2020-06-28T07:42:30.000Z</time>
      </trkpt>
      <trkpt lat="45.6934" lon="6.73079">
        <ele>1594.1999511719</ele>
        <time>2020-06-28T07:42:33.000Z</time>
      </trkpt>
      <trkpt lat="45.69344" lon="6.73062">
        <ele>1595.4000244141</ele>
        <time>2020-06-28T07:42:38.000Z</time>
      </trkpt>
      <trkpt lat="45.69345" lon="6.73055">
        <ele>1596</ele>
        <time>2020-06-28T07:42:40.000Z</time>
      </trkpt>
      <trkpt lat="45.69346" lon="6.73048">
        <ele>1596.5999755859</ele>
        <time>2020-06-28T07:42:42.000Z</time>
      </trkpt>
      <trkpt lat="45.69348" lon="6.73039">
        <ele>1597.5999755859</ele>
        <time>2020-06-28T07:42:45.000Z</time>
      </trkpt>
      <trkpt lat="45.6935" lon="6.73022">
        <ele>1598.8000488281</ele>
        <time>2020-06-28T07:42:50.000Z</time>
      </trkpt>
      <trkpt lat="45.69351" lon="6.73012">
        <ele>1599.4000244141</ele>
        <time>2020-06-28T07:42:53.000Z</time>
      </trkpt>
      <trkpt lat="45.69352" lon="6.73006">
        <ele>1599.8000488281</ele>
        <time>2020-06-28T07:42:55.000Z</time>
      </trkpt>
      <trkpt lat="45.69356" lon="6.72986">
        <ele>1600.8000488281</ele>
        <time>2020-06-28T07:43:01.000Z</time>
      </trkpt>
      <trkpt lat="45.6936" lon="6.72968">
        <ele>1602</ele>
        <time>2020-06-28T07:43:07.000Z</time>
      </trkpt>
      <trkpt lat="45.69362" lon="6.72958">
        <ele>1602.5999755859</ele>
        <time>2020-06-28T07:43:10.000Z</time>
      </trkpt>
      <trkpt lat="45.69362" lon="6.72954">
        <ele>1603</ele>
        <time>2020-06-28T07:43:11.000Z</time>
      </trkpt>
      <trkpt lat="45.69363" lon="6.72936">
        <ele>1604.1999511719</ele>
        <time>2020-06-28T07:43:16.000Z</time>
      </trkpt>
      <trkpt lat="45.69365" lon="6.72919">
        <ele>1605.1999511719</ele>
        <time>2020-06-28T07:43:21.000Z</time>
      </trkpt>
      <trkpt lat="45.69366" lon="6.72897">
        <ele>1606.4000244141</ele>
        <time>2020-06-28T07:43:27.000Z</time>
      </trkpt>
      <trkpt lat="45.69368" lon="6.7288">
        <ele>1607.5999755859</ele>
        <time>2020-06-28T07:43:32.000Z</time>
      </trkpt>
      <trkpt lat="45.6937" lon="6.72864">
        <ele>1608.5999755859</ele>
        <time>2020-06-28T07:43:37.000Z</time>
      </trkpt>
      <trkpt lat="45.69372" lon="6.72855">
        <ele>1609.5999755859</ele>
        <time>2020-06-28T07:43:40.000Z</time>
      </trkpt>
      <trkpt lat="45.69373" lon="6.72849">
        <ele>1610</ele>
        <time>2020-06-28T07:43:42.000Z</time>
      </trkpt>
      <trkpt lat="45.69374" lon="6.7284">
        <ele>1610.8000488281</ele>
        <time>2020-06-28T07:43:45.000Z</time>
      </trkpt>
      <trkpt lat="45.69377" lon="6.72825">
        <ele>1611.8000488281</ele>
        <time>2020-06-28T07:43:50.000Z</time>
      </trkpt>
      <trkpt lat="45.69378" lon="6.72822">
        <ele>1612</ele>
        <time>2020-06-28T07:43:51.000Z</time>
      </trkpt>
      <trkpt lat="45.6938" lon="6.72814">
        <ele>1612.8000488281</ele>
        <time>2020-06-28T07:43:54.000Z</time>
      </trkpt>
      <trkpt lat="45.69382" lon="6.72802">
        <ele>1614</ele>
        <time>2020-06-28T07:43:58.000Z</time>
      </trkpt>
      <trkpt lat="45.69384" lon="6.7279">
        <ele>1614.8000488281</ele>
        <time>2020-06-28T07:44:02.000Z</time>
      </trkpt>
      <trkpt lat="45.69385" lon="6.72784">
        <ele>1615</ele>
        <time>2020-06-28T07:44:04.000Z</time>
      </trkpt>
      <trkpt lat="45.69388" lon="6.7277">
        <ele>1616.1999511719</ele>
        <time>2020-06-28T07:44:09.000Z</time>
      </trkpt>
      <trkpt lat="45.6939" lon="6.72758">
        <ele>1617</ele>
        <time>2020-06-28T07:44:13.000Z</time>
      </trkpt>
      <trkpt lat="45.69391" lon="6.72753">
        <ele>1617.4000244141</ele>
        <time>2020-06-28T07:44:15.000Z</time>
      </trkpt>
      <trkpt lat="45.69394" lon="6.72737">
        <ele>1618.1999511719</ele>
        <time>2020-06-28T07:44:20.000Z</time>
      </trkpt>
      <trkpt lat="45.69396" lon="6.72728">
        <ele>1618.5999755859</ele>
        <time>2020-06-28T07:44:23.000Z</time>
      </trkpt>
      <trkpt lat="45.69398" lon="6.72714">
        <ele>1619.4000244141</ele>
        <time>2020-06-28T07:44:27.000Z</time>
      </trkpt>
      <trkpt lat="45.69401" lon="6.72699">
        <ele>1620.4000244141</ele>
        <time>2020-06-28T07:44:32.000Z</time>
      </trkpt>
      <trkpt lat="45.69403" lon="6.72684">
        <ele>1621.4000244141</ele>
        <time>2020-06-28T07:44:37.000Z</time>
      </trkpt>
      <trkpt lat="45.69405" lon="6.72673">
        <ele>1622.4000244141</ele>
        <time>2020-06-28T07:44:41.000Z</time>
      </trkpt>
      <trkpt lat="45.69406" lon="6.7267">
        <ele>1622.5999755859</ele>
        <time>2020-06-28T07:44:42.000Z</time>
      </trkpt>
      <trkpt lat="45.69407" lon="6.72655">
        <ele>1623.5999755859</ele>
        <time>2020-06-28T07:44:47.000Z</time>
      </trkpt>
      <trkpt lat="45.69408" lon="6.72643">
        <ele>1624.8000488281</ele>
        <time>2020-06-28T07:44:51.000Z</time>
      </trkpt>
      <trkpt lat="45.69408" lon="6.7264">
        <ele>1625</ele>
        <time>2020-06-28T07:44:52.000Z</time>
      </trkpt>
      <trkpt lat="45.69409" lon="6.72625">
        <ele>1626</ele>
        <time>2020-06-28T07:44:57.000Z</time>
      </trkpt>
      <trkpt lat="45.6941" lon="6.72613">
        <ele>1627</ele>
        <time>2020-06-28T07:45:01.000Z</time>
      </trkpt>
      <trkpt lat="45.6941" lon="6.72603">
        <ele>1627.5999755859</ele>
        <time>2020-06-28T07:45:04.000Z</time>
      </trkpt>
      <trkpt lat="45.6941" lon="6.72593">
        <ele>1628.1999511719</ele>
        <time>2020-06-28T07:45:07.000Z</time>
      </trkpt>
      <trkpt lat="45.69409" lon="6.72574">
        <ele>1629.4000244141</ele>
        <time>2020-06-28T07:45:13.000Z</time>
      </trkpt>
      <trkpt lat="45.69409" lon="6.72571">
        <ele>1629.1999511719</ele>
        <time>2020-06-28T07:45:14.000Z</time>
      </trkpt>
      <trkpt lat="45.69409" lon="6.72557">
        <ele>1630.4000244141</ele>
        <time>2020-06-28T07:45:19.000Z</time>
      </trkpt>
      <trkpt lat="45.69408" lon="6.72542">
        <ele>1631.4000244141</ele>
        <time>2020-06-28T07:45:24.000Z</time>
      </trkpt>
      <trkpt lat="45.69407" lon="6.72536">
        <ele>1631.8000488281</ele>
        <time>2020-06-28T07:45:26.000Z</time>
      </trkpt>
      <trkpt lat="45.69407" lon="6.7253">
        <ele>1632.4000244141</ele>
        <time>2020-06-28T07:45:28.000Z</time>
      </trkpt>
      <trkpt lat="45.69406" lon="6.72518">
        <ele>1633.5999755859</ele>
        <time>2020-06-28T07:45:32.000Z</time>
      </trkpt>
      <trkpt lat="45.69405" lon="6.72503">
        <ele>1634.1999511719</ele>
        <time>2020-06-28T07:45:37.000Z</time>
      </trkpt>
      <trkpt lat="45.69405" lon="6.72497">
        <ele>1634.5999755859</ele>
        <time>2020-06-28T07:45:39.000Z</time>
      </trkpt>
      <trkpt lat="45.69403" lon="6.72483">
        <ele>1635.5999755859</ele>
        <time>2020-06-28T07:45:44.000Z</time>
      </trkpt>
      <trkpt lat="45.69402" lon="6.72471">
        <ele>1636.5999755859</ele>
        <time>2020-06-28T07:45:48.000Z</time>
      </trkpt>
      <trkpt lat="45.69402" lon="6.72468">
        <ele>1636.8000488281</ele>
        <time>2020-06-28T07:45:49.000Z</time>
      </trkpt>
      <trkpt lat="45.694" lon="6.72453">
        <ele>1637.8000488281</ele>
        <time>2020-06-28T07:45:54.000Z</time>
      </trkpt>
      <trkpt lat="45.694" lon="6.72444">
        <ele>1638.8000488281</ele>
        <time>2020-06-28T07:45:57.000Z</time>
      </trkpt>
      <trkpt lat="45.69399" lon="6.72442">
        <ele>1639</ele>
        <time>2020-06-28T07:45:58.000Z</time>
      </trkpt>
      <trkpt lat="45.69398" lon="6.7243">
        <ele>1640</ele>
        <time>2020-06-28T07:46:02.000Z</time>
      </trkpt>
      <trkpt lat="45.69395" lon="6.72412">
        <ele>1641.1999511719</ele>
        <time>2020-06-28T07:46:08.000Z</time>
      </trkpt>
      <trkpt lat="45.69394" lon="6.7239">
        <ele>1642.1999511719</ele>
        <time>2020-06-28T07:46:15.000Z</time>
      </trkpt>
      <trkpt lat="45.69395" lon="6.72384">
        <ele>1642.4000244141</ele>
        <time>2020-06-28T07:46:17.000Z</time>
      </trkpt>
      <trkpt lat="45.69395" lon="6.72367">
        <ele>1643.1999511719</ele>
        <time>2020-06-28T07:46:22.000Z</time>
      </trkpt>
      <trkpt lat="45.69396" lon="6.7235">
        <ele>1644.1999511719</ele>
        <time>2020-06-28T07:46:27.000Z</time>
      </trkpt>
      <trkpt lat="45.69396" lon="6.72346">
        <ele>1644.1999511719</ele>
        <time>2020-06-28T07:46:28.000Z</time>
      </trkpt>
      <trkpt lat="45.69401" lon="6.72333">
        <ele>1645.1999511719</ele>
        <time>2020-06-28T07:46:32.000Z</time>
      </trkpt>
      <trkpt lat="45.69407" lon="6.7232">
        <ele>1645.8000488281</ele>
        <time>2020-06-28T07:46:36.000Z</time>
      </trkpt>
      <trkpt lat="45.6941" lon="6.72314">
        <ele>1646.1999511719</ele>
        <time>2020-06-28T07:46:38.000Z</time>
      </trkpt>
      <trkpt lat="45.6942" lon="6.72291">
        <ele>1647.1999511719</ele>
        <time>2020-06-28T07:46:45.000Z</time>
      </trkpt>
      <trkpt lat="45.6943" lon="6.72266">
        <ele>1648.8000488281</ele>
        <time>2020-06-28T07:46:53.000Z</time>
      </trkpt>
      <trkpt lat="45.69431" lon="6.72264">
        <ele>1648.8000488281</ele>
        <time>2020-06-28T07:46:54.000Z</time>
      </trkpt>
      <trkpt lat="45.69437" lon="6.72255">
        <ele>1649.8000488281</ele>
        <time>2020-06-28T07:46:58.000Z</time>
      </trkpt>
      <trkpt lat="45.69439" lon="6.7225">
        <ele>1650.1999511719</ele>
        <time>2020-06-28T07:47:00.000Z</time>
      </trkpt>
      <trkpt lat="45.69443" lon="6.7224">
        <ele>1650.8000488281</ele>
        <time>2020-06-28T07:47:04.000Z</time>
      </trkpt>
      <trkpt lat="45.69448" lon="6.72228">
        <ele>1652</ele>
        <time>2020-06-28T07:47:09.000Z</time>
      </trkpt>
      <trkpt lat="45.69453" lon="6.72219">
        <ele>1653</ele>
        <time>2020-06-28T07:47:13.000Z</time>
      </trkpt>
      <trkpt lat="45.69456" lon="6.72215">
        <ele>1653.5999755859</ele>
        <time>2020-06-28T07:47:15.000Z</time>
      </trkpt>
      <trkpt lat="45.69459" lon="6.72212">
        <ele>1654</ele>
        <time>2020-06-28T07:47:17.000Z</time>
      </trkpt>
      <trkpt lat="45.69469" lon="6.72204">
        <ele>1655.1999511719</ele>
        <time>2020-06-28T07:47:22.000Z</time>
      </trkpt>
      <trkpt lat="45.69482" lon="6.72203">
        <ele>1656</ele>
        <time>2020-06-28T07:47:26.000Z</time>
      </trkpt>
      <trkpt lat="45.69487" lon="6.72204">
        <ele>1656.4000244141</ele>
        <time>2020-06-28T07:47:28.000Z</time>
      </trkpt>
      <trkpt lat="45.69495" lon="6.72208">
        <ele>1657</ele>
        <time>2020-06-28T07:47:31.000Z</time>
      </trkpt>
      <trkpt lat="45.69503" lon="6.72217">
        <ele>1657.5999755859</ele>
        <time>2020-06-28T07:47:35.000Z</time>
      </trkpt>
      <trkpt lat="45.69508" lon="6.72225">
        <ele>1658</ele>
        <time>2020-06-28T07:47:38.000Z</time>
      </trkpt>
      <trkpt lat="45.69517" lon="6.72241">
        <ele>1659</ele>
        <time>2020-06-28T07:47:43.000Z</time>
      </trkpt>
      <trkpt lat="45.69525" lon="6.72268">
        <ele>1660.1999511719</ele>
        <time>2020-06-28T07:47:50.000Z</time>
      </trkpt>
      <trkpt lat="45.69529" lon="6.72293">
        <ele>1661</ele>
        <time>2020-06-28T07:47:56.000Z</time>
      </trkpt>
      <trkpt lat="45.69531" lon="6.72309">
        <ele>1661.8000488281</ele>
        <time>2020-06-28T07:48:00.000Z</time>
      </trkpt>
      <trkpt lat="45.69532" lon="6.72318">
        <ele>1662.1999511719</ele>
        <time>2020-06-28T07:48:02.000Z</time>
      </trkpt>
      <trkpt lat="45.69532" lon="6.72342">
        <ele>1663</ele>
        <time>2020-06-28T07:48:08.000Z</time>
      </trkpt>
      <trkpt lat="45.69531" lon="6.72346">
        <ele>1663.1999511719</ele>
        <time>2020-06-28T07:48:09.000Z</time>
      </trkpt>
      <trkpt lat="45.69526" lon="6.72367">
        <ele>1664.4000244141</ele>
        <time>2020-06-28T07:48:15.000Z</time>
      </trkpt>
      <trkpt lat="45.69521" lon="6.72385">
        <ele>1665.5999755859</ele>
        <time>2020-06-28T07:48:20.000Z</time>
      </trkpt>
      <trkpt lat="45.69519" lon="6.72406">
        <ele>1666.5999755859</ele>
        <time>2020-06-28T07:48:25.000Z</time>
      </trkpt>
      <trkpt lat="45.6952" lon="6.72416">
        <ele>1667</ele>
        <time>2020-06-28T07:48:27.000Z</time>
      </trkpt>
      <trkpt lat="45.6953" lon="6.72443">
        <ele>1667.5999755859</ele>
        <time>2020-06-28T07:48:33.000Z</time>
      </trkpt>
      <trkpt lat="45.69546" lon="6.72472">
        <ele>1667.8000488281</ele>
        <time>2020-06-28T07:48:39.000Z</time>
      </trkpt>
      <trkpt lat="45.6956" lon="6.725">
        <ele>1668</ele>
        <time>2020-06-28T07:48:45.000Z</time>
      </trkpt>
      <trkpt lat="45.69572" lon="6.72528">
        <ele>1668.8000488281</ele>
        <time>2020-06-28T07:48:50.000Z</time>
      </trkpt>
      <trkpt lat="45.69574" lon="6.72534">
        <ele>1668.8000488281</ele>
        <time>2020-06-28T07:48:51.000Z</time>
      </trkpt>
      <trkpt lat="45.6959" lon="6.72584">
        <ele>1669.8000488281</ele>
        <time>2020-06-28T07:49:00.000Z</time>
      </trkpt>
      <trkpt lat="45.69597" lon="6.72613">
        <ele>1670.8000488281</ele>
        <time>2020-06-28T07:49:05.000Z</time>
      </trkpt>
      <trkpt lat="45.69601" lon="6.72637">
        <ele>1671.5999755859</ele>
        <time>2020-06-28T07:49:09.000Z</time>
      </trkpt>
      <trkpt lat="45.69604" lon="6.7266">
        <ele>1672</ele>
        <time>2020-06-28T07:49:13.000Z</time>
      </trkpt>
      <trkpt lat="45.69607" lon="6.7267">
        <ele>1672.1999511719</ele>
        <time>2020-06-28T07:49:15.000Z</time>
      </trkpt>
      <trkpt lat="45.69609" lon="6.72675">
        <ele>1672.4000244141</ele>
        <time>2020-06-28T07:49:16.000Z</time>
      </trkpt>
      <trkpt lat="45.69625" lon="6.72683">
        <ele>1673</ele>
        <time>2020-06-28T07:49:20.000Z</time>
      </trkpt>
      <trkpt lat="45.69636" lon="6.72674">
        <ele>1673.8000488281</ele>
        <time>2020-06-28T07:49:23.000Z</time>
      </trkpt>
      <trkpt lat="45.6964" lon="6.72656">
        <ele>1674</ele>
        <time>2020-06-28T07:49:26.000Z</time>
      </trkpt>
      <trkpt lat="45.69641" lon="6.72649">
        <ele>1674.1999511719</ele>
        <time>2020-06-28T07:49:27.000Z</time>
      </trkpt>
      <trkpt lat="45.6964" lon="6.72643">
        <ele>1674.1999511719</ele>
        <time>2020-06-28T07:49:28.000Z</time>
      </trkpt>
      <trkpt lat="45.69637" lon="6.72616">
        <ele>1674.8000488281</ele>
        <time>2020-06-28T07:49:33.000Z</time>
      </trkpt>
      <trkpt lat="45.69635" lon="6.72607">
        <ele>1675.1999511719</ele>
        <time>2020-06-28T07:49:35.000Z</time>
      </trkpt>
      <trkpt lat="45.69628" lon="6.72585">
        <ele>1676.1999511719</ele>
        <time>2020-06-28T07:49:40.000Z</time>
      </trkpt>
      <trkpt lat="45.69627" lon="6.7258">
        <ele>1676.8000488281</ele>
        <time>2020-06-28T07:49:41.000Z</time>
      </trkpt>
      <trkpt lat="45.69624" lon="6.72572">
        <ele>1677.4000244141</ele>
        <time>2020-06-28T07:49:43.000Z</time>
      </trkpt>
      <trkpt lat="45.6962" lon="6.72554">
        <ele>1678.5999755859</ele>
        <time>2020-06-28T07:49:47.000Z</time>
      </trkpt>
      <trkpt lat="45.69618" lon="6.72536">
        <ele>1679.5999755859</ele>
        <time>2020-06-28T07:49:51.000Z</time>
      </trkpt>
      <trkpt lat="45.69616" lon="6.7251">
        <ele>1680.8000488281</ele>
        <time>2020-06-28T07:49:57.000Z</time>
      </trkpt>
      <trkpt lat="45.69615" lon="6.72489">
        <ele>1681.8000488281</ele>
        <time>2020-06-28T07:50:02.000Z</time>
      </trkpt>
      <trkpt lat="45.69615" lon="6.72485">
        <ele>1682.1999511719</ele>
        <time>2020-06-28T07:50:03.000Z</time>
      </trkpt>
      <trkpt lat="45.69614" lon="6.7247">
        <ele>1683</ele>
        <time>2020-06-28T07:50:07.000Z</time>
      </trkpt>
      <trkpt lat="45.69614" lon="6.7246">
        <ele>1684</ele>
        <time>2020-06-28T07:50:10.000Z</time>
      </trkpt>
      <trkpt lat="45.69614" lon="6.72453">
        <ele>1684.4000244141</ele>
        <time>2020-06-28T07:50:12.000Z</time>
      </trkpt>
      <trkpt lat="45.69614" lon="6.72442">
        <ele>1685.1999511719</ele>
        <time>2020-06-28T07:50:15.000Z</time>
      </trkpt>
      <trkpt lat="45.69614" lon="6.72424">
        <ele>1686.1999511719</ele>
        <time>2020-06-28T07:50:20.000Z</time>
      </trkpt>
      <trkpt lat="45.69615" lon="6.72417">
        <ele>1686.8000488281</ele>
        <time>2020-06-28T07:50:22.000Z</time>
      </trkpt>
      <trkpt lat="45.69615" lon="6.72407">
        <ele>1687.4000244141</ele>
        <time>2020-06-28T07:50:25.000Z</time>
      </trkpt>
      <trkpt lat="45.69615" lon="6.72389">
        <ele>1688.4000244141</ele>
        <time>2020-06-28T07:50:30.000Z</time>
      </trkpt>
      <trkpt lat="45.69615" lon="6.72382">
        <ele>1688.5999755859</ele>
        <time>2020-06-28T07:50:32.000Z</time>
      </trkpt>
      <trkpt lat="45.69615" lon="6.72368">
        <ele>1689.8000488281</ele>
        <time>2020-06-28T07:50:36.000Z</time>
      </trkpt>
      <trkpt lat="45.69615" lon="6.72352">
        <ele>1690.8000488281</ele>
        <time>2020-06-28T07:50:41.000Z</time>
      </trkpt>
      <trkpt lat="45.69614" lon="6.72345">
        <ele>1691.1999511719</ele>
        <time>2020-06-28T07:50:43.000Z</time>
      </trkpt>
      <trkpt lat="45.69613" lon="6.72336">
        <ele>1692</ele>
        <time>2020-06-28T07:50:46.000Z</time>
      </trkpt>
      <trkpt lat="45.6961" lon="6.72323">
        <ele>1693.1999511719</ele>
        <time>2020-06-28T07:50:51.000Z</time>
      </trkpt>
      <trkpt lat="45.69609" lon="6.7232">
        <ele>1693.4000244141</ele>
        <time>2020-06-28T07:50:52.000Z</time>
      </trkpt>
      <trkpt lat="45.69605" lon="6.72309">
        <ele>1694.1999511719</ele>
        <time>2020-06-28T07:50:56.000Z</time>
      </trkpt>
      <trkpt lat="45.69599" lon="6.72297">
        <ele>1695.1999511719</ele>
        <time>2020-06-28T07:51:01.000Z</time>
      </trkpt>
      <trkpt lat="45.69597" lon="6.72292">
        <ele>1695.5999755859</ele>
        <time>2020-06-28T07:51:03.000Z</time>
      </trkpt>
      <trkpt lat="45.69594" lon="6.72287">
        <ele>1696.1999511719</ele>
        <time>2020-06-28T07:51:05.000Z</time>
      </trkpt>
      <trkpt lat="45.69589" lon="6.72272">
        <ele>1697.1999511719</ele>
        <time>2020-06-28T07:51:11.000Z</time>
      </trkpt>
      <trkpt lat="45.69589" lon="6.72266">
        <ele>1697.5999755859</ele>
        <time>2020-06-28T07:51:13.000Z</time>
      </trkpt>
      <trkpt lat="45.69594" lon="6.72259">
        <ele>1698.5999755859</ele>
        <time>2020-06-28T07:51:16.000Z</time>
      </trkpt>
      <trkpt lat="45.69596" lon="6.72258">
        <ele>1698.8000488281</ele>
        <time>2020-06-28T07:51:17.000Z</time>
      </trkpt>
      <trkpt lat="45.69604" lon="6.72263">
        <ele>1699.5999755859</ele>
        <time>2020-06-28T07:51:20.000Z</time>
      </trkpt>
      <trkpt lat="45.69606" lon="6.72266">
        <ele>1700</ele>
        <time>2020-06-28T07:51:21.000Z</time>
      </trkpt>
      <trkpt lat="45.69608" lon="6.72269">
        <ele>1700</ele>
        <time>2020-06-28T07:51:22.000Z</time>
      </trkpt>
      <trkpt lat="45.69619" lon="6.72291">
        <ele>1700.5999755859</ele>
        <time>2020-06-28T07:51:29.000Z</time>
      </trkpt>
      <trkpt lat="45.69622" lon="6.72296">
        <ele>1701.1999511719</ele>
        <time>2020-06-28T07:51:31.000Z</time>
      </trkpt>
      <trkpt lat="45.69629" lon="6.7231">
        <ele>1702.1999511719</ele>
        <time>2020-06-28T07:51:36.000Z</time>
      </trkpt>
      <trkpt lat="45.69634" lon="6.72321">
        <ele>1703</ele>
        <time>2020-06-28T07:51:40.000Z</time>
      </trkpt>
      <trkpt lat="45.69637" lon="6.72327">
        <ele>1703.5999755859</ele>
        <time>2020-06-28T07:51:42.000Z</time>
      </trkpt>
      <trkpt lat="45.69643" lon="6.72341">
        <ele>1704.4000244141</ele>
        <time>2020-06-28T07:51:47.000Z</time>
      </trkpt>
      <trkpt lat="45.69646" lon="6.72349">
        <ele>1705</ele>
        <time>2020-06-28T07:51:50.000Z</time>
      </trkpt>
      <trkpt lat="45.69649" lon="6.72354">
        <ele>1705.4000244141</ele>
        <time>2020-06-28T07:51:52.000Z</time>
      </trkpt>
      <trkpt lat="45.69654" lon="6.72367">
        <ele>1706.5999755859</ele>
        <time>2020-06-28T07:51:57.000Z</time>
      </trkpt>
      <trkpt lat="45.69659" lon="6.72378">
        <ele>1707.8000488281</ele>
        <time>2020-06-28T07:52:01.000Z</time>
      </trkpt>
      <trkpt lat="45.69661" lon="6.72382">
        <ele>1708.1999511719</ele>
        <time>2020-06-28T07:52:03.000Z</time>
      </trkpt>
      <trkpt lat="45.69666" lon="6.72392">
        <ele>1708.8000488281</ele>
        <time>2020-06-28T07:52:07.000Z</time>
      </trkpt>
      <trkpt lat="45.69671" lon="6.72406">
        <ele>1710</ele>
        <time>2020-06-28T07:52:12.000Z</time>
      </trkpt>
      <trkpt lat="45.69678" lon="6.72421">
        <ele>1711.1999511719</ele>
        <time>2020-06-28T07:52:18.000Z</time>
      </trkpt>
      <trkpt lat="45.69683" lon="6.72433">
        <ele>1712.1999511719</ele>
        <time>2020-06-28T07:52:23.000Z</time>
      </trkpt>
      <trkpt lat="45.69684" lon="6.72436">
        <ele>1712.4000244141</ele>
        <time>2020-06-28T07:52:24.000Z</time>
      </trkpt>
      <trkpt lat="45.69688" lon="6.72446">
        <ele>1713.4000244141</ele>
        <time>2020-06-28T07:52:28.000Z</time>
      </trkpt>
      <trkpt lat="45.69694" lon="6.72461">
        <ele>1714.4000244141</ele>
        <time>2020-06-28T07:52:34.000Z</time>
      </trkpt>
      <trkpt lat="45.697" lon="6.72477">
        <ele>1715.5999755859</ele>
        <time>2020-06-28T07:52:40.000Z</time>
      </trkpt>
      <trkpt lat="45.69705" lon="6.72492">
        <ele>1716.8000488281</ele>
        <time>2020-06-28T07:52:46.000Z</time>
      </trkpt>
      <trkpt lat="45.69711" lon="6.72502">
        <ele>1717.8000488281</ele>
        <time>2020-06-28T07:52:50.000Z</time>
      </trkpt>
      <trkpt lat="45.69718" lon="6.72512">
        <ele>1719</ele>
        <time>2020-06-28T07:52:54.000Z</time>
      </trkpt>
      <trkpt lat="45.69729" lon="6.7252">
        <ele>1720</ele>
        <time>2020-06-28T07:52:59.000Z</time>
      </trkpt>
      <trkpt lat="45.69731" lon="6.72521">
        <ele>1720.1999511719</ele>
        <time>2020-06-28T07:53:00.000Z</time>
      </trkpt>
      <trkpt lat="45.69741" lon="6.72524">
        <ele>1721.1999511719</ele>
        <time>2020-06-28T07:53:04.000Z</time>
      </trkpt>
      <trkpt lat="45.69753" lon="6.72528">
        <ele>1722.1999511719</ele>
        <time>2020-06-28T07:53:09.000Z</time>
      </trkpt>
      <trkpt lat="45.69769" lon="6.72534">
        <ele>1723.4000244141</ele>
        <time>2020-06-28T07:53:16.000Z</time>
      </trkpt>
      <trkpt lat="45.69776" lon="6.72536">
        <ele>1723.8000488281</ele>
        <time>2020-06-28T07:53:19.000Z</time>
      </trkpt>
      <trkpt lat="45.69783" lon="6.72536">
        <ele>1724.5999755859</ele>
        <time>2020-06-28T07:53:22.000Z</time>
      </trkpt>
      <trkpt lat="45.69797" lon="6.72535">
        <ele>1725.8000488281</ele>
        <time>2020-06-28T07:53:28.000Z</time>
      </trkpt>
      <trkpt lat="45.69809" lon="6.72523">
        <ele>1726.8000488281</ele>
        <time>2020-06-28T07:53:34.000Z</time>
      </trkpt>
      <trkpt lat="45.69811" lon="6.7252">
        <ele>1727</ele>
        <time>2020-06-28T07:53:35.000Z</time>
      </trkpt>
      <trkpt lat="45.69815" lon="6.72504">
        <ele>1727.8000488281</ele>
        <time>2020-06-28T07:53:39.000Z</time>
      </trkpt>
      <trkpt lat="45.69815" lon="6.725">
        <ele>1728</ele>
        <time>2020-06-28T07:53:40.000Z</time>
      </trkpt>
      <trkpt lat="45.69809" lon="6.72475">
        <ele>1729</ele>
        <time>2020-06-28T07:53:45.000Z</time>
      </trkpt>
      <trkpt lat="45.69793" lon="6.72449">
        <ele>1730</ele>
        <time>2020-06-28T07:53:51.000Z</time>
      </trkpt>
      <trkpt lat="45.69767" lon="6.72417">
        <ele>1730.8000488281</ele>
        <time>2020-06-28T07:54:00.000Z</time>
      </trkpt>
      <trkpt lat="45.69764" lon="6.72413">
        <ele>1730.8000488281</ele>
        <time>2020-06-28T07:54:01.000Z</time>
      </trkpt>
      <trkpt lat="45.69752" lon="6.72393">
        <ele>1731.8000488281</ele>
        <time>2020-06-28T07:54:06.000Z</time>
      </trkpt>
      <trkpt lat="45.6975" lon="6.72388">
        <ele>1732</ele>
        <time>2020-06-28T07:54:07.000Z</time>
      </trkpt>
      <trkpt lat="45.69745" lon="6.72361">
        <ele>1732.8000488281</ele>
        <time>2020-06-28T07:54:12.000Z</time>
      </trkpt>
      <trkpt lat="45.69745" lon="6.72355">
        <ele>1732.8000488281</ele>
        <time>2020-06-28T07:54:13.000Z</time>
      </trkpt>
      <trkpt lat="45.6975" lon="6.7233">
        <ele>1733.5999755859</ele>
        <time>2020-06-28T07:54:17.000Z</time>
      </trkpt>
      <trkpt lat="45.69757" lon="6.72312">
        <ele>1733.8000488281</ele>
        <time>2020-06-28T07:54:20.000Z</time>
      </trkpt>
      <trkpt lat="45.69771" lon="6.72274">
        <ele>1734.1999511719</ele>
        <time>2020-06-28T07:54:26.000Z</time>
      </trkpt>
      <trkpt lat="45.69774" lon="6.72237">
        <ele>1734.5999755859</ele>
        <time>2020-06-28T07:54:31.000Z</time>
      </trkpt>
      <trkpt lat="45.69773" lon="6.72229">
        <ele>1734.8000488281</ele>
        <time>2020-06-28T07:54:32.000Z</time>
      </trkpt>
      <trkpt lat="45.69772" lon="6.72222">
        <ele>1735.1999511719</ele>
        <time>2020-06-28T07:54:33.000Z</time>
      </trkpt>
      <trkpt lat="45.6977" lon="6.72215">
        <ele>1735.1999511719</ele>
        <time>2020-06-28T07:54:34.000Z</time>
      </trkpt>
      <trkpt lat="45.69766" lon="6.72203">
        <ele>1735.4000244141</ele>
        <time>2020-06-28T07:54:36.000Z</time>
      </trkpt>
      <trkpt lat="45.69755" lon="6.72185">
        <ele>1735.8000488281</ele>
        <time>2020-06-28T07:54:40.000Z</time>
      </trkpt>
      <trkpt lat="45.69752" lon="6.72181">
        <ele>1735.8000488281</ele>
        <time>2020-06-28T07:54:41.000Z</time>
      </trkpt>
      <trkpt lat="45.69749" lon="6.72178">
        <ele>1736</ele>
        <time>2020-06-28T07:54:42.000Z</time>
      </trkpt>
      <trkpt lat="45.6974" lon="6.72167">
        <ele>1737.1999511719</ele>
        <time>2020-06-28T07:54:45.000Z</time>
      </trkpt>
      <trkpt lat="45.69734" lon="6.72154">
        <ele>1738</ele>
        <time>2020-06-28T07:54:48.000Z</time>
      </trkpt>
      <trkpt lat="45.69733" lon="6.72149">
        <ele>1738.1999511719</ele>
        <time>2020-06-28T07:54:49.000Z</time>
      </trkpt>
      <trkpt lat="45.69732" lon="6.72138">
        <ele>1738.5999755859</ele>
        <time>2020-06-28T07:54:51.000Z</time>
      </trkpt>
      <trkpt lat="45.69732" lon="6.72127">
        <ele>1739.4000244141</ele>
        <time>2020-06-28T07:54:53.000Z</time>
      </trkpt>
      <trkpt lat="45.69734" lon="6.72111">
        <ele>1740.4000244141</ele>
        <time>2020-06-28T07:54:56.000Z</time>
      </trkpt>
      <trkpt lat="45.69737" lon="6.7209">
        <ele>1741.5999755859</ele>
        <time>2020-06-28T07:55:00.000Z</time>
      </trkpt>
      <trkpt lat="45.69739" lon="6.72069">
        <ele>1742.5999755859</ele>
        <time>2020-06-28T07:55:04.000Z</time>
      </trkpt>
      <trkpt lat="45.69742" lon="6.72042">
        <ele>1743.5999755859</ele>
        <time>2020-06-28T07:55:09.000Z</time>
      </trkpt>
      <trkpt lat="45.69744" lon="6.72027">
        <ele>1744</ele>
        <time>2020-06-28T07:55:12.000Z</time>
      </trkpt>
      <trkpt lat="45.69745" lon="6.72012">
        <ele>1744.5999755859</ele>
        <time>2020-06-28T07:55:15.000Z</time>
      </trkpt>
      <trkpt lat="45.69745" lon="6.71983">
        <ele>1745.5999755859</ele>
        <time>2020-06-28T07:55:21.000Z</time>
      </trkpt>
      <trkpt lat="45.69744" lon="6.71979">
        <ele>1746</ele>
        <time>2020-06-28T07:55:22.000Z</time>
      </trkpt>
      <trkpt lat="45.6974" lon="6.71955">
        <ele>1747</ele>
        <time>2020-06-28T07:55:27.000Z</time>
      </trkpt>
      <trkpt lat="45.69736" lon="6.71947">
        <ele>1747.4000244141</ele>
        <time>2020-06-28T07:55:29.000Z</time>
      </trkpt>
      <trkpt lat="45.69723" lon="6.71931">
        <ele>1748.1999511719</ele>
        <time>2020-06-28T07:55:34.000Z</time>
      </trkpt>
      <trkpt lat="45.6972" lon="6.71929">
        <ele>1748.4000244141</ele>
        <time>2020-06-28T07:55:35.000Z</time>
      </trkpt>
      <trkpt lat="45.69706" lon="6.71923">
        <ele>1749.1999511719</ele>
        <time>2020-06-28T07:55:39.000Z</time>
      </trkpt>
      <trkpt lat="45.69694" lon="6.71915">
        <ele>1749.5999755859</ele>
        <time>2020-06-28T07:55:43.000Z</time>
      </trkpt>
      <trkpt lat="45.69688" lon="6.7191">
        <ele>1750.1999511719</ele>
        <time>2020-06-28T07:55:45.000Z</time>
      </trkpt>
      <trkpt lat="45.69673" lon="6.719">
        <ele>1751.4000244141</ele>
        <time>2020-06-28T07:55:50.000Z</time>
      </trkpt>
      <trkpt lat="45.69667" lon="6.71896">
        <ele>1752</ele>
        <time>2020-06-28T07:55:52.000Z</time>
      </trkpt>
      <trkpt lat="45.69657" lon="6.7189">
        <ele>1752.4000244141</ele>
        <time>2020-06-28T07:55:55.000Z</time>
      </trkpt>
      <trkpt lat="45.69639" lon="6.71878">
        <ele>1753.5999755859</ele>
        <time>2020-06-28T07:56:01.000Z</time>
      </trkpt>
      <trkpt lat="45.69636" lon="6.71876">
        <ele>1753.8000488281</ele>
        <time>2020-06-28T07:56:02.000Z</time>
      </trkpt>
      <trkpt lat="45.69624" lon="6.71868">
        <ele>1754.5999755859</ele>
        <time>2020-06-28T07:56:06.000Z</time>
      </trkpt>
      <trkpt lat="45.69609" lon="6.71858">
        <ele>1755.8000488281</ele>
        <time>2020-06-28T07:56:11.000Z</time>
      </trkpt>
      <trkpt lat="45.69606" lon="6.71855">
        <ele>1756</ele>
        <time>2020-06-28T07:56:12.000Z</time>
      </trkpt>
      <trkpt lat="45.69592" lon="6.7184">
        <ele>1756.8000488281</ele>
        <time>2020-06-28T07:56:17.000Z</time>
      </trkpt>
      <trkpt lat="45.69588" lon="6.71832">
        <ele>1757.1999511719</ele>
        <time>2020-06-28T07:56:19.000Z</time>
      </trkpt>
      <trkpt lat="45.69582" lon="6.71814">
        <ele>1757.5999755859</ele>
        <time>2020-06-28T07:56:23.000Z</time>
      </trkpt>
      <trkpt lat="45.69579" lon="6.71799">
        <ele>1758.1999511719</ele>
        <time>2020-06-28T07:56:26.000Z</time>
      </trkpt>
      <trkpt lat="45.69577" lon="6.7178">
        <ele>1758.8000488281</ele>
        <time>2020-06-28T07:56:30.000Z</time>
      </trkpt>
      <trkpt lat="45.69575" lon="6.7176">
        <ele>1760</ele>
        <time>2020-06-28T07:56:34.000Z</time>
      </trkpt>
      <trkpt lat="45.69574" lon="6.7175">
        <ele>1760.4000244141</ele>
        <time>2020-06-28T07:56:36.000Z</time>
      </trkpt>
      <trkpt lat="45.69574" lon="6.7174">
        <ele>1761</ele>
        <time>2020-06-28T07:56:38.000Z</time>
      </trkpt>
      <trkpt lat="45.69579" lon="6.71717">
        <ele>1761.8000488281</ele>
        <time>2020-06-28T07:56:43.000Z</time>
      </trkpt>
      <trkpt lat="45.69581" lon="6.71712">
        <ele>1762</ele>
        <time>2020-06-28T07:56:44.000Z</time>
      </trkpt>
      <trkpt lat="45.6959" lon="6.71687">
        <ele>1763.1999511719</ele>
        <time>2020-06-28T07:56:50.000Z</time>
      </trkpt>
      <trkpt lat="45.69591" lon="6.71682">
        <ele>1763.4000244141</ele>
        <time>2020-06-28T07:56:51.000Z</time>
      </trkpt>
      <trkpt lat="45.69592" lon="6.71662">
        <ele>1764.1999511719</ele>
        <time>2020-06-28T07:56:55.000Z</time>
      </trkpt>
      <trkpt lat="45.69591" lon="6.71656">
        <ele>1764.4000244141</ele>
        <time>2020-06-28T07:56:56.000Z</time>
      </trkpt>
      <trkpt lat="45.6958" lon="6.71638">
        <ele>1764.8000488281</ele>
        <time>2020-06-28T07:57:00.000Z</time>
      </trkpt>
      <trkpt lat="45.69574" lon="6.71633">
        <ele>1765</ele>
        <time>2020-06-28T07:57:02.000Z</time>
      </trkpt>
      <trkpt lat="45.69564" lon="6.71628">
        <ele>1765.4000244141</ele>
        <time>2020-06-28T07:57:05.000Z</time>
      </trkpt>
      <trkpt lat="45.69545" lon="6.71631">
        <ele>1766</ele>
        <time>2020-06-28T07:57:10.000Z</time>
      </trkpt>
      <trkpt lat="45.69541" lon="6.71633">
        <ele>1766.4000244141</ele>
        <time>2020-06-28T07:57:11.000Z</time>
      </trkpt>
      <trkpt lat="45.69524" lon="6.71642">
        <ele>1767.1999511719</ele>
        <time>2020-06-28T07:57:16.000Z</time>
      </trkpt>
      <trkpt lat="45.69518" lon="6.71645">
        <ele>1767.8000488281</ele>
        <time>2020-06-28T07:57:18.000Z</time>
      </trkpt>
      <trkpt lat="45.69512" lon="6.71648">
        <ele>1768.1999511719</ele>
        <time>2020-06-28T07:57:20.000Z</time>
      </trkpt>
      <trkpt lat="45.695" lon="6.71655">
        <ele>1769.4000244141</ele>
        <time>2020-06-28T07:57:24.000Z</time>
      </trkpt>
      <trkpt lat="45.69491" lon="6.7166">
        <ele>1770</ele>
        <time>2020-06-28T07:57:27.000Z</time>
      </trkpt>
      <trkpt lat="45.69486" lon="6.71662">
        <ele>1770.4000244141</ele>
        <time>2020-06-28T07:57:29.000Z</time>
      </trkpt>
      <trkpt lat="45.69474" lon="6.71662">
        <ele>1771.5999755859</ele>
        <time>2020-06-28T07:57:33.000Z</time>
      </trkpt>
      <trkpt lat="45.69472" lon="6.71661">
        <ele>1771.5999755859</ele>
        <time>2020-06-28T07:57:34.000Z</time>
      </trkpt>
      <trkpt lat="45.69459" lon="6.71651">
        <ele>1772.8000488281</ele>
        <time>2020-06-28T07:57:39.000Z</time>
      </trkpt>
      <trkpt lat="45.69455" lon="6.71645">
        <ele>1773</ele>
        <time>2020-06-28T07:57:41.000Z</time>
      </trkpt>
      <trkpt lat="45.69448" lon="6.71636">
        <ele>1773.8000488281</ele>
        <time>2020-06-28T07:57:44.000Z</time>
      </trkpt>
      <trkpt lat="45.6944" lon="6.71616">
        <ele>1774.5999755859</ele>
        <time>2020-06-28T07:57:49.000Z</time>
      </trkpt>
      <trkpt lat="45.69438" lon="6.71611">
        <ele>1774.8000488281</ele>
        <time>2020-06-28T07:57:50.000Z</time>
      </trkpt>
      <trkpt lat="45.69437" lon="6.71587">
        <ele>1775.8000488281</ele>
        <time>2020-06-28T07:57:55.000Z</time>
      </trkpt>
      <trkpt lat="45.69438" lon="6.71582">
        <ele>1776</ele>
        <time>2020-06-28T07:57:56.000Z</time>
      </trkpt>
      <trkpt lat="45.69445" lon="6.7155">
        <ele>1777.1999511719</ele>
        <time>2020-06-28T07:58:03.000Z</time>
      </trkpt>
      <trkpt lat="45.69447" lon="6.7154">
        <ele>1777.4000244141</ele>
        <time>2020-06-28T07:58:05.000Z</time>
      </trkpt>
      <trkpt lat="45.69451" lon="6.71515">
        <ele>1778.1999511719</ele>
        <time>2020-06-28T07:58:10.000Z</time>
      </trkpt>
      <trkpt lat="45.69452" lon="6.71494">
        <ele>1779</ele>
        <time>2020-06-28T07:58:14.000Z</time>
      </trkpt>
      <trkpt lat="45.69452" lon="6.71478">
        <ele>1779.1999511719</ele>
        <time>2020-06-28T07:58:17.000Z</time>
      </trkpt>
      <trkpt lat="45.69449" lon="6.71458">
        <ele>1780</ele>
        <time>2020-06-28T07:58:21.000Z</time>
      </trkpt>
      <trkpt lat="45.69447" lon="6.71448">
        <ele>1780.4000244141</ele>
        <time>2020-06-28T07:58:23.000Z</time>
      </trkpt>
      <trkpt lat="45.6944" lon="6.71421">
        <ele>1781.4000244141</ele>
        <time>2020-06-28T07:58:29.000Z</time>
      </trkpt>
      <trkpt lat="45.69437" lon="6.71412">
        <ele>1782</ele>
        <time>2020-06-28T07:58:31.000Z</time>
      </trkpt>
      <trkpt lat="45.69432" lon="6.71395">
        <ele>1782.4000244141</ele>
        <time>2020-06-28T07:58:35.000Z</time>
      </trkpt>
      <trkpt lat="45.69425" lon="6.71374">
        <ele>1783.5999755859</ele>
        <time>2020-06-28T07:58:40.000Z</time>
      </trkpt>
      <trkpt lat="45.69423" lon="6.7137">
        <ele>1783.8000488281</ele>
        <time>2020-06-28T07:58:41.000Z</time>
      </trkpt>
      <trkpt lat="45.69416" lon="6.7135">
        <ele>1784.8000488281</ele>
        <time>2020-06-28T07:58:46.000Z</time>
      </trkpt>
      <trkpt lat="45.6941" lon="6.71334">
        <ele>1785.4000244141</ele>
        <time>2020-06-28T07:58:50.000Z</time>
      </trkpt>
      <trkpt lat="45.69408" lon="6.71326">
        <ele>1785.8000488281</ele>
        <time>2020-06-28T07:58:52.000Z</time>
      </trkpt>
      <trkpt lat="45.69402" lon="6.71306">
        <ele>1787</ele>
        <time>2020-06-28T07:58:57.000Z</time>
      </trkpt>
      <trkpt lat="45.694" lon="6.71292">
        <ele>1787.4000244141</ele>
        <time>2020-06-28T07:59:00.000Z</time>
      </trkpt>
      <trkpt lat="45.69397" lon="6.71279">
        <ele>1787.8000488281</ele>
        <time>2020-06-28T07:59:03.000Z</time>
      </trkpt>
      <trkpt lat="45.69394" lon="6.71257">
        <ele>1789</ele>
        <time>2020-06-28T07:59:08.000Z</time>
      </trkpt>
      <trkpt lat="45.69393" lon="6.71247">
        <ele>1789.5999755859</ele>
        <time>2020-06-28T07:59:10.000Z</time>
      </trkpt>
      <trkpt lat="45.69392" lon="6.71238">
        <ele>1790</ele>
        <time>2020-06-28T07:59:12.000Z</time>
      </trkpt>
      <trkpt lat="45.69388" lon="6.71206">
        <ele>1791.1999511719</ele>
        <time>2020-06-28T07:59:19.000Z</time>
      </trkpt>
      <trkpt lat="45.69387" lon="6.71193">
        <ele>1791.8000488281</ele>
        <time>2020-06-28T07:59:22.000Z</time>
      </trkpt>
      <trkpt lat="45.69386" lon="6.71189">
        <ele>1792</ele>
        <time>2020-06-28T07:59:23.000Z</time>
      </trkpt>
      <trkpt lat="45.69383" lon="6.71166">
        <ele>1793.1999511719</ele>
        <time>2020-06-28T07:59:28.000Z</time>
      </trkpt>
      <trkpt lat="45.69381" lon="6.71145">
        <ele>1794.1999511719</ele>
        <time>2020-06-28T07:59:33.000Z</time>
      </trkpt>
      <trkpt lat="45.69378" lon="6.71119">
        <ele>1795.1999511719</ele>
        <time>2020-06-28T07:59:39.000Z</time>
      </trkpt>
      <trkpt lat="45.69376" lon="6.71099">
        <ele>1796.4000244141</ele>
        <time>2020-06-28T07:59:44.000Z</time>
      </trkpt>
      <trkpt lat="45.69375" lon="6.71092">
        <ele>1796.8000488281</ele>
        <time>2020-06-28T07:59:46.000Z</time>
      </trkpt>
      <trkpt lat="45.69373" lon="6.71076">
        <ele>1797.8000488281</ele>
        <time>2020-06-28T07:59:50.000Z</time>
      </trkpt>
      <trkpt lat="45.6937" lon="6.71054">
        <ele>1798.8000488281</ele>
        <time>2020-06-28T07:59:56.000Z</time>
      </trkpt>
      <trkpt lat="45.69369" lon="6.71046">
        <ele>1799.1999511719</ele>
        <time>2020-06-28T07:59:58.000Z</time>
      </trkpt>
      <trkpt lat="45.69368" lon="6.71035">
        <ele>1800</ele>
        <time>2020-06-28T08:00:01.000Z</time>
      </trkpt>
      <trkpt lat="45.69365" lon="6.71013">
        <ele>1801.1999511719</ele>
        <time>2020-06-28T08:00:07.000Z</time>
      </trkpt>
      <trkpt lat="45.69365" lon="6.71009">
        <ele>1801.1999511719</ele>
        <time>2020-06-28T08:00:08.000Z</time>
      </trkpt>
      <trkpt lat="45.69363" lon="6.7099">
        <ele>1802.1999511719</ele>
        <time>2020-06-28T08:00:13.000Z</time>
      </trkpt>
      <trkpt lat="45.6936" lon="6.70972">
        <ele>1803.1999511719</ele>
        <time>2020-06-28T08:00:18.000Z</time>
      </trkpt>
      <trkpt lat="45.6936" lon="6.70968">
        <ele>1803.4000244141</ele>
        <time>2020-06-28T08:00:19.000Z</time>
      </trkpt>
      <trkpt lat="45.69358" lon="6.7095">
        <ele>1804.1999511719</ele>
        <time>2020-06-28T08:00:24.000Z</time>
      </trkpt>
      <trkpt lat="45.69356" lon="6.70932">
        <ele>1805.1999511719</ele>
        <time>2020-06-28T08:00:29.000Z</time>
      </trkpt>
      <trkpt lat="45.69355" lon="6.70928">
        <ele>1805.4000244141</ele>
        <time>2020-06-28T08:00:30.000Z</time>
      </trkpt>
      <trkpt lat="45.69353" lon="6.70911">
        <ele>1806.4000244141</ele>
        <time>2020-06-28T08:00:35.000Z</time>
      </trkpt>
      <trkpt lat="45.69351" lon="6.70895">
        <ele>1807.5999755859</ele>
        <time>2020-06-28T08:00:40.000Z</time>
      </trkpt>
      <trkpt lat="45.6935" lon="6.70885">
        <ele>1808.1999511719</ele>
        <time>2020-06-28T08:00:43.000Z</time>
      </trkpt>
      <trkpt lat="45.69349" lon="6.70874">
        <ele>1808.8000488281</ele>
        <time>2020-06-28T08:00:46.000Z</time>
      </trkpt>
      <trkpt lat="45.69346" lon="6.70857">
        <ele>1809.8000488281</ele>
        <time>2020-06-28T08:00:51.000Z</time>
      </trkpt>
      <trkpt lat="45.69346" lon="6.70851">
        <ele>1810.5999755859</ele>
        <time>2020-06-28T08:00:53.000Z</time>
      </trkpt>
      <trkpt lat="45.69346" lon="6.70844">
        <ele>1811</ele>
        <time>2020-06-28T08:00:55.000Z</time>
      </trkpt>
      <trkpt lat="45.69343" lon="6.70821">
        <ele>1811.8000488281</ele>
        <time>2020-06-28T08:01:02.000Z</time>
      </trkpt>
      <trkpt lat="45.69342" lon="6.70818">
        <ele>1812</ele>
        <time>2020-06-28T08:01:03.000Z</time>
      </trkpt>
      <trkpt lat="45.6934" lon="6.70802">
        <ele>1812.8000488281</ele>
        <time>2020-06-28T08:01:08.000Z</time>
      </trkpt>
      <trkpt lat="45.69338" lon="6.70786">
        <ele>1813.8000488281</ele>
        <time>2020-06-28T08:01:13.000Z</time>
      </trkpt>
      <trkpt lat="45.69338" lon="6.70783">
        <ele>1814</ele>
        <time>2020-06-28T08:01:14.000Z</time>
      </trkpt>
      <trkpt lat="45.69336" lon="6.70763">
        <ele>1815.1999511719</ele>
        <time>2020-06-28T08:01:20.000Z</time>
      </trkpt>
      <trkpt lat="45.69334" lon="6.70747">
        <ele>1815.5999755859</ele>
        <time>2020-06-28T08:01:25.000Z</time>
      </trkpt>
      <trkpt lat="45.69332" lon="6.70738">
        <ele>1816</ele>
        <time>2020-06-28T08:01:28.000Z</time>
      </trkpt>
      <trkpt lat="45.6933" lon="6.70718">
        <ele>1817.1999511719</ele>
        <time>2020-06-28T08:01:34.000Z</time>
      </trkpt>
      <trkpt lat="45.69329" lon="6.70714">
        <ele>1817.5999755859</ele>
        <time>2020-06-28T08:01:35.000Z</time>
      </trkpt>
      <trkpt lat="45.69328" lon="6.70701">
        <ele>1818.1999511719</ele>
        <time>2020-06-28T08:01:39.000Z</time>
      </trkpt>
      <trkpt lat="45.69326" lon="6.70685">
        <ele>1819</ele>
        <time>2020-06-28T08:01:44.000Z</time>
      </trkpt>
      <trkpt lat="45.69325" lon="6.70678">
        <ele>1819.5999755859</ele>
        <time>2020-06-28T08:01:46.000Z</time>
      </trkpt>
      <trkpt lat="45.69323" lon="6.70664">
        <ele>1820.1999511719</ele>
        <time>2020-06-28T08:01:50.000Z</time>
      </trkpt>
      <trkpt lat="45.69321" lon="6.70649">
        <ele>1821.1999511719</ele>
        <time>2020-06-28T08:01:54.000Z</time>
      </trkpt>
      <trkpt lat="45.69319" lon="6.70634">
        <ele>1822</ele>
        <time>2020-06-28T08:01:58.000Z</time>
      </trkpt>
      <trkpt lat="45.69318" lon="6.70623">
        <ele>1822.4000244141</ele>
        <time>2020-06-28T08:02:01.000Z</time>
      </trkpt>
      <trkpt lat="45.69315" lon="6.70593">
        <ele>1823.4000244141</ele>
        <time>2020-06-28T08:02:09.000Z</time>
      </trkpt>
      <trkpt lat="45.69314" lon="6.70589">
        <ele>1823.5999755859</ele>
        <time>2020-06-28T08:02:10.000Z</time>
      </trkpt>
      <trkpt lat="45.69312" lon="6.70572">
        <ele>1824.5999755859</ele>
        <time>2020-06-28T08:02:14.000Z</time>
      </trkpt>
      <trkpt lat="45.69309" lon="6.70544">
        <ele>1825.5999755859</ele>
        <time>2020-06-28T08:02:20.000Z</time>
      </trkpt>
      <trkpt lat="45.69303" lon="6.70491">
        <ele>1826.4000244141</ele>
        <time>2020-06-28T08:02:31.000Z</time>
      </trkpt>
      <trkpt lat="45.69301" lon="6.70478">
        <ele>1826.5999755859</ele>
        <time>2020-06-28T08:02:34.000Z</time>
      </trkpt>
      <trkpt lat="45.69296" lon="6.70446">
        <ele>1826.8000488281</ele>
        <time>2020-06-28T08:02:41.000Z</time>
      </trkpt>
      <trkpt lat="45.69294" lon="6.70438">
        <ele>1827.4000244141</ele>
        <time>2020-06-28T08:02:43.000Z</time>
      </trkpt>
      <trkpt lat="45.6929" lon="6.70421">
        <ele>1828.1999511719</ele>
        <time>2020-06-28T08:02:47.000Z</time>
      </trkpt>
      <trkpt lat="45.69285" lon="6.70401">
        <ele>1828.8000488281</ele>
        <time>2020-06-28T08:02:52.000Z</time>
      </trkpt>
      <trkpt lat="45.6928" lon="6.70381">
        <ele>1829.4000244141</ele>
        <time>2020-06-28T08:02:57.000Z</time>
      </trkpt>
      <trkpt lat="45.69277" lon="6.7037">
        <ele>1830.4000244141</ele>
        <time>2020-06-28T08:03:00.000Z</time>
      </trkpt>
      <trkpt lat="45.69275" lon="6.70363">
        <ele>1830.8000488281</ele>
        <time>2020-06-28T08:03:02.000Z</time>
      </trkpt>
      <trkpt lat="45.69272" lon="6.70352">
        <ele>1831.4000244141</ele>
        <time>2020-06-28T08:03:05.000Z</time>
      </trkpt>
      <trkpt lat="45.69267" lon="6.70334">
        <ele>1832.4000244141</ele>
        <time>2020-06-28T08:03:11.000Z</time>
      </trkpt>
      <trkpt lat="45.69266" lon="6.70331">
        <ele>1832.8000488281</ele>
        <time>2020-06-28T08:03:12.000Z</time>
      </trkpt>
      <trkpt lat="45.69264" lon="6.70324">
        <ele>1833.5999755859</ele>
        <time>2020-06-28T08:03:14.000Z</time>
      </trkpt>
      <trkpt lat="45.69261" lon="6.70315">
        <ele>1834.8000488281</ele>
        <time>2020-06-28T08:03:17.000Z</time>
      </trkpt>
      <trkpt lat="45.69257" lon="6.70301">
        <ele>1835.5999755859</ele>
        <time>2020-06-28T08:03:22.000Z</time>
      </trkpt>
      <trkpt lat="45.69256" lon="6.70299">
        <ele>1835.8000488281</ele>
        <time>2020-06-28T08:03:23.000Z</time>
      </trkpt>
      <trkpt lat="45.6925" lon="6.70281">
        <ele>1837</ele>
        <time>2020-06-28T08:03:29.000Z</time>
      </trkpt>
      <trkpt lat="45.69249" lon="6.70278">
        <ele>1837.4000244141</ele>
        <time>2020-06-28T08:03:30.000Z</time>
      </trkpt>
      <trkpt lat="45.69247" lon="6.70273">
        <ele>1838</ele>
        <time>2020-06-28T08:03:32.000Z</time>
      </trkpt>
      <trkpt lat="45.69246" lon="6.7027">
        <ele>1838.1999511719</ele>
        <time>2020-06-28T08:03:33.000Z</time>
      </trkpt>
      <trkpt lat="45.69241" lon="6.70256">
        <ele>1839.1999511719</ele>
        <time>2020-06-28T08:03:38.000Z</time>
      </trkpt>
      <trkpt lat="45.69237" lon="6.70245">
        <ele>1840.4000244141</ele>
        <time>2020-06-28T08:03:42.000Z</time>
      </trkpt>
      <trkpt lat="45.69232" lon="6.70232">
        <ele>1841.4000244141</ele>
        <time>2020-06-28T08:03:47.000Z</time>
      </trkpt>
      <trkpt lat="45.6923" lon="6.70227">
        <ele>1841.5999755859</ele>
        <time>2020-06-28T08:03:49.000Z</time>
      </trkpt>
      <trkpt lat="45.69226" lon="6.70214">
        <ele>1842.5999755859</ele>
        <time>2020-06-28T08:03:54.000Z</time>
      </trkpt>
      <trkpt lat="45.69222" lon="6.70201">
        <ele>1844</ele>
        <time>2020-06-28T08:03:59.000Z</time>
      </trkpt>
      <trkpt lat="45.6922" lon="6.70196">
        <ele>1844.1999511719</ele>
        <time>2020-06-28T08:04:01.000Z</time>
      </trkpt>
      <trkpt lat="45.69218" lon="6.70187">
        <ele>1845</ele>
        <time>2020-06-28T08:04:04.000Z</time>
      </trkpt>
      <trkpt lat="45.69216" lon="6.7017">
        <ele>1846</ele>
        <time>2020-06-28T08:04:10.000Z</time>
      </trkpt>
      <trkpt lat="45.69216" lon="6.70167">
        <ele>1846.1999511719</ele>
        <time>2020-06-28T08:04:11.000Z</time>
      </trkpt>
      <trkpt lat="45.69215" lon="6.70159">
        <ele>1847</ele>
        <time>2020-06-28T08:04:14.000Z</time>
      </trkpt>
      <trkpt lat="45.69215" lon="6.70147">
        <ele>1848.1999511719</ele>
        <time>2020-06-28T08:04:18.000Z</time>
      </trkpt>
      <trkpt lat="45.69215" lon="6.70135">
        <ele>1849</ele>
        <time>2020-06-28T08:04:22.000Z</time>
      </trkpt>
      <trkpt lat="45.69215" lon="6.70132">
        <ele>1849.1999511719</ele>
        <time>2020-06-28T08:04:23.000Z</time>
      </trkpt>
      <trkpt lat="45.69215" lon="6.70115">
        <ele>1850.4000244141</ele>
        <time>2020-06-28T08:04:29.000Z</time>
      </trkpt>
      <trkpt lat="45.69216" lon="6.70104">
        <ele>1851.1999511719</ele>
        <time>2020-06-28T08:04:33.000Z</time>
      </trkpt>
      <trkpt lat="45.69216" lon="6.70101">
        <ele>1851.1999511719</ele>
        <time>2020-06-28T08:04:34.000Z</time>
      </trkpt>
      <trkpt lat="45.69218" lon="6.70089">
        <ele>1852.1999511719</ele>
        <time>2020-06-28T08:04:38.000Z</time>
      </trkpt>
      <trkpt lat="45.69221" lon="6.70068">
        <ele>1853.1999511719</ele>
        <time>2020-06-28T08:04:45.000Z</time>
      </trkpt>
      <trkpt lat="45.69222" lon="6.70065">
        <ele>1853.4000244141</ele>
        <time>2020-06-28T08:04:46.000Z</time>
      </trkpt>
      <trkpt lat="45.69226" lon="6.70054">
        <ele>1854.5999755859</ele>
        <time>2020-06-28T08:04:50.000Z</time>
      </trkpt>
      <trkpt lat="45.69229" lon="6.70043">
        <ele>1855.4000244141</ele>
        <time>2020-06-28T08:04:54.000Z</time>
      </trkpt>
      <trkpt lat="45.69231" lon="6.70041">
        <ele>1855.5999755859</ele>
        <time>2020-06-28T08:04:55.000Z</time>
      </trkpt>
      <trkpt lat="45.69239" lon="6.70023">
        <ele>1856.5999755859</ele>
        <time>2020-06-28T08:05:02.000Z</time>
      </trkpt>
      <trkpt lat="45.69243" lon="6.70012">
        <ele>1857.1999511719</ele>
        <time>2020-06-28T08:05:06.000Z</time>
      </trkpt>
      <trkpt lat="45.69245" lon="6.7001">
        <ele>1857.5999755859</ele>
        <time>2020-06-28T08:05:07.000Z</time>
      </trkpt>
      <trkpt lat="45.69251" lon="6.69994">
        <ele>1858.8000488281</ele>
        <time>2020-06-28T08:05:13.000Z</time>
      </trkpt>
      <trkpt lat="45.69257" lon="6.69981">
        <ele>1859.5999755859</ele>
        <time>2020-06-28T08:05:18.000Z</time>
      </trkpt>
      <trkpt lat="45.69262" lon="6.69968">
        <ele>1860.5999755859</ele>
        <time>2020-06-28T08:05:23.000Z</time>
      </trkpt>
      <trkpt lat="45.69268" lon="6.69952">
        <ele>1861.8000488281</ele>
        <time>2020-06-28T08:05:29.000Z</time>
      </trkpt>
      <trkpt lat="45.69274" lon="6.69938">
        <ele>1862.8000488281</ele>
        <time>2020-06-28T08:05:34.000Z</time>
      </trkpt>
      <trkpt lat="45.69281" lon="6.69923">
        <ele>1863.8000488281</ele>
        <time>2020-06-28T08:05:40.000Z</time>
      </trkpt>
      <trkpt lat="45.69284" lon="6.69917">
        <ele>1864.4000244141</ele>
        <time>2020-06-28T08:05:42.000Z</time>
      </trkpt>
      <trkpt lat="45.69289" lon="6.69905">
        <ele>1865</ele>
        <time>2020-06-28T08:05:47.000Z</time>
      </trkpt>
      <trkpt lat="45.69295" lon="6.69889">
        <ele>1866</ele>
        <time>2020-06-28T08:05:53.000Z</time>
      </trkpt>
      <trkpt lat="45.69301" lon="6.69876">
        <ele>1867.1999511719</ele>
        <time>2020-06-28T08:05:58.000Z</time>
      </trkpt>
      <trkpt lat="45.69306" lon="6.69863">
        <ele>1868</ele>
        <time>2020-06-28T08:06:03.000Z</time>
      </trkpt>
      <trkpt lat="45.69307" lon="6.6986">
        <ele>1868.1999511719</ele>
        <time>2020-06-28T08:06:04.000Z</time>
      </trkpt>
      <trkpt lat="45.69315" lon="6.69842">
        <ele>1869.4000244141</ele>
        <time>2020-06-28T08:06:11.000Z</time>
      </trkpt>
      <trkpt lat="45.69316" lon="6.6984">
        <ele>1869.8000488281</ele>
        <time>2020-06-28T08:06:12.000Z</time>
      </trkpt>
      <trkpt lat="45.69319" lon="6.69832">
        <ele>1870.1999511719</ele>
        <time>2020-06-28T08:06:15.000Z</time>
      </trkpt>
      <trkpt lat="45.6932" lon="6.69829">
        <ele>1870.4000244141</ele>
        <time>2020-06-28T08:06:16.000Z</time>
      </trkpt>
      <trkpt lat="45.69324" lon="6.69819">
        <ele>1871.4000244141</ele>
        <time>2020-06-28T08:06:20.000Z</time>
      </trkpt>
      <trkpt lat="45.6933" lon="6.69806">
        <ele>1872.1999511719</ele>
        <time>2020-06-28T08:06:25.000Z</time>
      </trkpt>
      <trkpt lat="45.69335" lon="6.69794">
        <ele>1872.5999755859</ele>
        <time>2020-06-28T08:06:29.000Z</time>
      </trkpt>
      <trkpt lat="45.69342" lon="6.6978">
        <ele>1873.5999755859</ele>
        <time>2020-06-28T08:06:34.000Z</time>
      </trkpt>
      <trkpt lat="45.69343" lon="6.69777">
        <ele>1873.8000488281</ele>
        <time>2020-06-28T08:06:35.000Z</time>
      </trkpt>
      <trkpt lat="45.69349" lon="6.69761">
        <ele>1874.8000488281</ele>
        <time>2020-06-28T08:06:40.000Z</time>
      </trkpt>
      <trkpt lat="45.69355" lon="6.6974">
        <ele>1875.5999755859</ele>
        <time>2020-06-28T08:06:46.000Z</time>
      </trkpt>
      <trkpt lat="45.69356" lon="6.69737">
        <ele>1875.8000488281</ele>
        <time>2020-06-28T08:06:47.000Z</time>
      </trkpt>
      <trkpt lat="45.69364" lon="6.6971">
        <ele>1877</ele>
        <time>2020-06-28T08:06:55.000Z</time>
      </trkpt>
      <trkpt lat="45.69365" lon="6.69706">
        <ele>1877.1999511719</ele>
        <time>2020-06-28T08:06:56.000Z</time>
      </trkpt>
      <trkpt lat="45.69368" lon="6.69696">
        <ele>1877.8000488281</ele>
        <time>2020-06-28T08:06:59.000Z</time>
      </trkpt>
      <trkpt lat="45.69374" lon="6.69673">
        <ele>1878.8000488281</ele>
        <time>2020-06-28T08:07:06.000Z</time>
      </trkpt>
      <trkpt lat="45.69374" lon="6.6967">
        <ele>1879</ele>
        <time>2020-06-28T08:07:07.000Z</time>
      </trkpt>
      <trkpt lat="45.69379" lon="6.69649">
        <ele>1880</ele>
        <time>2020-06-28T08:07:13.000Z</time>
      </trkpt>
      <trkpt lat="45.69381" lon="6.69636">
        <ele>1881</ele>
        <time>2020-06-28T08:07:17.000Z</time>
      </trkpt>
      <trkpt lat="45.69381" lon="6.69632">
        <ele>1881.1999511719</ele>
        <time>2020-06-28T08:07:18.000Z</time>
      </trkpt>
      <trkpt lat="45.69383" lon="6.69616">
        <ele>1882</ele>
        <time>2020-06-28T08:07:23.000Z</time>
      </trkpt>
      <trkpt lat="45.69384" lon="6.69603">
        <ele>1883</ele>
        <time>2020-06-28T08:07:27.000Z</time>
      </trkpt>
      <trkpt lat="45.69385" lon="6.69596">
        <ele>1883.1999511719</ele>
        <time>2020-06-28T08:07:29.000Z</time>
      </trkpt>
      <trkpt lat="45.69387" lon="6.69579">
        <ele>1884</ele>
        <time>2020-06-28T08:07:34.000Z</time>
      </trkpt>
      <trkpt lat="45.69388" lon="6.69569">
        <ele>1884.8000488281</ele>
        <time>2020-06-28T08:07:37.000Z</time>
      </trkpt>
      <trkpt lat="45.69389" lon="6.69559">
        <ele>1885.4000244141</ele>
        <time>2020-06-28T08:07:40.000Z</time>
      </trkpt>
      <trkpt lat="45.6939" lon="6.69543">
        <ele>1887</ele>
        <time>2020-06-28T08:07:45.000Z</time>
      </trkpt>
      <trkpt lat="45.69392" lon="6.69527">
        <ele>1887.8000488281</ele>
        <time>2020-06-28T08:07:50.000Z</time>
      </trkpt>
      <trkpt lat="45.69392" lon="6.69514">
        <ele>1888.8000488281</ele>
        <time>2020-06-28T08:07:54.000Z</time>
      </trkpt>
      <trkpt lat="45.69393" lon="6.69496">
        <ele>1889.8000488281</ele>
        <time>2020-06-28T08:08:00.000Z</time>
      </trkpt>
      <trkpt lat="45.69392" lon="6.69492">
        <ele>1890</ele>
        <time>2020-06-28T08:08:01.000Z</time>
      </trkpt>
      <trkpt lat="45.69392" lon="6.69476">
        <ele>1891.4000244141</ele>
        <time>2020-06-28T08:08:06.000Z</time>
      </trkpt>
      <trkpt lat="45.69391" lon="6.69463">
        <ele>1892.1999511719</ele>
        <time>2020-06-28T08:08:10.000Z</time>
      </trkpt>
      <trkpt lat="45.69391" lon="6.6946">
        <ele>1892.4000244141</ele>
        <time>2020-06-28T08:08:11.000Z</time>
      </trkpt>
      <trkpt lat="45.69388" lon="6.69436">
        <ele>1893.4000244141</ele>
        <time>2020-06-28T08:08:19.000Z</time>
      </trkpt>
      <trkpt lat="45.69386" lon="6.69423">
        <ele>1894.4000244141</ele>
        <time>2020-06-28T08:08:23.000Z</time>
      </trkpt>
      <trkpt lat="45.69382" lon="6.69404">
        <ele>1895.4000244141</ele>
        <time>2020-06-28T08:08:29.000Z</time>
      </trkpt>
      <trkpt lat="45.69377" lon="6.69389">
        <ele>1896.4000244141</ele>
        <time>2020-06-28T08:08:34.000Z</time>
      </trkpt>
      <trkpt lat="45.69373" lon="6.69376">
        <ele>1897.5999755859</ele>
        <time>2020-06-28T08:08:38.000Z</time>
      </trkpt>
      <trkpt lat="45.69367" lon="6.69362">
        <ele>1897.8000488281</ele>
        <time>2020-06-28T08:08:42.000Z</time>
      </trkpt>
      <trkpt lat="45.69359" lon="6.69345">
        <ele>1898.4000244141</ele>
        <time>2020-06-28T08:08:47.000Z</time>
      </trkpt>
      <trkpt lat="45.6935" lon="6.69329">
        <ele>1899.5999755859</ele>
        <time>2020-06-28T08:08:52.000Z</time>
      </trkpt>
      <trkpt lat="45.69349" lon="6.69325">
        <ele>1900</ele>
        <time>2020-06-28T08:08:53.000Z</time>
      </trkpt>
      <trkpt lat="45.69335" lon="6.69299">
        <ele>1900.4000244141</ele>
        <time>2020-06-28T08:09:01.000Z</time>
      </trkpt>
      <trkpt lat="45.69334" lon="6.69296">
        <ele>1900.5999755859</ele>
        <time>2020-06-28T08:09:02.000Z</time>
      </trkpt>
      <trkpt lat="45.6933" lon="6.6929">
        <ele>1901.8000488281</ele>
        <time>2020-06-28T08:09:04.000Z</time>
      </trkpt>
      <trkpt lat="45.69318" lon="6.69274">
        <ele>1902.8000488281</ele>
        <time>2020-06-28T08:09:10.000Z</time>
      </trkpt>
      <trkpt lat="45.69314" lon="6.69269">
        <ele>1903.1999511719</ele>
        <time>2020-06-28T08:09:12.000Z</time>
      </trkpt>
      <trkpt lat="45.6931" lon="6.69264">
        <ele>1903.8000488281</ele>
        <time>2020-06-28T08:09:14.000Z</time>
      </trkpt>
      <trkpt lat="45.69298" lon="6.69254">
        <ele>1905.1999511719</ele>
        <time>2020-06-28T08:09:19.000Z</time>
      </trkpt>
      <trkpt lat="45.69286" lon="6.69249">
        <ele>1906.1999511719</ele>
        <time>2020-06-28T08:09:24.000Z</time>
      </trkpt>
      <trkpt lat="45.69279" lon="6.69247">
        <ele>1907.1999511719</ele>
        <time>2020-06-28T08:09:27.000Z</time>
      </trkpt>
      <trkpt lat="45.69276" lon="6.69246">
        <ele>1907.4000244141</ele>
        <time>2020-06-28T08:09:28.000Z</time>
      </trkpt>
      <trkpt lat="45.69267" lon="6.69245">
        <ele>1908.5999755859</ele>
        <time>2020-06-28T08:09:32.000Z</time>
      </trkpt>
      <trkpt lat="45.6926" lon="6.69245">
        <ele>1909.4000244141</ele>
        <time>2020-06-28T08:09:35.000Z</time>
      </trkpt>
      <trkpt lat="45.69253" lon="6.69244">
        <ele>1909.8000488281</ele>
        <time>2020-06-28T08:09:38.000Z</time>
      </trkpt>
      <trkpt lat="45.69244" lon="6.69244">
        <ele>1910.4000244141</ele>
        <time>2020-06-28T08:09:42.000Z</time>
      </trkpt>
      <trkpt lat="45.69233" lon="6.69244">
        <ele>1911.8000488281</ele>
        <time>2020-06-28T08:09:47.000Z</time>
      </trkpt>
      <trkpt lat="45.69226" lon="6.69244">
        <ele>1912.5999755859</ele>
        <time>2020-06-28T08:09:50.000Z</time>
      </trkpt>
      <trkpt lat="45.69219" lon="6.69244">
        <ele>1913</ele>
        <time>2020-06-28T08:09:53.000Z</time>
      </trkpt>
      <trkpt lat="45.6921" lon="6.69242">
        <ele>1914.1999511719</ele>
        <time>2020-06-28T08:09:57.000Z</time>
      </trkpt>
      <trkpt lat="45.69207" lon="6.6924">
        <ele>1914.4000244141</ele>
        <time>2020-06-28T08:09:58.000Z</time>
      </trkpt>
      <trkpt lat="45.692" lon="6.69238">
        <ele>1915</ele>
        <time>2020-06-28T08:10:01.000Z</time>
      </trkpt>
      <trkpt lat="45.69192" lon="6.69232">
        <ele>1915.8000488281</ele>
        <time>2020-06-28T08:10:05.000Z</time>
      </trkpt>
      <trkpt lat="45.6919" lon="6.6923">
        <ele>1916.1999511719</ele>
        <time>2020-06-28T08:10:06.000Z</time>
      </trkpt>
      <trkpt lat="45.6918" lon="6.69221">
        <ele>1917.1999511719</ele>
        <time>2020-06-28T08:10:11.000Z</time>
      </trkpt>
      <trkpt lat="45.69175" lon="6.69214">
        <ele>1917.4000244141</ele>
        <time>2020-06-28T08:10:14.000Z</time>
      </trkpt>
      <trkpt lat="45.69166" lon="6.69194">
        <ele>1918.4000244141</ele>
        <time>2020-06-28T08:10:21.000Z</time>
      </trkpt>
      <trkpt lat="45.69165" lon="6.6919">
        <ele>1918.5999755859</ele>
        <time>2020-06-28T08:10:22.000Z</time>
      </trkpt>
      <trkpt lat="45.69162" lon="6.6918">
        <ele>1919.5999755859</ele>
        <time>2020-06-28T08:10:25.000Z</time>
      </trkpt>
      <trkpt lat="45.69159" lon="6.6917">
        <ele>1920.5999755859</ele>
        <time>2020-06-28T08:10:28.000Z</time>
      </trkpt>
      <trkpt lat="45.69155" lon="6.69154">
        <ele>1920.8000488281</ele>
        <time>2020-06-28T08:10:32.000Z</time>
      </trkpt>
      <trkpt lat="45.69154" lon="6.69147">
        <ele>1921.4000244141</ele>
        <time>2020-06-28T08:10:34.000Z</time>
      </trkpt>
      <trkpt lat="45.69148" lon="6.69118">
        <ele>1922.1999511719</ele>
        <time>2020-06-28T08:10:41.000Z</time>
      </trkpt>
      <trkpt lat="45.69147" lon="6.69114">
        <ele>1922.5999755859</ele>
        <time>2020-06-28T08:10:42.000Z</time>
      </trkpt>
      <trkpt lat="45.69141" lon="6.69083">
        <ele>1923.5999755859</ele>
        <time>2020-06-28T08:10:50.000Z</time>
      </trkpt>
      <trkpt lat="45.6914" lon="6.69079">
        <ele>1923.8000488281</ele>
        <time>2020-06-28T08:10:51.000Z</time>
      </trkpt>
      <trkpt lat="45.69137" lon="6.69064">
        <ele>1924.5999755859</ele>
        <time>2020-06-28T08:10:57.000Z</time>
      </trkpt>
      <trkpt lat="45.69136" lon="6.69056">
        <ele>1925.5999755859</ele>
        <time>2020-06-28T08:11:01.000Z</time>
      </trkpt>
      <trkpt lat="45.69134" lon="6.69054">
        <ele>1926.1999511719</ele>
        <time>2020-06-28T08:11:03.000Z</time>
      </trkpt>
      <trkpt lat="45.69132" lon="6.6906">
        <ele>1926.4000244141</ele>
        <time>2020-06-28T08:11:07.000Z</time>
      </trkpt>
      <trkpt lat="45.69134" lon="6.69072">
        <ele>1926.5999755859</ele>
        <time>2020-06-28T08:11:11.000Z</time>
      </trkpt>
      <trkpt lat="45.69135" lon="6.69076">
        <ele>1926.5999755859</ele>
        <time>2020-06-28T08:11:12.000Z</time>
      </trkpt>
      <trkpt lat="45.69135" lon="6.6908">
        <ele>1926.5999755859</ele>
        <time>2020-06-28T08:11:13.000Z</time>
      </trkpt>
      <trkpt lat="45.6914" lon="6.69106">
        <ele>1926.5999755859</ele>
        <time>2020-06-28T08:11:18.000Z</time>
      </trkpt>
      <trkpt lat="45.69141" lon="6.69113">
        <ele>1926.5999755859</ele>
        <time>2020-06-28T08:11:19.000Z</time>
      </trkpt>
      <trkpt lat="45.69147" lon="6.6914">
        <ele>1926</ele>
        <time>2020-06-28T08:11:23.000Z</time>
      </trkpt>
      <trkpt lat="45.6915" lon="6.69155">
        <ele>1925.5999755859</ele>
        <time>2020-06-28T08:11:25.000Z</time>
      </trkpt>
      <trkpt lat="45.69152" lon="6.69163">
        <ele>1925.4000244141</ele>
        <time>2020-06-28T08:11:26.000Z</time>
      </trkpt>
      <trkpt lat="45.69157" lon="6.69181">
        <ele>1925</ele>
        <time>2020-06-28T08:11:28.000Z</time>
      </trkpt>
      <trkpt lat="45.69166" lon="6.69207">
        <ele>1924.5999755859</ele>
        <time>2020-06-28T08:11:31.000Z</time>
      </trkpt>
      <trkpt lat="45.69169" lon="6.69215">
        <ele>1924.4000244141</ele>
        <time>2020-06-28T08:11:32.000Z</time>
      </trkpt>
      <trkpt lat="45.69173" lon="6.69222">
        <ele>1924</ele>
        <time>2020-06-28T08:11:33.000Z</time>
      </trkpt>
      <trkpt lat="45.69187" lon="6.69237">
        <ele>1923</ele>
        <time>2020-06-28T08:11:36.000Z</time>
      </trkpt>
      <trkpt lat="45.69191" lon="6.69239">
        <ele>1922.4000244141</ele>
        <time>2020-06-28T08:11:37.000Z</time>
      </trkpt>
      <trkpt lat="45.69198" lon="6.69242">
        <ele>1921.5999755859</ele>
        <time>2020-06-28T08:11:39.000Z</time>
      </trkpt>
      <trkpt lat="45.69204" lon="6.69243">
        <ele>1920.5999755859</ele>
        <time>2020-06-28T08:11:41.000Z</time>
      </trkpt>
      <trkpt lat="45.69206" lon="6.69243">
        <ele>1920.1999511719</ele>
        <time>2020-06-28T08:11:42.000Z</time>
      </trkpt>
      <trkpt lat="45.69208" lon="6.69242">
        <ele>1919.8000488281</ele>
        <time>2020-06-28T08:11:43.000Z</time>
      </trkpt>
      <trkpt lat="45.69209" lon="6.69242">
        <ele>1918.8000488281</ele>
        <time>2020-06-28T08:11:45.000Z</time>
      </trkpt>
      <trkpt lat="45.69209" lon="6.69242">
        <ele>1918.5999755859</ele>
        <time>2020-06-28T08:11:46.000Z</time>
      </trkpt>
      <trkpt lat="45.69211" lon="6.69243">
        <ele>1917</ele>
        <time>2020-06-28T08:12:49.000Z</time>
      </trkpt>
      <trkpt lat="45.69213" lon="6.69249">
        <ele>1917</ele>
        <time>2020-06-28T08:12:52.000Z</time>
      </trkpt>
      <trkpt lat="45.69214" lon="6.6925">
        <ele>1917</ele>
        <time>2020-06-28T08:12:53.000Z</time>
      </trkpt>
      <trkpt lat="45.69216" lon="6.69251">
        <ele>1916.8000488281</ele>
        <time>2020-06-28T08:12:57.000Z</time>
      </trkpt>
      <trkpt lat="45.69216" lon="6.69247">
        <ele>1916.5999755859</ele>
        <time>2020-06-28T08:13:38.000Z</time>
      </trkpt>
      <trkpt lat="45.69215" lon="6.69245">
        <ele>1916.4000244141</ele>
        <time>2020-06-28T08:13:41.000Z</time>
      </trkpt>
      <trkpt lat="45.69209" lon="6.69241">
        <ele>1916.4000244141</ele>
        <time>2020-06-28T08:13:45.000Z</time>
      </trkpt>
      <trkpt lat="45.69193" lon="6.69235">
        <ele>1916.4000244141</ele>
        <time>2020-06-28T08:13:51.000Z</time>
      </trkpt>
      <trkpt lat="45.69177" lon="6.69217">
        <ele>1916.8000488281</ele>
        <time>2020-06-28T08:13:59.000Z</time>
      </trkpt>
      <trkpt lat="45.69171" lon="6.69206">
        <ele>1917.8000488281</ele>
        <time>2020-06-28T08:14:03.000Z</time>
      </trkpt>
      <trkpt lat="45.69167" lon="6.69195">
        <ele>1919</ele>
        <time>2020-06-28T08:14:07.000Z</time>
      </trkpt>
      <trkpt lat="45.69164" lon="6.69186">
        <ele>1920</ele>
        <time>2020-06-28T08:14:10.000Z</time>
      </trkpt>
      <trkpt lat="45.69159" lon="6.69168">
        <ele>1921</ele>
        <time>2020-06-28T08:14:16.000Z</time>
      </trkpt>
      <trkpt lat="45.69158" lon="6.69165">
        <ele>1921.1999511719</ele>
        <time>2020-06-28T08:14:17.000Z</time>
      </trkpt>
      <trkpt lat="45.69151" lon="6.69137">
        <ele>1922.1999511719</ele>
        <time>2020-06-28T08:14:25.000Z</time>
      </trkpt>
      <trkpt lat="45.69144" lon="6.69107">
        <ele>1923.1999511719</ele>
        <time>2020-06-28T08:14:33.000Z</time>
      </trkpt>
      <trkpt lat="45.69143" lon="6.691">
        <ele>1923.4000244141</ele>
        <time>2020-06-28T08:14:35.000Z</time>
      </trkpt>
      <trkpt lat="45.69138" lon="6.69071">
        <ele>1924.1999511719</ele>
        <time>2020-06-28T08:14:43.000Z</time>
      </trkpt>
      <trkpt lat="45.69135" lon="6.69053">
        <ele>1924.8000488281</ele>
        <time>2020-06-28T08:14:50.000Z</time>
      </trkpt>
      <trkpt lat="45.69135" lon="6.69051">
        <ele>1925</ele>
        <time>2020-06-28T08:14:51.000Z</time>
      </trkpt>
      <trkpt lat="45.69135" lon="6.69048">
        <ele>1925.8000488281</ele>
        <time>2020-06-28T08:14:55.000Z</time>
      </trkpt>
      <trkpt lat="45.69135" lon="6.69066">
        <ele>1926.1999511719</ele>
        <time>2020-06-28T08:25:27.000Z</time>
      </trkpt>
      <trkpt lat="45.69136" lon="6.6906">
        <ele>1926</ele>
        <time>2020-06-28T08:25:31.000Z</time>
      </trkpt>
      <trkpt lat="45.69136" lon="6.69051">
        <ele>1925.8000488281</ele>
        <time>2020-06-28T08:25:40.000Z</time>
      </trkpt>
      <trkpt lat="45.69136" lon="6.69048">
        <ele>1925.8000488281</ele>
        <time>2020-06-28T08:25:44.000Z</time>
      </trkpt>
      <trkpt lat="45.69134" lon="6.69043">
        <ele>1926</ele>
        <time>2020-06-28T08:27:02.000Z</time>
      </trkpt>
      <trkpt lat="45.69133" lon="6.69039">
        <ele>1926</ele>
        <time>2020-06-28T08:27:04.000Z</time>
      </trkpt>
      <trkpt lat="45.69129" lon="6.69014">
        <ele>1925.8000488281</ele>
        <time>2020-06-28T08:27:15.000Z</time>
      </trkpt>
      <trkpt lat="45.69126" lon="6.68994">
        <ele>1925.8000488281</ele>
        <time>2020-06-28T08:27:23.000Z</time>
      </trkpt>
      <trkpt lat="45.69124" lon="6.68971">
        <ele>1925.8000488281</ele>
        <time>2020-06-28T08:27:30.000Z</time>
      </trkpt>
      <trkpt lat="45.69128" lon="6.68938">
        <ele>1925.1999511719</ele>
        <time>2020-06-28T08:27:37.000Z</time>
      </trkpt>
      <trkpt lat="45.69134" lon="6.68915">
        <ele>1924.8000488281</ele>
        <time>2020-06-28T08:27:42.000Z</time>
      </trkpt>
      <trkpt lat="45.69137" lon="6.68883">
        <ele>1924.4000244141</ele>
        <time>2020-06-28T08:27:49.000Z</time>
      </trkpt>
      <trkpt lat="45.69133" lon="6.68864">
        <ele>1924.1999511719</ele>
        <time>2020-06-28T08:27:53.000Z</time>
      </trkpt>
      <trkpt lat="45.69133" lon="6.68858">
        <ele>1924.1999511719</ele>
        <time>2020-06-28T08:27:54.000Z</time>
      </trkpt>
      <trkpt lat="45.69133" lon="6.68852">
        <ele>1924</ele>
        <time>2020-06-28T08:27:55.000Z</time>
      </trkpt>
      <trkpt lat="45.69133" lon="6.68845">
        <ele>1923.8000488281</ele>
        <time>2020-06-28T08:27:56.000Z</time>
      </trkpt>
      <trkpt lat="45.69137" lon="6.68819">
        <ele>1923.4000244141</ele>
        <time>2020-06-28T08:28:00.000Z</time>
      </trkpt>
      <trkpt lat="45.69139" lon="6.68813">
        <ele>1923.4000244141</ele>
        <time>2020-06-28T08:28:01.000Z</time>
      </trkpt>
      <trkpt lat="45.69144" lon="6.68801">
        <ele>1923.1999511719</ele>
        <time>2020-06-28T08:28:03.000Z</time>
      </trkpt>
      <trkpt lat="45.69146" lon="6.68795">
        <ele>1923</ele>
        <time>2020-06-28T08:28:04.000Z</time>
      </trkpt>
      <trkpt lat="45.69148" lon="6.68774">
        <ele>1922.5999755859</ele>
        <time>2020-06-28T08:28:07.000Z</time>
      </trkpt>
      <trkpt lat="45.69144" lon="6.68747">
        <ele>1922.1999511719</ele>
        <time>2020-06-28T08:28:11.000Z</time>
      </trkpt>
      <trkpt lat="45.69141" lon="6.68741">
        <ele>1922.1999511719</ele>
        <time>2020-06-28T08:28:12.000Z</time>
      </trkpt>
      <trkpt lat="45.6913" lon="6.68726">
        <ele>1922</ele>
        <time>2020-06-28T08:28:15.000Z</time>
      </trkpt>
      <trkpt lat="45.69116" lon="6.68711">
        <ele>1921.5999755859</ele>
        <time>2020-06-28T08:28:18.000Z</time>
      </trkpt>
      <trkpt lat="45.69109" lon="6.68696">
        <ele>1921.4000244141</ele>
        <time>2020-06-28T08:28:20.000Z</time>
      </trkpt>
      <trkpt lat="45.69108" lon="6.68677">
        <ele>1921</ele>
        <time>2020-06-28T08:28:22.000Z</time>
      </trkpt>
      <trkpt lat="45.69109" lon="6.68667">
        <ele>1921</ele>
        <time>2020-06-28T08:28:23.000Z</time>
      </trkpt>
      <trkpt lat="45.6911" lon="6.68656">
        <ele>1920.8000488281</ele>
        <time>2020-06-28T08:28:24.000Z</time>
      </trkpt>
      <trkpt lat="45.69112" lon="6.68634">
        <ele>1919.5999755859</ele>
        <time>2020-06-28T08:28:26.000Z</time>
      </trkpt>
      <trkpt lat="45.69114" lon="6.68611">
        <ele>1918.4000244141</ele>
        <time>2020-06-28T08:28:28.000Z</time>
      </trkpt>
      <trkpt lat="45.69114" lon="6.68599">
        <ele>1917.8000488281</ele>
        <time>2020-06-28T08:28:29.000Z</time>
      </trkpt>
      <trkpt lat="45.69115" lon="6.68575">
        <ele>1917.1999511719</ele>
        <time>2020-06-28T08:28:31.000Z</time>
      </trkpt>
      <trkpt lat="45.69117" lon="6.68539">
        <ele>1915.8000488281</ele>
        <time>2020-06-28T08:28:34.000Z</time>
      </trkpt>
      <trkpt lat="45.69119" lon="6.68517">
        <ele>1914.8000488281</ele>
        <time>2020-06-28T08:28:36.000Z</time>
      </trkpt>
      <trkpt lat="45.69121" lon="6.68507">
        <ele>1914</ele>
        <time>2020-06-28T08:28:37.000Z</time>
      </trkpt>
      <trkpt lat="45.69125" lon="6.68489">
        <ele>1912.5999755859</ele>
        <time>2020-06-28T08:28:39.000Z</time>
      </trkpt>
      <trkpt lat="45.69128" lon="6.6848">
        <ele>1912.1999511719</ele>
        <time>2020-06-28T08:28:40.000Z</time>
      </trkpt>
      <trkpt lat="45.69132" lon="6.68472">
        <ele>1912</ele>
        <time>2020-06-28T08:28:41.000Z</time>
      </trkpt>
      <trkpt lat="45.6915" lon="6.6844">
        <ele>1911.5999755859</ele>
        <time>2020-06-28T08:28:45.000Z</time>
      </trkpt>
      <trkpt lat="45.69154" lon="6.68431">
        <ele>1911.5999755859</ele>
        <time>2020-06-28T08:28:46.000Z</time>
      </trkpt>
      <trkpt lat="45.69157" lon="6.68401">
        <ele>1910.5999755859</ele>
        <time>2020-06-28T08:28:49.000Z</time>
      </trkpt>
      <trkpt lat="45.69145" lon="6.68373">
        <ele>1909.4000244141</ele>
        <time>2020-06-28T08:28:52.000Z</time>
      </trkpt>
      <trkpt lat="45.6914" lon="6.68365">
        <ele>1909</ele>
        <time>2020-06-28T08:28:53.000Z</time>
      </trkpt>
      <trkpt lat="45.69129" lon="6.68349">
        <ele>1908.4000244141</ele>
        <time>2020-06-28T08:28:55.000Z</time>
      </trkpt>
      <trkpt lat="45.69123" lon="6.6834">
        <ele>1908</ele>
        <time>2020-06-28T08:28:56.000Z</time>
      </trkpt>
      <trkpt lat="45.69119" lon="6.6833">
        <ele>1907.1999511719</ele>
        <time>2020-06-28T08:28:57.000Z</time>
      </trkpt>
      <trkpt lat="45.69111" lon="6.68308">
        <ele>1905.8000488281</ele>
        <time>2020-06-28T08:28:59.000Z</time>
      </trkpt>
      <trkpt lat="45.691" lon="6.68274">
        <ele>1905.1999511719</ele>
        <time>2020-06-28T08:29:02.000Z</time>
      </trkpt>
      <trkpt lat="45.69095" lon="6.68262">
        <ele>1904.5999755859</ele>
        <time>2020-06-28T08:29:03.000Z</time>
      </trkpt>
      <trkpt lat="45.6909" lon="6.68252">
        <ele>1904.1999511719</ele>
        <time>2020-06-28T08:29:04.000Z</time>
      </trkpt>
      <trkpt lat="45.69083" lon="6.68243">
        <ele>1903.4000244141</ele>
        <time>2020-06-28T08:29:05.000Z</time>
      </trkpt>
      <trkpt lat="45.69076" lon="6.68234">
        <ele>1902.1999511719</ele>
        <time>2020-06-28T08:29:06.000Z</time>
      </trkpt>
      <trkpt lat="45.69068" lon="6.68227">
        <ele>1901</ele>
        <time>2020-06-28T08:29:07.000Z</time>
      </trkpt>
      <trkpt lat="45.69052" lon="6.68214">
        <ele>1899.8000488281</ele>
        <time>2020-06-28T08:29:09.000Z</time>
      </trkpt>
      <trkpt lat="45.69037" lon="6.68202">
        <ele>1898.8000488281</ele>
        <time>2020-06-28T08:29:11.000Z</time>
      </trkpt>
      <trkpt lat="45.69023" lon="6.68188">
        <ele>1897.4000244141</ele>
        <time>2020-06-28T08:29:13.000Z</time>
      </trkpt>
      <trkpt lat="45.69017" lon="6.68179">
        <ele>1897</ele>
        <time>2020-06-28T08:29:14.000Z</time>
      </trkpt>
      <trkpt lat="45.69009" lon="6.68158">
        <ele>1896</ele>
        <time>2020-06-28T08:29:16.000Z</time>
      </trkpt>
      <trkpt lat="45.69006" lon="6.68146">
        <ele>1895.4000244141</ele>
        <time>2020-06-28T08:29:17.000Z</time>
      </trkpt>
      <trkpt lat="45.69005" lon="6.68121">
        <ele>1895</ele>
        <time>2020-06-28T08:29:19.000Z</time>
      </trkpt>
      <trkpt lat="45.69005" lon="6.68109">
        <ele>1894.8000488281</ele>
        <time>2020-06-28T08:29:20.000Z</time>
      </trkpt>
      <trkpt lat="45.69006" lon="6.68097">
        <ele>1894.5999755859</ele>
        <time>2020-06-28T08:29:21.000Z</time>
      </trkpt>
      <trkpt lat="45.6901" lon="6.68074">
        <ele>1893.8000488281</ele>
        <time>2020-06-28T08:29:23.000Z</time>
      </trkpt>
      <trkpt lat="45.69013" lon="6.68063">
        <ele>1893.4000244141</ele>
        <time>2020-06-28T08:29:24.000Z</time>
      </trkpt>
      <trkpt lat="45.69017" lon="6.68053">
        <ele>1893</ele>
        <time>2020-06-28T08:29:25.000Z</time>
      </trkpt>
      <trkpt lat="45.69026" lon="6.68035">
        <ele>1892.4000244141</ele>
        <time>2020-06-28T08:29:27.000Z</time>
      </trkpt>
      <trkpt lat="45.69039" lon="6.68018">
        <ele>1891.8000488281</ele>
        <time>2020-06-28T08:29:29.000Z</time>
      </trkpt>
      <trkpt lat="45.69071" lon="6.67999">
        <ele>1891</ele>
        <time>2020-06-28T08:29:33.000Z</time>
      </trkpt>
      <trkpt lat="45.69086" lon="6.67998">
        <ele>1889.5999755859</ele>
        <time>2020-06-28T08:29:35.000Z</time>
      </trkpt>
      <trkpt lat="45.69101" lon="6.68002">
        <ele>1888.4000244141</ele>
        <time>2020-06-28T08:29:37.000Z</time>
      </trkpt>
      <trkpt lat="45.69116" lon="6.68013">
        <ele>1887.4000244141</ele>
        <time>2020-06-28T08:29:39.000Z</time>
      </trkpt>
      <trkpt lat="45.69122" lon="6.68019">
        <ele>1886.8000488281</ele>
        <time>2020-06-28T08:29:40.000Z</time>
      </trkpt>
      <trkpt lat="45.69128" lon="6.68025">
        <ele>1886</ele>
        <time>2020-06-28T08:29:41.000Z</time>
      </trkpt>
      <trkpt lat="45.6915" lon="6.68045">
        <ele>1885</ele>
        <time>2020-06-28T08:29:44.000Z</time>
      </trkpt>
      <trkpt lat="45.69172" lon="6.68068">
        <ele>1884</ele>
        <time>2020-06-28T08:29:47.000Z</time>
      </trkpt>
      <trkpt lat="45.6918" lon="6.68077">
        <ele>1883.5999755859</ele>
        <time>2020-06-28T08:29:48.000Z</time>
      </trkpt>
      <trkpt lat="45.69204" lon="6.68107">
        <ele>1881.8000488281</ele>
        <time>2020-06-28T08:29:51.000Z</time>
      </trkpt>
      <trkpt lat="45.69212" lon="6.68118">
        <ele>1881</ele>
        <time>2020-06-28T08:29:52.000Z</time>
      </trkpt>
      <trkpt lat="45.69221" lon="6.6813">
        <ele>1880.4000244141</ele>
        <time>2020-06-28T08:29:53.000Z</time>
      </trkpt>
      <trkpt lat="45.69237" lon="6.68155">
        <ele>1878.4000244141</ele>
        <time>2020-06-28T08:29:55.000Z</time>
      </trkpt>
      <trkpt lat="45.69246" lon="6.68166">
        <ele>1877.4000244141</ele>
        <time>2020-06-28T08:29:56.000Z</time>
      </trkpt>
      <trkpt lat="45.69256" lon="6.68177">
        <ele>1876</ele>
        <time>2020-06-28T08:29:57.000Z</time>
      </trkpt>
      <trkpt lat="45.69266" lon="6.68186">
        <ele>1874.8000488281</ele>
        <time>2020-06-28T08:29:58.000Z</time>
      </trkpt>
      <trkpt lat="45.69276" lon="6.68193">
        <ele>1873.8000488281</ele>
        <time>2020-06-28T08:29:59.000Z</time>
      </trkpt>
      <trkpt lat="45.69298" lon="6.68206">
        <ele>1872</ele>
        <time>2020-06-28T08:30:01.000Z</time>
      </trkpt>
      <trkpt lat="45.69318" lon="6.68217">
        <ele>1870.8000488281</ele>
        <time>2020-06-28T08:30:03.000Z</time>
      </trkpt>
      <trkpt lat="45.69328" lon="6.68223">
        <ele>1870.1999511719</ele>
        <time>2020-06-28T08:30:04.000Z</time>
      </trkpt>
      <trkpt lat="45.69346" lon="6.68233">
        <ele>1869.5999755859</ele>
        <time>2020-06-28T08:30:06.000Z</time>
      </trkpt>
      <trkpt lat="45.69373" lon="6.68251">
        <ele>1868.1999511719</ele>
        <time>2020-06-28T08:30:09.000Z</time>
      </trkpt>
      <trkpt lat="45.69404" lon="6.68277">
        <ele>1867.4000244141</ele>
        <time>2020-06-28T08:30:13.000Z</time>
      </trkpt>
      <trkpt lat="45.6942" lon="6.68279">
        <ele>1867.1999511719</ele>
        <time>2020-06-28T08:30:15.000Z</time>
      </trkpt>
      <trkpt lat="45.69427" lon="6.68267">
        <ele>1867</ele>
        <time>2020-06-28T08:30:17.000Z</time>
      </trkpt>
      <trkpt lat="45.69423" lon="6.68247">
        <ele>1866.5999755859</ele>
        <time>2020-06-28T08:30:19.000Z</time>
      </trkpt>
      <trkpt lat="45.69409" lon="6.68231">
        <ele>1866</ele>
        <time>2020-06-28T08:30:21.000Z</time>
      </trkpt>
      <trkpt lat="45.69401" lon="6.68224">
        <ele>1865.8000488281</ele>
        <time>2020-06-28T08:30:22.000Z</time>
      </trkpt>
      <trkpt lat="45.69376" lon="6.68199">
        <ele>1865</ele>
        <time>2020-06-28T08:30:25.000Z</time>
      </trkpt>
      <trkpt lat="45.69359" lon="6.68181">
        <ele>1863</ele>
        <time>2020-06-28T08:30:27.000Z</time>
      </trkpt>
      <trkpt lat="45.69344" lon="6.68161">
        <ele>1861.4000244141</ele>
        <time>2020-06-28T08:30:29.000Z</time>
      </trkpt>
      <trkpt lat="45.69339" lon="6.6815">
        <ele>1860.4000244141</ele>
        <time>2020-06-28T08:30:30.000Z</time>
      </trkpt>
      <trkpt lat="45.69335" lon="6.68137">
        <ele>1859.4000244141</ele>
        <time>2020-06-28T08:30:31.000Z</time>
      </trkpt>
      <trkpt lat="45.69331" lon="6.6811">
        <ele>1857.5999755859</ele>
        <time>2020-06-28T08:30:33.000Z</time>
      </trkpt>
      <trkpt lat="45.69327" lon="6.68082">
        <ele>1855.8000488281</ele>
        <time>2020-06-28T08:30:35.000Z</time>
      </trkpt>
      <trkpt lat="45.69321" lon="6.68053">
        <ele>1854.5999755859</ele>
        <time>2020-06-28T08:30:37.000Z</time>
      </trkpt>
      <trkpt lat="45.69318" lon="6.68039">
        <ele>1854.1999511719</ele>
        <time>2020-06-28T08:30:38.000Z</time>
      </trkpt>
      <trkpt lat="45.69315" lon="6.68024">
        <ele>1853</ele>
        <time>2020-06-28T08:30:39.000Z</time>
      </trkpt>
      <trkpt lat="45.69308" lon="6.67998">
        <ele>1851.8000488281</ele>
        <time>2020-06-28T08:30:41.000Z</time>
      </trkpt>
      <trkpt lat="45.69304" lon="6.67986">
        <ele>1850.4000244141</ele>
        <time>2020-06-28T08:30:42.000Z</time>
      </trkpt>
      <trkpt lat="45.693" lon="6.67974">
        <ele>1849</ele>
        <time>2020-06-28T08:30:43.000Z</time>
      </trkpt>
      <trkpt lat="45.69293" lon="6.67963">
        <ele>1847.8000488281</ele>
        <time>2020-06-28T08:30:44.000Z</time>
      </trkpt>
      <trkpt lat="45.69286" lon="6.67954">
        <ele>1846.5999755859</ele>
        <time>2020-06-28T08:30:45.000Z</time>
      </trkpt>
      <trkpt lat="45.69277" lon="6.67947">
        <ele>1845.8000488281</ele>
        <time>2020-06-28T08:30:46.000Z</time>
      </trkpt>
      <trkpt lat="45.69267" lon="6.67942">
        <ele>1845.1999511719</ele>
        <time>2020-06-28T08:30:47.000Z</time>
      </trkpt>
      <trkpt lat="45.69257" lon="6.67937">
        <ele>1844.5999755859</ele>
        <time>2020-06-28T08:30:48.000Z</time>
      </trkpt>
      <trkpt lat="45.69247" lon="6.67932">
        <ele>1844.1999511719</ele>
        <time>2020-06-28T08:30:49.000Z</time>
      </trkpt>
      <trkpt lat="45.69238" lon="6.67926">
        <ele>1843.5999755859</ele>
        <time>2020-06-28T08:30:50.000Z</time>
      </trkpt>
      <trkpt lat="45.6923" lon="6.67919">
        <ele>1843</ele>
        <time>2020-06-28T08:30:51.000Z</time>
      </trkpt>
      <trkpt lat="45.69217" lon="6.67899">
        <ele>1841.4000244141</ele>
        <time>2020-06-28T08:30:53.000Z</time>
      </trkpt>
      <trkpt lat="45.69208" lon="6.67876">
        <ele>1839.4000244141</ele>
        <time>2020-06-28T08:30:55.000Z</time>
      </trkpt>
      <trkpt lat="45.69203" lon="6.67864">
        <ele>1838.4000244141</ele>
        <time>2020-06-28T08:30:56.000Z</time>
      </trkpt>
      <trkpt lat="45.69197" lon="6.67852">
        <ele>1837.4000244141</ele>
        <time>2020-06-28T08:30:57.000Z</time>
      </trkpt>
      <trkpt lat="45.6919" lon="6.6784">
        <ele>1836.8000488281</ele>
        <time>2020-06-28T08:30:58.000Z</time>
      </trkpt>
      <trkpt lat="45.69177" lon="6.67816">
        <ele>1835.1999511719</ele>
        <time>2020-06-28T08:31:00.000Z</time>
      </trkpt>
      <trkpt lat="45.69161" lon="6.67791">
        <ele>1834</ele>
        <time>2020-06-28T08:31:02.000Z</time>
      </trkpt>
      <trkpt lat="45.69154" lon="6.67779">
        <ele>1833.4000244141</ele>
        <time>2020-06-28T08:31:03.000Z</time>
      </trkpt>
      <trkpt lat="45.69147" lon="6.67767">
        <ele>1832.8000488281</ele>
        <time>2020-06-28T08:31:04.000Z</time>
      </trkpt>
      <trkpt lat="45.69132" lon="6.67745">
        <ele>1830.8000488281</ele>
        <time>2020-06-28T08:31:06.000Z</time>
      </trkpt>
      <trkpt lat="45.69126" lon="6.67735">
        <ele>1828.4000244141</ele>
        <time>2020-06-28T08:31:07.000Z</time>
      </trkpt>
      <trkpt lat="45.6912" lon="6.67723">
        <ele>1827.1999511719</ele>
        <time>2020-06-28T08:31:08.000Z</time>
      </trkpt>
      <trkpt lat="45.69116" lon="6.67711">
        <ele>1826.1999511719</ele>
        <time>2020-06-28T08:31:09.000Z</time>
      </trkpt>
      <trkpt lat="45.69111" lon="6.67684">
        <ele>1825</ele>
        <time>2020-06-28T08:31:11.000Z</time>
      </trkpt>
      <trkpt lat="45.69105" lon="6.67643">
        <ele>1823.8000488281</ele>
        <time>2020-06-28T08:31:14.000Z</time>
      </trkpt>
      <trkpt lat="45.69099" lon="6.67613">
        <ele>1823.1999511719</ele>
        <time>2020-06-28T08:31:16.000Z</time>
      </trkpt>
      <trkpt lat="45.69092" lon="6.67566">
        <ele>1822.4000244141</ele>
        <time>2020-06-28T08:31:19.000Z</time>
      </trkpt>
      <trkpt lat="45.69088" lon="6.67535">
        <ele>1821.1999511719</ele>
        <time>2020-06-28T08:31:21.000Z</time>
      </trkpt>
      <trkpt lat="45.69087" lon="6.6752">
        <ele>1820.4000244141</ele>
        <time>2020-06-28T08:31:22.000Z</time>
      </trkpt>
      <trkpt lat="45.69088" lon="6.67504">
        <ele>1819.1999511719</ele>
        <time>2020-06-28T08:31:23.000Z</time>
      </trkpt>
      <trkpt lat="45.69089" lon="6.67489">
        <ele>1817.8000488281</ele>
        <time>2020-06-28T08:31:24.000Z</time>
      </trkpt>
      <trkpt lat="45.6909" lon="6.67474">
        <ele>1816.5999755859</ele>
        <time>2020-06-28T08:31:25.000Z</time>
      </trkpt>
      <trkpt lat="45.69092" lon="6.6746">
        <ele>1815.4000244141</ele>
        <time>2020-06-28T08:31:26.000Z</time>
      </trkpt>
      <trkpt lat="45.69098" lon="6.67432">
        <ele>1814.1999511719</ele>
        <time>2020-06-28T08:31:28.000Z</time>
      </trkpt>
      <trkpt lat="45.69102" lon="6.6742">
        <ele>1813.1999511719</ele>
        <time>2020-06-28T08:31:29.000Z</time>
      </trkpt>
      <trkpt lat="45.69108" lon="6.67408">
        <ele>1812.1999511719</ele>
        <time>2020-06-28T08:31:30.000Z</time>
      </trkpt>
      <trkpt lat="45.69113" lon="6.6738">
        <ele>1811</ele>
        <time>2020-06-28T08:31:32.000Z</time>
      </trkpt>
      <trkpt lat="45.69114" lon="6.67365">
        <ele>1810</ele>
        <time>2020-06-28T08:31:33.000Z</time>
      </trkpt>
      <trkpt lat="45.69116" lon="6.6735">
        <ele>1809</ele>
        <time>2020-06-28T08:31:34.000Z</time>
      </trkpt>
      <trkpt lat="45.69125" lon="6.67321">
        <ele>1808</ele>
        <time>2020-06-28T08:31:36.000Z</time>
      </trkpt>
      <trkpt lat="45.6914" lon="6.67299">
        <ele>1806.8000488281</ele>
        <time>2020-06-28T08:31:38.000Z</time>
      </trkpt>
      <trkpt lat="45.69149" lon="6.67291">
        <ele>1805.8000488281</ele>
        <time>2020-06-28T08:31:39.000Z</time>
      </trkpt>
      <trkpt lat="45.69159" lon="6.67285">
        <ele>1804.5999755859</ele>
        <time>2020-06-28T08:31:40.000Z</time>
      </trkpt>
      <trkpt lat="45.69167" lon="6.67279">
        <ele>1803.5999755859</ele>
        <time>2020-06-28T08:31:41.000Z</time>
      </trkpt>
      <trkpt lat="45.69175" lon="6.67271">
        <ele>1802.4000244141</ele>
        <time>2020-06-28T08:31:42.000Z</time>
      </trkpt>
      <trkpt lat="45.69183" lon="6.67262">
        <ele>1801.8000488281</ele>
        <time>2020-06-28T08:31:43.000Z</time>
      </trkpt>
      <trkpt lat="45.69189" lon="6.67251">
        <ele>1801</ele>
        <time>2020-06-28T08:31:44.000Z</time>
      </trkpt>
      <trkpt lat="45.69195" lon="6.67238">
        <ele>1800</ele>
        <time>2020-06-28T08:31:45.000Z</time>
      </trkpt>
      <trkpt lat="45.69201" lon="6.67225">
        <ele>1798.5999755859</ele>
        <time>2020-06-28T08:31:46.000Z</time>
      </trkpt>
      <trkpt lat="45.69213" lon="6.672">
        <ele>1797.4000244141</ele>
        <time>2020-06-28T08:31:48.000Z</time>
      </trkpt>
      <trkpt lat="45.69219" lon="6.67189">
        <ele>1797</ele>
        <time>2020-06-28T08:31:49.000Z</time>
      </trkpt>
      <trkpt lat="45.69226" lon="6.67179">
        <ele>1796.5999755859</ele>
        <time>2020-06-28T08:31:50.000Z</time>
      </trkpt>
      <trkpt lat="45.69233" lon="6.6717">
        <ele>1796</ele>
        <time>2020-06-28T08:31:51.000Z</time>
      </trkpt>
      <trkpt lat="45.69245" lon="6.67152">
        <ele>1794</ele>
        <time>2020-06-28T08:31:53.000Z</time>
      </trkpt>
      <trkpt lat="45.6925" lon="6.67142">
        <ele>1793</ele>
        <time>2020-06-28T08:31:54.000Z</time>
      </trkpt>
      <trkpt lat="45.69252" lon="6.6713">
        <ele>1791.8000488281</ele>
        <time>2020-06-28T08:31:55.000Z</time>
      </trkpt>
      <trkpt lat="45.69255" lon="6.67119">
        <ele>1790.8000488281</ele>
        <time>2020-06-28T08:31:56.000Z</time>
      </trkpt>
      <trkpt lat="45.69259" lon="6.67095">
        <ele>1789.4000244141</ele>
        <time>2020-06-28T08:31:58.000Z</time>
      </trkpt>
      <trkpt lat="45.69274" lon="6.67061">
        <ele>1788.4000244141</ele>
        <time>2020-06-28T08:32:01.000Z</time>
      </trkpt>
      <trkpt lat="45.6928" lon="6.67051">
        <ele>1788</ele>
        <time>2020-06-28T08:32:02.000Z</time>
      </trkpt>
      <trkpt lat="45.69297" lon="6.67019">
        <ele>1786.1999511719</ele>
        <time>2020-06-28T08:32:05.000Z</time>
      </trkpt>
      <trkpt lat="45.69302" lon="6.67007">
        <ele>1785.5999755859</ele>
        <time>2020-06-28T08:32:06.000Z</time>
      </trkpt>
      <trkpt lat="45.69305" lon="6.66994">
        <ele>1785</ele>
        <time>2020-06-28T08:32:07.000Z</time>
      </trkpt>
      <trkpt lat="45.6931" lon="6.66968">
        <ele>1783.5999755859</ele>
        <time>2020-06-28T08:32:09.000Z</time>
      </trkpt>
      <trkpt lat="45.69312" lon="6.66957">
        <ele>1783</ele>
        <time>2020-06-28T08:32:10.000Z</time>
      </trkpt>
      <trkpt lat="45.69315" lon="6.66945">
        <ele>1782.1999511719</ele>
        <time>2020-06-28T08:32:11.000Z</time>
      </trkpt>
      <trkpt lat="45.69319" lon="6.66924">
        <ele>1780.1999511719</ele>
        <time>2020-06-28T08:32:13.000Z</time>
      </trkpt>
      <trkpt lat="45.69324" lon="6.66905">
        <ele>1779</ele>
        <time>2020-06-28T08:32:15.000Z</time>
      </trkpt>
      <trkpt lat="45.69338" lon="6.66845">
        <ele>1778.1999511719</ele>
        <time>2020-06-28T08:32:21.000Z</time>
      </trkpt>
      <trkpt lat="45.69344" lon="6.66823">
        <ele>1778</ele>
        <time>2020-06-28T08:32:23.000Z</time>
      </trkpt>
      <trkpt lat="45.69356" lon="6.66765">
        <ele>1776.8000488281</ele>
        <time>2020-06-28T08:32:28.000Z</time>
      </trkpt>
      <trkpt lat="45.69358" lon="6.66739">
        <ele>1775.4000244141</ele>
        <time>2020-06-28T08:32:30.000Z</time>
      </trkpt>
      <trkpt lat="45.69357" lon="6.66712">
        <ele>1774.5999755859</ele>
        <time>2020-06-28T08:32:32.000Z</time>
      </trkpt>
      <trkpt lat="45.69357" lon="6.66699">
        <ele>1774.1999511719</ele>
        <time>2020-06-28T08:32:33.000Z</time>
      </trkpt>
      <trkpt lat="45.69358" lon="6.66662">
        <ele>1772.5999755859</ele>
        <time>2020-06-28T08:32:36.000Z</time>
      </trkpt>
      <trkpt lat="45.69359" lon="6.66649">
        <ele>1771.4000244141</ele>
        <time>2020-06-28T08:32:37.000Z</time>
      </trkpt>
      <trkpt lat="45.69365" lon="6.66626">
        <ele>1770</ele>
        <time>2020-06-28T08:32:39.000Z</time>
      </trkpt>
      <trkpt lat="45.69369" lon="6.66615">
        <ele>1769.4000244141</ele>
        <time>2020-06-28T08:32:40.000Z</time>
      </trkpt>
      <trkpt lat="45.69373" lon="6.66605">
        <ele>1768.8000488281</ele>
        <time>2020-06-28T08:32:41.000Z</time>
      </trkpt>
      <trkpt lat="45.69376" lon="6.66595">
        <ele>1768.5999755859</ele>
        <time>2020-06-28T08:32:42.000Z</time>
      </trkpt>
      <trkpt lat="45.69381" lon="6.66573">
        <ele>1767.8000488281</ele>
        <time>2020-06-28T08:32:44.000Z</time>
      </trkpt>
      <trkpt lat="45.69385" lon="6.66561">
        <ele>1767.4000244141</ele>
        <time>2020-06-28T08:32:45.000Z</time>
      </trkpt>
      <trkpt lat="45.69396" lon="6.66543">
        <ele>1766.1999511719</ele>
        <time>2020-06-28T08:32:47.000Z</time>
      </trkpt>
      <trkpt lat="45.69412" lon="6.66529">
        <ele>1765</ele>
        <time>2020-06-28T08:32:49.000Z</time>
      </trkpt>
      <trkpt lat="45.69427" lon="6.66516">
        <ele>1763.8000488281</ele>
        <time>2020-06-28T08:32:51.000Z</time>
      </trkpt>
      <trkpt lat="45.69435" lon="6.66511">
        <ele>1763.1999511719</ele>
        <time>2020-06-28T08:32:52.000Z</time>
      </trkpt>
      <trkpt lat="45.69452" lon="6.66503">
        <ele>1762.4000244141</ele>
        <time>2020-06-28T08:32:54.000Z</time>
      </trkpt>
      <trkpt lat="45.6947" lon="6.66498">
        <ele>1761</ele>
        <time>2020-06-28T08:32:56.000Z</time>
      </trkpt>
      <trkpt lat="45.69478" lon="6.66497">
        <ele>1759.1999511719</ele>
        <time>2020-06-28T08:32:57.000Z</time>
      </trkpt>
      <trkpt lat="45.69495" lon="6.66496">
        <ele>1758</ele>
        <time>2020-06-28T08:32:59.000Z</time>
      </trkpt>
      <trkpt lat="45.69511" lon="6.665">
        <ele>1756</ele>
        <time>2020-06-28T08:33:01.000Z</time>
      </trkpt>
      <trkpt lat="45.69518" lon="6.66505">
        <ele>1755</ele>
        <time>2020-06-28T08:33:02.000Z</time>
      </trkpt>
      <trkpt lat="45.69525" lon="6.66509">
        <ele>1753.8000488281</ele>
        <time>2020-06-28T08:33:03.000Z</time>
      </trkpt>
      <trkpt lat="45.69532" lon="6.66514">
        <ele>1753.1999511719</ele>
        <time>2020-06-28T08:33:04.000Z</time>
      </trkpt>
      <trkpt lat="45.6954" lon="6.66517">
        <ele>1752.8000488281</ele>
        <time>2020-06-28T08:33:05.000Z</time>
      </trkpt>
      <trkpt lat="45.69548" lon="6.66517">
        <ele>1752</ele>
        <time>2020-06-28T08:33:06.000Z</time>
      </trkpt>
      <trkpt lat="45.69557" lon="6.66513">
        <ele>1751</ele>
        <time>2020-06-28T08:33:07.000Z</time>
      </trkpt>
      <trkpt lat="45.6957" lon="6.66498">
        <ele>1749.8000488281</ele>
        <time>2020-06-28T08:33:09.000Z</time>
      </trkpt>
      <trkpt lat="45.69586" lon="6.66466">
        <ele>1748.4000244141</ele>
        <time>2020-06-28T08:33:12.000Z</time>
      </trkpt>
      <trkpt lat="45.69591" lon="6.66454">
        <ele>1748</ele>
        <time>2020-06-28T08:33:13.000Z</time>
      </trkpt>
      <trkpt lat="45.69601" lon="6.66432">
        <ele>1746.8000488281</ele>
        <time>2020-06-28T08:33:15.000Z</time>
      </trkpt>
      <trkpt lat="45.69607" lon="6.66423">
        <ele>1745.4000244141</ele>
        <time>2020-06-28T08:33:16.000Z</time>
      </trkpt>
      <trkpt lat="45.69614" lon="6.66413">
        <ele>1744</ele>
        <time>2020-06-28T08:33:17.000Z</time>
      </trkpt>
      <trkpt lat="45.6962" lon="6.66404">
        <ele>1743</ele>
        <time>2020-06-28T08:33:18.000Z</time>
      </trkpt>
      <trkpt lat="45.69626" lon="6.66394">
        <ele>1742</ele>
        <time>2020-06-28T08:33:19.000Z</time>
      </trkpt>
      <trkpt lat="45.69631" lon="6.66381">
        <ele>1741</ele>
        <time>2020-06-28T08:33:20.000Z</time>
      </trkpt>
      <trkpt lat="45.69633" lon="6.66367">
        <ele>1740.1999511719</ele>
        <time>2020-06-28T08:33:21.000Z</time>
      </trkpt>
      <trkpt lat="45.69633" lon="6.66352">
        <ele>1739.8000488281</ele>
        <time>2020-06-28T08:33:22.000Z</time>
      </trkpt>
      <trkpt lat="45.69631" lon="6.66322">
        <ele>1738.5999755859</ele>
        <time>2020-06-28T08:33:24.000Z</time>
      </trkpt>
      <trkpt lat="45.69628" lon="6.66293">
        <ele>1737</ele>
        <time>2020-06-28T08:33:26.000Z</time>
      </trkpt>
      <trkpt lat="45.69623" lon="6.66265">
        <ele>1735.4000244141</ele>
        <time>2020-06-28T08:33:28.000Z</time>
      </trkpt>
      <trkpt lat="45.6962" lon="6.66252">
        <ele>1733.8000488281</ele>
        <time>2020-06-28T08:33:29.000Z</time>
      </trkpt>
      <trkpt lat="45.69618" lon="6.66239">
        <ele>1731.8000488281</ele>
        <time>2020-06-28T08:33:30.000Z</time>
      </trkpt>
      <trkpt lat="45.69615" lon="6.66225">
        <ele>1730.1999511719</ele>
        <time>2020-06-28T08:33:31.000Z</time>
      </trkpt>
      <trkpt lat="45.69612" lon="6.66211">
        <ele>1729.1999511719</ele>
        <time>2020-06-28T08:33:32.000Z</time>
      </trkpt>
      <trkpt lat="45.69608" lon="6.66198">
        <ele>1728.5999755859</ele>
        <time>2020-06-28T08:33:33.000Z</time>
      </trkpt>
      <trkpt lat="45.69589" lon="6.66146">
        <ele>1727.5999755859</ele>
        <time>2020-06-28T08:33:37.000Z</time>
      </trkpt>
      <trkpt lat="45.69573" lon="6.66111">
        <ele>1726</ele>
        <time>2020-06-28T08:33:40.000Z</time>
      </trkpt>
      <trkpt lat="45.69562" lon="6.66087">
        <ele>1724</ele>
        <time>2020-06-28T08:33:42.000Z</time>
      </trkpt>
      <trkpt lat="45.69556" lon="6.66075">
        <ele>1723</ele>
        <time>2020-06-28T08:33:43.000Z</time>
      </trkpt>
      <trkpt lat="45.69551" lon="6.66064">
        <ele>1722</ele>
        <time>2020-06-28T08:33:44.000Z</time>
      </trkpt>
      <trkpt lat="45.6954" lon="6.66043">
        <ele>1720.4000244141</ele>
        <time>2020-06-28T08:33:46.000Z</time>
      </trkpt>
      <trkpt lat="45.69535" lon="6.66034">
        <ele>1719.8000488281</ele>
        <time>2020-06-28T08:33:47.000Z</time>
      </trkpt>
      <trkpt lat="45.69528" lon="6.66025">
        <ele>1719.1999511719</ele>
        <time>2020-06-28T08:33:48.000Z</time>
      </trkpt>
      <trkpt lat="45.69513" lon="6.66009">
        <ele>1717.4000244141</ele>
        <time>2020-06-28T08:33:50.000Z</time>
      </trkpt>
      <trkpt lat="45.69505" lon="6.66001">
        <ele>1716.5999755859</ele>
        <time>2020-06-28T08:33:51.000Z</time>
      </trkpt>
      <trkpt lat="45.69496" lon="6.65994">
        <ele>1716</ele>
        <time>2020-06-28T08:33:52.000Z</time>
      </trkpt>
      <trkpt lat="45.69471" lon="6.65973">
        <ele>1715</ele>
        <time>2020-06-28T08:33:55.000Z</time>
      </trkpt>
      <trkpt lat="45.69455" lon="6.65958">
        <ele>1713</ele>
        <time>2020-06-28T08:33:57.000Z</time>
      </trkpt>
      <trkpt lat="45.69448" lon="6.65951">
        <ele>1711.8000488281</ele>
        <time>2020-06-28T08:33:58.000Z</time>
      </trkpt>
      <trkpt lat="45.69441" lon="6.65943">
        <ele>1710.5999755859</ele>
        <time>2020-06-28T08:33:59.000Z</time>
      </trkpt>
      <trkpt lat="45.69427" lon="6.65925">
        <ele>1708.5999755859</ele>
        <time>2020-06-28T08:34:01.000Z</time>
      </trkpt>
      <trkpt lat="45.6942" lon="6.65915">
        <ele>1707.8000488281</ele>
        <time>2020-06-28T08:34:02.000Z</time>
      </trkpt>
      <trkpt lat="45.69413" lon="6.65905">
        <ele>1707</ele>
        <time>2020-06-28T08:34:03.000Z</time>
      </trkpt>
      <trkpt lat="45.69399" lon="6.65885">
        <ele>1705.8000488281</ele>
        <time>2020-06-28T08:34:05.000Z</time>
      </trkpt>
      <trkpt lat="45.69386" lon="6.65866">
        <ele>1704.5999755859</ele>
        <time>2020-06-28T08:34:07.000Z</time>
      </trkpt>
      <trkpt lat="45.69375" lon="6.65847">
        <ele>1703</ele>
        <time>2020-06-28T08:34:09.000Z</time>
      </trkpt>
      <trkpt lat="45.69363" lon="6.65826">
        <ele>1701</ele>
        <time>2020-06-28T08:34:11.000Z</time>
      </trkpt>
      <trkpt lat="45.69356" lon="6.65815">
        <ele>1700</ele>
        <time>2020-06-28T08:34:12.000Z</time>
      </trkpt>
      <trkpt lat="45.69348" lon="6.65805">
        <ele>1699.1999511719</ele>
        <time>2020-06-28T08:34:13.000Z</time>
      </trkpt>
      <trkpt lat="45.69331" lon="6.65786">
        <ele>1697.8000488281</ele>
        <time>2020-06-28T08:34:15.000Z</time>
      </trkpt>
      <trkpt lat="45.69324" lon="6.65775">
        <ele>1697.1999511719</ele>
        <time>2020-06-28T08:34:16.000Z</time>
      </trkpt>
      <trkpt lat="45.69318" lon="6.65763">
        <ele>1696.4000244141</ele>
        <time>2020-06-28T08:34:17.000Z</time>
      </trkpt>
      <trkpt lat="45.69312" lon="6.65751">
        <ele>1695.1999511719</ele>
        <time>2020-06-28T08:34:18.000Z</time>
      </trkpt>
      <trkpt lat="45.69306" lon="6.65738">
        <ele>1694</ele>
        <time>2020-06-28T08:34:19.000Z</time>
      </trkpt>
      <trkpt lat="45.69299" lon="6.65725">
        <ele>1691.8000488281</ele>
        <time>2020-06-28T08:34:20.000Z</time>
      </trkpt>
      <trkpt lat="45.69291" lon="6.65713">
        <ele>1690.5999755859</ele>
        <time>2020-06-28T08:34:21.000Z</time>
      </trkpt>
      <trkpt lat="45.69284" lon="6.65701">
        <ele>1689.4000244141</ele>
        <time>2020-06-28T08:34:22.000Z</time>
      </trkpt>
      <trkpt lat="45.6927" lon="6.65676">
        <ele>1688</ele>
        <time>2020-06-28T08:34:24.000Z</time>
      </trkpt>
      <trkpt lat="45.69262" lon="6.65663">
        <ele>1687.1999511719</ele>
        <time>2020-06-28T08:34:25.000Z</time>
      </trkpt>
      <trkpt lat="45.69254" lon="6.6565">
        <ele>1686.4000244141</ele>
        <time>2020-06-28T08:34:26.000Z</time>
      </trkpt>
      <trkpt lat="45.69246" lon="6.65637">
        <ele>1685.1999511719</ele>
        <time>2020-06-28T08:34:27.000Z</time>
      </trkpt>
      <trkpt lat="45.69238" lon="6.65623">
        <ele>1684</ele>
        <time>2020-06-28T08:34:28.000Z</time>
      </trkpt>
      <trkpt lat="45.69231" lon="6.65609">
        <ele>1682.8000488281</ele>
        <time>2020-06-28T08:34:29.000Z</time>
      </trkpt>
      <trkpt lat="45.69225" lon="6.65596">
        <ele>1681.8000488281</ele>
        <time>2020-06-28T08:34:30.000Z</time>
      </trkpt>
      <trkpt lat="45.69213" lon="6.6557">
        <ele>1680</ele>
        <time>2020-06-28T08:34:32.000Z</time>
      </trkpt>
      <trkpt lat="45.69208" lon="6.65557">
        <ele>1678.8000488281</ele>
        <time>2020-06-28T08:34:33.000Z</time>
      </trkpt>
      <trkpt lat="45.69204" lon="6.65545">
        <ele>1677.4000244141</ele>
        <time>2020-06-28T08:34:34.000Z</time>
      </trkpt>
      <trkpt lat="45.692" lon="6.65532">
        <ele>1676</ele>
        <time>2020-06-28T08:34:35.000Z</time>
      </trkpt>
      <trkpt lat="45.69196" lon="6.6552">
        <ele>1674.5999755859</ele>
        <time>2020-06-28T08:34:36.000Z</time>
      </trkpt>
      <trkpt lat="45.69191" lon="6.65507">
        <ele>1673.5999755859</ele>
        <time>2020-06-28T08:34:37.000Z</time>
      </trkpt>
      <trkpt lat="45.69186" lon="6.65494">
        <ele>1672.8000488281</ele>
        <time>2020-06-28T08:34:38.000Z</time>
      </trkpt>
      <trkpt lat="45.69181" lon="6.65482">
        <ele>1672.1999511719</ele>
        <time>2020-06-28T08:34:39.000Z</time>
      </trkpt>
      <trkpt lat="45.69161" lon="6.65446">
        <ele>1670.5999755859</ele>
        <time>2020-06-28T08:34:42.000Z</time>
      </trkpt>
      <trkpt lat="45.69148" lon="6.65424">
        <ele>1669.1999511719</ele>
        <time>2020-06-28T08:34:44.000Z</time>
      </trkpt>
      <trkpt lat="45.69136" lon="6.65405">
        <ele>1667.5999755859</ele>
        <time>2020-06-28T08:34:46.000Z</time>
      </trkpt>
      <trkpt lat="45.6913" lon="6.65397">
        <ele>1665.4000244141</ele>
        <time>2020-06-28T08:34:47.000Z</time>
      </trkpt>
      <trkpt lat="45.69125" lon="6.6539">
        <ele>1664</ele>
        <time>2020-06-28T08:34:48.000Z</time>
      </trkpt>
      <trkpt lat="45.69119" lon="6.65385">
        <ele>1662.8000488281</ele>
        <time>2020-06-28T08:34:49.000Z</time>
      </trkpt>
      <trkpt lat="45.69115" lon="6.65381">
        <ele>1662.1999511719</ele>
        <time>2020-06-28T08:34:50.000Z</time>
      </trkpt>
      <trkpt lat="45.69112" lon="6.65376">
        <ele>1661.4000244141</ele>
        <time>2020-06-28T08:34:51.000Z</time>
      </trkpt>
      <trkpt lat="45.69112" lon="6.6537">
        <ele>1660.5999755859</ele>
        <time>2020-06-28T08:34:52.000Z</time>
      </trkpt>
      <trkpt lat="45.69114" lon="6.65364">
        <ele>1659.8000488281</ele>
        <time>2020-06-28T08:34:53.000Z</time>
      </trkpt>
      <trkpt lat="45.69118" lon="6.65363">
        <ele>1659.1999511719</ele>
        <time>2020-06-28T08:34:54.000Z</time>
      </trkpt>
      <trkpt lat="45.69123" lon="6.65366">
        <ele>1658.5999755859</ele>
        <time>2020-06-28T08:34:55.000Z</time>
      </trkpt>
      <trkpt lat="45.69127" lon="6.65372">
        <ele>1658.4000244141</ele>
        <time>2020-06-28T08:34:56.000Z</time>
      </trkpt>
      <trkpt lat="45.69132" lon="6.65378">
        <ele>1658.1999511719</ele>
        <time>2020-06-28T08:34:57.000Z</time>
      </trkpt>
      <trkpt lat="45.69143" lon="6.65393">
        <ele>1657.8000488281</ele>
        <time>2020-06-28T08:34:59.000Z</time>
      </trkpt>
      <trkpt lat="45.69149" lon="6.654">
        <ele>1657.8000488281</ele>
        <time>2020-06-28T08:35:00.000Z</time>
      </trkpt>
      <trkpt lat="45.69161" lon="6.65415">
        <ele>1657.1999511719</ele>
        <time>2020-06-28T08:35:02.000Z</time>
      </trkpt>
      <trkpt lat="45.69174" lon="6.65429">
        <ele>1655.8000488281</ele>
        <time>2020-06-28T08:35:04.000Z</time>
      </trkpt>
      <trkpt lat="45.69188" lon="6.65444">
        <ele>1654.5999755859</ele>
        <time>2020-06-28T08:35:06.000Z</time>
      </trkpt>
      <trkpt lat="45.69195" lon="6.65452">
        <ele>1654</ele>
        <time>2020-06-28T08:35:07.000Z</time>
      </trkpt>
      <trkpt lat="45.69209" lon="6.6547">
        <ele>1653.1999511719</ele>
        <time>2020-06-28T08:35:09.000Z</time>
      </trkpt>
      <trkpt lat="45.69222" lon="6.65493">
        <ele>1652.4000244141</ele>
        <time>2020-06-28T08:35:11.000Z</time>
      </trkpt>
      <trkpt lat="45.69229" lon="6.65505">
        <ele>1652</ele>
        <time>2020-06-28T08:35:12.000Z</time>
      </trkpt>
      <trkpt lat="45.6925" lon="6.65539">
        <ele>1649.5999755859</ele>
        <time>2020-06-28T08:35:15.000Z</time>
      </trkpt>
      <trkpt lat="45.69257" lon="6.65548">
        <ele>1648.5999755859</ele>
        <time>2020-06-28T08:35:16.000Z</time>
      </trkpt>
      <trkpt lat="45.69264" lon="6.65557">
        <ele>1647.5999755859</ele>
        <time>2020-06-28T08:35:17.000Z</time>
      </trkpt>
      <trkpt lat="45.6928" lon="6.65572">
        <ele>1645.5999755859</ele>
        <time>2020-06-28T08:35:19.000Z</time>
      </trkpt>
      <trkpt lat="45.69287" lon="6.65579">
        <ele>1644.1999511719</ele>
        <time>2020-06-28T08:35:20.000Z</time>
      </trkpt>
      <trkpt lat="45.69295" lon="6.65586">
        <ele>1643.1999511719</ele>
        <time>2020-06-28T08:35:21.000Z</time>
      </trkpt>
      <trkpt lat="45.69303" lon="6.65593">
        <ele>1642.5999755859</ele>
        <time>2020-06-28T08:35:22.000Z</time>
      </trkpt>
      <trkpt lat="45.6932" lon="6.65608">
        <ele>1641.4000244141</ele>
        <time>2020-06-28T08:35:24.000Z</time>
      </trkpt>
      <trkpt lat="45.69336" lon="6.65624">
        <ele>1640.8000488281</ele>
        <time>2020-06-28T08:35:26.000Z</time>
      </trkpt>
      <trkpt lat="45.69343" lon="6.65634">
        <ele>1640.1999511719</ele>
        <time>2020-06-28T08:35:27.000Z</time>
      </trkpt>
      <trkpt lat="45.69359" lon="6.65654">
        <ele>1639.1999511719</ele>
        <time>2020-06-28T08:35:29.000Z</time>
      </trkpt>
      <trkpt lat="45.69374" lon="6.65671">
        <ele>1637.5999755859</ele>
        <time>2020-06-28T08:35:31.000Z</time>
      </trkpt>
      <trkpt lat="45.69388" lon="6.65688">
        <ele>1635.8000488281</ele>
        <time>2020-06-28T08:35:33.000Z</time>
      </trkpt>
      <trkpt lat="45.694" lon="6.65711">
        <ele>1634</ele>
        <time>2020-06-28T08:35:35.000Z</time>
      </trkpt>
      <trkpt lat="45.69409" lon="6.65735">
        <ele>1632</ele>
        <time>2020-06-28T08:35:37.000Z</time>
      </trkpt>
      <trkpt lat="45.69413" lon="6.65746">
        <ele>1631.1999511719</ele>
        <time>2020-06-28T08:35:38.000Z</time>
      </trkpt>
      <trkpt lat="45.6942" lon="6.65756">
        <ele>1630.4000244141</ele>
        <time>2020-06-28T08:35:39.000Z</time>
      </trkpt>
      <trkpt lat="45.69437" lon="6.65768">
        <ele>1629.4000244141</ele>
        <time>2020-06-28T08:35:41.000Z</time>
      </trkpt>
      <trkpt lat="45.69447" lon="6.65773">
        <ele>1627.5999755859</ele>
        <time>2020-06-28T08:35:42.000Z</time>
      </trkpt>
      <trkpt lat="45.69469" lon="6.6578">
        <ele>1626</ele>
        <time>2020-06-28T08:35:44.000Z</time>
      </trkpt>
      <trkpt lat="45.69489" lon="6.65783">
        <ele>1624.8000488281</ele>
        <time>2020-06-28T08:35:46.000Z</time>
      </trkpt>
      <trkpt lat="45.69509" lon="6.65787">
        <ele>1623.4000244141</ele>
        <time>2020-06-28T08:35:48.000Z</time>
      </trkpt>
      <trkpt lat="45.69527" lon="6.65791">
        <ele>1622.1999511719</ele>
        <time>2020-06-28T08:35:50.000Z</time>
      </trkpt>
      <trkpt lat="45.69536" lon="6.65794">
        <ele>1621.1999511719</ele>
        <time>2020-06-28T08:35:51.000Z</time>
      </trkpt>
      <trkpt lat="45.69545" lon="6.65796">
        <ele>1620.4000244141</ele>
        <time>2020-06-28T08:35:52.000Z</time>
      </trkpt>
      <trkpt lat="45.69564" lon="6.65798">
        <ele>1619.5999755859</ele>
        <time>2020-06-28T08:35:54.000Z</time>
      </trkpt>
      <trkpt lat="45.69573" lon="6.65796">
        <ele>1618.8000488281</ele>
        <time>2020-06-28T08:35:55.000Z</time>
      </trkpt>
      <trkpt lat="45.69587" lon="6.65784">
        <ele>1617.5999755859</ele>
        <time>2020-06-28T08:35:57.000Z</time>
      </trkpt>
      <trkpt lat="45.69596" lon="6.65763">
        <ele>1616.1999511719</ele>
        <time>2020-06-28T08:35:59.000Z</time>
      </trkpt>
      <trkpt lat="45.69599" lon="6.65751">
        <ele>1615.4000244141</ele>
        <time>2020-06-28T08:36:00.000Z</time>
      </trkpt>
      <trkpt lat="45.696" lon="6.65738">
        <ele>1614.4000244141</ele>
        <time>2020-06-28T08:36:01.000Z</time>
      </trkpt>
      <trkpt lat="45.69598" lon="6.65725">
        <ele>1613.1999511719</ele>
        <time>2020-06-28T08:36:02.000Z</time>
      </trkpt>
      <trkpt lat="45.69595" lon="6.65713">
        <ele>1612</ele>
        <time>2020-06-28T08:36:03.000Z</time>
      </trkpt>
      <trkpt lat="45.69589" lon="6.65701">
        <ele>1610.8000488281</ele>
        <time>2020-06-28T08:36:04.000Z</time>
      </trkpt>
      <trkpt lat="45.69583" lon="6.65691">
        <ele>1609.8000488281</ele>
        <time>2020-06-28T08:36:05.000Z</time>
      </trkpt>
      <trkpt lat="45.69575" lon="6.65682">
        <ele>1609.1999511719</ele>
        <time>2020-06-28T08:36:06.000Z</time>
      </trkpt>
      <trkpt lat="45.69556" lon="6.65673">
        <ele>1608.5999755859</ele>
        <time>2020-06-28T08:36:08.000Z</time>
      </trkpt>
      <trkpt lat="45.69546" lon="6.65672">
        <ele>1608.1999511719</ele>
        <time>2020-06-28T08:36:09.000Z</time>
      </trkpt>
      <trkpt lat="45.69537" lon="6.65672">
        <ele>1607</ele>
        <time>2020-06-28T08:36:10.000Z</time>
      </trkpt>
      <trkpt lat="45.69519" lon="6.65675">
        <ele>1605.8000488281</ele>
        <time>2020-06-28T08:36:12.000Z</time>
      </trkpt>
      <trkpt lat="45.69511" lon="6.65676">
        <ele>1605</ele>
        <time>2020-06-28T08:36:13.000Z</time>
      </trkpt>
      <trkpt lat="45.69503" lon="6.65678">
        <ele>1604.1999511719</ele>
        <time>2020-06-28T08:36:14.000Z</time>
      </trkpt>
      <trkpt lat="45.69495" lon="6.65678">
        <ele>1603.1999511719</ele>
        <time>2020-06-28T08:36:15.000Z</time>
      </trkpt>
      <trkpt lat="45.69487" lon="6.65678">
        <ele>1602.1999511719</ele>
        <time>2020-06-28T08:36:16.000Z</time>
      </trkpt>
      <trkpt lat="45.69478" lon="6.65676">
        <ele>1601</ele>
        <time>2020-06-28T08:36:17.000Z</time>
      </trkpt>
      <trkpt lat="45.69462" lon="6.65666">
        <ele>1600</ele>
        <time>2020-06-28T08:36:19.000Z</time>
      </trkpt>
      <trkpt lat="45.69456" lon="6.65658">
        <ele>1599.8000488281</ele>
        <time>2020-06-28T08:36:20.000Z</time>
      </trkpt>
      <trkpt lat="45.69443" lon="6.65625">
        <ele>1599.1999511719</ele>
        <time>2020-06-28T08:36:23.000Z</time>
      </trkpt>
      <trkpt lat="45.69441" lon="6.65611">
        <ele>1599</ele>
        <time>2020-06-28T08:36:24.000Z</time>
      </trkpt>
      <trkpt lat="45.69443" lon="6.65584">
        <ele>1597.8000488281</ele>
        <time>2020-06-28T08:36:26.000Z</time>
      </trkpt>
      <trkpt lat="45.69452" lon="6.65562">
        <ele>1596.5999755859</ele>
        <time>2020-06-28T08:36:28.000Z</time>
      </trkpt>
      <trkpt lat="45.69458" lon="6.65553">
        <ele>1596</ele>
        <time>2020-06-28T08:36:29.000Z</time>
      </trkpt>
      <trkpt lat="45.69466" lon="6.65546">
        <ele>1595.1999511719</ele>
        <time>2020-06-28T08:36:30.000Z</time>
      </trkpt>
      <trkpt lat="45.69484" lon="6.6554">
        <ele>1593.8000488281</ele>
        <time>2020-06-28T08:36:32.000Z</time>
      </trkpt>
      <trkpt lat="45.69503" lon="6.65545">
        <ele>1592.1999511719</ele>
        <time>2020-06-28T08:36:34.000Z</time>
      </trkpt>
      <trkpt lat="45.69513" lon="6.65548">
        <ele>1591.5999755859</ele>
        <time>2020-06-28T08:36:35.000Z</time>
      </trkpt>
      <trkpt lat="45.69523" lon="6.65552">
        <ele>1591</ele>
        <time>2020-06-28T08:36:36.000Z</time>
      </trkpt>
      <trkpt lat="45.69534" lon="6.65556">
        <ele>1590</ele>
        <time>2020-06-28T08:36:37.000Z</time>
      </trkpt>
      <trkpt lat="45.69555" lon="6.65563">
        <ele>1588.5999755859</ele>
        <time>2020-06-28T08:36:39.000Z</time>
      </trkpt>
      <trkpt lat="45.69576" lon="6.6557">
        <ele>1587.1999511719</ele>
        <time>2020-06-28T08:36:41.000Z</time>
      </trkpt>
      <trkpt lat="45.69586" lon="6.65574">
        <ele>1586.1999511719</ele>
        <time>2020-06-28T08:36:42.000Z</time>
      </trkpt>
      <trkpt lat="45.69606" lon="6.65581">
        <ele>1584.4000244141</ele>
        <time>2020-06-28T08:36:44.000Z</time>
      </trkpt>
      <trkpt lat="45.69627" lon="6.6559">
        <ele>1582.8000488281</ele>
        <time>2020-06-28T08:36:46.000Z</time>
      </trkpt>
      <trkpt lat="45.69638" lon="6.65595">
        <ele>1582.4000244141</ele>
        <time>2020-06-28T08:36:47.000Z</time>
      </trkpt>
      <trkpt lat="45.6966" lon="6.65606">
        <ele>1581.8000488281</ele>
        <time>2020-06-28T08:36:49.000Z</time>
      </trkpt>
      <trkpt lat="45.69682" lon="6.65617">
        <ele>1580.5999755859</ele>
        <time>2020-06-28T08:36:51.000Z</time>
      </trkpt>
      <trkpt lat="45.69704" lon="6.65627">
        <ele>1579.5999755859</ele>
        <time>2020-06-28T08:36:53.000Z</time>
      </trkpt>
      <trkpt lat="45.69728" lon="6.65635">
        <ele>1578.1999511719</ele>
        <time>2020-06-28T08:36:55.000Z</time>
      </trkpt>
      <trkpt lat="45.6974" lon="6.65637">
        <ele>1577</ele>
        <time>2020-06-28T08:36:56.000Z</time>
      </trkpt>
      <trkpt lat="45.69751" lon="6.65638">
        <ele>1575.4000244141</ele>
        <time>2020-06-28T08:36:57.000Z</time>
      </trkpt>
      <trkpt lat="45.69763" lon="6.65638">
        <ele>1574</ele>
        <time>2020-06-28T08:36:58.000Z</time>
      </trkpt>
      <trkpt lat="45.69773" lon="6.65636">
        <ele>1572.8000488281</ele>
        <time>2020-06-28T08:36:59.000Z</time>
      </trkpt>
      <trkpt lat="45.69784" lon="6.65633">
        <ele>1572</ele>
        <time>2020-06-28T08:37:00.000Z</time>
      </trkpt>
      <trkpt lat="45.69794" lon="6.65629">
        <ele>1571.1999511719</ele>
        <time>2020-06-28T08:37:01.000Z</time>
      </trkpt>
      <trkpt lat="45.69804" lon="6.65624">
        <ele>1570</ele>
        <time>2020-06-28T08:37:02.000Z</time>
      </trkpt>
      <trkpt lat="45.69814" lon="6.65617">
        <ele>1568.5999755859</ele>
        <time>2020-06-28T08:37:03.000Z</time>
      </trkpt>
      <trkpt lat="45.69823" lon="6.65609">
        <ele>1567.4000244141</ele>
        <time>2020-06-28T08:37:04.000Z</time>
      </trkpt>
      <trkpt lat="45.69832" lon="6.65601">
        <ele>1566.1999511719</ele>
        <time>2020-06-28T08:37:05.000Z</time>
      </trkpt>
      <trkpt lat="45.69848" lon="6.65581">
        <ele>1565.1999511719</ele>
        <time>2020-06-28T08:37:07.000Z</time>
      </trkpt>
      <trkpt lat="45.69862" lon="6.65561">
        <ele>1564</ele>
        <time>2020-06-28T08:37:09.000Z</time>
      </trkpt>
      <trkpt lat="45.69878" lon="6.65544">
        <ele>1562.4000244141</ele>
        <time>2020-06-28T08:37:11.000Z</time>
      </trkpt>
      <trkpt lat="45.69886" lon="6.65538">
        <ele>1561.5999755859</ele>
        <time>2020-06-28T08:37:12.000Z</time>
      </trkpt>
      <trkpt lat="45.69896" lon="6.65534">
        <ele>1560.8000488281</ele>
        <time>2020-06-28T08:37:13.000Z</time>
      </trkpt>
      <trkpt lat="45.69914" lon="6.65528">
        <ele>1559.4000244141</ele>
        <time>2020-06-28T08:37:15.000Z</time>
      </trkpt>
      <trkpt lat="45.69924" lon="6.65525">
        <ele>1558.8000488281</ele>
        <time>2020-06-28T08:37:16.000Z</time>
      </trkpt>
      <trkpt lat="45.69933" lon="6.65522">
        <ele>1558</ele>
        <time>2020-06-28T08:37:17.000Z</time>
      </trkpt>
      <trkpt lat="45.69949" lon="6.65514">
        <ele>1557.1999511719</ele>
        <time>2020-06-28T08:37:19.000Z</time>
      </trkpt>
      <trkpt lat="45.69955" lon="6.65508">
        <ele>1557</ele>
        <time>2020-06-28T08:37:20.000Z</time>
      </trkpt>
      <trkpt lat="45.69968" lon="6.65484">
        <ele>1556.8000488281</ele>
        <time>2020-06-28T08:37:23.000Z</time>
      </trkpt>
      <trkpt lat="45.69973" lon="6.65466">
        <ele>1556.8000488281</ele>
        <time>2020-06-28T08:37:25.000Z</time>
      </trkpt>
      <trkpt lat="45.69982" lon="6.65428">
        <ele>1557.1999511719</ele>
        <time>2020-06-28T08:37:29.000Z</time>
      </trkpt>
      <trkpt lat="45.69987" lon="6.65409">
        <ele>1557.8000488281</ele>
        <time>2020-06-28T08:37:31.000Z</time>
      </trkpt>
      <trkpt lat="45.69994" lon="6.65392">
        <ele>1558</ele>
        <time>2020-06-28T08:37:33.000Z</time>
      </trkpt>
      <trkpt lat="45.69998" lon="6.65385">
        <ele>1558.1999511719</ele>
        <time>2020-06-28T08:37:34.000Z</time>
      </trkpt>
      <trkpt lat="45.70022" lon="6.65344">
        <ele>1558.5999755859</ele>
        <time>2020-06-28T08:37:40.000Z</time>
      </trkpt>
      <trkpt lat="45.70033" lon="6.6532">
        <ele>1559</ele>
        <time>2020-06-28T08:37:44.000Z</time>
      </trkpt>
      <trkpt lat="45.70035" lon="6.65315">
        <ele>1559</ele>
        <time>2020-06-28T08:37:45.000Z</time>
      </trkpt>
      <trkpt lat="45.70037" lon="6.65303">
        <ele>1559.1999511719</ele>
        <time>2020-06-28T08:37:47.000Z</time>
      </trkpt>
      <trkpt lat="45.70038" lon="6.65296">
        <ele>1559.5999755859</ele>
        <time>2020-06-28T08:37:48.000Z</time>
      </trkpt>
      <trkpt lat="45.70039" lon="6.6529">
        <ele>1560</ele>
        <time>2020-06-28T08:37:49.000Z</time>
      </trkpt>
      <trkpt lat="45.70039" lon="6.65283">
        <ele>1560.1999511719</ele>
        <time>2020-06-28T08:37:50.000Z</time>
      </trkpt>
      <trkpt lat="45.70039" lon="6.65276">
        <ele>1560.4000244141</ele>
        <time>2020-06-28T08:37:51.000Z</time>
      </trkpt>
      <trkpt lat="45.70037" lon="6.65256">
        <ele>1560.5999755859</ele>
        <time>2020-06-28T08:37:54.000Z</time>
      </trkpt>
      <trkpt lat="45.70033" lon="6.65235">
        <ele>1560.8000488281</ele>
        <time>2020-06-28T08:37:57.000Z</time>
      </trkpt>
      <trkpt lat="45.70028" lon="6.65202">
        <ele>1561</ele>
        <time>2020-06-28T08:38:02.000Z</time>
      </trkpt>
      <trkpt lat="45.70028" lon="6.65196">
        <ele>1561</ele>
        <time>2020-06-28T08:38:03.000Z</time>
      </trkpt>
      <trkpt lat="45.70029" lon="6.6517">
        <ele>1561.4000244141</ele>
        <time>2020-06-28T08:38:08.000Z</time>
      </trkpt>
      <trkpt lat="45.70029" lon="6.65162">
        <ele>1561.4000244141</ele>
        <time>2020-06-28T08:38:10.000Z</time>
      </trkpt>
      <trkpt lat="45.7003" lon="6.65142">
        <ele>1562.4000244141</ele>
        <time>2020-06-28T08:38:15.000Z</time>
      </trkpt>
      <trkpt lat="45.7003" lon="6.6513">
        <ele>1563</ele>
        <time>2020-06-28T08:38:18.000Z</time>
      </trkpt>
      <trkpt lat="45.70029" lon="6.65122">
        <ele>1563.4000244141</ele>
        <time>2020-06-28T08:38:20.000Z</time>
      </trkpt>
      <trkpt lat="45.70026" lon="6.65097">
        <ele>1564.1999511719</ele>
        <time>2020-06-28T08:38:26.000Z</time>
      </trkpt>
      <trkpt lat="45.70025" lon="6.65093">
        <ele>1564.5999755859</ele>
        <time>2020-06-28T08:38:27.000Z</time>
      </trkpt>
      <trkpt lat="45.70023" lon="6.65077">
        <ele>1565.8000488281</ele>
        <time>2020-06-28T08:38:31.000Z</time>
      </trkpt>
      <trkpt lat="45.70022" lon="6.65061">
        <ele>1566.5999755859</ele>
        <time>2020-06-28T08:38:35.000Z</time>
      </trkpt>
      <trkpt lat="45.70022" lon="6.65054">
        <ele>1566.8000488281</ele>
        <time>2020-06-28T08:38:37.000Z</time>
      </trkpt>
      <trkpt lat="45.70026" lon="6.6503">
        <ele>1567.8000488281</ele>
        <time>2020-06-28T08:38:43.000Z</time>
      </trkpt>
      <trkpt lat="45.70038" lon="6.6501">
        <ele>1569</ele>
        <time>2020-06-28T08:38:50.000Z</time>
      </trkpt>
      <trkpt lat="45.7004" lon="6.65007">
        <ele>1569.4000244141</ele>
        <time>2020-06-28T08:38:51.000Z</time>
      </trkpt>
      <trkpt lat="45.7005" lon="6.64999">
        <ele>1570.1999511719</ele>
        <time>2020-06-28T08:38:55.000Z</time>
      </trkpt>
      <trkpt lat="45.70061" lon="6.64992">
        <ele>1571</ele>
        <time>2020-06-28T08:38:59.000Z</time>
      </trkpt>
      <trkpt lat="45.70064" lon="6.6499">
        <ele>1571.1999511719</ele>
        <time>2020-06-28T08:39:00.000Z</time>
      </trkpt>
      <trkpt lat="45.70085" lon="6.64968">
        <ele>1572</ele>
        <time>2020-06-28T08:39:08.000Z</time>
      </trkpt>
      <trkpt lat="45.70099" lon="6.64943">
        <ele>1572.4000244141</ele>
        <time>2020-06-28T08:39:15.000Z</time>
      </trkpt>
      <trkpt lat="45.701" lon="6.64939">
        <ele>1572.4000244141</ele>
        <time>2020-06-28T08:39:16.000Z</time>
      </trkpt>
      <trkpt lat="45.70108" lon="6.64908">
        <ele>1573.5999755859</ele>
        <time>2020-06-28T08:39:23.000Z</time>
      </trkpt>
      <trkpt lat="45.70106" lon="6.64866">
        <ele>1574.1999511719</ele>
        <time>2020-06-28T08:39:32.000Z</time>
      </trkpt>
      <trkpt lat="45.70103" lon="6.64853">
        <ele>1574.4000244141</ele>
        <time>2020-06-28T08:39:35.000Z</time>
      </trkpt>
      <trkpt lat="45.70096" lon="6.64835">
        <ele>1575</ele>
        <time>2020-06-28T08:39:39.000Z</time>
      </trkpt>
      <trkpt lat="45.70088" lon="6.6482">
        <ele>1575.5999755859</ele>
        <time>2020-06-28T08:39:43.000Z</time>
      </trkpt>
      <trkpt lat="45.70077" lon="6.64807">
        <ele>1575.8000488281</ele>
        <time>2020-06-28T08:39:47.000Z</time>
      </trkpt>
      <trkpt lat="45.70059" lon="6.64784">
        <ele>1576.5999755859</ele>
        <time>2020-06-28T08:39:54.000Z</time>
      </trkpt>
      <trkpt lat="45.70049" lon="6.6477">
        <ele>1577</ele>
        <time>2020-06-28T08:39:58.000Z</time>
      </trkpt>
      <trkpt lat="45.7004" lon="6.64754">
        <ele>1577.5999755859</ele>
        <time>2020-06-28T08:40:02.000Z</time>
      </trkpt>
      <trkpt lat="45.70035" lon="6.64741">
        <ele>1578</ele>
        <time>2020-06-28T08:40:05.000Z</time>
      </trkpt>
      <trkpt lat="45.70023" lon="6.6471">
        <ele>1578.5999755859</ele>
        <time>2020-06-28T08:40:12.000Z</time>
      </trkpt>
      <trkpt lat="45.70016" lon="6.64692">
        <ele>1579.1999511719</ele>
        <time>2020-06-28T08:40:16.000Z</time>
      </trkpt>
      <trkpt lat="45.7001" lon="6.64679">
        <ele>1580</ele>
        <time>2020-06-28T08:40:19.000Z</time>
      </trkpt>
      <trkpt lat="45.69995" lon="6.64642">
        <ele>1580.5999755859</ele>
        <time>2020-06-28T08:40:27.000Z</time>
      </trkpt>
      <trkpt lat="45.69987" lon="6.64624">
        <ele>1581</ele>
        <time>2020-06-28T08:40:31.000Z</time>
      </trkpt>
      <trkpt lat="45.69978" lon="6.64594">
        <ele>1581.8000488281</ele>
        <time>2020-06-28T08:40:37.000Z</time>
      </trkpt>
      <trkpt lat="45.69977" lon="6.64577">
        <ele>1582</ele>
        <time>2020-06-28T08:40:40.000Z</time>
      </trkpt>
      <trkpt lat="45.69979" lon="6.64567">
        <ele>1582.4000244141</ele>
        <time>2020-06-28T08:40:42.000Z</time>
      </trkpt>
      <trkpt lat="45.6999" lon="6.64546">
        <ele>1583</ele>
        <time>2020-06-28T08:40:47.000Z</time>
      </trkpt>
      <trkpt lat="45.69999" lon="6.64537">
        <ele>1583.1999511719</ele>
        <time>2020-06-28T08:40:50.000Z</time>
      </trkpt>
      <trkpt lat="45.70008" lon="6.64531">
        <ele>1583.4000244141</ele>
        <time>2020-06-28T08:40:53.000Z</time>
      </trkpt>
      <trkpt lat="45.70035" lon="6.64512">
        <ele>1584</ele>
        <time>2020-06-28T08:41:00.000Z</time>
      </trkpt>
      <trkpt lat="45.70054" lon="6.64494">
        <ele>1583.5999755859</ele>
        <time>2020-06-28T08:41:05.000Z</time>
      </trkpt>
      <trkpt lat="45.70062" lon="6.64481">
        <ele>1582.8000488281</ele>
        <time>2020-06-28T08:41:07.000Z</time>
      </trkpt>
      <trkpt lat="45.70069" lon="6.64464">
        <ele>1582.4000244141</ele>
        <time>2020-06-28T08:41:09.000Z</time>
      </trkpt>
      <trkpt lat="45.70072" lon="6.64454">
        <ele>1582.4000244141</ele>
        <time>2020-06-28T08:41:10.000Z</time>
      </trkpt>
      <trkpt lat="45.70077" lon="6.64421">
        <ele>1581.4000244141</ele>
        <time>2020-06-28T08:41:13.000Z</time>
      </trkpt>
      <trkpt lat="45.70076" lon="6.6441">
        <ele>1580.1999511719</ele>
        <time>2020-06-28T08:41:14.000Z</time>
      </trkpt>
      <trkpt lat="45.70073" lon="6.64391">
        <ele>1579</ele>
        <time>2020-06-28T08:41:16.000Z</time>
      </trkpt>
      <trkpt lat="45.70071" lon="6.64383">
        <ele>1578.1999511719</ele>
        <time>2020-06-28T08:41:17.000Z</time>
      </trkpt>
      <trkpt lat="45.70068" lon="6.64375">
        <ele>1577.8000488281</ele>
        <time>2020-06-28T08:41:18.000Z</time>
      </trkpt>
      <trkpt lat="45.70062" lon="6.6436">
        <ele>1577.5999755859</ele>
        <time>2020-06-28T08:41:20.000Z</time>
      </trkpt>
      <trkpt lat="45.70059" lon="6.64354">
        <ele>1577.5999755859</ele>
        <time>2020-06-28T08:41:21.000Z</time>
      </trkpt>
      <trkpt lat="45.70055" lon="6.64347">
        <ele>1577.5999755859</ele>
        <time>2020-06-28T08:41:22.000Z</time>
      </trkpt>
      <trkpt lat="45.70042" lon="6.64315">
        <ele>1577.8000488281</ele>
        <time>2020-06-28T08:41:27.000Z</time>
      </trkpt>
      <trkpt lat="45.7004" lon="6.643">
        <ele>1578</ele>
        <time>2020-06-28T08:41:29.000Z</time>
      </trkpt>
      <trkpt lat="45.70034" lon="6.64262">
        <ele>1578.1999511719</ele>
        <time>2020-06-28T08:41:34.000Z</time>
      </trkpt>
      <trkpt lat="45.70023" lon="6.64216">
        <ele>1578.4000244141</ele>
        <time>2020-06-28T08:41:40.000Z</time>
      </trkpt>
      <trkpt lat="45.7002" lon="6.64209">
        <ele>1578.4000244141</ele>
        <time>2020-06-28T08:41:41.000Z</time>
      </trkpt>
      <trkpt lat="45.69999" lon="6.64154">
        <ele>1578.4000244141</ele>
        <time>2020-06-28T08:41:49.000Z</time>
      </trkpt>
      <trkpt lat="45.69975" lon="6.64099">
        <ele>1578.4000244141</ele>
        <time>2020-06-28T08:41:56.000Z</time>
      </trkpt>
      <trkpt lat="45.69938" lon="6.64031">
        <ele>1577.4000244141</ele>
        <time>2020-06-28T08:42:05.000Z</time>
      </trkpt>
      <trkpt lat="45.69903" lon="6.63982">
        <ele>1577</ele>
        <time>2020-06-28T08:42:13.000Z</time>
      </trkpt>
      <trkpt lat="45.69867" lon="6.63932">
        <ele>1577.1999511719</ele>
        <time>2020-06-28T08:42:21.000Z</time>
      </trkpt>
      <trkpt lat="45.69825" lon="6.63876">
        <ele>1577</ele>
        <time>2020-06-28T08:42:30.000Z</time>
      </trkpt>
      <trkpt lat="45.69809" lon="6.63856">
        <ele>1576.8000488281</ele>
        <time>2020-06-28T08:42:33.000Z</time>
      </trkpt>
      <trkpt lat="45.69792" lon="6.63837">
        <ele>1576.1999511719</ele>
        <time>2020-06-28T08:42:36.000Z</time>
      </trkpt>
      <trkpt lat="45.6977" lon="6.63822">
        <ele>1575.5999755859</ele>
        <time>2020-06-28T08:42:39.000Z</time>
      </trkpt>
      <trkpt lat="45.69749" lon="6.63809">
        <ele>1575</ele>
        <time>2020-06-28T08:42:42.000Z</time>
      </trkpt>
      <trkpt lat="45.69728" lon="6.63796">
        <ele>1574.4000244141</ele>
        <time>2020-06-28T08:42:45.000Z</time>
      </trkpt>
      <trkpt lat="45.6971" lon="6.63783">
        <ele>1573.8000488281</ele>
        <time>2020-06-28T08:42:48.000Z</time>
      </trkpt>
      <trkpt lat="45.69694" lon="6.63765">
        <ele>1573.4000244141</ele>
        <time>2020-06-28T08:42:51.000Z</time>
      </trkpt>
      <trkpt lat="45.69679" lon="6.63744">
        <ele>1573.1999511719</ele>
        <time>2020-06-28T08:42:54.000Z</time>
      </trkpt>
      <trkpt lat="45.69653" lon="6.63691">
        <ele>1572.8000488281</ele>
        <time>2020-06-28T08:43:00.000Z</time>
      </trkpt>
      <trkpt lat="45.69638" lon="6.63666">
        <ele>1572.4000244141</ele>
        <time>2020-06-28T08:43:03.000Z</time>
      </trkpt>
      <trkpt lat="45.69626" lon="6.63652">
        <ele>1571.5999755859</ele>
        <time>2020-06-28T08:43:05.000Z</time>
      </trkpt>
      <trkpt lat="45.69593" lon="6.63624">
        <ele>1571.4000244141</ele>
        <time>2020-06-28T08:43:10.000Z</time>
      </trkpt>
      <trkpt lat="45.69588" lon="6.63618">
        <ele>1571.4000244141</ele>
        <time>2020-06-28T08:43:11.000Z</time>
      </trkpt>
      <trkpt lat="45.69565" lon="6.63583">
        <ele>1571.1999511719</ele>
        <time>2020-06-28T08:43:16.000Z</time>
      </trkpt>
      <trkpt lat="45.69549" lon="6.63555">
        <ele>1571.1999511719</ele>
        <time>2020-06-28T08:43:21.000Z</time>
      </trkpt>
      <trkpt lat="45.69535" lon="6.63529">
        <ele>1572.5999755859</ele>
        <time>2020-06-28T08:43:26.000Z</time>
      </trkpt>
      <trkpt lat="45.69527" lon="6.63514">
        <ele>1573.5999755859</ele>
        <time>2020-06-28T08:43:29.000Z</time>
      </trkpt>
      <trkpt lat="45.69519" lon="6.63499">
        <ele>1574.8000488281</ele>
        <time>2020-06-28T08:43:32.000Z</time>
      </trkpt>
      <trkpt lat="45.69509" lon="6.63472">
        <ele>1575.8000488281</ele>
        <time>2020-06-28T08:43:37.000Z</time>
      </trkpt>
      <trkpt lat="45.69507" lon="6.63467">
        <ele>1576</ele>
        <time>2020-06-28T08:43:38.000Z</time>
      </trkpt>
      <trkpt lat="45.69498" lon="6.63437">
        <ele>1576.5999755859</ele>
        <time>2020-06-28T08:43:44.000Z</time>
      </trkpt>
      <trkpt lat="45.69496" lon="6.63426">
        <ele>1577</ele>
        <time>2020-06-28T08:43:46.000Z</time>
      </trkpt>
      <trkpt lat="45.69491" lon="6.6339">
        <ele>1577.1999511719</ele>
        <time>2020-06-28T08:43:52.000Z</time>
      </trkpt>
      <trkpt lat="45.69487" lon="6.63372">
        <ele>1577.1999511719</ele>
        <time>2020-06-28T08:43:55.000Z</time>
      </trkpt>
      <trkpt lat="45.69483" lon="6.63361">
        <ele>1577</ele>
        <time>2020-06-28T08:43:57.000Z</time>
      </trkpt>
      <trkpt lat="45.6948" lon="6.63356">
        <ele>1577</ele>
        <time>2020-06-28T08:43:58.000Z</time>
      </trkpt>
      <trkpt lat="45.69471" lon="6.6334">
        <ele>1576.1999511719</ele>
        <time>2020-06-28T08:44:01.000Z</time>
      </trkpt>
      <trkpt lat="45.69468" lon="6.63335">
        <ele>1576</ele>
        <time>2020-06-28T08:44:02.000Z</time>
      </trkpt>
      <trkpt lat="45.69464" lon="6.6333">
        <ele>1575.8000488281</ele>
        <time>2020-06-28T08:44:03.000Z</time>
      </trkpt>
      <trkpt lat="45.69443" lon="6.63297">
        <ele>1575</ele>
        <time>2020-06-28T08:44:08.000Z</time>
      </trkpt>
      <trkpt lat="45.69437" lon="6.63288">
        <ele>1574.8000488281</ele>
        <time>2020-06-28T08:44:09.000Z</time>
      </trkpt>
      <trkpt lat="45.69425" lon="6.63267">
        <ele>1574.4000244141</ele>
        <time>2020-06-28T08:44:11.000Z</time>
      </trkpt>
      <trkpt lat="45.69415" lon="6.63242">
        <ele>1573.8000488281</ele>
        <time>2020-06-28T08:44:13.000Z</time>
      </trkpt>
      <trkpt lat="45.69413" lon="6.6323">
        <ele>1573.1999511719</ele>
        <time>2020-06-28T08:44:14.000Z</time>
      </trkpt>
      <trkpt lat="45.69411" lon="6.63217">
        <ele>1572.1999511719</ele>
        <time>2020-06-28T08:44:15.000Z</time>
      </trkpt>
      <trkpt lat="45.69411" lon="6.63193">
        <ele>1570.1999511719</ele>
        <time>2020-06-28T08:44:17.000Z</time>
      </trkpt>
      <trkpt lat="45.69412" lon="6.63182">
        <ele>1569.1999511719</ele>
        <time>2020-06-28T08:44:18.000Z</time>
      </trkpt>
      <trkpt lat="45.69412" lon="6.63171">
        <ele>1568.5999755859</ele>
        <time>2020-06-28T08:44:19.000Z</time>
      </trkpt>
      <trkpt lat="45.69405" lon="6.6315">
        <ele>1568</ele>
        <time>2020-06-28T08:44:21.000Z</time>
      </trkpt>
      <trkpt lat="45.69393" lon="6.63136">
        <ele>1567.4000244141</ele>
        <time>2020-06-28T08:44:23.000Z</time>
      </trkpt>
      <trkpt lat="45.69387" lon="6.63132">
        <ele>1567.4000244141</ele>
        <time>2020-06-28T08:44:24.000Z</time>
      </trkpt>
      <trkpt lat="45.69379" lon="6.63128">
        <ele>1567.1999511719</ele>
        <time>2020-06-28T08:44:25.000Z</time>
      </trkpt>
      <trkpt lat="45.69371" lon="6.63123">
        <ele>1567</ele>
        <time>2020-06-28T08:44:26.000Z</time>
      </trkpt>
      <trkpt lat="45.69356" lon="6.63109">
        <ele>1566.1999511719</ele>
        <time>2020-06-28T08:44:28.000Z</time>
      </trkpt>
      <trkpt lat="45.69334" lon="6.63084">
        <ele>1565.5999755859</ele>
        <time>2020-06-28T08:44:31.000Z</time>
      </trkpt>
      <trkpt lat="45.69324" lon="6.63077">
        <ele>1565</ele>
        <time>2020-06-28T08:44:32.000Z</time>
      </trkpt>
      <trkpt lat="45.69302" lon="6.63066">
        <ele>1563.4000244141</ele>
        <time>2020-06-28T08:44:34.000Z</time>
      </trkpt>
      <trkpt lat="45.6929" lon="6.63062">
        <ele>1562</ele>
        <time>2020-06-28T08:44:35.000Z</time>
      </trkpt>
      <trkpt lat="45.69278" lon="6.63057">
        <ele>1560.5999755859</ele>
        <time>2020-06-28T08:44:36.000Z</time>
      </trkpt>
      <trkpt lat="45.69266" lon="6.63052">
        <ele>1559.1999511719</ele>
        <time>2020-06-28T08:44:37.000Z</time>
      </trkpt>
      <trkpt lat="45.69254" lon="6.63047">
        <ele>1557.8000488281</ele>
        <time>2020-06-28T08:44:38.000Z</time>
      </trkpt>
      <trkpt lat="45.69244" lon="6.6304">
        <ele>1556.5999755859</ele>
        <time>2020-06-28T08:44:39.000Z</time>
      </trkpt>
      <trkpt lat="45.69233" lon="6.63034">
        <ele>1554.8000488281</ele>
        <time>2020-06-28T08:44:40.000Z</time>
      </trkpt>
      <trkpt lat="45.69222" lon="6.63029">
        <ele>1552.8000488281</ele>
        <time>2020-06-28T08:44:41.000Z</time>
      </trkpt>
      <trkpt lat="45.69211" lon="6.63023">
        <ele>1550.5999755859</ele>
        <time>2020-06-28T08:44:42.000Z</time>
      </trkpt>
      <trkpt lat="45.692" lon="6.63016">
        <ele>1548.1999511719</ele>
        <time>2020-06-28T08:44:43.000Z</time>
      </trkpt>
      <trkpt lat="45.6919" lon="6.63009">
        <ele>1546.5999755859</ele>
        <time>2020-06-28T08:44:44.000Z</time>
      </trkpt>
      <trkpt lat="45.6918" lon="6.63001">
        <ele>1545.1999511719</ele>
        <time>2020-06-28T08:44:45.000Z</time>
      </trkpt>
      <trkpt lat="45.69171" lon="6.62994">
        <ele>1544</ele>
        <time>2020-06-28T08:44:46.000Z</time>
      </trkpt>
      <trkpt lat="45.69152" lon="6.6298">
        <ele>1543</ele>
        <time>2020-06-28T08:44:48.000Z</time>
      </trkpt>
      <trkpt lat="45.69128" lon="6.62956">
        <ele>1541.8000488281</ele>
        <time>2020-06-28T08:44:51.000Z</time>
      </trkpt>
      <trkpt lat="45.69081" lon="6.62915">
        <ele>1541.5999755859</ele>
        <time>2020-06-28T08:44:57.000Z</time>
      </trkpt>
      <trkpt lat="45.69045" lon="6.62886">
        <ele>1542</ele>
        <time>2020-06-28T08:45:02.000Z</time>
      </trkpt>
      <trkpt lat="45.69039" lon="6.62879">
        <ele>1541.8000488281</ele>
        <time>2020-06-28T08:45:03.000Z</time>
      </trkpt>
      <trkpt lat="45.69009" lon="6.62834">
        <ele>1542.8000488281</ele>
        <time>2020-06-28T08:45:09.000Z</time>
      </trkpt>
      <trkpt lat="45.68971" lon="6.62783">
        <ele>1543.5999755859</ele>
        <time>2020-06-28T08:45:17.000Z</time>
      </trkpt>
      <trkpt lat="45.68928" lon="6.62732">
        <ele>1544</ele>
        <time>2020-06-28T08:45:26.000Z</time>
      </trkpt>
      <trkpt lat="45.68923" lon="6.62725">
        <ele>1544.4000244141</ele>
        <time>2020-06-28T08:45:27.000Z</time>
      </trkpt>
      <trkpt lat="45.68915" lon="6.62712">
        <ele>1544.5999755859</ele>
        <time>2020-06-28T08:45:29.000Z</time>
      </trkpt>
      <trkpt lat="45.68893" lon="6.62673">
        <ele>1544.5999755859</ele>
        <time>2020-06-28T08:45:35.000Z</time>
      </trkpt>
      <trkpt lat="45.68873" lon="6.62627">
        <ele>1544</ele>
        <time>2020-06-28T08:45:41.000Z</time>
      </trkpt>
      <trkpt lat="45.68859" lon="6.62603">
        <ele>1543.1999511719</ele>
        <time>2020-06-28T08:45:44.000Z</time>
      </trkpt>
      <trkpt lat="45.68843" lon="6.62576">
        <ele>1542</ele>
        <time>2020-06-28T08:45:47.000Z</time>
      </trkpt>
      <trkpt lat="45.68828" lon="6.62551">
        <ele>1541</ele>
        <time>2020-06-28T08:45:50.000Z</time>
      </trkpt>
      <trkpt lat="45.68819" lon="6.62534">
        <ele>1539.5999755859</ele>
        <time>2020-06-28T08:45:52.000Z</time>
      </trkpt>
      <trkpt lat="45.68815" lon="6.62526">
        <ele>1538.8000488281</ele>
        <time>2020-06-28T08:45:53.000Z</time>
      </trkpt>
      <trkpt lat="45.68811" lon="6.62518">
        <ele>1537.8000488281</ele>
        <time>2020-06-28T08:45:54.000Z</time>
      </trkpt>
      <trkpt lat="45.68804" lon="6.62502">
        <ele>1536.1999511719</ele>
        <time>2020-06-28T08:45:56.000Z</time>
      </trkpt>
      <trkpt lat="45.68797" lon="6.62489">
        <ele>1535</ele>
        <time>2020-06-28T08:45:58.000Z</time>
      </trkpt>
      <trkpt lat="45.6879" lon="6.62474">
        <ele>1533.8000488281</ele>
        <time>2020-06-28T08:46:01.000Z</time>
      </trkpt>
      <trkpt lat="45.68787" lon="6.62468">
        <ele>1533.1999511719</ele>
        <time>2020-06-28T08:46:03.000Z</time>
      </trkpt>
      <trkpt lat="45.68785" lon="6.62466">
        <ele>1532.5999755859</ele>
        <time>2020-06-28T08:46:04.000Z</time>
      </trkpt>
      <trkpt lat="45.68781" lon="6.62459">
        <ele>1531.5999755859</ele>
        <time>2020-06-28T08:46:07.000Z</time>
      </trkpt>
      <trkpt lat="45.68778" lon="6.62454">
        <ele>1531</ele>
        <time>2020-06-28T08:46:10.000Z</time>
      </trkpt>
      <trkpt lat="45.68777" lon="6.62452">
        <ele>1530.4000244141</ele>
        <time>2020-06-28T08:46:13.000Z</time>
      </trkpt>
      <trkpt lat="45.68777" lon="6.62452">
        <ele>1530</ele>
        <time>2020-06-28T08:46:15.000Z</time>
      </trkpt>
      <trkpt lat="45.68774" lon="6.62451">
        <ele>1529.4000244141</ele>
        <time>2020-06-28T08:48:14.000Z</time>
      </trkpt>
      <trkpt lat="45.68769" lon="6.62449">
        <ele>1529.1999511719</ele>
        <time>2020-06-28T08:48:17.000Z</time>
      </trkpt>
      <trkpt lat="45.68759" lon="6.62444">
        <ele>1529.4000244141</ele>
        <time>2020-06-28T08:48:21.000Z</time>
      </trkpt>
      <trkpt lat="45.68754" lon="6.62441">
        <ele>1529.1999511719</ele>
        <time>2020-06-28T08:48:23.000Z</time>
      </trkpt>
      <trkpt lat="45.68745" lon="6.62438">
        <ele>1529</ele>
        <time>2020-06-28T08:48:27.000Z</time>
      </trkpt>
      <trkpt lat="45.68744" lon="6.62436">
        <ele>1529</ele>
        <time>2020-06-28T08:48:28.000Z</time>
      </trkpt>
      <trkpt lat="45.68743" lon="6.62435">
        <ele>1529</ele>
        <time>2020-06-28T08:48:31.000Z</time>
      </trkpt>
      <trkpt lat="45.6874" lon="6.62435">
        <ele>1529.4000244141</ele>
        <time>2020-06-28T08:48:51.000Z</time>
      </trkpt>
      <trkpt lat="45.68729" lon="6.6243">
        <ele>1529.1999511719</ele>
        <time>2020-06-28T08:48:57.000Z</time>
      </trkpt>
      <trkpt lat="45.68713" lon="6.62423">
        <ele>1529</ele>
        <time>2020-06-28T08:49:04.000Z</time>
      </trkpt>
      <trkpt lat="45.68684" lon="6.62405">
        <ele>1528.8000488281</ele>
        <time>2020-06-28T08:49:14.000Z</time>
      </trkpt>
      <trkpt lat="45.68652" lon="6.62382">
        <ele>1528.5999755859</ele>
        <time>2020-06-28T08:49:23.000Z</time>
      </trkpt>
      <trkpt lat="45.68634" lon="6.62367">
        <ele>1528.5999755859</ele>
        <time>2020-06-28T08:49:29.000Z</time>
      </trkpt>
      <trkpt lat="45.68631" lon="6.62364">
        <ele>1528.5999755859</ele>
        <time>2020-06-28T08:49:30.000Z</time>
      </trkpt>
      <trkpt lat="45.68607" lon="6.6234">
        <ele>1528.8000488281</ele>
        <time>2020-06-28T08:49:38.000Z</time>
      </trkpt>
      <trkpt lat="45.68584" lon="6.62312">
        <ele>1529</ele>
        <time>2020-06-28T08:49:46.000Z</time>
      </trkpt>
      <trkpt lat="45.6856" lon="6.62278">
        <ele>1529.1999511719</ele>
        <time>2020-06-28T08:49:55.000Z</time>
      </trkpt>
      <trkpt lat="45.68538" lon="6.6224">
        <ele>1529</ele>
        <time>2020-06-28T08:50:04.000Z</time>
      </trkpt>
      <trkpt lat="45.68516" lon="6.62197">
        <ele>1529.1999511719</ele>
        <time>2020-06-28T08:50:13.000Z</time>
      </trkpt>
      <trkpt lat="45.68499" lon="6.62161">
        <ele>1529.1999511719</ele>
        <time>2020-06-28T08:50:20.000Z</time>
      </trkpt>
      <trkpt lat="45.68492" lon="6.62145">
        <ele>1529.1999511719</ele>
        <time>2020-06-28T08:50:23.000Z</time>
      </trkpt>
      <trkpt lat="45.68469" lon="6.62096">
        <ele>1529.1999511719</ele>
        <time>2020-06-28T08:50:32.000Z</time>
      </trkpt>
      <trkpt lat="45.68445" lon="6.62046">
        <ele>1529</ele>
        <time>2020-06-28T08:50:41.000Z</time>
      </trkpt>
      <trkpt lat="45.68432" lon="6.62018">
        <ele>1529</ele>
        <time>2020-06-28T08:50:46.000Z</time>
      </trkpt>
      <trkpt lat="45.68419" lon="6.61991">
        <ele>1529</ele>
        <time>2020-06-28T08:50:51.000Z</time>
      </trkpt>
      <trkpt lat="45.68386" lon="6.61923">
        <ele>1528.5999755859</ele>
        <time>2020-06-28T08:51:03.000Z</time>
      </trkpt>
      <trkpt lat="45.68356" lon="6.61858">
        <ele>1528.5999755859</ele>
        <time>2020-06-28T08:51:14.000Z</time>
      </trkpt>
      <trkpt lat="45.68332" lon="6.61806">
        <ele>1528.8000488281</ele>
        <time>2020-06-28T08:51:23.000Z</time>
      </trkpt>
      <trkpt lat="45.68309" lon="6.61761">
        <ele>1529</ele>
        <time>2020-06-28T08:51:31.000Z</time>
      </trkpt>
      <trkpt lat="45.68275" lon="6.61701">
        <ele>1528.8000488281</ele>
        <time>2020-06-28T08:51:42.000Z</time>
      </trkpt>
      <trkpt lat="45.6825" lon="6.61669">
        <ele>1528.8000488281</ele>
        <time>2020-06-28T08:51:50.000Z</time>
      </trkpt>
      <trkpt lat="45.68229" lon="6.61646">
        <ele>1529.5999755859</ele>
        <time>2020-06-28T08:51:57.000Z</time>
      </trkpt>
      <trkpt lat="45.68207" lon="6.61625">
        <ele>1530.8000488281</ele>
        <time>2020-06-28T08:52:04.000Z</time>
      </trkpt>
      <trkpt lat="45.68201" lon="6.61619">
        <ele>1531.1999511719</ele>
        <time>2020-06-28T08:52:06.000Z</time>
      </trkpt>
      <trkpt lat="45.68181" lon="6.61601">
        <ele>1531.8000488281</ele>
        <time>2020-06-28T08:52:12.000Z</time>
      </trkpt>
      <trkpt lat="45.68165" lon="6.61586">
        <ele>1532.1999511719</ele>
        <time>2020-06-28T08:52:17.000Z</time>
      </trkpt>
      <trkpt lat="45.68155" lon="6.61578">
        <ele>1532.8000488281</ele>
        <time>2020-06-28T08:52:20.000Z</time>
      </trkpt>
      <trkpt lat="45.68137" lon="6.61562">
        <ele>1533.4000244141</ele>
        <time>2020-06-28T08:52:26.000Z</time>
      </trkpt>
      <trkpt lat="45.68123" lon="6.61552">
        <ele>1533.8000488281</ele>
        <time>2020-06-28T08:52:30.000Z</time>
      </trkpt>
      <trkpt lat="45.6811" lon="6.61545">
        <ele>1534.4000244141</ele>
        <time>2020-06-28T08:52:34.000Z</time>
      </trkpt>
      <trkpt lat="45.68099" lon="6.61539">
        <ele>1534.8000488281</ele>
        <time>2020-06-28T08:52:38.000Z</time>
      </trkpt>
      <trkpt lat="45.68085" lon="6.61533">
        <ele>1536</ele>
        <time>2020-06-28T08:52:43.000Z</time>
      </trkpt>
      <trkpt lat="45.6807" lon="6.61526">
        <ele>1537</ele>
        <time>2020-06-28T08:52:49.000Z</time>
      </trkpt>
      <trkpt lat="45.68065" lon="6.61524">
        <ele>1537.4000244141</ele>
        <time>2020-06-28T08:52:51.000Z</time>
      </trkpt>
      <trkpt lat="45.68057" lon="6.6152">
        <ele>1537.8000488281</ele>
        <time>2020-06-28T08:52:55.000Z</time>
      </trkpt>
      <trkpt lat="45.68054" lon="6.61514">
        <ele>1538.4000244141</ele>
        <time>2020-06-28T08:52:58.000Z</time>
      </trkpt>
      <trkpt lat="45.68059" lon="6.61508">
        <ele>1539</ele>
        <time>2020-06-28T08:53:01.000Z</time>
      </trkpt>
      <trkpt lat="45.68069" lon="6.6151">
        <ele>1539.8000488281</ele>
        <time>2020-06-28T08:53:05.000Z</time>
      </trkpt>
      <trkpt lat="45.68075" lon="6.61512">
        <ele>1540</ele>
        <time>2020-06-28T08:53:07.000Z</time>
      </trkpt>
      <trkpt lat="45.68077" lon="6.61512">
        <ele>1540.4000244141</ele>
        <time>2020-06-28T08:53:08.000Z</time>
      </trkpt>
      <trkpt lat="45.68084" lon="6.61515">
        <ele>1541.1999511719</ele>
        <time>2020-06-28T08:53:11.000Z</time>
      </trkpt>
      <trkpt lat="45.68093" lon="6.61517">
        <ele>1542.1999511719</ele>
        <time>2020-06-28T08:53:15.000Z</time>
      </trkpt>
      <trkpt lat="45.68103" lon="6.61519">
        <ele>1543</ele>
        <time>2020-06-28T08:53:19.000Z</time>
      </trkpt>
      <trkpt lat="45.68108" lon="6.6152">
        <ele>1543.1999511719</ele>
        <time>2020-06-28T08:53:21.000Z</time>
      </trkpt>
      <trkpt lat="45.6812" lon="6.61521">
        <ele>1544.1999511719</ele>
        <time>2020-06-28T08:53:26.000Z</time>
      </trkpt>
      <trkpt lat="45.68124" lon="6.61522">
        <ele>1544.4000244141</ele>
        <time>2020-06-28T08:53:28.000Z</time>
      </trkpt>
      <trkpt lat="45.68138" lon="6.61524">
        <ele>1545.1999511719</ele>
        <time>2020-06-28T08:53:34.000Z</time>
      </trkpt>
      <trkpt lat="45.6814" lon="6.61525">
        <ele>1545.5999755859</ele>
        <time>2020-06-28T08:53:35.000Z</time>
      </trkpt>
      <trkpt lat="45.68152" lon="6.61527">
        <ele>1546.8000488281</ele>
        <time>2020-06-28T08:53:40.000Z</time>
      </trkpt>
      <trkpt lat="45.68157" lon="6.61528">
        <ele>1547.1999511719</ele>
        <time>2020-06-28T08:53:42.000Z</time>
      </trkpt>
      <trkpt lat="45.68166" lon="6.61529">
        <ele>1547.8000488281</ele>
        <time>2020-06-28T08:53:46.000Z</time>
      </trkpt>
      <trkpt lat="45.68174" lon="6.6153">
        <ele>1548.4000244141</ele>
        <time>2020-06-28T08:53:50.000Z</time>
      </trkpt>
      <trkpt lat="45.6818" lon="6.61531">
        <ele>1549</ele>
        <time>2020-06-28T08:53:53.000Z</time>
      </trkpt>
      <trkpt lat="45.68189" lon="6.6153">
        <ele>1549.5999755859</ele>
        <time>2020-06-28T08:53:56.000Z</time>
      </trkpt>
      <trkpt lat="45.68196" lon="6.61532">
        <ele>1550</ele>
        <time>2020-06-28T08:53:58.000Z</time>
      </trkpt>
      <trkpt lat="45.68208" lon="6.61535">
        <ele>1550.5999755859</ele>
        <time>2020-06-28T08:54:02.000Z</time>
      </trkpt>
      <trkpt lat="45.68215" lon="6.61536">
        <ele>1551</ele>
        <time>2020-06-28T08:54:04.000Z</time>
      </trkpt>
      <trkpt lat="45.68218" lon="6.61537">
        <ele>1551.1999511719</ele>
        <time>2020-06-28T08:54:05.000Z</time>
      </trkpt>
      <trkpt lat="45.68228" lon="6.61539">
        <ele>1552.5999755859</ele>
        <time>2020-06-28T08:54:08.000Z</time>
      </trkpt>
      <trkpt lat="45.68236" lon="6.61543">
        <ele>1553.5999755859</ele>
        <time>2020-06-28T08:54:11.000Z</time>
      </trkpt>
      <trkpt lat="45.68239" lon="6.61545">
        <ele>1553.8000488281</ele>
        <time>2020-06-28T08:54:12.000Z</time>
      </trkpt>
      <trkpt lat="45.68247" lon="6.6155">
        <ele>1554.8000488281</ele>
        <time>2020-06-28T08:54:15.000Z</time>
      </trkpt>
      <trkpt lat="45.68257" lon="6.61557">
        <ele>1556</ele>
        <time>2020-06-28T08:54:19.000Z</time>
      </trkpt>
      <trkpt lat="45.68259" lon="6.61559">
        <ele>1556.4000244141</ele>
        <time>2020-06-28T08:54:20.000Z</time>
      </trkpt>
      <trkpt lat="45.68266" lon="6.61565">
        <ele>1557.4000244141</ele>
        <time>2020-06-28T08:54:23.000Z</time>
      </trkpt>
      <trkpt lat="45.68273" lon="6.61575">
        <ele>1558.5999755859</ele>
        <time>2020-06-28T08:54:27.000Z</time>
      </trkpt>
      <trkpt lat="45.68279" lon="6.61585">
        <ele>1559.5999755859</ele>
        <time>2020-06-28T08:54:31.000Z</time>
      </trkpt>
      <trkpt lat="45.68285" lon="6.61596">
        <ele>1560.5999755859</ele>
        <time>2020-06-28T08:54:35.000Z</time>
      </trkpt>
      <trkpt lat="45.68286" lon="6.61599">
        <ele>1561</ele>
        <time>2020-06-28T08:54:36.000Z</time>
      </trkpt>
      <trkpt lat="45.6829" lon="6.61608">
        <ele>1562.4000244141</ele>
        <time>2020-06-28T08:54:40.000Z</time>
      </trkpt>
      <trkpt lat="45.68291" lon="6.61611">
        <ele>1562.8000488281</ele>
        <time>2020-06-28T08:54:41.000Z</time>
      </trkpt>
      <trkpt lat="45.68293" lon="6.61618">
        <ele>1563.5999755859</ele>
        <time>2020-06-28T08:54:44.000Z</time>
      </trkpt>
      <trkpt lat="45.68299" lon="6.61628">
        <ele>1564.5999755859</ele>
        <time>2020-06-28T08:54:48.000Z</time>
      </trkpt>
      <trkpt lat="45.68309" lon="6.61644">
        <ele>1565.8000488281</ele>
        <time>2020-06-28T08:54:54.000Z</time>
      </trkpt>
      <trkpt lat="45.68314" lon="6.61651">
        <ele>1566.5999755859</ele>
        <time>2020-06-28T08:54:57.000Z</time>
      </trkpt>
      <trkpt lat="45.68316" lon="6.61653">
        <ele>1567</ele>
        <time>2020-06-28T08:54:58.000Z</time>
      </trkpt>
      <trkpt lat="45.68325" lon="6.61661">
        <ele>1568.1999511719</ele>
        <time>2020-06-28T08:55:02.000Z</time>
      </trkpt>
      <trkpt lat="45.68334" lon="6.61664">
        <ele>1569.4000244141</ele>
        <time>2020-06-28T08:55:06.000Z</time>
      </trkpt>
      <trkpt lat="45.6834" lon="6.61659">
        <ele>1570</ele>
        <time>2020-06-28T08:55:09.000Z</time>
      </trkpt>
      <trkpt lat="45.6834" lon="6.61656">
        <ele>1570.4000244141</ele>
        <time>2020-06-28T08:55:10.000Z</time>
      </trkpt>
      <trkpt lat="45.68335" lon="6.61643">
        <ele>1571.4000244141</ele>
        <time>2020-06-28T08:55:14.000Z</time>
      </trkpt>
      <trkpt lat="45.68324" lon="6.6162">
        <ele>1572.4000244141</ele>
        <time>2020-06-28T08:55:21.000Z</time>
      </trkpt>
      <trkpt lat="45.68323" lon="6.61617">
        <ele>1572.5999755859</ele>
        <time>2020-06-28T08:55:22.000Z</time>
      </trkpt>
      <trkpt lat="45.68316" lon="6.61601">
        <ele>1573.8000488281</ele>
        <time>2020-06-28T08:55:27.000Z</time>
      </trkpt>
      <trkpt lat="45.68316" lon="6.61595">
        <ele>1574.1999511719</ele>
        <time>2020-06-28T08:55:29.000Z</time>
      </trkpt>
      <trkpt lat="45.68321" lon="6.61587">
        <ele>1575</ele>
        <time>2020-06-28T08:55:32.000Z</time>
      </trkpt>
      <trkpt lat="45.68323" lon="6.61584">
        <ele>1575.4000244141</ele>
        <time>2020-06-28T08:55:33.000Z</time>
      </trkpt>
      <trkpt lat="45.68326" lon="6.61582">
        <ele>1575.5999755859</ele>
        <time>2020-06-28T08:55:34.000Z</time>
      </trkpt>
      <trkpt lat="45.68332" lon="6.61579">
        <ele>1576.1999511719</ele>
        <time>2020-06-28T08:55:36.000Z</time>
      </trkpt>
      <trkpt lat="45.68341" lon="6.61575">
        <ele>1576.8000488281</ele>
        <time>2020-06-28T08:55:39.000Z</time>
      </trkpt>
      <trkpt lat="45.68352" lon="6.61574">
        <ele>1577.1999511719</ele>
        <time>2020-06-28T08:55:42.000Z</time>
      </trkpt>
      <trkpt lat="45.68367" lon="6.61571">
        <ele>1577.4000244141</ele>
        <time>2020-06-28T08:55:47.000Z</time>
      </trkpt>
      <trkpt lat="45.68382" lon="6.6156">
        <ele>1578.1999511719</ele>
        <time>2020-06-28T08:55:52.000Z</time>
      </trkpt>
      <trkpt lat="45.68384" lon="6.61557">
        <ele>1578.4000244141</ele>
        <time>2020-06-28T08:55:53.000Z</time>
      </trkpt>
      <trkpt lat="45.68397" lon="6.61542">
        <ele>1578.8000488281</ele>
        <time>2020-06-28T08:55:59.000Z</time>
      </trkpt>
      <trkpt lat="45.68402" lon="6.61535">
        <ele>1579.1999511719</ele>
        <time>2020-06-28T08:56:02.000Z</time>
      </trkpt>
      <trkpt lat="45.68408" lon="6.61524">
        <ele>1580</ele>
        <time>2020-06-28T08:56:06.000Z</time>
      </trkpt>
      <trkpt lat="45.68409" lon="6.6152">
        <ele>1580.1999511719</ele>
        <time>2020-06-28T08:56:07.000Z</time>
      </trkpt>
      <trkpt lat="45.68412" lon="6.61503">
        <ele>1581.4000244141</ele>
        <time>2020-06-28T08:56:12.000Z</time>
      </trkpt>
      <trkpt lat="45.68411" lon="6.61499">
        <ele>1581.5999755859</ele>
        <time>2020-06-28T08:56:13.000Z</time>
      </trkpt>
      <trkpt lat="45.68405" lon="6.61478">
        <ele>1582.5999755859</ele>
        <time>2020-06-28T08:56:19.000Z</time>
      </trkpt>
      <trkpt lat="45.68404" lon="6.61474">
        <ele>1583</ele>
        <time>2020-06-28T08:56:20.000Z</time>
      </trkpt>
      <trkpt lat="45.684" lon="6.61465">
        <ele>1584</ele>
        <time>2020-06-28T08:56:23.000Z</time>
      </trkpt>
      <trkpt lat="45.68395" lon="6.61457">
        <ele>1584.5999755859</ele>
        <time>2020-06-28T08:56:26.000Z</time>
      </trkpt>
      <trkpt lat="45.68391" lon="6.61449">
        <ele>1585.1999511719</ele>
        <time>2020-06-28T08:56:29.000Z</time>
      </trkpt>
      <trkpt lat="45.68383" lon="6.61437">
        <ele>1585.8000488281</ele>
        <time>2020-06-28T08:56:33.000Z</time>
      </trkpt>
      <trkpt lat="45.6838" lon="6.6143">
        <ele>1586.1999511719</ele>
        <time>2020-06-28T08:56:35.000Z</time>
      </trkpt>
      <trkpt lat="45.68371" lon="6.61408">
        <ele>1587.1999511719</ele>
        <time>2020-06-28T08:56:42.000Z</time>
      </trkpt>
      <trkpt lat="45.68366" lon="6.61389">
        <ele>1588.5999755859</ele>
        <time>2020-06-28T08:56:48.000Z</time>
      </trkpt>
      <trkpt lat="45.68364" lon="6.61379">
        <ele>1589.1999511719</ele>
        <time>2020-06-28T08:56:51.000Z</time>
      </trkpt>
      <trkpt lat="45.68361" lon="6.6137">
        <ele>1589.8000488281</ele>
        <time>2020-06-28T08:56:54.000Z</time>
      </trkpt>
      <trkpt lat="45.68358" lon="6.61358">
        <ele>1590.8000488281</ele>
        <time>2020-06-28T08:56:58.000Z</time>
      </trkpt>
      <trkpt lat="45.68355" lon="6.61348">
        <ele>1591.5999755859</ele>
        <time>2020-06-28T08:57:01.000Z</time>
      </trkpt>
      <trkpt lat="45.68355" lon="6.61345">
        <ele>1591.8000488281</ele>
        <time>2020-06-28T08:57:02.000Z</time>
      </trkpt>
      <trkpt lat="45.6835" lon="6.61331">
        <ele>1592.8000488281</ele>
        <time>2020-06-28T08:57:07.000Z</time>
      </trkpt>
      <trkpt lat="45.68349" lon="6.61326">
        <ele>1593.4000244141</ele>
        <time>2020-06-28T08:57:09.000Z</time>
      </trkpt>
      <trkpt lat="45.68347" lon="6.6132">
        <ele>1593.8000488281</ele>
        <time>2020-06-28T08:57:11.000Z</time>
      </trkpt>
      <trkpt lat="45.68337" lon="6.6131">
        <ele>1595</ele>
        <time>2020-06-28T08:57:16.000Z</time>
      </trkpt>
      <trkpt lat="45.68326" lon="6.61307">
        <ele>1596</ele>
        <time>2020-06-28T08:57:21.000Z</time>
      </trkpt>
      <trkpt lat="45.6832" lon="6.61309">
        <ele>1596.5999755859</ele>
        <time>2020-06-28T08:57:23.000Z</time>
      </trkpt>
      <trkpt lat="45.68315" lon="6.61309">
        <ele>1597.1999511719</ele>
        <time>2020-06-28T08:57:25.000Z</time>
      </trkpt>
      <trkpt lat="45.68301" lon="6.61309">
        <ele>1598.1999511719</ele>
        <time>2020-06-28T08:57:31.000Z</time>
      </trkpt>
      <trkpt lat="45.68299" lon="6.61309">
        <ele>1598.4000244141</ele>
        <time>2020-06-28T08:57:32.000Z</time>
      </trkpt>
      <trkpt lat="45.68286" lon="6.61307">
        <ele>1599.5999755859</ele>
        <time>2020-06-28T08:57:37.000Z</time>
      </trkpt>
      <trkpt lat="45.68276" lon="6.61305">
        <ele>1600.5999755859</ele>
        <time>2020-06-28T08:57:41.000Z</time>
      </trkpt>
      <trkpt lat="45.68274" lon="6.61305">
        <ele>1600.8000488281</ele>
        <time>2020-06-28T08:57:42.000Z</time>
      </trkpt>
      <trkpt lat="45.68256" lon="6.61302">
        <ele>1602</ele>
        <time>2020-06-28T08:57:49.000Z</time>
      </trkpt>
      <trkpt lat="45.68254" lon="6.61302">
        <ele>1602.5999755859</ele>
        <time>2020-06-28T08:57:50.000Z</time>
      </trkpt>
      <trkpt lat="45.68246" lon="6.61301">
        <ele>1603.1999511719</ele>
        <time>2020-06-28T08:57:53.000Z</time>
      </trkpt>
      <trkpt lat="45.6823" lon="6.61299">
        <ele>1604.4000244141</ele>
        <time>2020-06-28T08:57:59.000Z</time>
      </trkpt>
      <trkpt lat="45.68221" lon="6.61298">
        <ele>1605</ele>
        <time>2020-06-28T08:58:02.000Z</time>
      </trkpt>
      <trkpt lat="45.68213" lon="6.61298">
        <ele>1605.4000244141</ele>
        <time>2020-06-28T08:58:05.000Z</time>
      </trkpt>
      <trkpt lat="45.68198" lon="6.61298">
        <ele>1606.5999755859</ele>
        <time>2020-06-28T08:58:11.000Z</time>
      </trkpt>
      <trkpt lat="45.68196" lon="6.61296">
        <ele>1606.8000488281</ele>
        <time>2020-06-28T08:58:12.000Z</time>
      </trkpt>
      <trkpt lat="45.68194" lon="6.6129">
        <ele>1607.4000244141</ele>
        <time>2020-06-28T08:58:14.000Z</time>
      </trkpt>
      <trkpt lat="45.68195" lon="6.61286">
        <ele>1607.5999755859</ele>
        <time>2020-06-28T08:58:15.000Z</time>
      </trkpt>
      <trkpt lat="45.682" lon="6.61281">
        <ele>1608.4000244141</ele>
        <time>2020-06-28T08:58:18.000Z</time>
      </trkpt>
      <trkpt lat="45.68203" lon="6.6128">
        <ele>1608.5999755859</ele>
        <time>2020-06-28T08:58:19.000Z</time>
      </trkpt>
      <trkpt lat="45.68211" lon="6.6128">
        <ele>1609.1999511719</ele>
        <time>2020-06-28T08:58:22.000Z</time>
      </trkpt>
      <trkpt lat="45.68216" lon="6.61279">
        <ele>1609.8000488281</ele>
        <time>2020-06-28T08:58:24.000Z</time>
      </trkpt>
      <trkpt lat="45.68226" lon="6.61275">
        <ele>1611</ele>
        <time>2020-06-28T08:58:28.000Z</time>
      </trkpt>
      <trkpt lat="45.68235" lon="6.61271">
        <ele>1612.4000244141</ele>
        <time>2020-06-28T08:58:32.000Z</time>
      </trkpt>
      <trkpt lat="45.68238" lon="6.6127">
        <ele>1612.5999755859</ele>
        <time>2020-06-28T08:58:33.000Z</time>
      </trkpt>
      <trkpt lat="45.68246" lon="6.61265">
        <ele>1613.5999755859</ele>
        <time>2020-06-28T08:58:37.000Z</time>
      </trkpt>
      <trkpt lat="45.68257" lon="6.61259">
        <ele>1614.8000488281</ele>
        <time>2020-06-28T08:58:42.000Z</time>
      </trkpt>
      <trkpt lat="45.68263" lon="6.61256">
        <ele>1616.1999511719</ele>
        <time>2020-06-28T08:58:45.000Z</time>
      </trkpt>
      <trkpt lat="45.6827" lon="6.61251">
        <ele>1617.1999511719</ele>
        <time>2020-06-28T08:58:49.000Z</time>
      </trkpt>
      <trkpt lat="45.68279" lon="6.61246">
        <ele>1618.1999511719</ele>
        <time>2020-06-28T08:58:53.000Z</time>
      </trkpt>
      <trkpt lat="45.6829" lon="6.61242">
        <ele>1619.4000244141</ele>
        <time>2020-06-28T08:58:58.000Z</time>
      </trkpt>
      <trkpt lat="45.68297" lon="6.61238">
        <ele>1620</ele>
        <time>2020-06-28T08:59:01.000Z</time>
      </trkpt>
      <trkpt lat="45.68301" lon="6.61235">
        <ele>1620.5999755859</ele>
        <time>2020-06-28T08:59:03.000Z</time>
      </trkpt>
      <trkpt lat="45.68309" lon="6.61229">
        <ele>1621.8000488281</ele>
        <time>2020-06-28T08:59:07.000Z</time>
      </trkpt>
      <trkpt lat="45.68317" lon="6.61224">
        <ele>1622.8000488281</ele>
        <time>2020-06-28T08:59:11.000Z</time>
      </trkpt>
      <trkpt lat="45.68318" lon="6.61223">
        <ele>1623</ele>
        <time>2020-06-28T08:59:12.000Z</time>
      </trkpt>
      <trkpt lat="45.68326" lon="6.61219">
        <ele>1624.1999511719</ele>
        <time>2020-06-28T08:59:16.000Z</time>
      </trkpt>
      <trkpt lat="45.68334" lon="6.61216">
        <ele>1625.1999511719</ele>
        <time>2020-06-28T08:59:20.000Z</time>
      </trkpt>
      <trkpt lat="45.68336" lon="6.61215">
        <ele>1625.4000244141</ele>
        <time>2020-06-28T08:59:21.000Z</time>
      </trkpt>
      <trkpt lat="45.68346" lon="6.61209">
        <ele>1626.5999755859</ele>
        <time>2020-06-28T08:59:26.000Z</time>
      </trkpt>
      <trkpt lat="45.68352" lon="6.61204">
        <ele>1627.5999755859</ele>
        <time>2020-06-28T08:59:29.000Z</time>
      </trkpt>
      <trkpt lat="45.68354" lon="6.61203">
        <ele>1627.8000488281</ele>
        <time>2020-06-28T08:59:30.000Z</time>
      </trkpt>
      <trkpt lat="45.68362" lon="6.61199">
        <ele>1628.8000488281</ele>
        <time>2020-06-28T08:59:34.000Z</time>
      </trkpt>
      <trkpt lat="45.68367" lon="6.612">
        <ele>1629.4000244141</ele>
        <time>2020-06-28T08:59:36.000Z</time>
      </trkpt>
      <trkpt lat="45.68372" lon="6.61202">
        <ele>1629.8000488281</ele>
        <time>2020-06-28T08:59:38.000Z</time>
      </trkpt>
      <trkpt lat="45.68378" lon="6.61204">
        <ele>1631</ele>
        <time>2020-06-28T08:59:41.000Z</time>
      </trkpt>
      <trkpt lat="45.68385" lon="6.61206">
        <ele>1631.5999755859</ele>
        <time>2020-06-28T08:59:44.000Z</time>
      </trkpt>
      <trkpt lat="45.6839" lon="6.61207">
        <ele>1632</ele>
        <time>2020-06-28T08:59:46.000Z</time>
      </trkpt>
      <trkpt lat="45.684" lon="6.61205">
        <ele>1633.1999511719</ele>
        <time>2020-06-28T08:59:50.000Z</time>
      </trkpt>
      <trkpt lat="45.68405" lon="6.61205">
        <ele>1633.8000488281</ele>
        <time>2020-06-28T08:59:52.000Z</time>
      </trkpt>
      <trkpt lat="45.68409" lon="6.61204">
        <ele>1634</ele>
        <time>2020-06-28T08:59:54.000Z</time>
      </trkpt>
      <trkpt lat="45.68419" lon="6.61198">
        <ele>1634.8000488281</ele>
        <time>2020-06-28T08:59:59.000Z</time>
      </trkpt>
      <trkpt lat="45.6842" lon="6.61195">
        <ele>1635</ele>
        <time>2020-06-28T09:00:00.000Z</time>
      </trkpt>
      <trkpt lat="45.6842" lon="6.61191">
        <ele>1635.1999511719</ele>
        <time>2020-06-28T09:00:01.000Z</time>
      </trkpt>
      <trkpt lat="45.68418" lon="6.61185">
        <ele>1636</ele>
        <time>2020-06-28T09:00:03.000Z</time>
      </trkpt>
      <trkpt lat="45.68412" lon="6.61183">
        <ele>1636.5999755859</ele>
        <time>2020-06-28T09:00:05.000Z</time>
      </trkpt>
      <trkpt lat="45.68406" lon="6.61183">
        <ele>1637.1999511719</ele>
        <time>2020-06-28T09:00:07.000Z</time>
      </trkpt>
      <trkpt lat="45.68403" lon="6.61184">
        <ele>1637.4000244141</ele>
        <time>2020-06-28T09:00:08.000Z</time>
      </trkpt>
      <trkpt lat="45.684" lon="6.61185">
        <ele>1637.8000488281</ele>
        <time>2020-06-28T09:00:09.000Z</time>
      </trkpt>
      <trkpt lat="45.68386" lon="6.61181">
        <ele>1638.1999511719</ele>
        <time>2020-06-28T09:00:14.000Z</time>
      </trkpt>
      <trkpt lat="45.68381" lon="6.61177">
        <ele>1638.5999755859</ele>
        <time>2020-06-28T09:00:16.000Z</time>
      </trkpt>
      <trkpt lat="45.68379" lon="6.61174">
        <ele>1638.8000488281</ele>
        <time>2020-06-28T09:00:17.000Z</time>
      </trkpt>
      <trkpt lat="45.68373" lon="6.61165">
        <ele>1639.5999755859</ele>
        <time>2020-06-28T09:00:20.000Z</time>
      </trkpt>
      <trkpt lat="45.68368" lon="6.6116">
        <ele>1640</ele>
        <time>2020-06-28T09:00:22.000Z</time>
      </trkpt>
      <trkpt lat="45.68358" lon="6.61155">
        <ele>1641</ele>
        <time>2020-06-28T09:00:26.000Z</time>
      </trkpt>
      <trkpt lat="45.68355" lon="6.61156">
        <ele>1641.1999511719</ele>
        <time>2020-06-28T09:00:27.000Z</time>
      </trkpt>
      <trkpt lat="45.68343" lon="6.61162">
        <ele>1642.4000244141</ele>
        <time>2020-06-28T09:00:32.000Z</time>
      </trkpt>
      <trkpt lat="45.68341" lon="6.61162">
        <ele>1642.4000244141</ele>
        <time>2020-06-28T09:00:33.000Z</time>
      </trkpt>
      <trkpt lat="45.68332" lon="6.61161">
        <ele>1643.4000244141</ele>
        <time>2020-06-28T09:00:36.000Z</time>
      </trkpt>
      <trkpt lat="45.68327" lon="6.61159">
        <ele>1644</ele>
        <time>2020-06-28T09:00:38.000Z</time>
      </trkpt>
      <trkpt lat="45.68322" lon="6.61156">
        <ele>1644.5999755859</ele>
        <time>2020-06-28T09:00:40.000Z</time>
      </trkpt>
      <trkpt lat="45.68312" lon="6.61152">
        <ele>1645.5999755859</ele>
        <time>2020-06-28T09:00:44.000Z</time>
      </trkpt>
      <trkpt lat="45.68307" lon="6.61151">
        <ele>1646.1999511719</ele>
        <time>2020-06-28T09:00:46.000Z</time>
      </trkpt>
      <trkpt lat="45.68302" lon="6.61151">
        <ele>1646.5999755859</ele>
        <time>2020-06-28T09:00:48.000Z</time>
      </trkpt>
      <trkpt lat="45.68288" lon="6.61149">
        <ele>1647.8000488281</ele>
        <time>2020-06-28T09:00:54.000Z</time>
      </trkpt>
      <trkpt lat="45.68281" lon="6.61148">
        <ele>1648.5999755859</ele>
        <time>2020-06-28T09:00:57.000Z</time>
      </trkpt>
      <trkpt lat="45.68276" lon="6.61147">
        <ele>1649</ele>
        <time>2020-06-28T09:00:59.000Z</time>
      </trkpt>
      <trkpt lat="45.68266" lon="6.61145">
        <ele>1650.1999511719</ele>
        <time>2020-06-28T09:01:03.000Z</time>
      </trkpt>
      <trkpt lat="45.68259" lon="6.61144">
        <ele>1651.1999511719</ele>
        <time>2020-06-28T09:01:06.000Z</time>
      </trkpt>
      <trkpt lat="45.68254" lon="6.61143">
        <ele>1651.5999755859</ele>
        <time>2020-06-28T09:01:08.000Z</time>
      </trkpt>
      <trkpt lat="45.68247" lon="6.61142">
        <ele>1652.1999511719</ele>
        <time>2020-06-28T09:01:11.000Z</time>
      </trkpt>
      <trkpt lat="45.68232" lon="6.61141">
        <ele>1653.1999511719</ele>
        <time>2020-06-28T09:01:17.000Z</time>
      </trkpt>
      <trkpt lat="45.68225" lon="6.6114">
        <ele>1654</ele>
        <time>2020-06-28T09:01:20.000Z</time>
      </trkpt>
      <trkpt lat="45.68221" lon="6.61137">
        <ele>1654.4000244141</ele>
        <time>2020-06-28T09:01:22.000Z</time>
      </trkpt>
      <trkpt lat="45.68221" lon="6.61131">
        <ele>1654.5999755859</ele>
        <time>2020-06-28T09:01:24.000Z</time>
      </trkpt>
      <trkpt lat="45.68227" lon="6.61127">
        <ele>1655.1999511719</ele>
        <time>2020-06-28T09:01:27.000Z</time>
      </trkpt>
      <trkpt lat="45.68229" lon="6.61126">
        <ele>1655.5999755859</ele>
        <time>2020-06-28T09:01:28.000Z</time>
      </trkpt>
      <trkpt lat="45.68239" lon="6.61124">
        <ele>1656.5999755859</ele>
        <time>2020-06-28T09:01:32.000Z</time>
      </trkpt>
      <trkpt lat="45.68248" lon="6.61121">
        <ele>1657.5999755859</ele>
        <time>2020-06-28T09:01:36.000Z</time>
      </trkpt>
      <trkpt lat="45.68257" lon="6.61117">
        <ele>1658.8000488281</ele>
        <time>2020-06-28T09:01:40.000Z</time>
      </trkpt>
      <trkpt lat="45.68266" lon="6.61113">
        <ele>1659.8000488281</ele>
        <time>2020-06-28T09:01:44.000Z</time>
      </trkpt>
      <trkpt lat="45.68274" lon="6.61108">
        <ele>1661</ele>
        <time>2020-06-28T09:01:48.000Z</time>
      </trkpt>
      <trkpt lat="45.68279" lon="6.61103">
        <ele>1662</ele>
        <time>2020-06-28T09:01:52.000Z</time>
      </trkpt>
      <trkpt lat="45.68281" lon="6.61102">
        <ele>1662.4000244141</ele>
        <time>2020-06-28T09:01:54.000Z</time>
      </trkpt>
      <trkpt lat="45.68284" lon="6.611">
        <ele>1663.1999511719</ele>
        <time>2020-06-28T09:01:57.000Z</time>
      </trkpt>
      <trkpt lat="45.68288" lon="6.61095">
        <ele>1664.1999511719</ele>
        <time>2020-06-28T09:02:03.000Z</time>
      </trkpt>
      <trkpt lat="45.68288" lon="6.61095">
        <ele>1664.1999511719</ele>
        <time>2020-06-28T09:02:04.000Z</time>
      </trkpt>
      <trkpt lat="45.68289" lon="6.61093">
        <ele>1664.5999755859</ele>
        <time>2020-06-28T09:03:28.000Z</time>
      </trkpt>
      <trkpt lat="45.68292" lon="6.6109">
        <ele>1664.5999755859</ele>
        <time>2020-06-28T09:03:30.000Z</time>
      </trkpt>
      <trkpt lat="45.68306" lon="6.61075">
        <ele>1664.5999755859</ele>
        <time>2020-06-28T09:03:36.000Z</time>
      </trkpt>
      <trkpt lat="45.68323" lon="6.61059">
        <ele>1665</ele>
        <time>2020-06-28T09:03:43.000Z</time>
      </trkpt>
      <trkpt lat="45.68327" lon="6.61055">
        <ele>1665.5999755859</ele>
        <time>2020-06-28T09:03:45.000Z</time>
      </trkpt>
      <trkpt lat="45.68333" lon="6.61044">
        <ele>1666.5999755859</ele>
        <time>2020-06-28T09:03:49.000Z</time>
      </trkpt>
      <trkpt lat="45.68334" lon="6.61041">
        <ele>1666.8000488281</ele>
        <time>2020-06-28T09:03:50.000Z</time>
      </trkpt>
      <trkpt lat="45.68337" lon="6.61034">
        <ele>1667.5999755859</ele>
        <time>2020-06-28T09:03:53.000Z</time>
      </trkpt>
      <trkpt lat="45.68342" lon="6.61023">
        <ele>1668.5999755859</ele>
        <time>2020-06-28T09:03:57.000Z</time>
      </trkpt>
      <trkpt lat="45.68344" lon="6.61021">
        <ele>1668.8000488281</ele>
        <time>2020-06-28T09:03:58.000Z</time>
      </trkpt>
      <trkpt lat="45.68356" lon="6.61007">
        <ele>1670</ele>
        <time>2020-06-28T09:04:05.000Z</time>
      </trkpt>
      <trkpt lat="45.6837" lon="6.61002">
        <ele>1671</ele>
        <time>2020-06-28T09:04:11.000Z</time>
      </trkpt>
      <trkpt lat="45.68372" lon="6.61002">
        <ele>1671.1999511719</ele>
        <time>2020-06-28T09:04:12.000Z</time>
      </trkpt>
      <trkpt lat="45.68381" lon="6.61004">
        <ele>1672.1999511719</ele>
        <time>2020-06-28T09:04:16.000Z</time>
      </trkpt>
      <trkpt lat="45.6839" lon="6.61007">
        <ele>1673.1999511719</ele>
        <time>2020-06-28T09:04:20.000Z</time>
      </trkpt>
      <trkpt lat="45.68392" lon="6.61007">
        <ele>1673.4000244141</ele>
        <time>2020-06-28T09:04:21.000Z</time>
      </trkpt>
      <trkpt lat="45.68404" lon="6.61004">
        <ele>1674.5999755859</ele>
        <time>2020-06-28T09:04:26.000Z</time>
      </trkpt>
      <trkpt lat="45.68407" lon="6.61003">
        <ele>1674.8000488281</ele>
        <time>2020-06-28T09:04:27.000Z</time>
      </trkpt>
      <trkpt lat="45.68416" lon="6.60995">
        <ele>1675.5999755859</ele>
        <time>2020-06-28T09:04:32.000Z</time>
      </trkpt>
      <trkpt lat="45.68419" lon="6.60992">
        <ele>1675.8000488281</ele>
        <time>2020-06-28T09:04:34.000Z</time>
      </trkpt>
      <trkpt lat="45.68429" lon="6.60979">
        <ele>1676.5999755859</ele>
        <time>2020-06-28T09:04:40.000Z</time>
      </trkpt>
      <trkpt lat="45.68432" lon="6.60975">
        <ele>1676.8000488281</ele>
        <time>2020-06-28T09:04:42.000Z</time>
      </trkpt>
      <trkpt lat="45.68442" lon="6.60959">
        <ele>1677.5999755859</ele>
        <time>2020-06-28T09:04:49.000Z</time>
      </trkpt>
      <trkpt lat="45.68443" lon="6.60957">
        <ele>1677.5999755859</ele>
        <time>2020-06-28T09:04:50.000Z</time>
      </trkpt>
      <trkpt lat="45.68448" lon="6.6094">
        <ele>1678.1999511719</ele>
        <time>2020-06-28T09:04:55.000Z</time>
      </trkpt>
      <trkpt lat="45.68449" lon="6.60917">
        <ele>1678.5999755859</ele>
        <time>2020-06-28T09:05:01.000Z</time>
      </trkpt>
      <trkpt lat="45.68449" lon="6.60913">
        <ele>1678.8000488281</ele>
        <time>2020-06-28T09:05:02.000Z</time>
      </trkpt>
      <trkpt lat="45.68452" lon="6.60887">
        <ele>1679.5999755859</ele>
        <time>2020-06-28T09:05:09.000Z</time>
      </trkpt>
      <trkpt lat="45.6846" lon="6.60864">
        <ele>1680.8000488281</ele>
        <time>2020-06-28T09:05:16.000Z</time>
      </trkpt>
      <trkpt lat="45.68462" lon="6.6086">
        <ele>1681.1999511719</ele>
        <time>2020-06-28T09:05:17.000Z</time>
      </trkpt>
      <trkpt lat="45.68473" lon="6.60844">
        <ele>1681.8000488281</ele>
        <time>2020-06-28T09:05:23.000Z</time>
      </trkpt>
      <trkpt lat="45.68475" lon="6.60842">
        <ele>1682</ele>
        <time>2020-06-28T09:05:24.000Z</time>
      </trkpt>
      <trkpt lat="45.68491" lon="6.60838">
        <ele>1682.8000488281</ele>
        <time>2020-06-28T09:05:30.000Z</time>
      </trkpt>
      <trkpt lat="45.68493" lon="6.60838">
        <ele>1683</ele>
        <time>2020-06-28T09:05:31.000Z</time>
      </trkpt>
      <trkpt lat="45.68506" lon="6.60843">
        <ele>1684</ele>
        <time>2020-06-28T09:05:36.000Z</time>
      </trkpt>
      <trkpt lat="45.68514" lon="6.60848">
        <ele>1685</ele>
        <time>2020-06-28T09:05:39.000Z</time>
      </trkpt>
      <trkpt lat="45.68524" lon="6.60851">
        <ele>1686.1999511719</ele>
        <time>2020-06-28T09:05:43.000Z</time>
      </trkpt>
      <trkpt lat="45.68534" lon="6.60851">
        <ele>1687.1999511719</ele>
        <time>2020-06-28T09:05:47.000Z</time>
      </trkpt>
      <trkpt lat="45.68547" lon="6.60844">
        <ele>1688</ele>
        <time>2020-06-28T09:05:52.000Z</time>
      </trkpt>
      <trkpt lat="45.68555" lon="6.60839">
        <ele>1688.4000244141</ele>
        <time>2020-06-28T09:05:55.000Z</time>
      </trkpt>
      <trkpt lat="45.6857" lon="6.60825">
        <ele>1689.1999511719</ele>
        <time>2020-06-28T09:06:01.000Z</time>
      </trkpt>
      <trkpt lat="45.68578" lon="6.60815">
        <ele>1689.4000244141</ele>
        <time>2020-06-28T09:06:04.000Z</time>
      </trkpt>
      <trkpt lat="45.68603" lon="6.60785">
        <ele>1689.8000488281</ele>
        <time>2020-06-28T09:06:13.000Z</time>
      </trkpt>
      <trkpt lat="45.68628" lon="6.60758">
        <ele>1690.1999511719</ele>
        <time>2020-06-28T09:06:22.000Z</time>
      </trkpt>
      <trkpt lat="45.6863" lon="6.60754">
        <ele>1690.1999511719</ele>
        <time>2020-06-28T09:06:23.000Z</time>
      </trkpt>
      <trkpt lat="45.68645" lon="6.60727">
        <ele>1691</ele>
        <time>2020-06-28T09:06:30.000Z</time>
      </trkpt>
      <trkpt lat="45.68648" lon="6.60717">
        <ele>1691.1999511719</ele>
        <time>2020-06-28T09:06:32.000Z</time>
      </trkpt>
      <trkpt lat="45.68658" lon="6.60691">
        <ele>1692</ele>
        <time>2020-06-28T09:06:37.000Z</time>
      </trkpt>
      <trkpt lat="45.68676" lon="6.60654">
        <ele>1692.1999511719</ele>
        <time>2020-06-28T09:06:46.000Z</time>
      </trkpt>
      <trkpt lat="45.68692" lon="6.60632">
        <ele>1693</ele>
        <time>2020-06-28T09:06:53.000Z</time>
      </trkpt>
      <trkpt lat="45.68696" lon="6.60623">
        <ele>1693.4000244141</ele>
        <time>2020-06-28T09:06:55.000Z</time>
      </trkpt>
      <trkpt lat="45.68708" lon="6.60598">
        <ele>1694.5999755859</ele>
        <time>2020-06-28T09:07:01.000Z</time>
      </trkpt>
      <trkpt lat="45.6872" lon="6.60568">
        <ele>1695.5999755859</ele>
        <time>2020-06-28T09:07:08.000Z</time>
      </trkpt>
      <trkpt lat="45.68721" lon="6.60563">
        <ele>1695.5999755859</ele>
        <time>2020-06-28T09:07:09.000Z</time>
      </trkpt>
      <trkpt lat="45.68725" lon="6.60544">
        <ele>1696.5999755859</ele>
        <time>2020-06-28T09:07:14.000Z</time>
      </trkpt>
      <trkpt lat="45.68726" lon="6.6054">
        <ele>1696.8000488281</ele>
        <time>2020-06-28T09:07:15.000Z</time>
      </trkpt>
      <trkpt lat="45.68729" lon="6.6052">
        <ele>1697.5999755859</ele>
        <time>2020-06-28T09:07:22.000Z</time>
      </trkpt>
      <trkpt lat="45.68729" lon="6.60518">
        <ele>1697.5999755859</ele>
        <time>2020-06-28T09:07:23.000Z</time>
      </trkpt>
      <trkpt lat="45.6873" lon="6.60514">
        <ele>1698.1999511719</ele>
        <time>2020-06-28T09:07:28.000Z</time>
      </trkpt>
      <trkpt lat="45.68728" lon="6.60522">
        <ele>1697.8000488281</ele>
        <time>2020-06-28T09:13:30.000Z</time>
      </trkpt>
      <trkpt lat="45.68725" lon="6.60526">
        <ele>1697.8000488281</ele>
        <time>2020-06-28T09:13:33.000Z</time>
      </trkpt>
      <trkpt lat="45.68724" lon="6.60532">
        <ele>1697.8000488281</ele>
        <time>2020-06-28T09:13:35.000Z</time>
      </trkpt>
      <trkpt lat="45.68722" lon="6.60543">
        <ele>1697.5999755859</ele>
        <time>2020-06-28T09:13:38.000Z</time>
      </trkpt>
      <trkpt lat="45.68716" lon="6.60572">
        <ele>1697.4000244141</ele>
        <time>2020-06-28T09:13:43.000Z</time>
      </trkpt>
      <trkpt lat="45.68715" lon="6.60579">
        <ele>1697.1999511719</ele>
        <time>2020-06-28T09:13:44.000Z</time>
      </trkpt>
      <trkpt lat="45.68707" lon="6.60595">
        <ele>1696.8000488281</ele>
        <time>2020-06-28T09:13:47.000Z</time>
      </trkpt>
      <trkpt lat="45.687" lon="6.60608">
        <ele>1696</ele>
        <time>2020-06-28T09:13:49.000Z</time>
      </trkpt>
      <trkpt lat="45.68692" lon="6.6063">
        <ele>1695.4000244141</ele>
        <time>2020-06-28T09:13:52.000Z</time>
      </trkpt>
      <trkpt lat="45.68678" lon="6.6065">
        <ele>1695</ele>
        <time>2020-06-28T09:13:55.000Z</time>
      </trkpt>
      <trkpt lat="45.68673" lon="6.60657">
        <ele>1694.5999755859</ele>
        <time>2020-06-28T09:13:56.000Z</time>
      </trkpt>
      <trkpt lat="45.68668" lon="6.60665">
        <ele>1694.1999511719</ele>
        <time>2020-06-28T09:13:57.000Z</time>
      </trkpt>
      <trkpt lat="45.68664" lon="6.60674">
        <ele>1694</ele>
        <time>2020-06-28T09:13:58.000Z</time>
      </trkpt>
      <trkpt lat="45.68655" lon="6.60692">
        <ele>1693.4000244141</ele>
        <time>2020-06-28T09:14:00.000Z</time>
      </trkpt>
      <trkpt lat="45.68652" lon="6.60702">
        <ele>1692.8000488281</ele>
        <time>2020-06-28T09:14:01.000Z</time>
      </trkpt>
      <trkpt lat="45.68642" lon="6.6073">
        <ele>1691.5999755859</ele>
        <time>2020-06-28T09:14:04.000Z</time>
      </trkpt>
      <trkpt lat="45.68638" lon="6.60738">
        <ele>1691</ele>
        <time>2020-06-28T09:14:05.000Z</time>
      </trkpt>
      <trkpt lat="45.68633" lon="6.60745">
        <ele>1690.4000244141</ele>
        <time>2020-06-28T09:14:06.000Z</time>
      </trkpt>
      <trkpt lat="45.68615" lon="6.60766">
        <ele>1689.1999511719</ele>
        <time>2020-06-28T09:14:09.000Z</time>
      </trkpt>
      <trkpt lat="45.68609" lon="6.60773">
        <ele>1689</ele>
        <time>2020-06-28T09:14:10.000Z</time>
      </trkpt>
      <trkpt lat="45.68567" lon="6.60823">
        <ele>1688.1999511719</ele>
        <time>2020-06-28T09:14:17.000Z</time>
      </trkpt>
      <trkpt lat="45.68561" lon="6.6083">
        <ele>1687.8000488281</ele>
        <time>2020-06-28T09:14:18.000Z</time>
      </trkpt>
      <trkpt lat="45.68541" lon="6.60844">
        <ele>1687.1999511719</ele>
        <time>2020-06-28T09:14:21.000Z</time>
      </trkpt>
      <trkpt lat="45.68534" lon="6.60847">
        <ele>1687.1999511719</ele>
        <time>2020-06-28T09:14:22.000Z</time>
      </trkpt>
      <trkpt lat="45.68526" lon="6.60847">
        <ele>1687</ele>
        <time>2020-06-28T09:14:23.000Z</time>
      </trkpt>
      <trkpt lat="45.68511" lon="6.60842">
        <ele>1687</ele>
        <time>2020-06-28T09:14:25.000Z</time>
      </trkpt>
      <trkpt lat="45.68494" lon="6.60836">
        <ele>1686.8000488281</ele>
        <time>2020-06-28T09:14:27.000Z</time>
      </trkpt>
      <trkpt lat="45.68468" lon="6.60844">
        <ele>1686.1999511719</ele>
        <time>2020-06-28T09:14:30.000Z</time>
      </trkpt>
      <trkpt lat="45.68461" lon="6.60853">
        <ele>1685.5999755859</ele>
        <time>2020-06-28T09:14:31.000Z</time>
      </trkpt>
      <trkpt lat="45.68451" lon="6.60875">
        <ele>1685.1999511719</ele>
        <time>2020-06-28T09:14:33.000Z</time>
      </trkpt>
      <trkpt lat="45.68448" lon="6.60886">
        <ele>1684.1999511719</ele>
        <time>2020-06-28T09:14:34.000Z</time>
      </trkpt>
      <trkpt lat="45.68446" lon="6.60897">
        <ele>1683.1999511719</ele>
        <time>2020-06-28T09:14:35.000Z</time>
      </trkpt>
      <trkpt lat="45.68445" lon="6.60908">
        <ele>1682.4000244141</ele>
        <time>2020-06-28T09:14:36.000Z</time>
      </trkpt>
      <trkpt lat="45.68445" lon="6.60919">
        <ele>1681.4000244141</ele>
        <time>2020-06-28T09:14:37.000Z</time>
      </trkpt>
      <trkpt lat="45.68445" lon="6.6093">
        <ele>1680.1999511719</ele>
        <time>2020-06-28T09:14:38.000Z</time>
      </trkpt>
      <trkpt lat="45.68442" lon="6.6095">
        <ele>1678.8000488281</ele>
        <time>2020-06-28T09:14:40.000Z</time>
      </trkpt>
      <trkpt lat="45.68428" lon="6.60973">
        <ele>1678</ele>
        <time>2020-06-28T09:14:43.000Z</time>
      </trkpt>
      <trkpt lat="45.6842" lon="6.60986">
        <ele>1677.4000244141</ele>
        <time>2020-06-28T09:14:45.000Z</time>
      </trkpt>
      <trkpt lat="45.68413" lon="6.60994">
        <ele>1676.4000244141</ele>
        <time>2020-06-28T09:14:47.000Z</time>
      </trkpt>
      <trkpt lat="45.6841" lon="6.60998">
        <ele>1676.1999511719</ele>
        <time>2020-06-28T09:14:48.000Z</time>
      </trkpt>
      <trkpt lat="45.68405" lon="6.61001">
        <ele>1676</ele>
        <time>2020-06-28T09:14:49.000Z</time>
      </trkpt>
      <trkpt lat="45.68399" lon="6.61003">
        <ele>1675.8000488281</ele>
        <time>2020-06-28T09:14:50.000Z</time>
      </trkpt>
      <trkpt lat="45.68378" lon="6.61">
        <ele>1675.1999511719</ele>
        <time>2020-06-28T09:14:53.000Z</time>
      </trkpt>
      <trkpt lat="45.68371" lon="6.60999">
        <ele>1675.1999511719</ele>
        <time>2020-06-28T09:14:54.000Z</time>
      </trkpt>
      <trkpt lat="45.6835" lon="6.61008">
        <ele>1675</ele>
        <time>2020-06-28T09:14:57.000Z</time>
      </trkpt>
      <trkpt lat="45.68335" lon="6.61032">
        <ele>1674</ele>
        <time>2020-06-28T09:15:00.000Z</time>
      </trkpt>
      <trkpt lat="45.6833" lon="6.61041">
        <ele>1673.5999755859</ele>
        <time>2020-06-28T09:15:01.000Z</time>
      </trkpt>
      <trkpt lat="45.68326" lon="6.61049">
        <ele>1672.8000488281</ele>
        <time>2020-06-28T09:15:02.000Z</time>
      </trkpt>
      <trkpt lat="45.68321" lon="6.61057">
        <ele>1671.8000488281</ele>
        <time>2020-06-28T09:15:03.000Z</time>
      </trkpt>
      <trkpt lat="45.68315" lon="6.61063">
        <ele>1670.8000488281</ele>
        <time>2020-06-28T09:15:04.000Z</time>
      </trkpt>
      <trkpt lat="45.68308" lon="6.6107">
        <ele>1669.8000488281</ele>
        <time>2020-06-28T09:15:05.000Z</time>
      </trkpt>
      <trkpt lat="45.68294" lon="6.61083">
        <ele>1668.4000244141</ele>
        <time>2020-06-28T09:15:07.000Z</time>
      </trkpt>
      <trkpt lat="45.68282" lon="6.61097">
        <ele>1667.4000244141</ele>
        <time>2020-06-28T09:15:09.000Z</time>
      </trkpt>
      <trkpt lat="45.68276" lon="6.61103">
        <ele>1667</ele>
        <time>2020-06-28T09:15:10.000Z</time>
      </trkpt>
      <trkpt lat="45.68269" lon="6.61108">
        <ele>1666.4000244141</ele>
        <time>2020-06-28T09:15:11.000Z</time>
      </trkpt>
      <trkpt lat="45.68261" lon="6.61113">
        <ele>1666</ele>
        <time>2020-06-28T09:15:12.000Z</time>
      </trkpt>
      <trkpt lat="45.68254" lon="6.61116">
        <ele>1665</ele>
        <time>2020-06-28T09:15:13.000Z</time>
      </trkpt>
      <trkpt lat="45.68247" lon="6.61119">
        <ele>1664.1999511719</ele>
        <time>2020-06-28T09:15:14.000Z</time>
      </trkpt>
      <trkpt lat="45.6824" lon="6.61121">
        <ele>1663.4000244141</ele>
        <time>2020-06-28T09:15:15.000Z</time>
      </trkpt>
      <trkpt lat="45.68233" lon="6.61123">
        <ele>1662.5999755859</ele>
        <time>2020-06-28T09:15:16.000Z</time>
      </trkpt>
      <trkpt lat="45.6822" lon="6.61126">
        <ele>1661.8000488281</ele>
        <time>2020-06-28T09:15:18.000Z</time>
      </trkpt>
      <trkpt lat="45.68217" lon="6.6113">
        <ele>1660.8000488281</ele>
        <time>2020-06-28T09:15:19.000Z</time>
      </trkpt>
      <trkpt lat="45.68216" lon="6.61135">
        <ele>1660.1999511719</ele>
        <time>2020-06-28T09:15:20.000Z</time>
      </trkpt>
      <trkpt lat="45.68217" lon="6.6114">
        <ele>1659.5999755859</ele>
        <time>2020-06-28T09:15:21.000Z</time>
      </trkpt>
      <trkpt lat="45.68221" lon="6.61143">
        <ele>1659.1999511719</ele>
        <time>2020-06-28T09:15:22.000Z</time>
      </trkpt>
      <trkpt lat="45.68232" lon="6.61146">
        <ele>1657.8000488281</ele>
        <time>2020-06-28T09:15:24.000Z</time>
      </trkpt>
      <trkpt lat="45.68239" lon="6.61146">
        <ele>1657.1999511719</ele>
        <time>2020-06-28T09:15:25.000Z</time>
      </trkpt>
      <trkpt lat="45.68247" lon="6.61146">
        <ele>1656.8000488281</ele>
        <time>2020-06-28T09:15:26.000Z</time>
      </trkpt>
      <trkpt lat="45.68272" lon="6.6115">
        <ele>1656</ele>
        <time>2020-06-28T09:15:29.000Z</time>
      </trkpt>
      <trkpt lat="45.68282" lon="6.61152">
        <ele>1655.4000244141</ele>
        <time>2020-06-28T09:15:30.000Z</time>
      </trkpt>
      <trkpt lat="45.68301" lon="6.61155">
        <ele>1654.1999511719</ele>
        <time>2020-06-28T09:15:32.000Z</time>
      </trkpt>
      <trkpt lat="45.68319" lon="6.6116">
        <ele>1652.5999755859</ele>
        <time>2020-06-28T09:15:34.000Z</time>
      </trkpt>
      <trkpt lat="45.68327" lon="6.61164">
        <ele>1651.4000244141</ele>
        <time>2020-06-28T09:15:35.000Z</time>
      </trkpt>
      <trkpt lat="45.68335" lon="6.61166">
        <ele>1650</ele>
        <time>2020-06-28T09:15:36.000Z</time>
      </trkpt>
      <trkpt lat="45.68344" lon="6.61165">
        <ele>1648.8000488281</ele>
        <time>2020-06-28T09:15:37.000Z</time>
      </trkpt>
      <trkpt lat="45.68359" lon="6.61161">
        <ele>1647</ele>
        <time>2020-06-28T09:15:39.000Z</time>
      </trkpt>
      <trkpt lat="45.68367" lon="6.61165">
        <ele>1645.8000488281</ele>
        <time>2020-06-28T09:15:40.000Z</time>
      </trkpt>
      <trkpt lat="45.68379" lon="6.6118">
        <ele>1644.1999511719</ele>
        <time>2020-06-28T09:15:42.000Z</time>
      </trkpt>
      <trkpt lat="45.68386" lon="6.61186">
        <ele>1643.5999755859</ele>
        <time>2020-06-28T09:15:43.000Z</time>
      </trkpt>
      <trkpt lat="45.68394" lon="6.61188">
        <ele>1643.1999511719</ele>
        <time>2020-06-28T09:15:44.000Z</time>
      </trkpt>
      <trkpt lat="45.68401" lon="6.61187">
        <ele>1642.5999755859</ele>
        <time>2020-06-28T09:15:45.000Z</time>
      </trkpt>
      <trkpt lat="45.68408" lon="6.61186">
        <ele>1642</ele>
        <time>2020-06-28T09:15:46.000Z</time>
      </trkpt>
      <trkpt lat="45.68413" lon="6.61187">
        <ele>1640.5999755859</ele>
        <time>2020-06-28T09:15:47.000Z</time>
      </trkpt>
      <trkpt lat="45.68413" lon="6.61197">
        <ele>1639</ele>
        <time>2020-06-28T09:15:49.000Z</time>
      </trkpt>
      <trkpt lat="45.68401" lon="6.61203">
        <ele>1638</ele>
        <time>2020-06-28T09:15:51.000Z</time>
      </trkpt>
      <trkpt lat="45.68394" lon="6.61204">
        <ele>1637.5999755859</ele>
        <time>2020-06-28T09:15:52.000Z</time>
      </trkpt>
      <trkpt lat="45.68385" lon="6.61204">
        <ele>1637.1999511719</ele>
        <time>2020-06-28T09:15:53.000Z</time>
      </trkpt>
      <trkpt lat="45.68376" lon="6.61201">
        <ele>1637</ele>
        <time>2020-06-28T09:15:54.000Z</time>
      </trkpt>
      <trkpt lat="45.68359" lon="6.61198">
        <ele>1636.5999755859</ele>
        <time>2020-06-28T09:15:56.000Z</time>
      </trkpt>
      <trkpt lat="45.6835" lon="6.61202">
        <ele>1636.1999511719</ele>
        <time>2020-06-28T09:15:57.000Z</time>
      </trkpt>
      <trkpt lat="45.68341" lon="6.61208">
        <ele>1635.5999755859</ele>
        <time>2020-06-28T09:15:58.000Z</time>
      </trkpt>
      <trkpt lat="45.68331" lon="6.61214">
        <ele>1634.8000488281</ele>
        <time>2020-06-28T09:15:59.000Z</time>
      </trkpt>
      <trkpt lat="45.68321" lon="6.61218">
        <ele>1633.8000488281</ele>
        <time>2020-06-28T09:16:00.000Z</time>
      </trkpt>
      <trkpt lat="45.68311" lon="6.61223">
        <ele>1632.5999755859</ele>
        <time>2020-06-28T09:16:01.000Z</time>
      </trkpt>
      <trkpt lat="45.68301" lon="6.6123">
        <ele>1631.1999511719</ele>
        <time>2020-06-28T09:16:02.000Z</time>
      </trkpt>
      <trkpt lat="45.68291" lon="6.61236">
        <ele>1630.1999511719</ele>
        <time>2020-06-28T09:16:03.000Z</time>
      </trkpt>
      <trkpt lat="45.68271" lon="6.61247">
        <ele>1628</ele>
        <time>2020-06-28T09:16:05.000Z</time>
      </trkpt>
      <trkpt lat="45.68261" lon="6.61253">
        <ele>1626.8000488281</ele>
        <time>2020-06-28T09:16:06.000Z</time>
      </trkpt>
      <trkpt lat="45.68251" lon="6.61259">
        <ele>1625.4000244141</ele>
        <time>2020-06-28T09:16:07.000Z</time>
      </trkpt>
      <trkpt lat="45.68242" lon="6.61265">
        <ele>1624.1999511719</ele>
        <time>2020-06-28T09:16:08.000Z</time>
      </trkpt>
      <trkpt lat="45.68233" lon="6.6127">
        <ele>1622.8000488281</ele>
        <time>2020-06-28T09:16:09.000Z</time>
      </trkpt>
      <trkpt lat="45.68223" lon="6.61274">
        <ele>1621.4000244141</ele>
        <time>2020-06-28T09:16:10.000Z</time>
      </trkpt>
      <trkpt lat="45.68215" lon="6.61276">
        <ele>1620</ele>
        <time>2020-06-28T09:16:11.000Z</time>
      </trkpt>
      <trkpt lat="45.68207" lon="6.61278">
        <ele>1618.8000488281</ele>
        <time>2020-06-28T09:16:12.000Z</time>
      </trkpt>
      <trkpt lat="45.682" lon="6.61279">
        <ele>1617.8000488281</ele>
        <time>2020-06-28T09:16:13.000Z</time>
      </trkpt>
      <trkpt lat="45.68194" lon="6.61282">
        <ele>1615.5999755859</ele>
        <time>2020-06-28T09:16:14.000Z</time>
      </trkpt>
      <trkpt lat="45.68191" lon="6.61288">
        <ele>1614.4000244141</ele>
        <time>2020-06-28T09:16:15.000Z</time>
      </trkpt>
      <trkpt lat="45.68192" lon="6.61294">
        <ele>1613.4000244141</ele>
        <time>2020-06-28T09:16:16.000Z</time>
      </trkpt>
      <trkpt lat="45.68202" lon="6.61299">
        <ele>1611.5999755859</ele>
        <time>2020-06-28T09:16:18.000Z</time>
      </trkpt>
      <trkpt lat="45.68209" lon="6.613">
        <ele>1611</ele>
        <time>2020-06-28T09:16:19.000Z</time>
      </trkpt>
      <trkpt lat="45.68226" lon="6.61301">
        <ele>1610.1999511719</ele>
        <time>2020-06-28T09:16:21.000Z</time>
      </trkpt>
      <trkpt lat="45.68235" lon="6.61302">
        <ele>1609.8000488281</ele>
        <time>2020-06-28T09:16:22.000Z</time>
      </trkpt>
      <trkpt lat="45.68264" lon="6.61305">
        <ele>1608.5999755859</ele>
        <time>2020-06-28T09:16:25.000Z</time>
      </trkpt>
      <trkpt lat="45.68284" lon="6.61309">
        <ele>1606.5999755859</ele>
        <time>2020-06-28T09:16:27.000Z</time>
      </trkpt>
      <trkpt lat="45.68295" lon="6.6131">
        <ele>1605.4000244141</ele>
        <time>2020-06-28T09:16:28.000Z</time>
      </trkpt>
      <trkpt lat="45.68305" lon="6.61311">
        <ele>1604.4000244141</ele>
        <time>2020-06-28T09:16:29.000Z</time>
      </trkpt>
      <trkpt lat="45.68315" lon="6.61311">
        <ele>1603.4000244141</ele>
        <time>2020-06-28T09:16:30.000Z</time>
      </trkpt>
      <trkpt lat="45.68324" lon="6.61312">
        <ele>1602.4000244141</ele>
        <time>2020-06-28T09:16:31.000Z</time>
      </trkpt>
      <trkpt lat="45.68333" lon="6.61315">
        <ele>1601.4000244141</ele>
        <time>2020-06-28T09:16:32.000Z</time>
      </trkpt>
      <trkpt lat="45.68342" lon="6.61322">
        <ele>1600.5999755859</ele>
        <time>2020-06-28T09:16:33.000Z</time>
      </trkpt>
      <trkpt lat="45.68348" lon="6.61333">
        <ele>1599.8000488281</ele>
        <time>2020-06-28T09:16:34.000Z</time>
      </trkpt>
      <trkpt lat="45.68353" lon="6.61346">
        <ele>1598.8000488281</ele>
        <time>2020-06-28T09:16:35.000Z</time>
      </trkpt>
      <trkpt lat="45.68357" lon="6.61359">
        <ele>1597.4000244141</ele>
        <time>2020-06-28T09:16:36.000Z</time>
      </trkpt>
      <trkpt lat="45.68361" lon="6.61373">
        <ele>1596.4000244141</ele>
        <time>2020-06-28T09:16:37.000Z</time>
      </trkpt>
      <trkpt lat="45.68373" lon="6.61414">
        <ele>1595</ele>
        <time>2020-06-28T09:16:40.000Z</time>
      </trkpt>
      <trkpt lat="45.68378" lon="6.61428">
        <ele>1594</ele>
        <time>2020-06-28T09:16:41.000Z</time>
      </trkpt>
      <trkpt lat="45.68384" lon="6.61441">
        <ele>1591.8000488281</ele>
        <time>2020-06-28T09:16:42.000Z</time>
      </trkpt>
      <trkpt lat="45.6839" lon="6.61453">
        <ele>1590.8000488281</ele>
        <time>2020-06-28T09:16:43.000Z</time>
      </trkpt>
      <trkpt lat="45.68397" lon="6.61465">
        <ele>1589.5999755859</ele>
        <time>2020-06-28T09:16:44.000Z</time>
      </trkpt>
      <trkpt lat="45.68403" lon="6.61476">
        <ele>1588.4000244141</ele>
        <time>2020-06-28T09:16:45.000Z</time>
      </trkpt>
      <trkpt lat="45.68407" lon="6.61487">
        <ele>1587.4000244141</ele>
        <time>2020-06-28T09:16:46.000Z</time>
      </trkpt>
      <trkpt lat="45.6841" lon="6.61509">
        <ele>1585.5999755859</ele>
        <time>2020-06-28T09:16:48.000Z</time>
      </trkpt>
      <trkpt lat="45.68408" lon="6.61519">
        <ele>1584.5999755859</ele>
        <time>2020-06-28T09:16:49.000Z</time>
      </trkpt>
      <trkpt lat="45.68404" lon="6.61529">
        <ele>1583.1999511719</ele>
        <time>2020-06-28T09:16:50.000Z</time>
      </trkpt>
      <trkpt lat="45.68398" lon="6.61539">
        <ele>1582.1999511719</ele>
        <time>2020-06-28T09:16:51.000Z</time>
      </trkpt>
      <trkpt lat="45.68391" lon="6.61547">
        <ele>1581.5999755859</ele>
        <time>2020-06-28T09:16:52.000Z</time>
      </trkpt>
      <trkpt lat="45.68384" lon="6.61555">
        <ele>1581.4000244141</ele>
        <time>2020-06-28T09:16:53.000Z</time>
      </trkpt>
      <trkpt lat="45.68376" lon="6.61562">
        <ele>1581.1999511719</ele>
        <time>2020-06-28T09:16:54.000Z</time>
      </trkpt>
      <trkpt lat="45.68367" lon="6.61566">
        <ele>1581</ele>
        <time>2020-06-28T09:16:55.000Z</time>
      </trkpt>
      <trkpt lat="45.6835" lon="6.61569">
        <ele>1580.4000244141</ele>
        <time>2020-06-28T09:16:57.000Z</time>
      </trkpt>
      <trkpt lat="45.68334" lon="6.61573">
        <ele>1579</ele>
        <time>2020-06-28T09:16:59.000Z</time>
      </trkpt>
      <trkpt lat="45.68326" lon="6.61576">
        <ele>1577.8000488281</ele>
        <time>2020-06-28T09:17:00.000Z</time>
      </trkpt>
      <trkpt lat="45.68319" lon="6.61579">
        <ele>1577.4000244141</ele>
        <time>2020-06-28T09:17:01.000Z</time>
      </trkpt>
      <trkpt lat="45.68313" lon="6.61589">
        <ele>1576.8000488281</ele>
        <time>2020-06-28T09:17:03.000Z</time>
      </trkpt>
      <trkpt lat="45.68318" lon="6.61613">
        <ele>1576.5999755859</ele>
        <time>2020-06-28T09:17:06.000Z</time>
      </trkpt>
      <trkpt lat="45.68335" lon="6.61637">
        <ele>1576.4000244141</ele>
        <time>2020-06-28T09:17:09.000Z</time>
      </trkpt>
      <trkpt lat="45.68339" lon="6.61645">
        <ele>1576</ele>
        <time>2020-06-28T09:17:10.000Z</time>
      </trkpt>
      <trkpt lat="45.68339" lon="6.61652">
        <ele>1576</ele>
        <time>2020-06-28T09:17:11.000Z</time>
      </trkpt>
      <trkpt lat="45.68337" lon="6.61656">
        <ele>1575.4000244141</ele>
        <time>2020-06-28T09:17:12.000Z</time>
      </trkpt>
      <trkpt lat="45.68333" lon="6.61656">
        <ele>1574.5999755859</ele>
        <time>2020-06-28T09:17:13.000Z</time>
      </trkpt>
      <trkpt lat="45.68327" lon="6.61653">
        <ele>1573.8000488281</ele>
        <time>2020-06-28T09:17:14.000Z</time>
      </trkpt>
      <trkpt lat="45.68315" lon="6.6164">
        <ele>1572.4000244141</ele>
        <time>2020-06-28T09:17:16.000Z</time>
      </trkpt>
      <trkpt lat="45.68297" lon="6.61608">
        <ele>1571.5999755859</ele>
        <time>2020-06-28T09:17:19.000Z</time>
      </trkpt>
      <trkpt lat="45.6829" lon="6.61596">
        <ele>1571.4000244141</ele>
        <time>2020-06-28T09:17:20.000Z</time>
      </trkpt>
      <trkpt lat="45.68283" lon="6.61584">
        <ele>1570.5999755859</ele>
        <time>2020-06-28T09:17:21.000Z</time>
      </trkpt>
      <trkpt lat="45.68276" lon="6.61573">
        <ele>1569.5999755859</ele>
        <time>2020-06-28T09:17:22.000Z</time>
      </trkpt>
      <trkpt lat="45.68267" lon="6.61563">
        <ele>1568.4000244141</ele>
        <time>2020-06-28T09:17:23.000Z</time>
      </trkpt>
      <trkpt lat="45.68257" lon="6.61555">
        <ele>1567.1999511719</ele>
        <time>2020-06-28T09:17:24.000Z</time>
      </trkpt>
      <trkpt lat="45.68248" lon="6.61548">
        <ele>1566</ele>
        <time>2020-06-28T09:17:25.000Z</time>
      </trkpt>
      <trkpt lat="45.68239" lon="6.61542">
        <ele>1564.4000244141</ele>
        <time>2020-06-28T09:17:26.000Z</time>
      </trkpt>
      <trkpt lat="45.68228" lon="6.61537">
        <ele>1563.1999511719</ele>
        <time>2020-06-28T09:17:27.000Z</time>
      </trkpt>
      <trkpt lat="45.68218" lon="6.61533">
        <ele>1561.8000488281</ele>
        <time>2020-06-28T09:17:28.000Z</time>
      </trkpt>
      <trkpt lat="45.68207" lon="6.61531">
        <ele>1560.4000244141</ele>
        <time>2020-06-28T09:17:29.000Z</time>
      </trkpt>
      <trkpt lat="45.68196" lon="6.61529">
        <ele>1558.8000488281</ele>
        <time>2020-06-28T09:17:30.000Z</time>
      </trkpt>
      <trkpt lat="45.68184" lon="6.61527">
        <ele>1557.5999755859</ele>
        <time>2020-06-28T09:17:31.000Z</time>
      </trkpt>
      <trkpt lat="45.68173" lon="6.61526">
        <ele>1556.5999755859</ele>
        <time>2020-06-28T09:17:32.000Z</time>
      </trkpt>
      <trkpt lat="45.68161" lon="6.61524">
        <ele>1555.5999755859</ele>
        <time>2020-06-28T09:17:33.000Z</time>
      </trkpt>
      <trkpt lat="45.6815" lon="6.61522">
        <ele>1554.4000244141</ele>
        <time>2020-06-28T09:17:34.000Z</time>
      </trkpt>
      <trkpt lat="45.68126" lon="6.61519">
        <ele>1552.4000244141</ele>
        <time>2020-06-28T09:17:36.000Z</time>
      </trkpt>
      <trkpt lat="45.68115" lon="6.61517">
        <ele>1551.4000244141</ele>
        <time>2020-06-28T09:17:37.000Z</time>
      </trkpt>
      <trkpt lat="45.68104" lon="6.61515">
        <ele>1548.8000488281</ele>
        <time>2020-06-28T09:17:38.000Z</time>
      </trkpt>
      <trkpt lat="45.68094" lon="6.61514">
        <ele>1547.1999511719</ele>
        <time>2020-06-28T09:17:39.000Z</time>
      </trkpt>
      <trkpt lat="45.68084" lon="6.61511">
        <ele>1545.5999755859</ele>
        <time>2020-06-28T09:17:40.000Z</time>
      </trkpt>
      <trkpt lat="45.68076" lon="6.61509">
        <ele>1544.4000244141</ele>
        <time>2020-06-28T09:17:41.000Z</time>
      </trkpt>
      <trkpt lat="45.68068" lon="6.61507">
        <ele>1543.5999755859</ele>
        <time>2020-06-28T09:17:42.000Z</time>
      </trkpt>
      <trkpt lat="45.68061" lon="6.61506">
        <ele>1542.5999755859</ele>
        <time>2020-06-28T09:17:43.000Z</time>
      </trkpt>
      <trkpt lat="45.68056" lon="6.61506">
        <ele>1541.8000488281</ele>
        <time>2020-06-28T09:17:44.000Z</time>
      </trkpt>
      <trkpt lat="45.68052" lon="6.61509">
        <ele>1541.1999511719</ele>
        <time>2020-06-28T09:17:45.000Z</time>
      </trkpt>
      <trkpt lat="45.68054" lon="6.6152">
        <ele>1540.8000488281</ele>
        <time>2020-06-28T09:17:47.000Z</time>
      </trkpt>
      <trkpt lat="45.68072" lon="6.61529">
        <ele>1540.5999755859</ele>
        <time>2020-06-28T09:17:50.000Z</time>
      </trkpt>
      <trkpt lat="45.68079" lon="6.61533">
        <ele>1540.5999755859</ele>
        <time>2020-06-28T09:17:51.000Z</time>
      </trkpt>
      <trkpt lat="45.68105" lon="6.61547">
        <ele>1540.1999511719</ele>
        <time>2020-06-28T09:17:54.000Z</time>
      </trkpt>
      <trkpt lat="45.68123" lon="6.61558">
        <ele>1538.8000488281</ele>
        <time>2020-06-28T09:17:56.000Z</time>
      </trkpt>
      <trkpt lat="45.68142" lon="6.61572">
        <ele>1537</ele>
        <time>2020-06-28T09:17:58.000Z</time>
      </trkpt>
      <trkpt lat="45.68151" lon="6.61579">
        <ele>1536.1999511719</ele>
        <time>2020-06-28T09:17:59.000Z</time>
      </trkpt>
      <trkpt lat="45.68159" lon="6.61586">
        <ele>1535.1999511719</ele>
        <time>2020-06-28T09:18:00.000Z</time>
      </trkpt>
      <trkpt lat="45.68168" lon="6.61594">
        <ele>1534</ele>
        <time>2020-06-28T09:18:01.000Z</time>
      </trkpt>
      <trkpt lat="45.68185" lon="6.61609">
        <ele>1532.1999511719</ele>
        <time>2020-06-28T09:18:03.000Z</time>
      </trkpt>
      <trkpt lat="45.68202" lon="6.61626">
        <ele>1530.4000244141</ele>
        <time>2020-06-28T09:18:05.000Z</time>
      </trkpt>
      <trkpt lat="45.68219" lon="6.61642">
        <ele>1530</ele>
        <time>2020-06-28T09:18:07.000Z</time>
      </trkpt>
      <trkpt lat="45.68252" lon="6.61676">
        <ele>1529.4000244141</ele>
        <time>2020-06-28T09:18:11.000Z</time>
      </trkpt>
      <trkpt lat="45.68268" lon="6.61695">
        <ele>1528.1999511719</ele>
        <time>2020-06-28T09:18:13.000Z</time>
      </trkpt>
      <trkpt lat="45.68275" lon="6.61704">
        <ele>1527.8000488281</ele>
        <time>2020-06-28T09:18:14.000Z</time>
      </trkpt>
      <trkpt lat="45.68281" lon="6.61715">
        <ele>1527.1999511719</ele>
        <time>2020-06-28T09:18:15.000Z</time>
      </trkpt>
      <trkpt lat="45.6831" lon="6.61768">
        <ele>1526.1999511719</ele>
        <time>2020-06-28T09:18:20.000Z</time>
      </trkpt>
      <trkpt lat="45.68343" lon="6.61831">
        <ele>1525.5999755859</ele>
        <time>2020-06-28T09:18:26.000Z</time>
      </trkpt>
      <trkpt lat="45.68352" lon="6.61853">
        <ele>1525.4000244141</ele>
        <time>2020-06-28T09:18:28.000Z</time>
      </trkpt>
      <trkpt lat="45.68385" lon="6.61924">
        <ele>1525.4000244141</ele>
        <time>2020-06-28T09:18:35.000Z</time>
      </trkpt>
      <trkpt lat="45.6839" lon="6.61934">
        <ele>1525.4000244141</ele>
        <time>2020-06-28T09:18:36.000Z</time>
      </trkpt>
      <trkpt lat="45.68421" lon="6.62002">
        <ele>1525.5999755859</ele>
        <time>2020-06-28T09:18:43.000Z</time>
      </trkpt>
      <trkpt lat="45.68426" lon="6.62011">
        <ele>1525.5999755859</ele>
        <time>2020-06-28T09:18:44.000Z</time>
      </trkpt>
      <trkpt lat="45.68456" lon="6.62075">
        <ele>1525.8000488281</ele>
        <time>2020-06-28T09:18:51.000Z</time>
      </trkpt>
      <trkpt lat="45.68481" lon="6.62129">
        <ele>1526</ele>
        <time>2020-06-28T09:18:57.000Z</time>
      </trkpt>
      <trkpt lat="45.68515" lon="6.622">
        <ele>1526.4000244141</ele>
        <time>2020-06-28T09:19:05.000Z</time>
      </trkpt>
      <trkpt lat="45.68519" lon="6.62208">
        <ele>1526.4000244141</ele>
        <time>2020-06-28T09:19:06.000Z</time>
      </trkpt>
      <trkpt lat="45.68555" lon="6.62277">
        <ele>1526.5999755859</ele>
        <time>2020-06-28T09:19:14.000Z</time>
      </trkpt>
      <trkpt lat="45.68564" lon="6.62293">
        <ele>1526.8000488281</ele>
        <time>2020-06-28T09:19:16.000Z</time>
      </trkpt>
      <trkpt lat="45.68603" lon="6.62344">
        <ele>1527</ele>
        <time>2020-06-28T09:19:23.000Z</time>
      </trkpt>
      <trkpt lat="45.68653" lon="6.62391">
        <ele>1527</ele>
        <time>2020-06-28T09:19:31.000Z</time>
      </trkpt>
      <trkpt lat="45.68693" lon="6.62419">
        <ele>1527</ele>
        <time>2020-06-28T09:19:37.000Z</time>
      </trkpt>
      <trkpt lat="45.68707" lon="6.62427">
        <ele>1526.8000488281</ele>
        <time>2020-06-28T09:19:39.000Z</time>
      </trkpt>
      <trkpt lat="45.68756" lon="6.62451">
        <ele>1526.8000488281</ele>
        <time>2020-06-28T09:19:46.000Z</time>
      </trkpt>
      <trkpt lat="45.68781" lon="6.62468">
        <ele>1527</ele>
        <time>2020-06-28T09:19:50.000Z</time>
      </trkpt>
      <trkpt lat="45.68786" lon="6.62472">
        <ele>1526.8000488281</ele>
        <time>2020-06-28T09:19:51.000Z</time>
      </trkpt>
      <trkpt lat="45.68799" lon="6.62493">
        <ele>1526.8000488281</ele>
        <time>2020-06-28T09:19:55.000Z</time>
      </trkpt>
      <trkpt lat="45.68807" lon="6.62517">
        <ele>1528.4000244141</ele>
        <time>2020-06-28T09:20:00.000Z</time>
      </trkpt>
      <trkpt lat="45.68809" lon="6.62521">
        <ele>1529</ele>
        <time>2020-06-28T09:20:01.000Z</time>
      </trkpt>
      <trkpt lat="45.68812" lon="6.62528">
        <ele>1529.8000488281</ele>
        <time>2020-06-28T09:20:03.000Z</time>
      </trkpt>
      <trkpt lat="45.68819" lon="6.62539">
        <ele>1531.1999511719</ele>
        <time>2020-06-28T09:20:06.000Z</time>
      </trkpt>
      <trkpt lat="45.68824" lon="6.62549">
        <ele>1532.1999511719</ele>
        <time>2020-06-28T09:20:09.000Z</time>
      </trkpt>
      <trkpt lat="45.68826" lon="6.62553">
        <ele>1532.5999755859</ele>
        <time>2020-06-28T09:20:10.000Z</time>
      </trkpt>
      <trkpt lat="45.68832" lon="6.62563">
        <ele>1533.5999755859</ele>
        <time>2020-06-28T09:20:13.000Z</time>
      </trkpt>
      <trkpt lat="45.68841" lon="6.62576">
        <ele>1534.8000488281</ele>
        <time>2020-06-28T09:20:17.000Z</time>
      </trkpt>
      <trkpt lat="45.68846" lon="6.62585">
        <ele>1535.5999755859</ele>
        <time>2020-06-28T09:20:20.000Z</time>
      </trkpt>
      <trkpt lat="45.68849" lon="6.62588">
        <ele>1535.8000488281</ele>
        <time>2020-06-28T09:20:21.000Z</time>
      </trkpt>
      <trkpt lat="45.68856" lon="6.62601">
        <ele>1537</ele>
        <time>2020-06-28T09:20:25.000Z</time>
      </trkpt>
      <trkpt lat="45.68862" lon="6.62612">
        <ele>1537.8000488281</ele>
        <time>2020-06-28T09:20:28.000Z</time>
      </trkpt>
      <trkpt lat="45.68864" lon="6.62615">
        <ele>1538</ele>
        <time>2020-06-28T09:20:29.000Z</time>
      </trkpt>
      <trkpt lat="45.68873" lon="6.62628">
        <ele>1539.1999511719</ele>
        <time>2020-06-28T09:20:33.000Z</time>
      </trkpt>
      <trkpt lat="45.68879" lon="6.62638">
        <ele>1539.4000244141</ele>
        <time>2020-06-28T09:20:36.000Z</time>
      </trkpt>
      <trkpt lat="45.68883" lon="6.6265">
        <ele>1540.1999511719</ele>
        <time>2020-06-28T09:20:39.000Z</time>
      </trkpt>
      <trkpt lat="45.68888" lon="6.62662">
        <ele>1540.8000488281</ele>
        <time>2020-06-28T09:20:42.000Z</time>
      </trkpt>
      <trkpt lat="45.68891" lon="6.6267">
        <ele>1541.4000244141</ele>
        <time>2020-06-28T09:20:44.000Z</time>
      </trkpt>
      <trkpt lat="45.68899" lon="6.62688">
        <ele>1542.4000244141</ele>
        <time>2020-06-28T09:20:48.000Z</time>
      </trkpt>
      <trkpt lat="45.68902" lon="6.62692">
        <ele>1542.5999755859</ele>
        <time>2020-06-28T09:20:49.000Z</time>
      </trkpt>
      <trkpt lat="45.68906" lon="6.62701">
        <ele>1543.4000244141</ele>
        <time>2020-06-28T09:20:51.000Z</time>
      </trkpt>
      <trkpt lat="45.68924" lon="6.6273">
        <ele>1544.1999511719</ele>
        <time>2020-06-28T09:20:57.000Z</time>
      </trkpt>
      <trkpt lat="45.68957" lon="6.6277">
        <ele>1544.4000244141</ele>
        <time>2020-06-28T09:21:05.000Z</time>
      </trkpt>
      <trkpt lat="45.6899" lon="6.62809">
        <ele>1544.4000244141</ele>
        <time>2020-06-28T09:21:12.000Z</time>
      </trkpt>
      <trkpt lat="45.69003" lon="6.62827">
        <ele>1544.1999511719</ele>
        <time>2020-06-28T09:21:15.000Z</time>
      </trkpt>
      <trkpt lat="45.69016" lon="6.62848">
        <ele>1544</ele>
        <time>2020-06-28T09:21:18.000Z</time>
      </trkpt>
      <trkpt lat="45.69048" lon="6.62892">
        <ele>1543.5999755859</ele>
        <time>2020-06-28T09:21:25.000Z</time>
      </trkpt>
      <trkpt lat="45.69053" lon="6.62897">
        <ele>1543.5999755859</ele>
        <time>2020-06-28T09:21:26.000Z</time>
      </trkpt>
      <trkpt lat="45.69075" lon="6.62914">
        <ele>1543.4000244141</ele>
        <time>2020-06-28T09:21:30.000Z</time>
      </trkpt>
      <trkpt lat="45.69108" lon="6.6294">
        <ele>1543.4000244141</ele>
        <time>2020-06-28T09:21:36.000Z</time>
      </trkpt>
      <trkpt lat="45.69155" lon="6.62986">
        <ele>1543</ele>
        <time>2020-06-28T09:21:45.000Z</time>
      </trkpt>
      <trkpt lat="45.69161" lon="6.62991">
        <ele>1543</ele>
        <time>2020-06-28T09:21:46.000Z</time>
      </trkpt>
      <trkpt lat="45.69192" lon="6.63019">
        <ele>1543</ele>
        <time>2020-06-28T09:21:52.000Z</time>
      </trkpt>
      <trkpt lat="45.69203" lon="6.63028">
        <ele>1543.1999511719</ele>
        <time>2020-06-28T09:21:54.000Z</time>
      </trkpt>
      <trkpt lat="45.6922" lon="6.63039">
        <ele>1543.1999511719</ele>
        <time>2020-06-28T09:21:57.000Z</time>
      </trkpt>
      <trkpt lat="45.69226" lon="6.63042">
        <ele>1543.1999511719</ele>
        <time>2020-06-28T09:21:58.000Z</time>
      </trkpt>
      <trkpt lat="45.69247" lon="6.63053">
        <ele>1543.4000244141</ele>
        <time>2020-06-28T09:22:02.000Z</time>
      </trkpt>
      <trkpt lat="45.69274" lon="6.63069">
        <ele>1544</ele>
        <time>2020-06-28T09:22:08.000Z</time>
      </trkpt>
      <trkpt lat="45.69278" lon="6.6307">
        <ele>1544.4000244141</ele>
        <time>2020-06-28T09:22:09.000Z</time>
      </trkpt>
      <trkpt lat="45.69288" lon="6.63073">
        <ele>1545.5999755859</ele>
        <time>2020-06-28T09:22:12.000Z</time>
      </trkpt>
      <trkpt lat="45.69293" lon="6.63075">
        <ele>1545.8000488281</ele>
        <time>2020-06-28T09:22:14.000Z</time>
      </trkpt>
      <trkpt lat="45.69296" lon="6.63076">
        <ele>1546.5999755859</ele>
        <time>2020-06-28T09:22:15.000Z</time>
      </trkpt>
      <trkpt lat="45.693" lon="6.63078">
        <ele>1547.5999755859</ele>
        <time>2020-06-28T09:22:17.000Z</time>
      </trkpt>
      <trkpt lat="45.69305" lon="6.6308">
        <ele>1549</ele>
        <time>2020-06-28T09:22:19.000Z</time>
      </trkpt>
      <trkpt lat="45.69307" lon="6.6308">
        <ele>1549.5999755859</ele>
        <time>2020-06-28T09:22:20.000Z</time>
      </trkpt>
      <trkpt lat="45.69312" lon="6.63082">
        <ele>1550.4000244141</ele>
        <time>2020-06-28T09:22:22.000Z</time>
      </trkpt>
      <trkpt lat="45.69318" lon="6.63085">
        <ele>1551.1999511719</ele>
        <time>2020-06-28T09:22:25.000Z</time>
      </trkpt>
      <trkpt lat="45.69322" lon="6.63086">
        <ele>1552</ele>
        <time>2020-06-28T09:22:27.000Z</time>
      </trkpt>
      <trkpt lat="45.69324" lon="6.63088">
        <ele>1552.4000244141</ele>
        <time>2020-06-28T09:22:28.000Z</time>
      </trkpt>
      <trkpt lat="45.69331" lon="6.63094">
        <ele>1553.5999755859</ele>
        <time>2020-06-28T09:22:32.000Z</time>
      </trkpt>
      <trkpt lat="45.69333" lon="6.63096">
        <ele>1554</ele>
        <time>2020-06-28T09:22:33.000Z</time>
      </trkpt>
      <trkpt lat="45.69336" lon="6.63099">
        <ele>1554.8000488281</ele>
        <time>2020-06-28T09:22:35.000Z</time>
      </trkpt>
      <trkpt lat="45.69338" lon="6.63103">
        <ele>1555.5999755859</ele>
        <time>2020-06-28T09:22:37.000Z</time>
      </trkpt>
      <trkpt lat="45.6934" lon="6.63105">
        <ele>1555.8000488281</ele>
        <time>2020-06-28T09:22:38.000Z</time>
      </trkpt>
      <trkpt lat="45.69341" lon="6.63107">
        <ele>1556.1999511719</ele>
        <time>2020-06-28T09:22:39.000Z</time>
      </trkpt>
      <trkpt lat="45.69344" lon="6.63111">
        <ele>1557</ele>
        <time>2020-06-28T09:22:41.000Z</time>
      </trkpt>
      <trkpt lat="45.69348" lon="6.63115">
        <ele>1558</ele>
        <time>2020-06-28T09:22:43.000Z</time>
      </trkpt>
      <trkpt lat="45.69353" lon="6.6312">
        <ele>1558.8000488281</ele>
        <time>2020-06-28T09:22:46.000Z</time>
      </trkpt>
      <trkpt lat="45.69355" lon="6.63122">
        <ele>1559.1999511719</ele>
        <time>2020-06-28T09:22:47.000Z</time>
      </trkpt>
      <trkpt lat="45.69359" lon="6.63127">
        <ele>1560.1999511719</ele>
        <time>2020-06-28T09:22:50.000Z</time>
      </trkpt>
      <trkpt lat="45.69361" lon="6.63128">
        <ele>1560.4000244141</ele>
        <time>2020-06-28T09:22:51.000Z</time>
      </trkpt>
      <trkpt lat="45.69366" lon="6.63132">
        <ele>1561.4000244141</ele>
        <time>2020-06-28T09:22:54.000Z</time>
      </trkpt>
      <trkpt lat="45.69371" lon="6.63135">
        <ele>1562.1999511719</ele>
        <time>2020-06-28T09:22:57.000Z</time>
      </trkpt>
      <trkpt lat="45.69373" lon="6.63136">
        <ele>1562.5999755859</ele>
        <time>2020-06-28T09:22:58.000Z</time>
      </trkpt>
      <trkpt lat="45.69377" lon="6.63138">
        <ele>1563.1999511719</ele>
        <time>2020-06-28T09:23:00.000Z</time>
      </trkpt>
      <trkpt lat="45.6938" lon="6.6314">
        <ele>1563.8000488281</ele>
        <time>2020-06-28T09:23:02.000Z</time>
      </trkpt>
      <trkpt lat="45.69381" lon="6.6314">
        <ele>1564</ele>
        <time>2020-06-28T09:23:03.000Z</time>
      </trkpt>
      <trkpt lat="45.69389" lon="6.63144">
        <ele>1565</ele>
        <time>2020-06-28T09:23:07.000Z</time>
      </trkpt>
      <trkpt lat="45.69393" lon="6.63148">
        <ele>1565.5999755859</ele>
        <time>2020-06-28T09:23:09.000Z</time>
      </trkpt>
      <trkpt lat="45.69398" lon="6.63156">
        <ele>1566</ele>
        <time>2020-06-28T09:23:12.000Z</time>
      </trkpt>
      <trkpt lat="45.694" lon="6.63163">
        <ele>1566.5999755859</ele>
        <time>2020-06-28T09:23:14.000Z</time>
      </trkpt>
      <trkpt lat="45.69401" lon="6.63166">
        <ele>1566.8000488281</ele>
        <time>2020-06-28T09:23:15.000Z</time>
      </trkpt>
      <trkpt lat="45.69403" lon="6.63176">
        <ele>1567.1999511719</ele>
        <time>2020-06-28T09:23:18.000Z</time>
      </trkpt>
      <trkpt lat="45.69405" lon="6.6319">
        <ele>1567.8000488281</ele>
        <time>2020-06-28T09:23:22.000Z</time>
      </trkpt>
      <trkpt lat="45.69405" lon="6.63197">
        <ele>1568.1999511719</ele>
        <time>2020-06-28T09:23:24.000Z</time>
      </trkpt>
      <trkpt lat="45.69406" lon="6.63212">
        <ele>1568.5999755859</ele>
        <time>2020-06-28T09:23:28.000Z</time>
      </trkpt>
      <trkpt lat="45.69412" lon="6.63238">
        <ele>1568.5999755859</ele>
        <time>2020-06-28T09:23:32.000Z</time>
      </trkpt>
      <trkpt lat="45.69414" lon="6.63245">
        <ele>1568.5999755859</ele>
        <time>2020-06-28T09:23:33.000Z</time>
      </trkpt>
      <trkpt lat="45.69423" lon="6.63265">
        <ele>1568.5999755859</ele>
        <time>2020-06-28T09:23:36.000Z</time>
      </trkpt>
      <trkpt lat="45.69426" lon="6.6327">
        <ele>1568.4000244141</ele>
        <time>2020-06-28T09:23:37.000Z</time>
      </trkpt>
      <trkpt lat="45.69435" lon="6.63285">
        <ele>1568</ele>
        <time>2020-06-28T09:23:40.000Z</time>
      </trkpt>
      <trkpt lat="45.69439" lon="6.63295">
        <ele>1568</ele>
        <time>2020-06-28T09:23:42.000Z</time>
      </trkpt>
      <trkpt lat="45.69448" lon="6.63314">
        <ele>1568</ele>
        <time>2020-06-28T09:23:47.000Z</time>
      </trkpt>
      <trkpt lat="45.69453" lon="6.63325">
        <ele>1569.1999511719</ele>
        <time>2020-06-28T09:23:50.000Z</time>
      </trkpt>
      <trkpt lat="45.69457" lon="6.63333">
        <ele>1570.1999511719</ele>
        <time>2020-06-28T09:23:52.000Z</time>
      </trkpt>
      <trkpt lat="45.69462" lon="6.63343">
        <ele>1571.5999755859</ele>
        <time>2020-06-28T09:23:55.000Z</time>
      </trkpt>
      <trkpt lat="45.69465" lon="6.63347">
        <ele>1572.5999755859</ele>
        <time>2020-06-28T09:23:57.000Z</time>
      </trkpt>
      <trkpt lat="45.69467" lon="6.63348">
        <ele>1573</ele>
        <time>2020-06-28T09:23:58.000Z</time>
      </trkpt>
      <trkpt lat="45.69469" lon="6.6335">
        <ele>1573.5999755859</ele>
        <time>2020-06-28T09:24:00.000Z</time>
      </trkpt>
      <trkpt lat="45.69471" lon="6.6335">
        <ele>1573.8000488281</ele>
        <time>2020-06-28T09:24:01.000Z</time>
      </trkpt>
      <trkpt lat="45.69472" lon="6.6335">
        <ele>1574</ele>
        <time>2020-06-28T09:24:02.000Z</time>
      </trkpt>
      <trkpt lat="45.69474" lon="6.63346">
        <ele>1574.5999755859</ele>
        <time>2020-06-28T09:24:04.000Z</time>
      </trkpt>
      <trkpt lat="45.69477" lon="6.63342">
        <ele>1575</ele>
        <time>2020-06-28T09:24:06.000Z</time>
      </trkpt>
      <trkpt lat="45.69479" lon="6.63339">
        <ele>1575</ele>
        <time>2020-06-28T09:24:07.000Z</time>
      </trkpt>
      <trkpt lat="45.69482" lon="6.63335">
        <ele>1575.1999511719</ele>
        <time>2020-06-28T09:24:09.000Z</time>
      </trkpt>
      <trkpt lat="45.69484" lon="6.6333">
        <ele>1575.1999511719</ele>
        <time>2020-06-28T09:24:12.000Z</time>
      </trkpt>
      <trkpt lat="45.69486" lon="6.63325">
        <ele>1575.4000244141</ele>
        <time>2020-06-28T09:24:15.000Z</time>
      </trkpt>
      <trkpt lat="45.6949" lon="6.63321">
        <ele>1575.4000244141</ele>
        <time>2020-06-28T09:24:18.000Z</time>
      </trkpt>
      <trkpt lat="45.69491" lon="6.6332">
        <ele>1575.4000244141</ele>
        <time>2020-06-28T09:24:21.000Z</time>
      </trkpt>
      <trkpt lat="45.69495" lon="6.6332">
        <ele>1575</ele>
        <time>2020-06-28T09:26:25.000Z</time>
      </trkpt>
      <trkpt lat="45.695" lon="6.63319">
        <ele>1575</ele>
        <time>2020-06-28T09:26:27.000Z</time>
      </trkpt>
      <trkpt lat="45.69517" lon="6.63311">
        <ele>1575</ele>
        <time>2020-06-28T09:26:32.000Z</time>
      </trkpt>
      <trkpt lat="45.69527" lon="6.63308">
        <ele>1575</ele>
        <time>2020-06-28T09:26:34.000Z</time>
      </trkpt>
      <trkpt lat="45.69539" lon="6.63308">
        <ele>1574.8000488281</ele>
        <time>2020-06-28T09:26:36.000Z</time>
      </trkpt>
      <trkpt lat="45.69551" lon="6.63311">
        <ele>1574.5999755859</ele>
        <time>2020-06-28T09:26:38.000Z</time>
      </trkpt>
      <trkpt lat="45.69563" lon="6.63318">
        <ele>1573.8000488281</ele>
        <time>2020-06-28T09:26:40.000Z</time>
      </trkpt>
      <trkpt lat="45.69576" lon="6.63329">
        <ele>1573</ele>
        <time>2020-06-28T09:26:42.000Z</time>
      </trkpt>
      <trkpt lat="45.69589" lon="6.6334">
        <ele>1571.8000488281</ele>
        <time>2020-06-28T09:26:44.000Z</time>
      </trkpt>
      <trkpt lat="45.69597" lon="6.63345">
        <ele>1571.4000244141</ele>
        <time>2020-06-28T09:26:45.000Z</time>
      </trkpt>
      <trkpt lat="45.69605" lon="6.6335">
        <ele>1571.1999511719</ele>
        <time>2020-06-28T09:26:46.000Z</time>
      </trkpt>
      <trkpt lat="45.69615" lon="6.63354">
        <ele>1570.5999755859</ele>
        <time>2020-06-28T09:26:47.000Z</time>
      </trkpt>
      <trkpt lat="45.69634" lon="6.6336">
        <ele>1569.4000244141</ele>
        <time>2020-06-28T09:26:49.000Z</time>
      </trkpt>
      <trkpt lat="45.69653" lon="6.63368">
        <ele>1568.1999511719</ele>
        <time>2020-06-28T09:26:51.000Z</time>
      </trkpt>
      <trkpt lat="45.69664" lon="6.63374">
        <ele>1567</ele>
        <time>2020-06-28T09:26:52.000Z</time>
      </trkpt>
      <trkpt lat="45.69674" lon="6.6338">
        <ele>1566.1999511719</ele>
        <time>2020-06-28T09:26:53.000Z</time>
      </trkpt>
      <trkpt lat="45.69685" lon="6.63386">
        <ele>1565.4000244141</ele>
        <time>2020-06-28T09:26:54.000Z</time>
      </trkpt>
      <trkpt lat="45.69707" lon="6.63394">
        <ele>1563.8000488281</ele>
        <time>2020-06-28T09:26:56.000Z</time>
      </trkpt>
      <trkpt lat="45.69718" lon="6.63397">
        <ele>1562.8000488281</ele>
        <time>2020-06-28T09:26:57.000Z</time>
      </trkpt>
      <trkpt lat="45.6973" lon="6.63399">
        <ele>1562.1999511719</ele>
        <time>2020-06-28T09:26:58.000Z</time>
      </trkpt>
      <trkpt lat="45.69754" lon="6.63396">
        <ele>1560.5999755859</ele>
        <time>2020-06-28T09:27:00.000Z</time>
      </trkpt>
      <trkpt lat="45.69775" lon="6.63392">
        <ele>1559.4000244141</ele>
        <time>2020-06-28T09:27:02.000Z</time>
      </trkpt>
      <trkpt lat="45.69786" lon="6.63391">
        <ele>1558.5999755859</ele>
        <time>2020-06-28T09:27:03.000Z</time>
      </trkpt>
      <trkpt lat="45.69795" lon="6.63394">
        <ele>1557.8000488281</ele>
        <time>2020-06-28T09:27:04.000Z</time>
      </trkpt>
      <trkpt lat="45.69814" lon="6.63411">
        <ele>1556.4000244141</ele>
        <time>2020-06-28T09:27:06.000Z</time>
      </trkpt>
      <trkpt lat="45.69825" lon="6.63419">
        <ele>1556</ele>
        <time>2020-06-28T09:27:07.000Z</time>
      </trkpt>
      <trkpt lat="45.69836" lon="6.63424">
        <ele>1555.4000244141</ele>
        <time>2020-06-28T09:27:08.000Z</time>
      </trkpt>
      <trkpt lat="45.69848" lon="6.63427">
        <ele>1554.8000488281</ele>
        <time>2020-06-28T09:27:09.000Z</time>
      </trkpt>
      <trkpt lat="45.69861" lon="6.63428">
        <ele>1554.1999511719</ele>
        <time>2020-06-28T09:27:10.000Z</time>
      </trkpt>
      <trkpt lat="45.69887" lon="6.63427">
        <ele>1552.1999511719</ele>
        <time>2020-06-28T09:27:12.000Z</time>
      </trkpt>
      <trkpt lat="45.69902" lon="6.63424">
        <ele>1551.4000244141</ele>
        <time>2020-06-28T09:27:13.000Z</time>
      </trkpt>
      <trkpt lat="45.69916" lon="6.63418">
        <ele>1550.4000244141</ele>
        <time>2020-06-28T09:27:14.000Z</time>
      </trkpt>
      <trkpt lat="45.69929" lon="6.63411">
        <ele>1549.5999755859</ele>
        <time>2020-06-28T09:27:15.000Z</time>
      </trkpt>
      <trkpt lat="45.6994" lon="6.63403">
        <ele>1548.5999755859</ele>
        <time>2020-06-28T09:27:16.000Z</time>
      </trkpt>
      <trkpt lat="45.69951" lon="6.63395">
        <ele>1547.1999511719</ele>
        <time>2020-06-28T09:27:17.000Z</time>
      </trkpt>
      <trkpt lat="45.69962" lon="6.63391">
        <ele>1546.1999511719</ele>
        <time>2020-06-28T09:27:18.000Z</time>
      </trkpt>
      <trkpt lat="45.69973" lon="6.63389">
        <ele>1545.1999511719</ele>
        <time>2020-06-28T09:27:19.000Z</time>
      </trkpt>
      <trkpt lat="45.69984" lon="6.63389">
        <ele>1542.8000488281</ele>
        <time>2020-06-28T09:27:20.000Z</time>
      </trkpt>
      <trkpt lat="45.69997" lon="6.63391">
        <ele>1541.1999511719</ele>
        <time>2020-06-28T09:27:21.000Z</time>
      </trkpt>
      <trkpt lat="45.7001" lon="6.63392">
        <ele>1539.8000488281</ele>
        <time>2020-06-28T09:27:22.000Z</time>
      </trkpt>
      <trkpt lat="45.70036" lon="6.63392">
        <ele>1538.1999511719</ele>
        <time>2020-06-28T09:27:24.000Z</time>
      </trkpt>
      <trkpt lat="45.70064" lon="6.63392">
        <ele>1536.8000488281</ele>
        <time>2020-06-28T09:27:26.000Z</time>
      </trkpt>
      <trkpt lat="45.70078" lon="6.63392">
        <ele>1535.5999755859</ele>
        <time>2020-06-28T09:27:27.000Z</time>
      </trkpt>
      <trkpt lat="45.70107" lon="6.6339">
        <ele>1533.8000488281</ele>
        <time>2020-06-28T09:27:29.000Z</time>
      </trkpt>
      <trkpt lat="45.70121" lon="6.63388">
        <ele>1532.4000244141</ele>
        <time>2020-06-28T09:27:30.000Z</time>
      </trkpt>
      <trkpt lat="45.70136" lon="6.63387">
        <ele>1531</ele>
        <time>2020-06-28T09:27:31.000Z</time>
      </trkpt>
      <trkpt lat="45.7015" lon="6.63386">
        <ele>1529.5999755859</ele>
        <time>2020-06-28T09:27:32.000Z</time>
      </trkpt>
      <trkpt lat="45.70164" lon="6.63385">
        <ele>1528.1999511719</ele>
        <time>2020-06-28T09:27:33.000Z</time>
      </trkpt>
      <trkpt lat="45.70177" lon="6.63384">
        <ele>1527.1999511719</ele>
        <time>2020-06-28T09:27:34.000Z</time>
      </trkpt>
      <trkpt lat="45.70191" lon="6.63382">
        <ele>1525.8000488281</ele>
        <time>2020-06-28T09:27:35.000Z</time>
      </trkpt>
      <trkpt lat="45.70205" lon="6.6338">
        <ele>1524</ele>
        <time>2020-06-28T09:27:36.000Z</time>
      </trkpt>
      <trkpt lat="45.70219" lon="6.63377">
        <ele>1522.1999511719</ele>
        <time>2020-06-28T09:27:37.000Z</time>
      </trkpt>
      <trkpt lat="45.70232" lon="6.63374">
        <ele>1521</ele>
        <time>2020-06-28T09:27:38.000Z</time>
      </trkpt>
      <trkpt lat="45.7026" lon="6.63368">
        <ele>1519.5999755859</ele>
        <time>2020-06-28T09:27:40.000Z</time>
      </trkpt>
      <trkpt lat="45.70287" lon="6.63359">
        <ele>1518.1999511719</ele>
        <time>2020-06-28T09:27:42.000Z</time>
      </trkpt>
      <trkpt lat="45.70301" lon="6.63355">
        <ele>1517</ele>
        <time>2020-06-28T09:27:43.000Z</time>
      </trkpt>
      <trkpt lat="45.70314" lon="6.63351">
        <ele>1515.8000488281</ele>
        <time>2020-06-28T09:27:44.000Z</time>
      </trkpt>
      <trkpt lat="45.70327" lon="6.6335">
        <ele>1514.4000244141</ele>
        <time>2020-06-28T09:27:45.000Z</time>
      </trkpt>
      <trkpt lat="45.7034" lon="6.63353">
        <ele>1513.1999511719</ele>
        <time>2020-06-28T09:27:46.000Z</time>
      </trkpt>
      <trkpt lat="45.70353" lon="6.63358">
        <ele>1511.4000244141</ele>
        <time>2020-06-28T09:27:47.000Z</time>
      </trkpt>
      <trkpt lat="45.7038" lon="6.63364">
        <ele>1509.5999755859</ele>
        <time>2020-06-28T09:27:49.000Z</time>
      </trkpt>
      <trkpt lat="45.70393" lon="6.63362">
        <ele>1508.1999511719</ele>
        <time>2020-06-28T09:27:50.000Z</time>
      </trkpt>
      <trkpt lat="45.70405" lon="6.63358">
        <ele>1507.1999511719</ele>
        <time>2020-06-28T09:27:51.000Z</time>
      </trkpt>
      <trkpt lat="45.70416" lon="6.63357">
        <ele>1506</ele>
        <time>2020-06-28T09:27:52.000Z</time>
      </trkpt>
      <trkpt lat="45.70427" lon="6.63356">
        <ele>1504.5999755859</ele>
        <time>2020-06-28T09:27:53.000Z</time>
      </trkpt>
      <trkpt lat="45.70439" lon="6.63359">
        <ele>1503.4000244141</ele>
        <time>2020-06-28T09:27:54.000Z</time>
      </trkpt>
      <trkpt lat="45.70451" lon="6.63363">
        <ele>1502.1999511719</ele>
        <time>2020-06-28T09:27:55.000Z</time>
      </trkpt>
      <trkpt lat="45.70464" lon="6.63364">
        <ele>1500.8000488281</ele>
        <time>2020-06-28T09:27:56.000Z</time>
      </trkpt>
      <trkpt lat="45.70477" lon="6.63365">
        <ele>1499.4000244141</ele>
        <time>2020-06-28T09:27:57.000Z</time>
      </trkpt>
      <trkpt lat="45.70504" lon="6.63365">
        <ele>1498.1999511719</ele>
        <time>2020-06-28T09:27:59.000Z</time>
      </trkpt>
      <trkpt lat="45.70518" lon="6.63365">
        <ele>1497.8000488281</ele>
        <time>2020-06-28T09:28:00.000Z</time>
      </trkpt>
      <trkpt lat="45.70532" lon="6.63365">
        <ele>1496.8000488281</ele>
        <time>2020-06-28T09:28:01.000Z</time>
      </trkpt>
      <trkpt lat="45.70561" lon="6.6336">
        <ele>1494.8000488281</ele>
        <time>2020-06-28T09:28:03.000Z</time>
      </trkpt>
      <trkpt lat="45.70574" lon="6.63356">
        <ele>1493.5999755859</ele>
        <time>2020-06-28T09:28:04.000Z</time>
      </trkpt>
      <trkpt lat="45.70588" lon="6.63352">
        <ele>1492.1999511719</ele>
        <time>2020-06-28T09:28:05.000Z</time>
      </trkpt>
      <trkpt lat="45.70602" lon="6.6335">
        <ele>1490.4000244141</ele>
        <time>2020-06-28T09:28:06.000Z</time>
      </trkpt>
      <trkpt lat="45.70615" lon="6.63348">
        <ele>1488.5999755859</ele>
        <time>2020-06-28T09:28:07.000Z</time>
      </trkpt>
      <trkpt lat="45.70628" lon="6.63345">
        <ele>1487.1999511719</ele>
        <time>2020-06-28T09:28:08.000Z</time>
      </trkpt>
      <trkpt lat="45.7064" lon="6.6334">
        <ele>1486</ele>
        <time>2020-06-28T09:28:09.000Z</time>
      </trkpt>
      <trkpt lat="45.70652" lon="6.63334">
        <ele>1484.8000488281</ele>
        <time>2020-06-28T09:28:10.000Z</time>
      </trkpt>
      <trkpt lat="45.70663" lon="6.63329">
        <ele>1483.4000244141</ele>
        <time>2020-06-28T09:28:11.000Z</time>
      </trkpt>
      <trkpt lat="45.70684" lon="6.63323">
        <ele>1481.1999511719</ele>
        <time>2020-06-28T09:28:13.000Z</time>
      </trkpt>
      <trkpt lat="45.70693" lon="6.63323">
        <ele>1479.8000488281</ele>
        <time>2020-06-28T09:28:14.000Z</time>
      </trkpt>
      <trkpt lat="45.70699" lon="6.63316">
        <ele>1478</ele>
        <time>2020-06-28T09:28:15.000Z</time>
      </trkpt>
      <trkpt lat="45.70702" lon="6.63311">
        <ele>1477.1999511719</ele>
        <time>2020-06-28T09:28:16.000Z</time>
      </trkpt>
      <trkpt lat="45.70701" lon="6.63305">
        <ele>1476.8000488281</ele>
        <time>2020-06-28T09:28:17.000Z</time>
      </trkpt>
      <trkpt lat="45.70697" lon="6.63301">
        <ele>1476.5999755859</ele>
        <time>2020-06-28T09:28:18.000Z</time>
      </trkpt>
      <trkpt lat="45.70682" lon="6.63302">
        <ele>1476</ele>
        <time>2020-06-28T09:28:20.000Z</time>
      </trkpt>
      <trkpt lat="45.70673" lon="6.63304">
        <ele>1475.8000488281</ele>
        <time>2020-06-28T09:28:21.000Z</time>
      </trkpt>
      <trkpt lat="45.70664" lon="6.63308">
        <ele>1475.5999755859</ele>
        <time>2020-06-28T09:28:22.000Z</time>
      </trkpt>
      <trkpt lat="45.70653" lon="6.63311">
        <ele>1475.4000244141</ele>
        <time>2020-06-28T09:28:23.000Z</time>
      </trkpt>
      <trkpt lat="45.70619" lon="6.63319">
        <ele>1474.8000488281</ele>
        <time>2020-06-28T09:28:26.000Z</time>
      </trkpt>
      <trkpt lat="45.70607" lon="6.63318">
        <ele>1474</ele>
        <time>2020-06-28T09:28:27.000Z</time>
      </trkpt>
      <trkpt lat="45.70594" lon="6.63317">
        <ele>1473.1999511719</ele>
        <time>2020-06-28T09:28:28.000Z</time>
      </trkpt>
      <trkpt lat="45.70568" lon="6.63313">
        <ele>1471.1999511719</ele>
        <time>2020-06-28T09:28:30.000Z</time>
      </trkpt>
      <trkpt lat="45.70555" lon="6.63311">
        <ele>1470</ele>
        <time>2020-06-28T09:28:31.000Z</time>
      </trkpt>
      <trkpt lat="45.70542" lon="6.63309">
        <ele>1468.8000488281</ele>
        <time>2020-06-28T09:28:32.000Z</time>
      </trkpt>
      <trkpt lat="45.70529" lon="6.63305">
        <ele>1467.8000488281</ele>
        <time>2020-06-28T09:28:33.000Z</time>
      </trkpt>
      <trkpt lat="45.70516" lon="6.633">
        <ele>1466.5999755859</ele>
        <time>2020-06-28T09:28:34.000Z</time>
      </trkpt>
      <trkpt lat="45.70503" lon="6.63292">
        <ele>1465.4000244141</ele>
        <time>2020-06-28T09:28:35.000Z</time>
      </trkpt>
      <trkpt lat="45.70492" lon="6.63284">
        <ele>1464</ele>
        <time>2020-06-28T09:28:36.000Z</time>
      </trkpt>
      <trkpt lat="45.70481" lon="6.63275">
        <ele>1462.5999755859</ele>
        <time>2020-06-28T09:28:37.000Z</time>
      </trkpt>
      <trkpt lat="45.70471" lon="6.63266">
        <ele>1461.4000244141</ele>
        <time>2020-06-28T09:28:38.000Z</time>
      </trkpt>
      <trkpt lat="45.7046" lon="6.63257">
        <ele>1460</ele>
        <time>2020-06-28T09:28:39.000Z</time>
      </trkpt>
      <trkpt lat="45.70449" lon="6.63252">
        <ele>1458.5999755859</ele>
        <time>2020-06-28T09:28:40.000Z</time>
      </trkpt>
      <trkpt lat="45.70437" lon="6.6325">
        <ele>1457</ele>
        <time>2020-06-28T09:28:41.000Z</time>
      </trkpt>
      <trkpt lat="45.70425" lon="6.63247">
        <ele>1455.8000488281</ele>
        <time>2020-06-28T09:28:42.000Z</time>
      </trkpt>
      <trkpt lat="45.70413" lon="6.63242">
        <ele>1454.4000244141</ele>
        <time>2020-06-28T09:28:43.000Z</time>
      </trkpt>
      <trkpt lat="45.70401" lon="6.63235">
        <ele>1453.5999755859</ele>
        <time>2020-06-28T09:28:44.000Z</time>
      </trkpt>
      <trkpt lat="45.70389" lon="6.63227">
        <ele>1452.8000488281</ele>
        <time>2020-06-28T09:28:45.000Z</time>
      </trkpt>
      <trkpt lat="45.70377" lon="6.6322">
        <ele>1451.8000488281</ele>
        <time>2020-06-28T09:28:46.000Z</time>
      </trkpt>
      <trkpt lat="45.70364" lon="6.63218">
        <ele>1450.8000488281</ele>
        <time>2020-06-28T09:28:47.000Z</time>
      </trkpt>
      <trkpt lat="45.7035" lon="6.63219">
        <ele>1449.5999755859</ele>
        <time>2020-06-28T09:28:48.000Z</time>
      </trkpt>
      <trkpt lat="45.70337" lon="6.63221">
        <ele>1448.1999511719</ele>
        <time>2020-06-28T09:28:49.000Z</time>
      </trkpt>
      <trkpt lat="45.70323" lon="6.63224">
        <ele>1446.8000488281</ele>
        <time>2020-06-28T09:28:50.000Z</time>
      </trkpt>
      <trkpt lat="45.70309" lon="6.63227">
        <ele>1445.8000488281</ele>
        <time>2020-06-28T09:28:51.000Z</time>
      </trkpt>
      <trkpt lat="45.70295" lon="6.63228">
        <ele>1444.5999755859</ele>
        <time>2020-06-28T09:28:52.000Z</time>
      </trkpt>
      <trkpt lat="45.70281" lon="6.63227">
        <ele>1443.1999511719</ele>
        <time>2020-06-28T09:28:53.000Z</time>
      </trkpt>
      <trkpt lat="45.70267" lon="6.63224">
        <ele>1442.1999511719</ele>
        <time>2020-06-28T09:28:54.000Z</time>
      </trkpt>
      <trkpt lat="45.70252" lon="6.63221">
        <ele>1441</ele>
        <time>2020-06-28T09:28:55.000Z</time>
      </trkpt>
      <trkpt lat="45.70237" lon="6.63218">
        <ele>1440</ele>
        <time>2020-06-28T09:28:56.000Z</time>
      </trkpt>
      <trkpt lat="45.70222" lon="6.63216">
        <ele>1438.8000488281</ele>
        <time>2020-06-28T09:28:57.000Z</time>
      </trkpt>
      <trkpt lat="45.70208" lon="6.63214">
        <ele>1437.4000244141</ele>
        <time>2020-06-28T09:28:58.000Z</time>
      </trkpt>
      <trkpt lat="45.70194" lon="6.63211">
        <ele>1435.8000488281</ele>
        <time>2020-06-28T09:28:59.000Z</time>
      </trkpt>
      <trkpt lat="45.70181" lon="6.63209">
        <ele>1434.8000488281</ele>
        <time>2020-06-28T09:29:00.000Z</time>
      </trkpt>
      <trkpt lat="45.70167" lon="6.63206">
        <ele>1433.5999755859</ele>
        <time>2020-06-28T09:29:01.000Z</time>
      </trkpt>
      <trkpt lat="45.70155" lon="6.63201">
        <ele>1432.4000244141</ele>
        <time>2020-06-28T09:29:02.000Z</time>
      </trkpt>
      <trkpt lat="45.70142" lon="6.63194">
        <ele>1431.1999511719</ele>
        <time>2020-06-28T09:29:03.000Z</time>
      </trkpt>
      <trkpt lat="45.7013" lon="6.63188">
        <ele>1430.1999511719</ele>
        <time>2020-06-28T09:29:04.000Z</time>
      </trkpt>
      <trkpt lat="45.70118" lon="6.63181">
        <ele>1428.8000488281</ele>
        <time>2020-06-28T09:29:05.000Z</time>
      </trkpt>
      <trkpt lat="45.70106" lon="6.63173">
        <ele>1427.5999755859</ele>
        <time>2020-06-28T09:29:06.000Z</time>
      </trkpt>
      <trkpt lat="45.70093" lon="6.63164">
        <ele>1426.8000488281</ele>
        <time>2020-06-28T09:29:07.000Z</time>
      </trkpt>
      <trkpt lat="45.70082" lon="6.63153">
        <ele>1425.8000488281</ele>
        <time>2020-06-28T09:29:08.000Z</time>
      </trkpt>
      <trkpt lat="45.70059" lon="6.63132">
        <ele>1423.8000488281</ele>
        <time>2020-06-28T09:29:10.000Z</time>
      </trkpt>
      <trkpt lat="45.7005" lon="6.63124">
        <ele>1422.5999755859</ele>
        <time>2020-06-28T09:29:11.000Z</time>
      </trkpt>
      <trkpt lat="45.70041" lon="6.63116">
        <ele>1421.5999755859</ele>
        <time>2020-06-28T09:29:12.000Z</time>
      </trkpt>
      <trkpt lat="45.70032" lon="6.63109">
        <ele>1420.4000244141</ele>
        <time>2020-06-28T09:29:13.000Z</time>
      </trkpt>
      <trkpt lat="45.70025" lon="6.63101">
        <ele>1419</ele>
        <time>2020-06-28T09:29:14.000Z</time>
      </trkpt>
      <trkpt lat="45.7002" lon="6.63093">
        <ele>1418</ele>
        <time>2020-06-28T09:29:15.000Z</time>
      </trkpt>
      <trkpt lat="45.70018" lon="6.63085">
        <ele>1416.8000488281</ele>
        <time>2020-06-28T09:29:16.000Z</time>
      </trkpt>
      <trkpt lat="45.70023" lon="6.6308">
        <ele>1416</ele>
        <time>2020-06-28T09:29:17.000Z</time>
      </trkpt>
      <trkpt lat="45.70028" lon="6.63076">
        <ele>1415</ele>
        <time>2020-06-28T09:29:18.000Z</time>
      </trkpt>
      <trkpt lat="45.70038" lon="6.63079">
        <ele>1414.4000244141</ele>
        <time>2020-06-28T09:29:20.000Z</time>
      </trkpt>
      <trkpt lat="45.70046" lon="6.63086">
        <ele>1414.1999511719</ele>
        <time>2020-06-28T09:29:21.000Z</time>
      </trkpt>
      <trkpt lat="45.70055" lon="6.63094">
        <ele>1414</ele>
        <time>2020-06-28T09:29:22.000Z</time>
      </trkpt>
      <trkpt lat="45.70064" lon="6.631">
        <ele>1414</ele>
        <time>2020-06-28T09:29:23.000Z</time>
      </trkpt>
      <trkpt lat="45.70096" lon="6.63115">
        <ele>1413.1999511719</ele>
        <time>2020-06-28T09:29:26.000Z</time>
      </trkpt>
      <trkpt lat="45.70108" lon="6.63121">
        <ele>1412.4000244141</ele>
        <time>2020-06-28T09:29:27.000Z</time>
      </trkpt>
      <trkpt lat="45.70131" lon="6.63131">
        <ele>1410</ele>
        <time>2020-06-28T09:29:29.000Z</time>
      </trkpt>
      <trkpt lat="45.70144" lon="6.63138">
        <ele>1408.5999755859</ele>
        <time>2020-06-28T09:29:30.000Z</time>
      </trkpt>
      <trkpt lat="45.70157" lon="6.63148">
        <ele>1407.5999755859</ele>
        <time>2020-06-28T09:29:31.000Z</time>
      </trkpt>
      <trkpt lat="45.70169" lon="6.63155">
        <ele>1406.4000244141</ele>
        <time>2020-06-28T09:29:32.000Z</time>
      </trkpt>
      <trkpt lat="45.70182" lon="6.63161">
        <ele>1405</ele>
        <time>2020-06-28T09:29:33.000Z</time>
      </trkpt>
      <trkpt lat="45.70194" lon="6.63166">
        <ele>1403.5999755859</ele>
        <time>2020-06-28T09:29:34.000Z</time>
      </trkpt>
      <trkpt lat="45.70208" lon="6.63164">
        <ele>1402</ele>
        <time>2020-06-28T09:29:35.000Z</time>
      </trkpt>
      <trkpt lat="45.70221" lon="6.6316">
        <ele>1400.5999755859</ele>
        <time>2020-06-28T09:29:36.000Z</time>
      </trkpt>
      <trkpt lat="45.70235" lon="6.63156">
        <ele>1399.8000488281</ele>
        <time>2020-06-28T09:29:37.000Z</time>
      </trkpt>
      <trkpt lat="45.70248" lon="6.63155">
        <ele>1398.1999511719</ele>
        <time>2020-06-28T09:29:38.000Z</time>
      </trkpt>
      <trkpt lat="45.70263" lon="6.63157">
        <ele>1397</ele>
        <time>2020-06-28T09:29:39.000Z</time>
      </trkpt>
      <trkpt lat="45.70277" lon="6.63159">
        <ele>1396.1999511719</ele>
        <time>2020-06-28T09:29:40.000Z</time>
      </trkpt>
      <trkpt lat="45.70291" lon="6.63158">
        <ele>1395</ele>
        <time>2020-06-28T09:29:41.000Z</time>
      </trkpt>
      <trkpt lat="45.70304" lon="6.63154">
        <ele>1393.8000488281</ele>
        <time>2020-06-28T09:29:42.000Z</time>
      </trkpt>
      <trkpt lat="45.70317" lon="6.63148">
        <ele>1392.4000244141</ele>
        <time>2020-06-28T09:29:43.000Z</time>
      </trkpt>
      <trkpt lat="45.7033" lon="6.6314">
        <ele>1391.1999511719</ele>
        <time>2020-06-28T09:29:44.000Z</time>
      </trkpt>
      <trkpt lat="45.70343" lon="6.63136">
        <ele>1389.8000488281</ele>
        <time>2020-06-28T09:29:45.000Z</time>
      </trkpt>
      <trkpt lat="45.70358" lon="6.6313">
        <ele>1388.4000244141</ele>
        <time>2020-06-28T09:29:46.000Z</time>
      </trkpt>
      <trkpt lat="45.70372" lon="6.63126">
        <ele>1387.1999511719</ele>
        <time>2020-06-28T09:29:47.000Z</time>
      </trkpt>
      <trkpt lat="45.70386" lon="6.63122">
        <ele>1386.1999511719</ele>
        <time>2020-06-28T09:29:48.000Z</time>
      </trkpt>
      <trkpt lat="45.70401" lon="6.63117">
        <ele>1385</ele>
        <time>2020-06-28T09:29:49.000Z</time>
      </trkpt>
      <trkpt lat="45.7043" lon="6.63111">
        <ele>1383.1999511719</ele>
        <time>2020-06-28T09:29:51.000Z</time>
      </trkpt>
      <trkpt lat="45.70443" lon="6.63111">
        <ele>1382.5999755859</ele>
        <time>2020-06-28T09:29:52.000Z</time>
      </trkpt>
      <trkpt lat="45.70468" lon="6.63109">
        <ele>1381.1999511719</ele>
        <time>2020-06-28T09:29:54.000Z</time>
      </trkpt>
      <trkpt lat="45.70479" lon="6.63104">
        <ele>1379.8000488281</ele>
        <time>2020-06-28T09:29:55.000Z</time>
      </trkpt>
      <trkpt lat="45.70489" lon="6.63094">
        <ele>1378.4000244141</ele>
        <time>2020-06-28T09:29:56.000Z</time>
      </trkpt>
      <trkpt lat="45.70499" lon="6.63086">
        <ele>1376.8000488281</ele>
        <time>2020-06-28T09:29:57.000Z</time>
      </trkpt>
      <trkpt lat="45.7051" lon="6.63084">
        <ele>1374.8000488281</ele>
        <time>2020-06-28T09:29:58.000Z</time>
      </trkpt>
      <trkpt lat="45.7052" lon="6.63087">
        <ele>1373.5999755859</ele>
        <time>2020-06-28T09:29:59.000Z</time>
      </trkpt>
      <trkpt lat="45.70542" lon="6.63098">
        <ele>1372.5999755859</ele>
        <time>2020-06-28T09:30:01.000Z</time>
      </trkpt>
      <trkpt lat="45.70555" lon="6.63102">
        <ele>1371.5999755859</ele>
        <time>2020-06-28T09:30:02.000Z</time>
      </trkpt>
      <trkpt lat="45.70567" lon="6.63103">
        <ele>1371</ele>
        <time>2020-06-28T09:30:03.000Z</time>
      </trkpt>
      <trkpt lat="45.70594" lon="6.631">
        <ele>1368.5999755859</ele>
        <time>2020-06-28T09:30:05.000Z</time>
      </trkpt>
      <trkpt lat="45.70607" lon="6.631">
        <ele>1367.8000488281</ele>
        <time>2020-06-28T09:30:06.000Z</time>
      </trkpt>
      <trkpt lat="45.7062" lon="6.63102">
        <ele>1366.4000244141</ele>
        <time>2020-06-28T09:30:07.000Z</time>
      </trkpt>
      <trkpt lat="45.70634" lon="6.63105">
        <ele>1365</ele>
        <time>2020-06-28T09:30:08.000Z</time>
      </trkpt>
      <trkpt lat="45.70648" lon="6.63108">
        <ele>1363.4000244141</ele>
        <time>2020-06-28T09:30:09.000Z</time>
      </trkpt>
      <trkpt lat="45.70662" lon="6.63112">
        <ele>1362</ele>
        <time>2020-06-28T09:30:10.000Z</time>
      </trkpt>
      <trkpt lat="45.70676" lon="6.63115">
        <ele>1360.8000488281</ele>
        <time>2020-06-28T09:30:11.000Z</time>
      </trkpt>
      <trkpt lat="45.7069" lon="6.63118">
        <ele>1359.5999755859</ele>
        <time>2020-06-28T09:30:12.000Z</time>
      </trkpt>
      <trkpt lat="45.70703" lon="6.63121">
        <ele>1358.5999755859</ele>
        <time>2020-06-28T09:30:13.000Z</time>
      </trkpt>
      <trkpt lat="45.70714" lon="6.63124">
        <ele>1357.4000244141</ele>
        <time>2020-06-28T09:30:14.000Z</time>
      </trkpt>
      <trkpt lat="45.70724" lon="6.63126">
        <ele>1356.1999511719</ele>
        <time>2020-06-28T09:30:15.000Z</time>
      </trkpt>
      <trkpt lat="45.70734" lon="6.63129">
        <ele>1355</ele>
        <time>2020-06-28T09:30:16.000Z</time>
      </trkpt>
      <trkpt lat="45.70742" lon="6.63131">
        <ele>1353.8000488281</ele>
        <time>2020-06-28T09:30:17.000Z</time>
      </trkpt>
      <trkpt lat="45.70749" lon="6.63125">
        <ele>1352.4000244141</ele>
        <time>2020-06-28T09:30:18.000Z</time>
      </trkpt>
      <trkpt lat="45.70752" lon="6.63116">
        <ele>1351.4000244141</ele>
        <time>2020-06-28T09:30:19.000Z</time>
      </trkpt>
      <trkpt lat="45.70746" lon="6.63097">
        <ele>1350.4000244141</ele>
        <time>2020-06-28T09:30:21.000Z</time>
      </trkpt>
      <trkpt lat="45.70739" lon="6.63092">
        <ele>1350.1999511719</ele>
        <time>2020-06-28T09:30:22.000Z</time>
      </trkpt>
      <trkpt lat="45.7073" lon="6.63089">
        <ele>1350</ele>
        <time>2020-06-28T09:30:23.000Z</time>
      </trkpt>
      <trkpt lat="45.7072" lon="6.63087">
        <ele>1349.5999755859</ele>
        <time>2020-06-28T09:30:24.000Z</time>
      </trkpt>
      <trkpt lat="45.70709" lon="6.63085">
        <ele>1349.4000244141</ele>
        <time>2020-06-28T09:30:25.000Z</time>
      </trkpt>
      <trkpt lat="45.70698" lon="6.63082">
        <ele>1349</ele>
        <time>2020-06-28T09:30:26.000Z</time>
      </trkpt>
      <trkpt lat="45.70663" lon="6.63064">
        <ele>1347.8000488281</ele>
        <time>2020-06-28T09:30:29.000Z</time>
      </trkpt>
      <trkpt lat="45.70651" lon="6.63058">
        <ele>1346.8000488281</ele>
        <time>2020-06-28T09:30:30.000Z</time>
      </trkpt>
      <trkpt lat="45.7064" lon="6.63052">
        <ele>1346</ele>
        <time>2020-06-28T09:30:31.000Z</time>
      </trkpt>
      <trkpt lat="45.70618" lon="6.63039">
        <ele>1342.4000244141</ele>
        <time>2020-06-28T09:30:33.000Z</time>
      </trkpt>
      <trkpt lat="45.70607" lon="6.63033">
        <ele>1341</ele>
        <time>2020-06-28T09:30:34.000Z</time>
      </trkpt>
      <trkpt lat="45.70596" lon="6.63027">
        <ele>1339.8000488281</ele>
        <time>2020-06-28T09:30:35.000Z</time>
      </trkpt>
      <trkpt lat="45.70573" lon="6.63014">
        <ele>1338</ele>
        <time>2020-06-28T09:30:37.000Z</time>
      </trkpt>
      <trkpt lat="45.7055" lon="6.62998">
        <ele>1337</ele>
        <time>2020-06-28T09:30:39.000Z</time>
      </trkpt>
      <trkpt lat="45.7054" lon="6.62989">
        <ele>1336.8000488281</ele>
        <time>2020-06-28T09:30:40.000Z</time>
      </trkpt>
      <trkpt lat="45.70521" lon="6.62969">
        <ele>1335.5999755859</ele>
        <time>2020-06-28T09:30:42.000Z</time>
      </trkpt>
      <trkpt lat="45.70511" lon="6.6296">
        <ele>1334.5999755859</ele>
        <time>2020-06-28T09:30:43.000Z</time>
      </trkpt>
      <trkpt lat="45.705" lon="6.62954">
        <ele>1333.8000488281</ele>
        <time>2020-06-28T09:30:44.000Z</time>
      </trkpt>
      <trkpt lat="45.70489" lon="6.62951">
        <ele>1332.5999755859</ele>
        <time>2020-06-28T09:30:45.000Z</time>
      </trkpt>
      <trkpt lat="45.70476" lon="6.62949">
        <ele>1331.4000244141</ele>
        <time>2020-06-28T09:30:46.000Z</time>
      </trkpt>
      <trkpt lat="45.70464" lon="6.62947">
        <ele>1330</ele>
        <time>2020-06-28T09:30:47.000Z</time>
      </trkpt>
      <trkpt lat="45.70451" lon="6.62945">
        <ele>1328.5999755859</ele>
        <time>2020-06-28T09:30:48.000Z</time>
      </trkpt>
      <trkpt lat="45.70425" lon="6.62944">
        <ele>1326.8000488281</ele>
        <time>2020-06-28T09:30:50.000Z</time>
      </trkpt>
      <trkpt lat="45.70399" lon="6.62946">
        <ele>1324.8000488281</ele>
        <time>2020-06-28T09:30:52.000Z</time>
      </trkpt>
      <trkpt lat="45.70385" lon="6.62949">
        <ele>1322.8000488281</ele>
        <time>2020-06-28T09:30:53.000Z</time>
      </trkpt>
      <trkpt lat="45.70372" lon="6.62952">
        <ele>1321</ele>
        <time>2020-06-28T09:30:54.000Z</time>
      </trkpt>
      <trkpt lat="45.70359" lon="6.62955">
        <ele>1320</ele>
        <time>2020-06-28T09:30:55.000Z</time>
      </trkpt>
      <trkpt lat="45.70344" lon="6.62956">
        <ele>1318.4000244141</ele>
        <time>2020-06-28T09:30:56.000Z</time>
      </trkpt>
      <trkpt lat="45.7033" lon="6.62957">
        <ele>1317</ele>
        <time>2020-06-28T09:30:57.000Z</time>
      </trkpt>
      <trkpt lat="45.70316" lon="6.62956">
        <ele>1315.5999755859</ele>
        <time>2020-06-28T09:30:58.000Z</time>
      </trkpt>
      <trkpt lat="45.70302" lon="6.62954">
        <ele>1314.4000244141</ele>
        <time>2020-06-28T09:30:59.000Z</time>
      </trkpt>
      <trkpt lat="45.70288" lon="6.6295">
        <ele>1313</ele>
        <time>2020-06-28T09:31:00.000Z</time>
      </trkpt>
      <trkpt lat="45.70275" lon="6.62944">
        <ele>1312</ele>
        <time>2020-06-28T09:31:01.000Z</time>
      </trkpt>
      <trkpt lat="45.70249" lon="6.62926">
        <ele>1310.1999511719</ele>
        <time>2020-06-28T09:31:03.000Z</time>
      </trkpt>
      <trkpt lat="45.70236" lon="6.62916">
        <ele>1308.8000488281</ele>
        <time>2020-06-28T09:31:04.000Z</time>
      </trkpt>
      <trkpt lat="45.70223" lon="6.62906">
        <ele>1307.8000488281</ele>
        <time>2020-06-28T09:31:05.000Z</time>
      </trkpt>
      <trkpt lat="45.70211" lon="6.62896">
        <ele>1306.4000244141</ele>
        <time>2020-06-28T09:31:06.000Z</time>
      </trkpt>
      <trkpt lat="45.70187" lon="6.62876">
        <ele>1304.4000244141</ele>
        <time>2020-06-28T09:31:08.000Z</time>
      </trkpt>
      <trkpt lat="45.70175" lon="6.62866">
        <ele>1303.1999511719</ele>
        <time>2020-06-28T09:31:09.000Z</time>
      </trkpt>
      <trkpt lat="45.70164" lon="6.62856">
        <ele>1302.1999511719</ele>
        <time>2020-06-28T09:31:10.000Z</time>
      </trkpt>
      <trkpt lat="45.70152" lon="6.62847">
        <ele>1300.4000244141</ele>
        <time>2020-06-28T09:31:11.000Z</time>
      </trkpt>
      <trkpt lat="45.70139" lon="6.62842">
        <ele>1298.1999511719</ele>
        <time>2020-06-28T09:31:12.000Z</time>
      </trkpt>
      <trkpt lat="45.70126" lon="6.62837">
        <ele>1296.8000488281</ele>
        <time>2020-06-28T09:31:13.000Z</time>
      </trkpt>
      <trkpt lat="45.70114" lon="6.6283">
        <ele>1295.8000488281</ele>
        <time>2020-06-28T09:31:14.000Z</time>
      </trkpt>
      <trkpt lat="45.70103" lon="6.6282">
        <ele>1295.4000244141</ele>
        <time>2020-06-28T09:31:15.000Z</time>
      </trkpt>
      <trkpt lat="45.70084" lon="6.62792">
        <ele>1294.5999755859</ele>
        <time>2020-06-28T09:31:17.000Z</time>
      </trkpt>
      <trkpt lat="45.70075" lon="6.62776">
        <ele>1294.1999511719</ele>
        <time>2020-06-28T09:31:18.000Z</time>
      </trkpt>
      <trkpt lat="45.70065" lon="6.62761">
        <ele>1293.1999511719</ele>
        <time>2020-06-28T09:31:19.000Z</time>
      </trkpt>
      <trkpt lat="45.70054" lon="6.62747">
        <ele>1292.1999511719</ele>
        <time>2020-06-28T09:31:20.000Z</time>
      </trkpt>
      <trkpt lat="45.70044" lon="6.62734">
        <ele>1291.1999511719</ele>
        <time>2020-06-28T09:31:21.000Z</time>
      </trkpt>
      <trkpt lat="45.70032" lon="6.62721">
        <ele>1290.1999511719</ele>
        <time>2020-06-28T09:31:22.000Z</time>
      </trkpt>
      <trkpt lat="45.70021" lon="6.62708">
        <ele>1288.8000488281</ele>
        <time>2020-06-28T09:31:23.000Z</time>
      </trkpt>
      <trkpt lat="45.70009" lon="6.62694">
        <ele>1287.1999511719</ele>
        <time>2020-06-28T09:31:24.000Z</time>
      </trkpt>
      <trkpt lat="45.69998" lon="6.62682">
        <ele>1285.5999755859</ele>
        <time>2020-06-28T09:31:25.000Z</time>
      </trkpt>
      <trkpt lat="45.69987" lon="6.62668">
        <ele>1284.5999755859</ele>
        <time>2020-06-28T09:31:26.000Z</time>
      </trkpt>
      <trkpt lat="45.69977" lon="6.62654">
        <ele>1283.4000244141</ele>
        <time>2020-06-28T09:31:27.000Z</time>
      </trkpt>
      <trkpt lat="45.69967" lon="6.62641">
        <ele>1280.5999755859</ele>
        <time>2020-06-28T09:31:28.000Z</time>
      </trkpt>
      <trkpt lat="45.69958" lon="6.62627">
        <ele>1279.5999755859</ele>
        <time>2020-06-28T09:31:29.000Z</time>
      </trkpt>
      <trkpt lat="45.69949" lon="6.62613">
        <ele>1278.5999755859</ele>
        <time>2020-06-28T09:31:30.000Z</time>
      </trkpt>
      <trkpt lat="45.69941" lon="6.62597">
        <ele>1277.5999755859</ele>
        <time>2020-06-28T09:31:31.000Z</time>
      </trkpt>
      <trkpt lat="45.69927" lon="6.62542">
        <ele>1276.1999511719</ele>
        <time>2020-06-28T09:31:34.000Z</time>
      </trkpt>
      <trkpt lat="45.69918" lon="6.62505">
        <ele>1274</ele>
        <time>2020-06-28T09:31:36.000Z</time>
      </trkpt>
      <trkpt lat="45.6991" lon="6.62466">
        <ele>1272</ele>
        <time>2020-06-28T09:31:38.000Z</time>
      </trkpt>
      <trkpt lat="45.69906" lon="6.62445">
        <ele>1270.8000488281</ele>
        <time>2020-06-28T09:31:39.000Z</time>
      </trkpt>
      <trkpt lat="45.69904" lon="6.62425">
        <ele>1269.5999755859</ele>
        <time>2020-06-28T09:31:40.000Z</time>
      </trkpt>
      <trkpt lat="45.69899" lon="6.62386">
        <ele>1267.4000244141</ele>
        <time>2020-06-28T09:31:42.000Z</time>
      </trkpt>
      <trkpt lat="45.69896" lon="6.62367">
        <ele>1266.1999511719</ele>
        <time>2020-06-28T09:31:43.000Z</time>
      </trkpt>
      <trkpt lat="45.69892" lon="6.62349">
        <ele>1265</ele>
        <time>2020-06-28T09:31:44.000Z</time>
      </trkpt>
      <trkpt lat="45.69887" lon="6.6233">
        <ele>1263.8000488281</ele>
        <time>2020-06-28T09:31:45.000Z</time>
      </trkpt>
      <trkpt lat="45.69881" lon="6.62313">
        <ele>1262.1999511719</ele>
        <time>2020-06-28T09:31:46.000Z</time>
      </trkpt>
      <trkpt lat="45.69876" lon="6.62295">
        <ele>1261</ele>
        <time>2020-06-28T09:31:47.000Z</time>
      </trkpt>
      <trkpt lat="45.69863" lon="6.62262">
        <ele>1259.8000488281</ele>
        <time>2020-06-28T09:31:49.000Z</time>
      </trkpt>
      <trkpt lat="45.69857" lon="6.62245">
        <ele>1259</ele>
        <time>2020-06-28T09:31:50.000Z</time>
      </trkpt>
      <trkpt lat="45.6985" lon="6.62227">
        <ele>1258.1999511719</ele>
        <time>2020-06-28T09:31:51.000Z</time>
      </trkpt>
      <trkpt lat="45.69841" lon="6.62192">
        <ele>1256.5999755859</ele>
        <time>2020-06-28T09:31:53.000Z</time>
      </trkpt>
      <trkpt lat="45.69838" lon="6.62175">
        <ele>1256</ele>
        <time>2020-06-28T09:31:54.000Z</time>
      </trkpt>
      <trkpt lat="45.69838" lon="6.62157">
        <ele>1255</ele>
        <time>2020-06-28T09:31:55.000Z</time>
      </trkpt>
      <trkpt lat="45.69838" lon="6.62139">
        <ele>1253.1999511719</ele>
        <time>2020-06-28T09:31:56.000Z</time>
      </trkpt>
      <trkpt lat="45.69838" lon="6.62122">
        <ele>1251.5999755859</ele>
        <time>2020-06-28T09:31:57.000Z</time>
      </trkpt>
      <trkpt lat="45.69837" lon="6.62105">
        <ele>1250</ele>
        <time>2020-06-28T09:31:58.000Z</time>
      </trkpt>
      <trkpt lat="45.69833" lon="6.62091">
        <ele>1248.8000488281</ele>
        <time>2020-06-28T09:31:59.000Z</time>
      </trkpt>
      <trkpt lat="45.69826" lon="6.62079">
        <ele>1247.8000488281</ele>
        <time>2020-06-28T09:32:00.000Z</time>
      </trkpt>
      <trkpt lat="45.69817" lon="6.62069">
        <ele>1247</ele>
        <time>2020-06-28T09:32:01.000Z</time>
      </trkpt>
      <trkpt lat="45.69799" lon="6.62048">
        <ele>1246</ele>
        <time>2020-06-28T09:32:03.000Z</time>
      </trkpt>
      <trkpt lat="45.69791" lon="6.62035">
        <ele>1245.1999511719</ele>
        <time>2020-06-28T09:32:04.000Z</time>
      </trkpt>
      <trkpt lat="45.69777" lon="6.62005">
        <ele>1244</ele>
        <time>2020-06-28T09:32:06.000Z</time>
      </trkpt>
      <trkpt lat="45.69764" lon="6.61972">
        <ele>1242.5999755859</ele>
        <time>2020-06-28T09:32:08.000Z</time>
      </trkpt>
      <trkpt lat="45.69749" lon="6.61939">
        <ele>1240.8000488281</ele>
        <time>2020-06-28T09:32:10.000Z</time>
      </trkpt>
      <trkpt lat="45.6974" lon="6.61924">
        <ele>1239.5999755859</ele>
        <time>2020-06-28T09:32:11.000Z</time>
      </trkpt>
      <trkpt lat="45.69732" lon="6.61909">
        <ele>1238.5999755859</ele>
        <time>2020-06-28T09:32:12.000Z</time>
      </trkpt>
      <trkpt lat="45.69724" lon="6.61893">
        <ele>1237.4000244141</ele>
        <time>2020-06-28T09:32:13.000Z</time>
      </trkpt>
      <trkpt lat="45.69718" lon="6.61875">
        <ele>1236.1999511719</ele>
        <time>2020-06-28T09:32:14.000Z</time>
      </trkpt>
      <trkpt lat="45.69714" lon="6.61857">
        <ele>1234.8000488281</ele>
        <time>2020-06-28T09:32:15.000Z</time>
      </trkpt>
      <trkpt lat="45.6971" lon="6.61838">
        <ele>1233.4000244141</ele>
        <time>2020-06-28T09:32:16.000Z</time>
      </trkpt>
      <trkpt lat="45.69705" lon="6.61819">
        <ele>1232.4000244141</ele>
        <time>2020-06-28T09:32:17.000Z</time>
      </trkpt>
      <trkpt lat="45.69701" lon="6.61799">
        <ele>1231.5999755859</ele>
        <time>2020-06-28T09:32:18.000Z</time>
      </trkpt>
      <trkpt lat="45.69696" lon="6.61778">
        <ele>1230.8000488281</ele>
        <time>2020-06-28T09:32:19.000Z</time>
      </trkpt>
      <trkpt lat="45.69688" lon="6.61741">
        <ele>1228.4000244141</ele>
        <time>2020-06-28T09:32:21.000Z</time>
      </trkpt>
      <trkpt lat="45.69685" lon="6.61726">
        <ele>1227</ele>
        <time>2020-06-28T09:32:22.000Z</time>
      </trkpt>
      <trkpt lat="45.69681" lon="6.61711">
        <ele>1225.8000488281</ele>
        <time>2020-06-28T09:32:23.000Z</time>
      </trkpt>
      <trkpt lat="45.69678" lon="6.61698">
        <ele>1223.1999511719</ele>
        <time>2020-06-28T09:32:24.000Z</time>
      </trkpt>
      <trkpt lat="45.69678" lon="6.61686">
        <ele>1221.8000488281</ele>
        <time>2020-06-28T09:32:25.000Z</time>
      </trkpt>
      <trkpt lat="45.6968" lon="6.61675">
        <ele>1220.5999755859</ele>
        <time>2020-06-28T09:32:26.000Z</time>
      </trkpt>
      <trkpt lat="45.69683" lon="6.61666">
        <ele>1219.4000244141</ele>
        <time>2020-06-28T09:32:27.000Z</time>
      </trkpt>
      <trkpt lat="45.6969" lon="6.61665">
        <ele>1218</ele>
        <time>2020-06-28T09:32:29.000Z</time>
      </trkpt>
      <trkpt lat="45.69694" lon="6.61688">
        <ele>1217.1999511719</ele>
        <time>2020-06-28T09:32:32.000Z</time>
      </trkpt>
      <trkpt lat="45.69707" lon="6.61719">
        <ele>1216.5999755859</ele>
        <time>2020-06-28T09:32:34.000Z</time>
      </trkpt>
      <trkpt lat="45.69722" lon="6.61763">
        <ele>1215.5999755859</ele>
        <time>2020-06-28T09:32:36.000Z</time>
      </trkpt>
      <trkpt lat="45.69733" lon="6.61797">
        <ele>1214</ele>
        <time>2020-06-28T09:32:38.000Z</time>
      </trkpt>
      <trkpt lat="45.69736" lon="6.61814">
        <ele>1213.1999511719</ele>
        <time>2020-06-28T09:32:39.000Z</time>
      </trkpt>
      <trkpt lat="45.6974" lon="6.61831">
        <ele>1212.1999511719</ele>
        <time>2020-06-28T09:32:40.000Z</time>
      </trkpt>
      <trkpt lat="45.69743" lon="6.61848">
        <ele>1211</ele>
        <time>2020-06-28T09:32:41.000Z</time>
      </trkpt>
      <trkpt lat="45.69747" lon="6.61865">
        <ele>1210</ele>
        <time>2020-06-28T09:32:42.000Z</time>
      </trkpt>
      <trkpt lat="45.69753" lon="6.61881">
        <ele>1208.8000488281</ele>
        <time>2020-06-28T09:32:43.000Z</time>
      </trkpt>
      <trkpt lat="45.69768" lon="6.61911">
        <ele>1207</ele>
        <time>2020-06-28T09:32:45.000Z</time>
      </trkpt>
      <trkpt lat="45.69778" lon="6.61925">
        <ele>1205.8000488281</ele>
        <time>2020-06-28T09:32:46.000Z</time>
      </trkpt>
      <trkpt lat="45.69787" lon="6.6194">
        <ele>1205</ele>
        <time>2020-06-28T09:32:47.000Z</time>
      </trkpt>
      <trkpt lat="45.69796" lon="6.61955">
        <ele>1204</ele>
        <time>2020-06-28T09:32:48.000Z</time>
      </trkpt>
      <trkpt lat="45.69812" lon="6.61982">
        <ele>1202</ele>
        <time>2020-06-28T09:32:50.000Z</time>
      </trkpt>
      <trkpt lat="45.69824" lon="6.62008">
        <ele>1198.8000488281</ele>
        <time>2020-06-28T09:32:52.000Z</time>
      </trkpt>
      <trkpt lat="45.6983" lon="6.62018">
        <ele>1197.4000244141</ele>
        <time>2020-06-28T09:32:53.000Z</time>
      </trkpt>
      <trkpt lat="45.69838" lon="6.62025">
        <ele>1196</ele>
        <time>2020-06-28T09:32:54.000Z</time>
      </trkpt>
      <trkpt lat="45.69842" lon="6.62026">
        <ele>1195.4000244141</ele>
        <time>2020-06-28T09:32:55.000Z</time>
      </trkpt>
      <trkpt lat="45.69844" lon="6.62025">
        <ele>1195</ele>
        <time>2020-06-28T09:32:56.000Z</time>
      </trkpt>
      <trkpt lat="45.69844" lon="6.6202">
        <ele>1194.8000488281</ele>
        <time>2020-06-28T09:32:57.000Z</time>
      </trkpt>
      <trkpt lat="45.69835" lon="6.61999">
        <ele>1194.4000244141</ele>
        <time>2020-06-28T09:32:59.000Z</time>
      </trkpt>
      <trkpt lat="45.6983" lon="6.61987">
        <ele>1194.4000244141</ele>
        <time>2020-06-28T09:33:00.000Z</time>
      </trkpt>
      <trkpt lat="45.69819" lon="6.6196">
        <ele>1194.1999511719</ele>
        <time>2020-06-28T09:33:02.000Z</time>
      </trkpt>
      <trkpt lat="45.69809" lon="6.61928">
        <ele>1193.5999755859</ele>
        <time>2020-06-28T09:33:04.000Z</time>
      </trkpt>
      <trkpt lat="45.69805" lon="6.61911">
        <ele>1192.8000488281</ele>
        <time>2020-06-28T09:33:05.000Z</time>
      </trkpt>
      <trkpt lat="45.69802" lon="6.61895">
        <ele>1192.4000244141</ele>
        <time>2020-06-28T09:33:06.000Z</time>
      </trkpt>
      <trkpt lat="45.69797" lon="6.6186">
        <ele>1190.5999755859</ele>
        <time>2020-06-28T09:33:08.000Z</time>
      </trkpt>
      <trkpt lat="45.69795" lon="6.61844">
        <ele>1189.5999755859</ele>
        <time>2020-06-28T09:33:09.000Z</time>
      </trkpt>
      <trkpt lat="45.69793" lon="6.61811">
        <ele>1187.5999755859</ele>
        <time>2020-06-28T09:33:11.000Z</time>
      </trkpt>
      <trkpt lat="45.69793" lon="6.61795">
        <ele>1186.4000244141</ele>
        <time>2020-06-28T09:33:12.000Z</time>
      </trkpt>
      <trkpt lat="45.69793" lon="6.61778">
        <ele>1185.1999511719</ele>
        <time>2020-06-28T09:33:13.000Z</time>
      </trkpt>
      <trkpt lat="45.69793" lon="6.61758">
        <ele>1183.8000488281</ele>
        <time>2020-06-28T09:33:14.000Z</time>
      </trkpt>
      <trkpt lat="45.69795" lon="6.61737">
        <ele>1182.5999755859</ele>
        <time>2020-06-28T09:33:15.000Z</time>
      </trkpt>
      <trkpt lat="45.69798" lon="6.61718">
        <ele>1181.8000488281</ele>
        <time>2020-06-28T09:33:16.000Z</time>
      </trkpt>
      <trkpt lat="45.69801" lon="6.61698">
        <ele>1180.8000488281</ele>
        <time>2020-06-28T09:33:17.000Z</time>
      </trkpt>
      <trkpt lat="45.69804" lon="6.61678">
        <ele>1179.5999755859</ele>
        <time>2020-06-28T09:33:18.000Z</time>
      </trkpt>
      <trkpt lat="45.69806" lon="6.61658">
        <ele>1177.8000488281</ele>
        <time>2020-06-28T09:33:19.000Z</time>
      </trkpt>
      <trkpt lat="45.69805" lon="6.61635">
        <ele>1176.4000244141</ele>
        <time>2020-06-28T09:33:20.000Z</time>
      </trkpt>
      <trkpt lat="45.69802" lon="6.61618">
        <ele>1175.1999511719</ele>
        <time>2020-06-28T09:33:21.000Z</time>
      </trkpt>
      <trkpt lat="45.69797" lon="6.61602">
        <ele>1173.8000488281</ele>
        <time>2020-06-28T09:33:22.000Z</time>
      </trkpt>
      <trkpt lat="45.69791" lon="6.61585">
        <ele>1172.5999755859</ele>
        <time>2020-06-28T09:33:23.000Z</time>
      </trkpt>
      <trkpt lat="45.69776" lon="6.61551">
        <ele>1170.8000488281</ele>
        <time>2020-06-28T09:33:25.000Z</time>
      </trkpt>
      <trkpt lat="45.69767" lon="6.61535">
        <ele>1170.1999511719</ele>
        <time>2020-06-28T09:33:26.000Z</time>
      </trkpt>
      <trkpt lat="45.69757" lon="6.61518">
        <ele>1169.1999511719</ele>
        <time>2020-06-28T09:33:27.000Z</time>
      </trkpt>
      <trkpt lat="45.69736" lon="6.6149">
        <ele>1167</ele>
        <time>2020-06-28T09:33:29.000Z</time>
      </trkpt>
      <trkpt lat="45.69725" lon="6.61479">
        <ele>1165.8000488281</ele>
        <time>2020-06-28T09:33:30.000Z</time>
      </trkpt>
      <trkpt lat="45.69716" lon="6.6147">
        <ele>1164.5999755859</ele>
        <time>2020-06-28T09:33:31.000Z</time>
      </trkpt>
      <trkpt lat="45.69707" lon="6.61462">
        <ele>1163.8000488281</ele>
        <time>2020-06-28T09:33:32.000Z</time>
      </trkpt>
      <trkpt lat="45.697" lon="6.61456">
        <ele>1162.8000488281</ele>
        <time>2020-06-28T09:33:33.000Z</time>
      </trkpt>
      <trkpt lat="45.69695" lon="6.61449">
        <ele>1161.5999755859</ele>
        <time>2020-06-28T09:33:34.000Z</time>
      </trkpt>
      <trkpt lat="45.69695" lon="6.61446">
        <ele>1160</ele>
        <time>2020-06-28T09:33:35.000Z</time>
      </trkpt>
      <trkpt lat="45.69696" lon="6.61442">
        <ele>1158.5999755859</ele>
        <time>2020-06-28T09:33:36.000Z</time>
      </trkpt>
      <trkpt lat="45.69701" lon="6.61438">
        <ele>1157.4000244141</ele>
        <time>2020-06-28T09:33:37.000Z</time>
      </trkpt>
      <trkpt lat="45.69714" lon="6.61438">
        <ele>1155.8000488281</ele>
        <time>2020-06-28T09:33:39.000Z</time>
      </trkpt>
      <trkpt lat="45.69732" lon="6.61451">
        <ele>1155.1999511719</ele>
        <time>2020-06-28T09:33:42.000Z</time>
      </trkpt>
      <trkpt lat="45.6974" lon="6.61456">
        <ele>1155</ele>
        <time>2020-06-28T09:33:43.000Z</time>
      </trkpt>
      <trkpt lat="45.69757" lon="6.61463">
        <ele>1154.8000488281</ele>
        <time>2020-06-28T09:33:45.000Z</time>
      </trkpt>
      <trkpt lat="45.69776" lon="6.61469">
        <ele>1153.8000488281</ele>
        <time>2020-06-28T09:33:47.000Z</time>
      </trkpt>
      <trkpt lat="45.69786" lon="6.61471">
        <ele>1153.1999511719</ele>
        <time>2020-06-28T09:33:48.000Z</time>
      </trkpt>
      <trkpt lat="45.69797" lon="6.61473">
        <ele>1152.1999511719</ele>
        <time>2020-06-28T09:33:49.000Z</time>
      </trkpt>
      <trkpt lat="45.69807" lon="6.61475">
        <ele>1151</ele>
        <time>2020-06-28T09:33:50.000Z</time>
      </trkpt>
      <trkpt lat="45.69817" lon="6.61478">
        <ele>1149.8000488281</ele>
        <time>2020-06-28T09:33:51.000Z</time>
      </trkpt>
      <trkpt lat="45.69826" lon="6.61484">
        <ele>1148.8000488281</ele>
        <time>2020-06-28T09:33:52.000Z</time>
      </trkpt>
      <trkpt lat="45.69842" lon="6.61501">
        <ele>1147</ele>
        <time>2020-06-28T09:33:54.000Z</time>
      </trkpt>
      <trkpt lat="45.69848" lon="6.61513">
        <ele>1146</ele>
        <time>2020-06-28T09:33:55.000Z</time>
      </trkpt>
      <trkpt lat="45.69851" lon="6.61526">
        <ele>1145</ele>
        <time>2020-06-28T09:33:56.000Z</time>
      </trkpt>
      <trkpt lat="45.69852" lon="6.61541">
        <ele>1143.8000488281</ele>
        <time>2020-06-28T09:33:57.000Z</time>
      </trkpt>
      <trkpt lat="45.69855" lon="6.61569">
        <ele>1142.5999755859</ele>
        <time>2020-06-28T09:33:59.000Z</time>
      </trkpt>
      <trkpt lat="45.6986" lon="6.61596">
        <ele>1141</ele>
        <time>2020-06-28T09:34:01.000Z</time>
      </trkpt>
      <trkpt lat="45.69862" lon="6.6161">
        <ele>1140.4000244141</ele>
        <time>2020-06-28T09:34:02.000Z</time>
      </trkpt>
      <trkpt lat="45.69865" lon="6.61625">
        <ele>1140</ele>
        <time>2020-06-28T09:34:03.000Z</time>
      </trkpt>
      <trkpt lat="45.69879" lon="6.61685">
        <ele>1139</ele>
        <time>2020-06-28T09:34:07.000Z</time>
      </trkpt>
      <trkpt lat="45.69884" lon="6.61701">
        <ele>1138.5999755859</ele>
        <time>2020-06-28T09:34:08.000Z</time>
      </trkpt>
      <trkpt lat="45.69894" lon="6.61733">
        <ele>1137.4000244141</ele>
        <time>2020-06-28T09:34:10.000Z</time>
      </trkpt>
      <trkpt lat="45.69907" lon="6.61765">
        <ele>1136.1999511719</ele>
        <time>2020-06-28T09:34:12.000Z</time>
      </trkpt>
      <trkpt lat="45.69915" lon="6.61781">
        <ele>1135</ele>
        <time>2020-06-28T09:34:13.000Z</time>
      </trkpt>
      <trkpt lat="45.69923" lon="6.61797">
        <ele>1133.5999755859</ele>
        <time>2020-06-28T09:34:14.000Z</time>
      </trkpt>
      <trkpt lat="45.69933" lon="6.61811">
        <ele>1130.8000488281</ele>
        <time>2020-06-28T09:34:15.000Z</time>
      </trkpt>
      <trkpt lat="45.69943" lon="6.61825">
        <ele>1129.4000244141</ele>
        <time>2020-06-28T09:34:16.000Z</time>
      </trkpt>
      <trkpt lat="45.69953" lon="6.61838">
        <ele>1128.1999511719</ele>
        <time>2020-06-28T09:34:17.000Z</time>
      </trkpt>
      <trkpt lat="45.69966" lon="6.61849">
        <ele>1127</ele>
        <time>2020-06-28T09:34:18.000Z</time>
      </trkpt>
      <trkpt lat="45.69979" lon="6.61858">
        <ele>1126</ele>
        <time>2020-06-28T09:34:19.000Z</time>
      </trkpt>
      <trkpt lat="45.69992" lon="6.61867">
        <ele>1125</ele>
        <time>2020-06-28T09:34:20.000Z</time>
      </trkpt>
      <trkpt lat="45.70006" lon="6.61875">
        <ele>1123.8000488281</ele>
        <time>2020-06-28T09:34:21.000Z</time>
      </trkpt>
      <trkpt lat="45.70018" lon="6.61883">
        <ele>1122</ele>
        <time>2020-06-28T09:34:22.000Z</time>
      </trkpt>
      <trkpt lat="45.70031" lon="6.61889">
        <ele>1120.8000488281</ele>
        <time>2020-06-28T09:34:23.000Z</time>
      </trkpt>
      <trkpt lat="45.70042" lon="6.61895">
        <ele>1119.5999755859</ele>
        <time>2020-06-28T09:34:24.000Z</time>
      </trkpt>
      <trkpt lat="45.70061" lon="6.61909">
        <ele>1117.4000244141</ele>
        <time>2020-06-28T09:34:26.000Z</time>
      </trkpt>
      <trkpt lat="45.70069" lon="6.61919">
        <ele>1116</ele>
        <time>2020-06-28T09:34:27.000Z</time>
      </trkpt>
      <trkpt lat="45.70075" lon="6.61931">
        <ele>1114.8000488281</ele>
        <time>2020-06-28T09:34:28.000Z</time>
      </trkpt>
      <trkpt lat="45.70077" lon="6.61946">
        <ele>1113.5999755859</ele>
        <time>2020-06-28T09:34:29.000Z</time>
      </trkpt>
      <trkpt lat="45.70082" lon="6.61978">
        <ele>1111.8000488281</ele>
        <time>2020-06-28T09:34:31.000Z</time>
      </trkpt>
      <trkpt lat="45.70082" lon="6.61996">
        <ele>1111</ele>
        <time>2020-06-28T09:34:32.000Z</time>
      </trkpt>
      <trkpt lat="45.7008" lon="6.62014">
        <ele>1110.5999755859</ele>
        <time>2020-06-28T09:34:33.000Z</time>
      </trkpt>
      <trkpt lat="45.70082" lon="6.62031">
        <ele>1110</ele>
        <time>2020-06-28T09:34:34.000Z</time>
      </trkpt>
      <trkpt lat="45.70087" lon="6.62047">
        <ele>1108.8000488281</ele>
        <time>2020-06-28T09:34:35.000Z</time>
      </trkpt>
      <trkpt lat="45.70091" lon="6.62063">
        <ele>1107.5999755859</ele>
        <time>2020-06-28T09:34:36.000Z</time>
      </trkpt>
      <trkpt lat="45.70093" lon="6.6208">
        <ele>1105.8000488281</ele>
        <time>2020-06-28T09:34:37.000Z</time>
      </trkpt>
      <trkpt lat="45.70095" lon="6.62098">
        <ele>1104.4000244141</ele>
        <time>2020-06-28T09:34:38.000Z</time>
      </trkpt>
      <trkpt lat="45.70097" lon="6.62116">
        <ele>1103.1999511719</ele>
        <time>2020-06-28T09:34:39.000Z</time>
      </trkpt>
      <trkpt lat="45.70101" lon="6.62131">
        <ele>1102</ele>
        <time>2020-06-28T09:34:40.000Z</time>
      </trkpt>
      <trkpt lat="45.70106" lon="6.62147">
        <ele>1100.8000488281</ele>
        <time>2020-06-28T09:34:41.000Z</time>
      </trkpt>
      <trkpt lat="45.70113" lon="6.62164">
        <ele>1099.4000244141</ele>
        <time>2020-06-28T09:34:42.000Z</time>
      </trkpt>
      <trkpt lat="45.70122" lon="6.62181">
        <ele>1097.4000244141</ele>
        <time>2020-06-28T09:34:43.000Z</time>
      </trkpt>
      <trkpt lat="45.7014" lon="6.62216">
        <ele>1095.1999511719</ele>
        <time>2020-06-28T09:34:45.000Z</time>
      </trkpt>
      <trkpt lat="45.7015" lon="6.62234">
        <ele>1094.1999511719</ele>
        <time>2020-06-28T09:34:46.000Z</time>
      </trkpt>
      <trkpt lat="45.70159" lon="6.62251">
        <ele>1093</ele>
        <time>2020-06-28T09:34:47.000Z</time>
      </trkpt>
      <trkpt lat="45.70169" lon="6.6227">
        <ele>1091.5999755859</ele>
        <time>2020-06-28T09:34:48.000Z</time>
      </trkpt>
      <trkpt lat="45.70179" lon="6.62288">
        <ele>1089.8000488281</ele>
        <time>2020-06-28T09:34:49.000Z</time>
      </trkpt>
      <trkpt lat="45.70188" lon="6.62304">
        <ele>1088.4000244141</ele>
        <time>2020-06-28T09:34:50.000Z</time>
      </trkpt>
      <trkpt lat="45.70196" lon="6.6232">
        <ele>1087</ele>
        <time>2020-06-28T09:34:51.000Z</time>
      </trkpt>
      <trkpt lat="45.70206" lon="6.62334">
        <ele>1085.4000244141</ele>
        <time>2020-06-28T09:34:52.000Z</time>
      </trkpt>
      <trkpt lat="45.70218" lon="6.62346">
        <ele>1084</ele>
        <time>2020-06-28T09:34:53.000Z</time>
      </trkpt>
      <trkpt lat="45.7023" lon="6.62357">
        <ele>1082.5999755859</ele>
        <time>2020-06-28T09:34:54.000Z</time>
      </trkpt>
      <trkpt lat="45.70242" lon="6.62367">
        <ele>1081</ele>
        <time>2020-06-28T09:34:55.000Z</time>
      </trkpt>
      <trkpt lat="45.70256" lon="6.62375">
        <ele>1079.5999755859</ele>
        <time>2020-06-28T09:34:56.000Z</time>
      </trkpt>
      <trkpt lat="45.70269" lon="6.62384">
        <ele>1078.4000244141</ele>
        <time>2020-06-28T09:34:57.000Z</time>
      </trkpt>
      <trkpt lat="45.70282" lon="6.62393">
        <ele>1077.1999511719</ele>
        <time>2020-06-28T09:34:58.000Z</time>
      </trkpt>
      <trkpt lat="45.7031" lon="6.6241">
        <ele>1075.4000244141</ele>
        <time>2020-06-28T09:35:00.000Z</time>
      </trkpt>
      <trkpt lat="45.70338" lon="6.62428">
        <ele>1073.4000244141</ele>
        <time>2020-06-28T09:35:02.000Z</time>
      </trkpt>
      <trkpt lat="45.70351" lon="6.62436">
        <ele>1072.1999511719</ele>
        <time>2020-06-28T09:35:03.000Z</time>
      </trkpt>
      <trkpt lat="45.70364" lon="6.62443">
        <ele>1071</ele>
        <time>2020-06-28T09:35:04.000Z</time>
      </trkpt>
      <trkpt lat="45.70378" lon="6.6245">
        <ele>1069.4000244141</ele>
        <time>2020-06-28T09:35:05.000Z</time>
      </trkpt>
      <trkpt lat="45.70391" lon="6.62456">
        <ele>1068</ele>
        <time>2020-06-28T09:35:06.000Z</time>
      </trkpt>
      <trkpt lat="45.70405" lon="6.62462">
        <ele>1066.5999755859</ele>
        <time>2020-06-28T09:35:07.000Z</time>
      </trkpt>
      <trkpt lat="45.70419" lon="6.62466">
        <ele>1065</ele>
        <time>2020-06-28T09:35:08.000Z</time>
      </trkpt>
      <trkpt lat="45.70433" lon="6.6247">
        <ele>1063.1999511719</ele>
        <time>2020-06-28T09:35:09.000Z</time>
      </trkpt>
      <trkpt lat="45.70447" lon="6.62474">
        <ele>1061.5999755859</ele>
        <time>2020-06-28T09:35:10.000Z</time>
      </trkpt>
      <trkpt lat="45.7046" lon="6.62478">
        <ele>1058.8000488281</ele>
        <time>2020-06-28T09:35:11.000Z</time>
      </trkpt>
      <trkpt lat="45.70473" lon="6.6248">
        <ele>1057.5999755859</ele>
        <time>2020-06-28T09:35:12.000Z</time>
      </trkpt>
      <trkpt lat="45.70484" lon="6.62482">
        <ele>1056.4000244141</ele>
        <time>2020-06-28T09:35:13.000Z</time>
      </trkpt>
      <trkpt lat="45.70494" lon="6.62484">
        <ele>1054.8000488281</ele>
        <time>2020-06-28T09:35:14.000Z</time>
      </trkpt>
      <trkpt lat="45.70504" lon="6.62487">
        <ele>1053.1999511719</ele>
        <time>2020-06-28T09:35:15.000Z</time>
      </trkpt>
      <trkpt lat="45.70512" lon="6.62488">
        <ele>1051.8000488281</ele>
        <time>2020-06-28T09:35:16.000Z</time>
      </trkpt>
      <trkpt lat="45.70519" lon="6.62484">
        <ele>1050.4000244141</ele>
        <time>2020-06-28T09:35:17.000Z</time>
      </trkpt>
      <trkpt lat="45.70519" lon="6.6247">
        <ele>1048.8000488281</ele>
        <time>2020-06-28T09:35:19.000Z</time>
      </trkpt>
      <trkpt lat="45.70507" lon="6.62467">
        <ele>1047.8000488281</ele>
        <time>2020-06-28T09:35:21.000Z</time>
      </trkpt>
      <trkpt lat="45.70497" lon="6.62468">
        <ele>1047.8000488281</ele>
        <time>2020-06-28T09:35:22.000Z</time>
      </trkpt>
      <trkpt lat="45.70488" lon="6.62468">
        <ele>1047.8000488281</ele>
        <time>2020-06-28T09:35:23.000Z</time>
      </trkpt>
      <trkpt lat="45.70477" lon="6.62466">
        <ele>1047.4000244141</ele>
        <time>2020-06-28T09:35:24.000Z</time>
      </trkpt>
      <trkpt lat="45.70468" lon="6.62463">
        <ele>1047.4000244141</ele>
        <time>2020-06-28T09:35:25.000Z</time>
      </trkpt>
      <trkpt lat="45.70434" lon="6.62439">
        <ele>1046.4000244141</ele>
        <time>2020-06-28T09:35:29.000Z</time>
      </trkpt>
      <trkpt lat="45.70416" lon="6.62421">
        <ele>1045.1999511719</ele>
        <time>2020-06-28T09:35:31.000Z</time>
      </trkpt>
      <trkpt lat="45.70408" lon="6.62412">
        <ele>1044</ele>
        <time>2020-06-28T09:35:32.000Z</time>
      </trkpt>
      <trkpt lat="45.70399" lon="6.624">
        <ele>1043</ele>
        <time>2020-06-28T09:35:33.000Z</time>
      </trkpt>
      <trkpt lat="45.70391" lon="6.62386">
        <ele>1042.1999511719</ele>
        <time>2020-06-28T09:35:34.000Z</time>
      </trkpt>
      <trkpt lat="45.70376" lon="6.6234">
        <ele>1041</ele>
        <time>2020-06-28T09:35:36.000Z</time>
      </trkpt>
      <trkpt lat="45.70367" lon="6.62303">
        <ele>1039.1999511719</ele>
        <time>2020-06-28T09:35:38.000Z</time>
      </trkpt>
      <trkpt lat="45.70365" lon="6.62282">
        <ele>1036.5999755859</ele>
        <time>2020-06-28T09:35:39.000Z</time>
      </trkpt>
      <trkpt lat="45.70366" lon="6.62262">
        <ele>1035.1999511719</ele>
        <time>2020-06-28T09:35:40.000Z</time>
      </trkpt>
      <trkpt lat="45.70368" lon="6.62243">
        <ele>1034</ele>
        <time>2020-06-28T09:35:41.000Z</time>
      </trkpt>
      <trkpt lat="45.70371" lon="6.62225">
        <ele>1032.5999755859</ele>
        <time>2020-06-28T09:35:42.000Z</time>
      </trkpt>
      <trkpt lat="45.70373" lon="6.62208">
        <ele>1031.1999511719</ele>
        <time>2020-06-28T09:35:43.000Z</time>
      </trkpt>
      <trkpt lat="45.70375" lon="6.62192">
        <ele>1030.1999511719</ele>
        <time>2020-06-28T09:35:44.000Z</time>
      </trkpt>
      <trkpt lat="45.70374" lon="6.62177">
        <ele>1029.4000244141</ele>
        <time>2020-06-28T09:35:45.000Z</time>
      </trkpt>
      <trkpt lat="45.70372" lon="6.62163">
        <ele>1028.4000244141</ele>
        <time>2020-06-28T09:35:46.000Z</time>
      </trkpt>
      <trkpt lat="45.70367" lon="6.62151">
        <ele>1027.1999511719</ele>
        <time>2020-06-28T09:35:47.000Z</time>
      </trkpt>
      <trkpt lat="45.70362" lon="6.6214">
        <ele>1025.8000488281</ele>
        <time>2020-06-28T09:35:48.000Z</time>
      </trkpt>
      <trkpt lat="45.70357" lon="6.62131">
        <ele>1024.8000488281</ele>
        <time>2020-06-28T09:35:49.000Z</time>
      </trkpt>
      <trkpt lat="45.70352" lon="6.62123">
        <ele>1024.1999511719</ele>
        <time>2020-06-28T09:35:50.000Z</time>
      </trkpt>
      <trkpt lat="45.70348" lon="6.62113">
        <ele>1023.799987793</ele>
        <time>2020-06-28T09:35:51.000Z</time>
      </trkpt>
      <trkpt lat="45.70347" lon="6.62104">
        <ele>1023.4000244141</ele>
        <time>2020-06-28T09:35:52.000Z</time>
      </trkpt>
      <trkpt lat="45.70348" lon="6.62094">
        <ele>1023.200012207</ele>
        <time>2020-06-28T09:35:53.000Z</time>
      </trkpt>
      <trkpt lat="45.70355" lon="6.62077">
        <ele>1022.200012207</ele>
        <time>2020-06-28T09:35:55.000Z</time>
      </trkpt>
      <trkpt lat="45.70361" lon="6.62073">
        <ele>1021.799987793</ele>
        <time>2020-06-28T09:35:56.000Z</time>
      </trkpt>
      <trkpt lat="45.70375" lon="6.62064">
        <ele>1021.200012207</ele>
        <time>2020-06-28T09:35:58.000Z</time>
      </trkpt>
      <trkpt lat="45.70391" lon="6.62055">
        <ele>1021</ele>
        <time>2020-06-28T09:36:00.000Z</time>
      </trkpt>
      <trkpt lat="45.70409" lon="6.62044">
        <ele>1021</ele>
        <time>2020-06-28T09:36:02.000Z</time>
      </trkpt>
      <trkpt lat="45.70418" lon="6.62038">
        <ele>1020.799987793</ele>
        <time>2020-06-28T09:36:03.000Z</time>
      </trkpt>
      <trkpt lat="45.70455" lon="6.62013">
        <ele>1019.4000244141</ele>
        <time>2020-06-28T09:36:07.000Z</time>
      </trkpt>
      <trkpt lat="45.70464" lon="6.62007">
        <ele>1018.5999755859</ele>
        <time>2020-06-28T09:36:08.000Z</time>
      </trkpt>
      <trkpt lat="45.70474" lon="6.62002">
        <ele>1017.799987793</ele>
        <time>2020-06-28T09:36:09.000Z</time>
      </trkpt>
      <trkpt lat="45.70495" lon="6.61993">
        <ele>1016</ele>
        <time>2020-06-28T09:36:11.000Z</time>
      </trkpt>
      <trkpt lat="45.70515" lon="6.61983">
        <ele>1014.5999755859</ele>
        <time>2020-06-28T09:36:13.000Z</time>
      </trkpt>
      <trkpt lat="45.70524" lon="6.61976">
        <ele>1014</ele>
        <time>2020-06-28T09:36:14.000Z</time>
      </trkpt>
      <trkpt lat="45.70532" lon="6.61968">
        <ele>1013.5999755859</ele>
        <time>2020-06-28T09:36:15.000Z</time>
      </trkpt>
      <trkpt lat="45.70541" lon="6.61962">
        <ele>1013.200012207</ele>
        <time>2020-06-28T09:36:16.000Z</time>
      </trkpt>
      <trkpt lat="45.70569" lon="6.61943">
        <ele>1012</ele>
        <time>2020-06-28T09:36:19.000Z</time>
      </trkpt>
      <trkpt lat="45.7059" lon="6.61936">
        <ele>1010.5999755859</ele>
        <time>2020-06-28T09:36:21.000Z</time>
      </trkpt>
      <trkpt lat="45.70612" lon="6.61908">
        <ele>1009.799987793</ele>
        <time>2020-06-28T09:36:24.000Z</time>
      </trkpt>
      <trkpt lat="45.70617" lon="6.61896">
        <ele>1009.799987793</ele>
        <time>2020-06-28T09:36:25.000Z</time>
      </trkpt>
      <trkpt lat="45.70629" lon="6.61855">
        <ele>1009.4000244141</ele>
        <time>2020-06-28T09:36:28.000Z</time>
      </trkpt>
      <trkpt lat="45.70631" lon="6.61837">
        <ele>1009.200012207</ele>
        <time>2020-06-28T09:36:29.000Z</time>
      </trkpt>
      <trkpt lat="45.70639" lon="6.61795">
        <ele>1008.5999755859</ele>
        <time>2020-06-28T09:36:32.000Z</time>
      </trkpt>
      <trkpt lat="45.70642" lon="6.6178">
        <ele>1008.200012207</ele>
        <time>2020-06-28T09:36:33.000Z</time>
      </trkpt>
      <trkpt lat="45.70643" lon="6.61763">
        <ele>1007</ele>
        <time>2020-06-28T09:36:34.000Z</time>
      </trkpt>
      <trkpt lat="45.70651" lon="6.6172">
        <ele>1006.4000244141</ele>
        <time>2020-06-28T09:36:37.000Z</time>
      </trkpt>
      <trkpt lat="45.70652" lon="6.61704">
        <ele>1006</ele>
        <time>2020-06-28T09:36:38.000Z</time>
      </trkpt>
      <trkpt lat="45.70651" lon="6.61685">
        <ele>1005.5999755859</ele>
        <time>2020-06-28T09:36:39.000Z</time>
      </trkpt>
      <trkpt lat="45.70652" lon="6.61669">
        <ele>1005</ele>
        <time>2020-06-28T09:36:40.000Z</time>
      </trkpt>
      <trkpt lat="45.70649" lon="6.6165">
        <ele>1004.4000244141</ele>
        <time>2020-06-28T09:36:41.000Z</time>
      </trkpt>
      <trkpt lat="45.70645" lon="6.61614">
        <ele>1003.799987793</ele>
        <time>2020-06-28T09:36:43.000Z</time>
      </trkpt>
      <trkpt lat="45.70642" lon="6.61551">
        <ele>1002.5999755859</ele>
        <time>2020-06-28T09:36:47.000Z</time>
      </trkpt>
      <trkpt lat="45.70646" lon="6.61476">
        <ele>1001.4000244141</ele>
        <time>2020-06-28T09:36:52.000Z</time>
      </trkpt>
      <trkpt lat="45.70658" lon="6.61432">
        <ele>1001.200012207</ele>
        <time>2020-06-28T09:36:55.000Z</time>
      </trkpt>
      <trkpt lat="45.70663" lon="6.61418">
        <ele>1001</ele>
        <time>2020-06-28T09:36:56.000Z</time>
      </trkpt>
      <trkpt lat="45.70676" lon="6.61376">
        <ele>1000.4000244141</ele>
        <time>2020-06-28T09:36:59.000Z</time>
      </trkpt>
      <trkpt lat="45.70681" lon="6.61363">
        <ele>999.79998779297</ele>
        <time>2020-06-28T09:37:00.000Z</time>
      </trkpt>
      <trkpt lat="45.70688" lon="6.6135">
        <ele>999.59997558594</ele>
        <time>2020-06-28T09:37:01.000Z</time>
      </trkpt>
      <trkpt lat="45.70709" lon="6.61314">
        <ele>999.20001220703</ele>
        <time>2020-06-28T09:37:04.000Z</time>
      </trkpt>
      <trkpt lat="45.70713" lon="6.61305">
        <ele>998.79998779297</ele>
        <time>2020-06-28T09:37:05.000Z</time>
      </trkpt>
      <trkpt lat="45.70709" lon="6.61277">
        <ele>998.20001220703</ele>
        <time>2020-06-28T09:37:07.000Z</time>
      </trkpt>
      <trkpt lat="45.70707" lon="6.61264">
        <ele>997.79998779297</ele>
        <time>2020-06-28T09:37:08.000Z</time>
      </trkpt>
      <trkpt lat="45.70708" lon="6.61251">
        <ele>996.79998779297</ele>
        <time>2020-06-28T09:37:09.000Z</time>
      </trkpt>
      <trkpt lat="45.70711" lon="6.61238">
        <ele>995.40002441406</ele>
        <time>2020-06-28T09:37:10.000Z</time>
      </trkpt>
      <trkpt lat="45.70714" lon="6.61206">
        <ele>993.79998779297</ele>
        <time>2020-06-28T09:37:12.000Z</time>
      </trkpt>
      <trkpt lat="45.70711" lon="6.61191">
        <ele>993.40002441406</ele>
        <time>2020-06-28T09:37:13.000Z</time>
      </trkpt>
      <trkpt lat="45.70706" lon="6.61177">
        <ele>992.79998779297</ele>
        <time>2020-06-28T09:37:14.000Z</time>
      </trkpt>
      <trkpt lat="45.70698" lon="6.61164">
        <ele>992.20001220703</ele>
        <time>2020-06-28T09:37:15.000Z</time>
      </trkpt>
      <trkpt lat="45.7069" lon="6.61151">
        <ele>991.40002441406</ele>
        <time>2020-06-28T09:37:16.000Z</time>
      </trkpt>
      <trkpt lat="45.70682" lon="6.61137">
        <ele>990.59997558594</ele>
        <time>2020-06-28T09:37:17.000Z</time>
      </trkpt>
      <trkpt lat="45.70678" lon="6.61121">
        <ele>989.59997558594</ele>
        <time>2020-06-28T09:37:18.000Z</time>
      </trkpt>
      <trkpt lat="45.70676" lon="6.61105">
        <ele>988.20001220703</ele>
        <time>2020-06-28T09:37:19.000Z</time>
      </trkpt>
      <trkpt lat="45.70676" lon="6.61088">
        <ele>986.79998779297</ele>
        <time>2020-06-28T09:37:20.000Z</time>
      </trkpt>
      <trkpt lat="45.70678" lon="6.6107">
        <ele>985.59997558594</ele>
        <time>2020-06-28T09:37:21.000Z</time>
      </trkpt>
      <trkpt lat="45.7068" lon="6.61052">
        <ele>984.20001220703</ele>
        <time>2020-06-28T09:37:22.000Z</time>
      </trkpt>
      <trkpt lat="45.70684" lon="6.61035">
        <ele>983</ele>
        <time>2020-06-28T09:37:23.000Z</time>
      </trkpt>
      <trkpt lat="45.70687" lon="6.61016">
        <ele>982</ele>
        <time>2020-06-28T09:37:24.000Z</time>
      </trkpt>
      <trkpt lat="45.70694" lon="6.60979">
        <ele>980</ele>
        <time>2020-06-28T09:37:26.000Z</time>
      </trkpt>
      <trkpt lat="45.70698" lon="6.60961">
        <ele>979</ele>
        <time>2020-06-28T09:37:27.000Z</time>
      </trkpt>
      <trkpt lat="45.70705" lon="6.60946">
        <ele>977.79998779297</ele>
        <time>2020-06-28T09:37:28.000Z</time>
      </trkpt>
      <trkpt lat="45.70711" lon="6.6093">
        <ele>976</ele>
        <time>2020-06-28T09:37:29.000Z</time>
      </trkpt>
      <trkpt lat="45.70718" lon="6.60916">
        <ele>972.59997558594</ele>
        <time>2020-06-28T09:37:30.000Z</time>
      </trkpt>
      <trkpt lat="45.70725" lon="6.60903">
        <ele>971.40002441406</ele>
        <time>2020-06-28T09:37:31.000Z</time>
      </trkpt>
      <trkpt lat="45.7073" lon="6.60889">
        <ele>970.40002441406</ele>
        <time>2020-06-28T09:37:32.000Z</time>
      </trkpt>
      <trkpt lat="45.70731" lon="6.60858">
        <ele>968</ele>
        <time>2020-06-28T09:37:34.000Z</time>
      </trkpt>
      <trkpt lat="45.70729" lon="6.60843">
        <ele>967</ele>
        <time>2020-06-28T09:37:35.000Z</time>
      </trkpt>
      <trkpt lat="45.70721" lon="6.60814">
        <ele>965.79998779297</ele>
        <time>2020-06-28T09:37:37.000Z</time>
      </trkpt>
      <trkpt lat="45.70716" lon="6.60797">
        <ele>965</ele>
        <time>2020-06-28T09:37:38.000Z</time>
      </trkpt>
      <trkpt lat="45.70711" lon="6.6078">
        <ele>964</ele>
        <time>2020-06-28T09:37:39.000Z</time>
      </trkpt>
      <trkpt lat="45.70701" lon="6.60746">
        <ele>962.20001220703</ele>
        <time>2020-06-28T09:37:41.000Z</time>
      </trkpt>
      <trkpt lat="45.70697" lon="6.60728">
        <ele>960.59997558594</ele>
        <time>2020-06-28T09:37:42.000Z</time>
      </trkpt>
      <trkpt lat="45.70696" lon="6.6071">
        <ele>959</ele>
        <time>2020-06-28T09:37:43.000Z</time>
      </trkpt>
      <trkpt lat="45.70698" lon="6.60692">
        <ele>957.59997558594</ele>
        <time>2020-06-28T09:37:44.000Z</time>
      </trkpt>
      <trkpt lat="45.70701" lon="6.60674">
        <ele>956.40002441406</ele>
        <time>2020-06-28T09:37:45.000Z</time>
      </trkpt>
      <trkpt lat="45.70709" lon="6.60658">
        <ele>955.40002441406</ele>
        <time>2020-06-28T09:37:46.000Z</time>
      </trkpt>
      <trkpt lat="45.70716" lon="6.6064">
        <ele>954.20001220703</ele>
        <time>2020-06-28T09:37:47.000Z</time>
      </trkpt>
      <trkpt lat="45.70721" lon="6.60624">
        <ele>953.20001220703</ele>
        <time>2020-06-28T09:37:48.000Z</time>
      </trkpt>
      <trkpt lat="45.70726" lon="6.60609">
        <ele>952</ele>
        <time>2020-06-28T09:37:49.000Z</time>
      </trkpt>
      <trkpt lat="45.70729" lon="6.60594">
        <ele>951.20001220703</ele>
        <time>2020-06-28T09:37:50.000Z</time>
      </trkpt>
      <trkpt lat="45.7073" lon="6.60577">
        <ele>950.20001220703</ele>
        <time>2020-06-28T09:37:51.000Z</time>
      </trkpt>
      <trkpt lat="45.7073" lon="6.60561">
        <ele>949</ele>
        <time>2020-06-28T09:37:52.000Z</time>
      </trkpt>
      <trkpt lat="45.70732" lon="6.60547">
        <ele>947.59997558594</ele>
        <time>2020-06-28T09:37:53.000Z</time>
      </trkpt>
      <trkpt lat="45.70733" lon="6.60534">
        <ele>946.20001220703</ele>
        <time>2020-06-28T09:37:54.000Z</time>
      </trkpt>
      <trkpt lat="45.70738" lon="6.60522">
        <ele>945</ele>
        <time>2020-06-28T09:37:55.000Z</time>
      </trkpt>
      <trkpt lat="45.70744" lon="6.60512">
        <ele>944</ele>
        <time>2020-06-28T09:37:56.000Z</time>
      </trkpt>
      <trkpt lat="45.70748" lon="6.60501">
        <ele>942.20001220703</ele>
        <time>2020-06-28T09:37:57.000Z</time>
      </trkpt>
      <trkpt lat="45.70749" lon="6.60471">
        <ele>941</ele>
        <time>2020-06-28T09:37:59.000Z</time>
      </trkpt>
      <trkpt lat="45.70742" lon="6.60425">
        <ele>940.40002441406</ele>
        <time>2020-06-28T09:38:02.000Z</time>
      </trkpt>
      <trkpt lat="45.70739" lon="6.60408">
        <ele>939.79998779297</ele>
        <time>2020-06-28T09:38:03.000Z</time>
      </trkpt>
      <trkpt lat="45.70736" lon="6.6039">
        <ele>938.79998779297</ele>
        <time>2020-06-28T09:38:04.000Z</time>
      </trkpt>
      <trkpt lat="45.70734" lon="6.60373">
        <ele>937.59997558594</ele>
        <time>2020-06-28T09:38:05.000Z</time>
      </trkpt>
      <trkpt lat="45.7073" lon="6.60341">
        <ele>935.40002441406</ele>
        <time>2020-06-28T09:38:07.000Z</time>
      </trkpt>
      <trkpt lat="45.70726" lon="6.60325">
        <ele>934.20001220703</ele>
        <time>2020-06-28T09:38:08.000Z</time>
      </trkpt>
      <trkpt lat="45.70722" lon="6.6031">
        <ele>932.79998779297</ele>
        <time>2020-06-28T09:38:09.000Z</time>
      </trkpt>
      <trkpt lat="45.70716" lon="6.60295">
        <ele>932</ele>
        <time>2020-06-28T09:38:10.000Z</time>
      </trkpt>
      <trkpt lat="45.7071" lon="6.6028">
        <ele>930.79998779297</ele>
        <time>2020-06-28T09:38:11.000Z</time>
      </trkpt>
      <trkpt lat="45.70697" lon="6.60251">
        <ele>928.79998779297</ele>
        <time>2020-06-28T09:38:13.000Z</time>
      </trkpt>
      <trkpt lat="45.70691" lon="6.60236">
        <ele>927.79998779297</ele>
        <time>2020-06-28T09:38:14.000Z</time>
      </trkpt>
      <trkpt lat="45.70685" lon="6.6022">
        <ele>927</ele>
        <time>2020-06-28T09:38:15.000Z</time>
      </trkpt>
      <trkpt lat="45.70675" lon="6.60185">
        <ele>925.40002441406</ele>
        <time>2020-06-28T09:38:17.000Z</time>
      </trkpt>
      <trkpt lat="45.70665" lon="6.60149">
        <ele>923.79998779297</ele>
        <time>2020-06-28T09:38:19.000Z</time>
      </trkpt>
      <trkpt lat="45.70656" lon="6.60115">
        <ele>921.59997558594</ele>
        <time>2020-06-28T09:38:21.000Z</time>
      </trkpt>
      <trkpt lat="45.70652" lon="6.60097">
        <ele>920.20001220703</ele>
        <time>2020-06-28T09:38:22.000Z</time>
      </trkpt>
      <trkpt lat="45.70651" lon="6.60079">
        <ele>918.79998779297</ele>
        <time>2020-06-28T09:38:23.000Z</time>
      </trkpt>
      <trkpt lat="45.70652" lon="6.6006">
        <ele>916.59997558594</ele>
        <time>2020-06-28T09:38:24.000Z</time>
      </trkpt>
      <trkpt lat="45.70654" lon="6.6004">
        <ele>915.40002441406</ele>
        <time>2020-06-28T09:38:25.000Z</time>
      </trkpt>
      <trkpt lat="45.70655" lon="6.60019">
        <ele>914.59997558594</ele>
        <time>2020-06-28T09:38:26.000Z</time>
      </trkpt>
      <trkpt lat="45.70657" lon="6.59998">
        <ele>913.79998779297</ele>
        <time>2020-06-28T09:38:27.000Z</time>
      </trkpt>
      <trkpt lat="45.70659" lon="6.59977">
        <ele>912.40002441406</ele>
        <time>2020-06-28T09:38:28.000Z</time>
      </trkpt>
      <trkpt lat="45.70662" lon="6.59957">
        <ele>911.20001220703</ele>
        <time>2020-06-28T09:38:29.000Z</time>
      </trkpt>
      <trkpt lat="45.70665" lon="6.59936">
        <ele>910</ele>
        <time>2020-06-28T09:38:30.000Z</time>
      </trkpt>
      <trkpt lat="45.7067" lon="6.59916">
        <ele>908.59997558594</ele>
        <time>2020-06-28T09:38:31.000Z</time>
      </trkpt>
      <trkpt lat="45.70675" lon="6.59896">
        <ele>907</ele>
        <time>2020-06-28T09:38:32.000Z</time>
      </trkpt>
      <trkpt lat="45.7068" lon="6.59875">
        <ele>905.20001220703</ele>
        <time>2020-06-28T09:38:33.000Z</time>
      </trkpt>
      <trkpt lat="45.70684" lon="6.59854">
        <ele>903.59997558594</ele>
        <time>2020-06-28T09:38:34.000Z</time>
      </trkpt>
      <trkpt lat="45.70688" lon="6.59833">
        <ele>902.20001220703</ele>
        <time>2020-06-28T09:38:35.000Z</time>
      </trkpt>
      <trkpt lat="45.70692" lon="6.59811">
        <ele>900.59997558594</ele>
        <time>2020-06-28T09:38:36.000Z</time>
      </trkpt>
      <trkpt lat="45.70695" lon="6.5979">
        <ele>899.40002441406</ele>
        <time>2020-06-28T09:38:37.000Z</time>
      </trkpt>
      <trkpt lat="45.70697" lon="6.5977">
        <ele>897.59997558594</ele>
        <time>2020-06-28T09:38:38.000Z</time>
      </trkpt>
      <trkpt lat="45.70699" lon="6.59751">
        <ele>896.40002441406</ele>
        <time>2020-06-28T09:38:39.000Z</time>
      </trkpt>
      <trkpt lat="45.70701" lon="6.59732">
        <ele>895.40002441406</ele>
        <time>2020-06-28T09:38:40.000Z</time>
      </trkpt>
      <trkpt lat="45.70702" lon="6.59714">
        <ele>894</ele>
        <time>2020-06-28T09:38:41.000Z</time>
      </trkpt>
      <trkpt lat="45.70701" lon="6.59675">
        <ele>892</ele>
        <time>2020-06-28T09:38:43.000Z</time>
      </trkpt>
      <trkpt lat="45.70701" lon="6.59656">
        <ele>891</ele>
        <time>2020-06-28T09:38:44.000Z</time>
      </trkpt>
      <trkpt lat="45.70701" lon="6.59638">
        <ele>890.20001220703</ele>
        <time>2020-06-28T09:38:45.000Z</time>
      </trkpt>
      <trkpt lat="45.70701" lon="6.59601">
        <ele>888.40002441406</ele>
        <time>2020-06-28T09:38:47.000Z</time>
      </trkpt>
      <trkpt lat="45.70701" lon="6.59585">
        <ele>887.40002441406</ele>
        <time>2020-06-28T09:38:48.000Z</time>
      </trkpt>
      <trkpt lat="45.70701" lon="6.5957">
        <ele>886.20001220703</ele>
        <time>2020-06-28T09:38:49.000Z</time>
      </trkpt>
      <trkpt lat="45.70701" lon="6.59555">
        <ele>885</ele>
        <time>2020-06-28T09:38:50.000Z</time>
      </trkpt>
      <trkpt lat="45.70704" lon="6.59526">
        <ele>882.79998779297</ele>
        <time>2020-06-28T09:38:52.000Z</time>
      </trkpt>
      <trkpt lat="45.70706" lon="6.5951">
        <ele>882.40002441406</ele>
        <time>2020-06-28T09:38:53.000Z</time>
      </trkpt>
      <trkpt lat="45.7071" lon="6.59464">
        <ele>881.79998779297</ele>
        <time>2020-06-28T09:38:56.000Z</time>
      </trkpt>
      <trkpt lat="45.70712" lon="6.59417">
        <ele>880.79998779297</ele>
        <time>2020-06-28T09:38:59.000Z</time>
      </trkpt>
      <trkpt lat="45.70713" lon="6.59405">
        <ele>879.59997558594</ele>
        <time>2020-06-28T09:39:00.000Z</time>
      </trkpt>
      <trkpt lat="45.70715" lon="6.59393">
        <ele>878.59997558594</ele>
        <time>2020-06-28T09:39:01.000Z</time>
      </trkpt>
      <trkpt lat="45.70719" lon="6.59381">
        <ele>877.59997558594</ele>
        <time>2020-06-28T09:39:02.000Z</time>
      </trkpt>
      <trkpt lat="45.70723" lon="6.59369">
        <ele>877</ele>
        <time>2020-06-28T09:39:03.000Z</time>
      </trkpt>
      <trkpt lat="45.70741" lon="6.59329">
        <ele>875.40002441406</ele>
        <time>2020-06-28T09:39:06.000Z</time>
      </trkpt>
      <trkpt lat="45.70746" lon="6.59316">
        <ele>875</ele>
        <time>2020-06-28T09:39:07.000Z</time>
      </trkpt>
      <trkpt lat="45.70758" lon="6.59292">
        <ele>874.40002441406</ele>
        <time>2020-06-28T09:39:09.000Z</time>
      </trkpt>
      <trkpt lat="45.70763" lon="6.59279">
        <ele>874.20001220703</ele>
        <time>2020-06-28T09:39:10.000Z</time>
      </trkpt>
      <trkpt lat="45.70766" lon="6.59264">
        <ele>873.59997558594</ele>
        <time>2020-06-28T09:39:11.000Z</time>
      </trkpt>
      <trkpt lat="45.70769" lon="6.5925">
        <ele>872.40002441406</ele>
        <time>2020-06-28T09:39:12.000Z</time>
      </trkpt>
      <trkpt lat="45.70771" lon="6.59237">
        <ele>871.40002441406</ele>
        <time>2020-06-28T09:39:13.000Z</time>
      </trkpt>
      <trkpt lat="45.70779" lon="6.59214">
        <ele>869.79998779297</ele>
        <time>2020-06-28T09:39:15.000Z</time>
      </trkpt>
      <trkpt lat="45.70798" lon="6.59189">
        <ele>868.20001220703</ele>
        <time>2020-06-28T09:39:18.000Z</time>
      </trkpt>
      <trkpt lat="45.70813" lon="6.59179">
        <ele>866.20001220703</ele>
        <time>2020-06-28T09:39:20.000Z</time>
      </trkpt>
      <trkpt lat="45.70822" lon="6.59176">
        <ele>865.79998779297</ele>
        <time>2020-06-28T09:39:21.000Z</time>
      </trkpt>
      <trkpt lat="45.70839" lon="6.59173">
        <ele>865.40002441406</ele>
        <time>2020-06-28T09:39:23.000Z</time>
      </trkpt>
      <trkpt lat="45.70856" lon="6.59168">
        <ele>863.40002441406</ele>
        <time>2020-06-28T09:39:25.000Z</time>
      </trkpt>
      <trkpt lat="45.70864" lon="6.59163">
        <ele>862.20001220703</ele>
        <time>2020-06-28T09:39:26.000Z</time>
      </trkpt>
      <trkpt lat="45.70877" lon="6.59144">
        <ele>860.79998779297</ele>
        <time>2020-06-28T09:39:28.000Z</time>
      </trkpt>
      <trkpt lat="45.70884" lon="6.59132">
        <ele>860.20001220703</ele>
        <time>2020-06-28T09:39:29.000Z</time>
      </trkpt>
      <trkpt lat="45.70891" lon="6.59121">
        <ele>859.59997558594</ele>
        <time>2020-06-28T09:39:30.000Z</time>
      </trkpt>
      <trkpt lat="45.70913" lon="6.59086">
        <ele>858.40002441406</ele>
        <time>2020-06-28T09:39:33.000Z</time>
      </trkpt>
      <trkpt lat="45.70929" lon="6.59063">
        <ele>856.79998779297</ele>
        <time>2020-06-28T09:39:35.000Z</time>
      </trkpt>
      <trkpt lat="45.70943" lon="6.5904">
        <ele>855.59997558594</ele>
        <time>2020-06-28T09:39:37.000Z</time>
      </trkpt>
      <trkpt lat="45.7095" lon="6.59028">
        <ele>854.40002441406</ele>
        <time>2020-06-28T09:39:38.000Z</time>
      </trkpt>
      <trkpt lat="45.70957" lon="6.59016">
        <ele>853.20001220703</ele>
        <time>2020-06-28T09:39:39.000Z</time>
      </trkpt>
      <trkpt lat="45.70965" lon="6.59006">
        <ele>852.20001220703</ele>
        <time>2020-06-28T09:39:40.000Z</time>
      </trkpt>
      <trkpt lat="45.70974" lon="6.58998">
        <ele>851</ele>
        <time>2020-06-28T09:39:41.000Z</time>
      </trkpt>
      <trkpt lat="45.70982" lon="6.5899">
        <ele>850</ele>
        <time>2020-06-28T09:39:42.000Z</time>
      </trkpt>
      <trkpt lat="45.70996" lon="6.58974">
        <ele>848</ele>
        <time>2020-06-28T09:39:44.000Z</time>
      </trkpt>
      <trkpt lat="45.71001" lon="6.58964">
        <ele>846.79998779297</ele>
        <time>2020-06-28T09:39:45.000Z</time>
      </trkpt>
      <trkpt lat="45.71006" lon="6.58957">
        <ele>845.59997558594</ele>
        <time>2020-06-28T09:39:46.000Z</time>
      </trkpt>
      <trkpt lat="45.71012" lon="6.58953">
        <ele>844.79998779297</ele>
        <time>2020-06-28T09:39:47.000Z</time>
      </trkpt>
      <trkpt lat="45.71018" lon="6.5895">
        <ele>843</ele>
        <time>2020-06-28T09:39:48.000Z</time>
      </trkpt>
      <trkpt lat="45.71024" lon="6.58948">
        <ele>842.40002441406</ele>
        <time>2020-06-28T09:39:49.000Z</time>
      </trkpt>
      <trkpt lat="45.71029" lon="6.58949">
        <ele>841.79998779297</ele>
        <time>2020-06-28T09:39:50.000Z</time>
      </trkpt>
      <trkpt lat="45.71031" lon="6.58953">
        <ele>841.40002441406</ele>
        <time>2020-06-28T09:39:51.000Z</time>
      </trkpt>
      <trkpt lat="45.71026" lon="6.58967">
        <ele>841</ele>
        <time>2020-06-28T09:39:53.000Z</time>
      </trkpt>
      <trkpt lat="45.71007" lon="6.5899">
        <ele>840.79998779297</ele>
        <time>2020-06-28T09:39:56.000Z</time>
      </trkpt>
      <trkpt lat="45.71" lon="6.58995">
        <ele>840.59997558594</ele>
        <time>2020-06-28T09:39:57.000Z</time>
      </trkpt>
      <trkpt lat="45.7099" lon="6.59008">
        <ele>839.79998779297</ele>
        <time>2020-06-28T09:39:59.000Z</time>
      </trkpt>
      <trkpt lat="45.70989" lon="6.59014">
        <ele>839.20001220703</ele>
        <time>2020-06-28T09:40:00.000Z</time>
      </trkpt>
      <trkpt lat="45.70992" lon="6.59024">
        <ele>837.59997558594</ele>
        <time>2020-06-28T09:40:02.000Z</time>
      </trkpt>
      <trkpt lat="45.71005" lon="6.5902">
        <ele>836</ele>
        <time>2020-06-28T09:40:04.000Z</time>
      </trkpt>
      <trkpt lat="45.71026" lon="6.59011">
        <ele>835.20001220703</ele>
        <time>2020-06-28T09:40:06.000Z</time>
      </trkpt>
      <trkpt lat="45.71039" lon="6.59008">
        <ele>835</ele>
        <time>2020-06-28T09:40:07.000Z</time>
      </trkpt>
      <trkpt lat="45.71051" lon="6.59003">
        <ele>834.40002441406</ele>
        <time>2020-06-28T09:40:08.000Z</time>
      </trkpt>
      <trkpt lat="45.71073" lon="6.58988">
        <ele>833</ele>
        <time>2020-06-28T09:40:10.000Z</time>
      </trkpt>
      <trkpt lat="45.71085" lon="6.58981">
        <ele>832.40002441406</ele>
        <time>2020-06-28T09:40:11.000Z</time>
      </trkpt>
      <trkpt lat="45.71096" lon="6.58974">
        <ele>831.40002441406</ele>
        <time>2020-06-28T09:40:12.000Z</time>
      </trkpt>
      <trkpt lat="45.71105" lon="6.58965">
        <ele>830.20001220703</ele>
        <time>2020-06-28T09:40:13.000Z</time>
      </trkpt>
      <trkpt lat="45.71113" lon="6.58954">
        <ele>829</ele>
        <time>2020-06-28T09:40:14.000Z</time>
      </trkpt>
      <trkpt lat="45.71121" lon="6.58942">
        <ele>828</ele>
        <time>2020-06-28T09:40:15.000Z</time>
      </trkpt>
      <trkpt lat="45.71127" lon="6.58928">
        <ele>825.20001220703</ele>
        <time>2020-06-28T09:40:16.000Z</time>
      </trkpt>
      <trkpt lat="45.71131" lon="6.58908">
        <ele>824.20001220703</ele>
        <time>2020-06-28T09:40:17.000Z</time>
      </trkpt>
      <trkpt lat="45.71136" lon="6.58891">
        <ele>823.20001220703</ele>
        <time>2020-06-28T09:40:18.000Z</time>
      </trkpt>
      <trkpt lat="45.7114" lon="6.58874">
        <ele>822.40002441406</ele>
        <time>2020-06-28T09:40:19.000Z</time>
      </trkpt>
      <trkpt lat="45.71145" lon="6.58855">
        <ele>821.20001220703</ele>
        <time>2020-06-28T09:40:20.000Z</time>
      </trkpt>
      <trkpt lat="45.71155" lon="6.58821">
        <ele>819.40002441406</ele>
        <time>2020-06-28T09:40:22.000Z</time>
      </trkpt>
      <trkpt lat="45.71162" lon="6.58805">
        <ele>818.40002441406</ele>
        <time>2020-06-28T09:40:23.000Z</time>
      </trkpt>
      <trkpt lat="45.71167" lon="6.58785">
        <ele>817</ele>
        <time>2020-06-28T09:40:24.000Z</time>
      </trkpt>
      <trkpt lat="45.71176" lon="6.5877">
        <ele>815.40002441406</ele>
        <time>2020-06-28T09:40:25.000Z</time>
      </trkpt>
      <trkpt lat="45.71186" lon="6.58755">
        <ele>814.20001220703</ele>
        <time>2020-06-28T09:40:26.000Z</time>
      </trkpt>
      <trkpt lat="45.71193" lon="6.58735">
        <ele>812.79998779297</ele>
        <time>2020-06-28T09:40:27.000Z</time>
      </trkpt>
      <trkpt lat="45.71197" lon="6.58712">
        <ele>811.59997558594</ele>
        <time>2020-06-28T09:40:28.000Z</time>
      </trkpt>
      <trkpt lat="45.71202" lon="6.58692">
        <ele>810.20001220703</ele>
        <time>2020-06-28T09:40:29.000Z</time>
      </trkpt>
      <trkpt lat="45.7121" lon="6.58652">
        <ele>808.59997558594</ele>
        <time>2020-06-28T09:40:31.000Z</time>
      </trkpt>
      <trkpt lat="45.71211" lon="6.58629">
        <ele>807.59997558594</ele>
        <time>2020-06-28T09:40:32.000Z</time>
      </trkpt>
      <trkpt lat="45.71213" lon="6.58608">
        <ele>806.40002441406</ele>
        <time>2020-06-28T09:40:33.000Z</time>
      </trkpt>
      <trkpt lat="45.71215" lon="6.58588">
        <ele>805.20001220703</ele>
        <time>2020-06-28T09:40:34.000Z</time>
      </trkpt>
      <trkpt lat="45.71218" lon="6.58569">
        <ele>803.59997558594</ele>
        <time>2020-06-28T09:40:35.000Z</time>
      </trkpt>
      <trkpt lat="45.71221" lon="6.58551">
        <ele>802.59997558594</ele>
        <time>2020-06-28T09:40:36.000Z</time>
      </trkpt>
      <trkpt lat="45.7123" lon="6.58521">
        <ele>800.79998779297</ele>
        <time>2020-06-28T09:40:38.000Z</time>
      </trkpt>
      <trkpt lat="45.71234" lon="6.58506">
        <ele>799.79998779297</ele>
        <time>2020-06-28T09:40:39.000Z</time>
      </trkpt>
      <trkpt lat="45.71241" lon="6.58491">
        <ele>798.59997558594</ele>
        <time>2020-06-28T09:40:40.000Z</time>
      </trkpt>
      <trkpt lat="45.7125" lon="6.5848">
        <ele>798</ele>
        <time>2020-06-28T09:40:41.000Z</time>
      </trkpt>
      <trkpt lat="45.71264" lon="6.58446">
        <ele>795.20001220703</ele>
        <time>2020-06-28T09:40:43.000Z</time>
      </trkpt>
      <trkpt lat="45.71274" lon="6.58433">
        <ele>793.20001220703</ele>
        <time>2020-06-28T09:40:44.000Z</time>
      </trkpt>
      <trkpt lat="45.71288" lon="6.58397">
        <ele>792.20001220703</ele>
        <time>2020-06-28T09:40:46.000Z</time>
      </trkpt>
      <trkpt lat="45.71303" lon="6.5831">
        <ele>791.20001220703</ele>
        <time>2020-06-28T09:40:50.000Z</time>
      </trkpt>
      <trkpt lat="45.71305" lon="6.58286">
        <ele>790.79998779297</ele>
        <time>2020-06-28T09:40:51.000Z</time>
      </trkpt>
      <trkpt lat="45.71306" lon="6.58261">
        <ele>789.40002441406</ele>
        <time>2020-06-28T09:40:52.000Z</time>
      </trkpt>
      <trkpt lat="45.71307" lon="6.58238">
        <ele>788.20001220703</ele>
        <time>2020-06-28T09:40:53.000Z</time>
      </trkpt>
      <trkpt lat="45.71308" lon="6.58194">
        <ele>786.40002441406</ele>
        <time>2020-06-28T09:40:55.000Z</time>
      </trkpt>
      <trkpt lat="45.71313" lon="6.5816">
        <ele>785</ele>
        <time>2020-06-28T09:40:57.000Z</time>
      </trkpt>
      <trkpt lat="45.71321" lon="6.58124">
        <ele>783.20001220703</ele>
        <time>2020-06-28T09:40:59.000Z</time>
      </trkpt>
      <trkpt lat="45.71327" lon="6.58085">
        <ele>781.59997558594</ele>
        <time>2020-06-28T09:41:01.000Z</time>
      </trkpt>
      <trkpt lat="45.71332" lon="6.58048">
        <ele>780.40002441406</ele>
        <time>2020-06-28T09:41:03.000Z</time>
      </trkpt>
      <trkpt lat="45.71333" lon="6.5803">
        <ele>779.40002441406</ele>
        <time>2020-06-28T09:41:04.000Z</time>
      </trkpt>
      <trkpt lat="45.71332" lon="6.58012">
        <ele>778.20001220703</ele>
        <time>2020-06-28T09:41:05.000Z</time>
      </trkpt>
      <trkpt lat="45.71335" lon="6.57997">
        <ele>777.20001220703</ele>
        <time>2020-06-28T09:41:06.000Z</time>
      </trkpt>
      <trkpt lat="45.7134" lon="6.57982">
        <ele>776</ele>
        <time>2020-06-28T09:41:07.000Z</time>
      </trkpt>
      <trkpt lat="45.71348" lon="6.57968">
        <ele>774.79998779297</ele>
        <time>2020-06-28T09:41:08.000Z</time>
      </trkpt>
      <trkpt lat="45.71354" lon="6.5795">
        <ele>773.59997558594</ele>
        <time>2020-06-28T09:41:09.000Z</time>
      </trkpt>
      <trkpt lat="45.71361" lon="6.57933">
        <ele>772.40002441406</ele>
        <time>2020-06-28T09:41:10.000Z</time>
      </trkpt>
      <trkpt lat="45.71371" lon="6.57918">
        <ele>771</ele>
        <time>2020-06-28T09:41:11.000Z</time>
      </trkpt>
      <trkpt lat="45.71379" lon="6.57902">
        <ele>769</ele>
        <time>2020-06-28T09:41:12.000Z</time>
      </trkpt>
      <trkpt lat="45.71389" lon="6.57887">
        <ele>767.79998779297</ele>
        <time>2020-06-28T09:41:13.000Z</time>
      </trkpt>
      <trkpt lat="45.71397" lon="6.57869">
        <ele>766.40002441406</ele>
        <time>2020-06-28T09:41:14.000Z</time>
      </trkpt>
      <trkpt lat="45.71406" lon="6.57854">
        <ele>765</ele>
        <time>2020-06-28T09:41:15.000Z</time>
      </trkpt>
      <trkpt lat="45.71414" lon="6.57837">
        <ele>763.79998779297</ele>
        <time>2020-06-28T09:41:16.000Z</time>
      </trkpt>
      <trkpt lat="45.7142" lon="6.57818">
        <ele>762.59997558594</ele>
        <time>2020-06-28T09:41:17.000Z</time>
      </trkpt>
      <trkpt lat="45.71425" lon="6.578">
        <ele>761.40002441406</ele>
        <time>2020-06-28T09:41:18.000Z</time>
      </trkpt>
      <trkpt lat="45.71428" lon="6.57781">
        <ele>760.40002441406</ele>
        <time>2020-06-28T09:41:19.000Z</time>
      </trkpt>
      <trkpt lat="45.7143" lon="6.57759">
        <ele>759.40002441406</ele>
        <time>2020-06-28T09:41:20.000Z</time>
      </trkpt>
      <trkpt lat="45.71435" lon="6.5772">
        <ele>757.79998779297</ele>
        <time>2020-06-28T09:41:22.000Z</time>
      </trkpt>
      <trkpt lat="45.71443" lon="6.57683">
        <ele>756.40002441406</ele>
        <time>2020-06-28T09:41:24.000Z</time>
      </trkpt>
      <trkpt lat="45.71449" lon="6.57666">
        <ele>755.79998779297</ele>
        <time>2020-06-28T09:41:25.000Z</time>
      </trkpt>
      <trkpt lat="45.71459" lon="6.57651">
        <ele>755.20001220703</ele>
        <time>2020-06-28T09:41:26.000Z</time>
      </trkpt>
      <trkpt lat="45.71471" lon="6.57642">
        <ele>754.79998779297</ele>
        <time>2020-06-28T09:41:27.000Z</time>
      </trkpt>
      <trkpt lat="45.71497" lon="6.57631">
        <ele>754.20001220703</ele>
        <time>2020-06-28T09:41:29.000Z</time>
      </trkpt>
      <trkpt lat="45.71508" lon="6.57628">
        <ele>753.79998779297</ele>
        <time>2020-06-28T09:41:30.000Z</time>
      </trkpt>
      <trkpt lat="45.71529" lon="6.57627">
        <ele>753</ele>
        <time>2020-06-28T09:41:32.000Z</time>
      </trkpt>
      <trkpt lat="45.71538" lon="6.57627">
        <ele>752.20001220703</ele>
        <time>2020-06-28T09:41:33.000Z</time>
      </trkpt>
      <trkpt lat="45.71546" lon="6.57628">
        <ele>751.79998779297</ele>
        <time>2020-06-28T09:41:34.000Z</time>
      </trkpt>
      <trkpt lat="45.7156" lon="6.5763">
        <ele>750.20001220703</ele>
        <time>2020-06-28T09:41:36.000Z</time>
      </trkpt>
      <trkpt lat="45.71566" lon="6.5763">
        <ele>749.79998779297</ele>
        <time>2020-06-28T09:41:37.000Z</time>
      </trkpt>
      <trkpt lat="45.71581" lon="6.57629">
        <ele>749.20001220703</ele>
        <time>2020-06-28T09:41:39.000Z</time>
      </trkpt>
      <trkpt lat="45.7161" lon="6.57626">
        <ele>748.40002441406</ele>
        <time>2020-06-28T09:41:43.000Z</time>
      </trkpt>
      <trkpt lat="45.71625" lon="6.57624">
        <ele>747.79998779297</ele>
        <time>2020-06-28T09:41:45.000Z</time>
      </trkpt>
      <trkpt lat="45.71643" lon="6.57618">
        <ele>747</ele>
        <time>2020-06-28T09:41:48.000Z</time>
      </trkpt>
      <trkpt lat="45.71649" lon="6.57615">
        <ele>746.59997558594</ele>
        <time>2020-06-28T09:41:49.000Z</time>
      </trkpt>
      <trkpt lat="45.71666" lon="6.57611">
        <ele>745.40002441406</ele>
        <time>2020-06-28T09:41:52.000Z</time>
      </trkpt>
      <trkpt lat="45.71675" lon="6.57609">
        <ele>744.79998779297</ele>
        <time>2020-06-28T09:41:54.000Z</time>
      </trkpt>
      <trkpt lat="45.71681" lon="6.57605">
        <ele>744.40002441406</ele>
        <time>2020-06-28T09:41:56.000Z</time>
      </trkpt>
      <trkpt lat="45.71692" lon="6.57597">
        <ele>744</ele>
        <time>2020-06-28T09:41:59.000Z</time>
      </trkpt>
      <trkpt lat="45.717" lon="6.57591">
        <ele>743.59997558594</ele>
        <time>2020-06-28T09:42:01.000Z</time>
      </trkpt>
      <trkpt lat="45.71708" lon="6.57583">
        <ele>743.40002441406</ele>
        <time>2020-06-28T09:42:03.000Z</time>
      </trkpt>
      <trkpt lat="45.71712" lon="6.57579">
        <ele>743.40002441406</ele>
        <time>2020-06-28T09:42:04.000Z</time>
      </trkpt>
      <trkpt lat="45.71721" lon="6.57571">
        <ele>743</ele>
        <time>2020-06-28T09:42:06.000Z</time>
      </trkpt>
      <trkpt lat="45.71728" lon="6.57562">
        <ele>742.40002441406</ele>
        <time>2020-06-28T09:42:08.000Z</time>
      </trkpt>
      <trkpt lat="45.71742" lon="6.57553">
        <ele>741.79998779297</ele>
        <time>2020-06-28T09:42:12.000Z</time>
      </trkpt>
      <trkpt lat="45.71746" lon="6.57552">
        <ele>741.59997558594</ele>
        <time>2020-06-28T09:42:13.000Z</time>
      </trkpt>
      <trkpt lat="45.71755" lon="6.5755">
        <ele>741.40002441406</ele>
        <time>2020-06-28T09:42:15.000Z</time>
      </trkpt>
      <trkpt lat="45.71766" lon="6.57545">
        <ele>741.20001220703</ele>
        <time>2020-06-28T09:42:17.000Z</time>
      </trkpt>
      <trkpt lat="45.71771" lon="6.57542">
        <ele>741.20001220703</ele>
        <time>2020-06-28T09:42:18.000Z</time>
      </trkpt>
      <trkpt lat="45.71794" lon="6.57518">
        <ele>740.59997558594</ele>
        <time>2020-06-28T09:42:23.000Z</time>
      </trkpt>
      <trkpt lat="45.71802" lon="6.57508">
        <ele>740</ele>
        <time>2020-06-28T09:42:25.000Z</time>
      </trkpt>
      <trkpt lat="45.7181" lon="6.57497">
        <ele>739.20001220703</ele>
        <time>2020-06-28T09:42:27.000Z</time>
      </trkpt>
      <trkpt lat="45.71827" lon="6.57475">
        <ele>738.59997558594</ele>
        <time>2020-06-28T09:42:31.000Z</time>
      </trkpt>
      <trkpt lat="45.71841" lon="6.57457">
        <ele>738</ele>
        <time>2020-06-28T09:42:35.000Z</time>
      </trkpt>
      <trkpt lat="45.71852" lon="6.57447">
        <ele>737.20001220703</ele>
        <time>2020-06-28T09:42:39.000Z</time>
      </trkpt>
      <trkpt lat="45.71855" lon="6.57445">
        <ele>737</ele>
        <time>2020-06-28T09:42:40.000Z</time>
      </trkpt>
      <trkpt lat="45.71864" lon="6.5743">
        <ele>737</ele>
        <time>2020-06-28T09:42:46.000Z</time>
      </trkpt>
      <trkpt lat="45.71869" lon="6.57425">
        <ele>736.40002441406</ele>
        <time>2020-06-28T09:42:51.000Z</time>
      </trkpt>
    </trkseg>
  </trk>
</gpx>